ECMWFFLT1_850_thetae_000.txt.gz
Theta_e
315 315 312 310 309 308 307 308 307 306 306 307 307 311 314 313 312 310 308 308 309 309 309 308 306 308 310 311 314 316 318 320 321 323 324 323 324 325 324 325 324 324 325 325 325 326 325 325 323 318 318 322 323 323 324 326 328 329 328 328 328 328 329
315 315 313 311 309 308 308 307 307 307 306 306 306 306 307 306 305 305 304 304 304 305 306 305 304 304 304 306 307 309 312 315 316 318 320 319 321 322 322 323 322 322 324 324 323 324 324 324 324 322 321 322 321 320 321 322 323 325 327 328 328 327 329
314 313 314 313 311 310 309 308 309 310 308 306 306 305 305 305 305 305 304 304 304 304 304 304 303 303 303 303 303 304 305 307 308 309 311 312 312 314 316 318 319 321 321 322 322 322 321 322 322 323 322 320 318 316 314 314 317 321 324 326 326 326 327
312 311 313 313 311 312 313 311 312 314 311 307 306 306 306 305 305 305 305 305 304 304 304 304 304 304 304 303 303 303 302 302 303 303 303 304 304 305 307 308 311 314 314 316 318 315 314 317 318 319 319 318 317 316 313 316 319 320 321 323 324 324 326
311 310 313 314 313 313 315 314 314 315 314 310 307 306 306 306 305 305 305 305 304 304 304 304 305 305 305 305 304 304 303 303 303 302 302 302 302 302 302 302 303 304 305 307 309 307 308 310 311 313 315 315 317 318 317 318 320 320 321 322 323 323 325
311 311 314 316 315 315 316 316 314 315 315 313 311 309 307 306 306 305 305 305 305 305 304 305 305 305 305 305 305 304 304 304 304 304 303 303 303 302 303 302 302 302 302 303 303 303 305 306 309 313 315 314 315 315 315 316 317 318 320 322 322 323 324
312 311 314 316 317 316 316 316 314 315 316 315 314 313 308 306 306 306 306 305 305 305 305 305 305 305 305 305 305 304 304 304 304 304 304 303 303 303 303 303 303 303 303 303 302 303 304 304 308 311 310 310 310 310 312 314 316 317 318 320 322 322 322
313 311 312 315 317 316 316 316 315 314 315 315 316 315 309 306 307 306 306 305 305 305 304 304 305 304 305 304 304 304 304 304 304 303 303 303 302 302 302 302 302 302 302 303 303 303 303 304 304 305 305 308 310 310 311 312 314 317 319 319 320 320 321
312 312 313 314 314 314 315 315 315 314 314 315 316 314 309 307 307 306 306 306 305 305 304 304 304 304 304 304 304 304 304 304 304 303 302 302 301 301 301 301 301 301 301 302 302 302 303 303 303 303 304 308 311 312 312 312 313 316 318 320 320 319 321
310 310 311 311 310 311 312 313 315 314 313 314 315 312 308 308 307 307 307 306 306 306 305 304 304 304 304 304 304 304 304 304 304 303 302 302 301 301 300 300 299 300 300 300 301 301 301 302 302 302 303 306 310 312 313 313 314 314 315 317 319 318 319
311 310 309 309 309 310 310 311 313 313 312 313 313 312 310 309 308 307 307 307 307 307 306 305 305 304 304 304 304 303 303 303 303 303 303 302 302 301 300 299 299 300 300 299 299 299 300 301 301 302 303 305 308 310 312 314 314 314 313 314 316 319 320
313 311 310 309 309 310 310 311 312 312 312 312 312 312 312 311 309 308 307 307 307 307 307 306 306 305 304 304 303 303 303 303 303 303 303 303 302 301 301 300 299 299 298 299 300 299 299 300 300 301 303 304 306 307 309 311 313 313 313 314 315 316 317
313 312 311 311 310 310 310 310 311 312 313 312 312 312 312 312 311 310 308 307 307 307 307 307 306 306 305 304 304 303 303 303 303 303 303 303 303 302 301 300 299 298 296 298 301 300 300 300 299 300 301 303 304 304 305 308 312 312 312 313 313 313 313
314 314 313 312 311 311 310 310 311 312 313 313 313 313 312 313 313 311 310 308 308 307 307 307 307 307 307 306 305 304 303 303 303 303 303 303 303 302 301 300 299 298 297 297 298 301 304 303 303 304 304 303 304 305 305 307 310 311 311 311 312 312 312
313 313 314 314 314 313 313 311 311 311 312 314 314 314 313 313 313 313 312 310 309 308 307 307 307 307 307 307 307 306 304 303 303 303 303 303 303 303 302 301 300 299 297 296 297 300 304 304 304 306 306 305 304 304 303 304 307 308 309 309 309 310 310
314 313 312 312 313 314 314 314 313 312 312 314 315 315 314 314 314 314 313 312 311 310 309 309 308 308 308 308 308 307 306 305 304 303 303 303 303 303 302 302 301 299 298 297 296 298 301 302 303 305 305 305 305 304 303 301 301 304 306 306 306 306 308
319 318 317 315 314 314 314 315 315 314 314 314 315 316 315 314 314 315 315 313 312 312 311 310 310 309 309 309 309 308 307 306 305 304 303 303 303 303 302 301 301 299 298 298 297 298 301 302 302 303 304 305 305 306 305 303 303 303 305 306 305 304 305
320 320 320 319 317 315 314 314 314 315 315 315 316 317 317 316 315 315 315 314 313 313 312 311 311 311 311 311 310 309 308 307 305 304 303 303 303 302 301 300 299 298 298 297 297 298 300 299 299 300 302 303 304 305 305 305 305 305 305 306 306 305 304
320 320 320 320 319 317 316 314 314 314 315 316 316 317 317 317 316 315 315 315 314 313 312 312 311 311 312 312 312 311 309 307 306 304 303 303 302 301 300 298 298 297 297 296 297 297 297 296 297 299 300 301 302 302 303 303 304 304 305 305 306 306 306
321 322 323 322 321 320 320 318 318 317 316 316 316 317 317 317 316 316 316 316 315 314 313 313 312 312 312 312 312 312 310 307 306 304 303 302 302 300 298 297 296 296 296 295 295 295 295 295 297 299 300 302 302 302 302 302 302 302 303 303 304 305 306
317 319 320 322 322 323 322 321 321 320 319 318 317 317 317 316 315 316 316 316 316 315 314 313 312 312 312 312 312 312 309 307 305 304 303 302 302 300 297 296 295 295 294 294 294 294 294 294 295 296 298 300 301 302 302 302 302 302 302 303 304 304 305
311 312 313 316 318 321 323 323 322 322 321 321 320 318 318 317 315 315 316 316 316 315 314 314 313 312 312 312 312 310 308 306 304 303 302 302 300 298 296 294 294 294 293 293 293 293 293 293 293 293 294 296 299 300 301 302 302 302 303 303 304 304 304
308 308 309 309 311 315 319 322 322 322 322 321 321 320 319 318 316 314 315 316 316 316 315 314 313 313 312 312 311 309 307 305 304 303 302 300 297 296 295 294 294 294 293 293 293 293 293 293 293 293 293 294 295 297 299 300 301 302 302 303 303 303 304
306 306 307 308 308 309 315 319 321 321 321 320 320 320 319 318 317 315 314 315 316 316 315 314 313 313 312 311 310 308 306 304 303 302 300 298 296 295 295 294 294 293 293 293 293 293 293 293 294 294 294 294 294 295 295 296 298 299 301 302 302 302 303
304 305 305 306 307 307 312 316 318 319 320 319 318 319 319 318 317 316 314 314 315 315 314 314 313 312 311 310 308 307 305 304 303 300 299 297 296 295 295 295 294 293 293 293 293 293 293 294 294 294 294 295 295 295 295 295 295 296 298 299 301 302 302
303 304 305 305 305 306 309 313 316 316 317 318 317 318 319 318 316 315 314 314 314 314 314 314 312 310 309 308 307 305 304 303 301 299 297 296 296 295 295 294 294 294 294 294 294 294 294 294 294 294 294 295 295 296 296 295 295 295 295 296 297 299 300
303 304 304 304 304 304 306 310 313 314 315 316 317 317 317 317 315 314 314 314 314 314 313 312 310 309 307 306 306 305 303 301 299 297 296 296 295 294 294 294 294 295 295 295 295 295 294 294 293 293 294 295 296 296 296 296 296 296 296 296 296 296 297
303 303 303 303 303 304 305 306 309 312 312 313 317 318 317 316 315 314 314 313 313 312 311 310 309 307 306 306 305 303 301 299 298 296 296 295 294 294 294 295 294 294 295 295 295 294 293 293 293 293 294 294 295 295 296 296 297 297 297 298 297 297 298
302 302 302 303 303 303 304 304 305 308 309 310 314 318 317 316 315 314 313 312 312 311 310 308 307 306 306 304 302 301 299 298 297 296 296 295 295 295 296 296 295 295 295 295 294 293 293 293 293 293 294 294 295 295 296 296 296 296 296 297 297 297 298
301 301 301 303 304 304 304 304 305 307 308 307 311 316 317 315 314 312 311 310 310 308 307 306 306 305 304 302 299 298 297 297 297 297 296 296 296 297 297 296 295 295 294 294 293 293 293 294 294 294 294 294 295 295 296 296 296 296 295 295 295 296 296
301 301 301 303 306 307 306 306 307 308 308 308 310 314 315 314 313 311 311 309 307 306 306 305 304 302 300 298 298 297 296 297 297 297 297 297 297 297 297 296 295 294 293 294 294 293 294 294 295 294 294 294 294 295 295 295 296 296 296 295 295 295 295
300 301 300 301 305 307 307 307 309 311 310 310 312 313 314 314 312 310 309 308 306 306 305 303 300 299 298 297 296 295 295 296 297 297 297 297 297 297 297 297 296 295 294 294 294 294 294 295 295 294 294 293 294 294 294 295 295 295 295 295 295 295 295
300 301 300 301 305 308 309 308 309 311 311 311 312 312 313 314 311 307 307 307 305 304 302 300 298 297 296 295 294 294 294 295 296 297 297 297 297 297 297 297 296 296 295 295 294 294 294 294 294 293 293 292 293 293 294 294 294 294 294 294 294 294 294
301 301 301 302 306 309 309 308 308 310 311 312 312 311 313 313 309 306 306 305 302 300 299 297 296 296 295 294 294 294 294 294 295 296 296 296 296 296 296 296 296 296 295 295 295 294 294 294 293 292 292 292 292 292 292 292 292 292 292 292 292 293 293
301 301 302 305 308 309 309 308 309 311 312 313 313 312 312 310 307 305 303 301 299 298 297 296 295 295 295 295 294 294 293 293 292 293 293 293 294 295 295 295 296 296 295 295 294 294 293 292 292 291 292 292 292 291 291 290 290 290 291 291 291 292 292
301 302 302 305 308 308 308 309 310 312 313 312 312 310 309 307 305 302 300 298 297 297 296 296 295 295 295 294 293 292 292 291 291 291 292 292 294 294 295 295 295 295 295 294 293 293 292 292 291 291 292 291 291 291 290 290 290 290 290 290 291 291 291
304 303 303 305 307 308 308 309 310 312 312 310 309 307 306 304 302 299 298 297 297 296 296 296 295 294 293 292 292 292 292 292 293 293 293 294 294 294 294 294 294 294 294 293 293 293 292 292 292 291 291 291 290 290 290 290 290 290 290 291 291 291 291

ECMWFFLT1_850_thetae_003.txt.gz
Theta_e
320 319 319 319 317 317 318 318 318 318 317 317 318 318 317 316 314 314 315 316 316 315 315 317 317 318 319 318 317 320 322 322 323 324 324 324 324 324 324 323 322 322 321 321 323 325 325 324 323 323 320 318 317 318 318 319 321 323 323 324 326 328 330
319 317 317 318 317 316 318 318 319 318 316 315 315 313 311 309 307 307 309 310 312 313 312 313 312 311 311 313 315 316 318 318 318 321 322 322 323 323 323 323 322 322 322 323 324 324 324 324 324 323 322 318 315 315 316 317 318 317 316 317 319 322 326
319 317 317 318 317 317 317 317 318 316 315 313 312 311 310 309 306 306 306 306 307 308 308 307 306 304 303 305 308 307 310 313 311 311 313 315 318 318 319 321 321 321 322 322 323 322 322 323 323 323 323 320 316 314 314 314 313 311 312 314 314 315 318
318 317 318 318 318 318 318 317 318 318 317 313 310 309 309 308 306 306 305 305 305 305 306 306 306 305 304 303 303 302 304 306 304 304 304 305 308 309 310 315 316 317 319 320 320 320 319 320 320 320 320 318 315 312 313 314 313 310 309 310 310 313 317
318 317 319 319 319 319 319 318 319 318 317 315 312 310 308 307 306 306 305 305 305 305 306 306 306 306 306 305 305 304 304 304 304 304 303 303 304 304 304 307 310 313 314 314 314 316 316 316 316 316 315 315 315 314 314 314 314 312 311 310 309 313 319
317 317 318 319 319 319 319 318 318 319 318 317 316 314 309 307 308 307 306 306 305 305 305 306 306 306 307 306 305 305 305 305 305 305 305 304 304 305 304 304 307 312 311 307 306 310 314 313 313 315 315 315 315 313 313 312 313 314 314 315 314 316 320
318 318 318 319 319 318 318 318 317 318 319 318 318 316 311 310 311 308 307 307 305 305 305 305 306 306 309 309 306 305 305 305 306 305 305 305 304 304 304 303 305 307 308 306 305 309 313 313 313 315 314 314 314 313 313 313 313 314 316 318 318 320 322
319 318 318 318 319 318 318 319 317 317 319 318 319 318 312 312 312 308 307 307 306 306 305 305 306 305 307 308 306 305 305 305 306 305 305 304 304 303 303 303 303 303 304 305 306 308 311 312 312 313 312 313 314 314 314 314 313 313 316 318 319 319 320
319 318 318 318 319 319 318 319 317 316 318 318 320 319 314 313 311 308 308 308 307 307 306 305 306 305 305 306 305 305 305 305 305 305 305 304 304 304 303 303 303 303 302 302 303 305 305 305 307 310 312 313 314 314 314 314 314 314 315 317 319 319 319
319 319 318 317 319 319 319 319 318 317 318 318 320 319 315 313 311 309 309 308 307 308 307 306 306 305 305 306 305 305 305 305 305 305 305 305 304 304 304 303 303 303 303 302 302 302 302 302 302 305 310 312 313 313 313 314 314 315 315 314 315 316 317
321 320 319 317 319 320 320 319 318 318 317 317 319 319 315 313 311 309 309 308 308 308 307 307 307 306 306 306 306 305 305 305 305 305 304 305 305 305 304 304 304 304 303 302 302 302 301 301 301 303 308 311 312 313 313 314 314 314 315 314 314 315 316
320 320 320 319 319 320 320 319 319 319 318 317 319 318 316 314 312 310 310 309 308 308 308 308 308 307 307 307 306 306 305 305 305 305 304 304 304 304 305 305 304 304 303 303 304 303 302 302 301 302 306 309 311 312 313 313 313 313 314 315 316 315 314
318 319 320 321 321 320 320 319 319 319 319 318 319 318 316 315 313 312 312 311 309 309 308 308 308 308 307 307 308 308 306 305 306 305 304 304 304 304 305 305 305 304 303 303 305 304 304 304 303 303 305 307 309 310 311 312 313 313 313 313 314 313 313
320 321 320 319 321 322 320 319 318 319 319 319 319 318 317 317 316 314 314 314 312 310 309 309 308 308 308 308 309 309 307 306 307 308 305 304 304 304 304 305 305 304 303 303 303 304 306 308 307 306 308 309 309 309 310 310 311 311 312 312 312 313 313
321 323 320 318 320 322 321 318 317 317 318 319 319 319 318 318 317 315 315 316 315 313 311 310 309 309 309 309 308 309 308 307 308 308 306 304 305 305 304 304 305 304 303 302 301 303 306 307 307 307 307 309 309 308 308 309 309 309 309 309 309 310 311
320 320 318 316 316 318 319 318 318 318 318 318 318 318 318 318 318 317 316 316 317 316 315 313 311 309 309 309 309 309 309 308 308 308 306 305 306 305 304 304 304 304 303 302 301 303 304 305 306 307 306 307 307 307 308 309 309 308 308 308 308 309 310
323 322 321 319 316 315 316 317 318 317 318 319 319 318 318 318 318 318 317 317 317 316 316 314 312 311 310 310 310 310 310 309 309 308 307 306 306 305 304 304 304 304 303 302 301 303 305 306 307 306 305 305 306 306 307 309 309 309 309 309 309 308 308
323 323 322 321 320 319 319 319 318 317 318 318 318 318 318 319 319 319 319 318 317 316 315 314 313 312 311 310 310 311 310 310 310 309 308 307 306 305 304 303 304 303 302 302 301 303 305 305 303 303 304 304 305 305 305 306 307 307 308 308 308 307 307
323 323 322 322 322 322 322 322 321 320 320 320 319 318 318 319 319 319 319 319 318 317 316 315 314 313 312 311 311 311 311 310 311 310 309 307 306 305 304 303 303 302 301 300 300 301 301 300 300 300 302 302 303 303 303 304 304 305 305 306 306 306 307
319 322 322 322 323 324 324 324 323 322 322 321 321 320 319 318 318 319 319 319 319 318 317 316 315 313 313 312 311 311 311 311 311 310 309 308 306 304 303 303 302 301 300 300 299 299 299 298 298 299 301 302 303 304 304 305 305 305 305 305 306 306 306
313 315 316 316 317 318 320 321 323 323 322 321 321 321 321 319 318 319 319 319 320 319 318 317 316 314 314 313 312 312 311 311 311 310 309 307 305 304 303 302 301 301 300 300 299 298 297 297 296 296 298 299 299 300 302 303 304 305 305 305 306 306 306
311 311 311 312 312 313 312 314 317 319 320 320 320 321 321 320 319 319 320 320 320 319 318 317 316 315 314 313 312 312 311 311 310 309 308 306 304 304 302 302 301 301 300 300 298 297 296 295 295 294 295 294 295 296 298 300 302 303 304 305 305 305 306
308 308 309 309 310 310 310 310 311 314 318 321 321 322 322 321 321 320 320 320 319 319 318 317 316 315 314 314 313 312 311 310 308 307 306 305 304 303 302 301 301 300 300 299 298 296 296 295 294 294 294 294 294 294 295 296 297 299 301 302 303 304 304
305 305 305 307 309 311 312 314 315 315 317 318 319 321 322 322 321 320 320 320 319 318 318 317 316 315 314 314 312 311 311 309 307 306 305 304 303 302 302 301 300 300 300 299 298 297 296 295 294 294 295 295 295 294 295 295 295 296 297 298 300 302 303
306 306 307 309 313 314 314 315 317 317 317 315 314 317 320 320 321 321 321 320 318 318 317 316 316 315 314 314 312 311 310 308 306 305 304 303 303 302 301 301 300 300 299 298 297 297 296 296 297 297 297 296 295 295 295 295 295 295 295 296 297 299 300
309 309 309 310 313 315 315 316 316 317 317 314 310 311 314 316 319 320 320 319 317 316 316 315 315 314 314 313 311 310 309 306 305 304 303 302 302 302 301 300 300 299 299 298 298 298 298 299 299 299 298 296 296 296 296 296 296 296 296 296 296 297 297
309 309 309 309 310 312 315 316 316 315 316 315 312 311 312 314 317 319 319 318 317 316 315 314 314 313 313 311 310 309 308 304 303 303 302 302 302 301 300 299 299 298 299 299 299 299 300 300 299 298 297 296 296 296 297 297 297 297 298 298 298 298 298
308 308 308 308 309 311 313 315 315 315 315 315 315 315 314 314 315 317 317 317 316 315 314 313 313 313 312 311 310 309 306 304 303 303 302 301 301 300 299 298 298 297 298 299 299 299 299 298 297 296 296 295 295 296 297 298 298 298 299 299 299 299 299
308 308 308 309 309 310 312 314 315 315 315 315 315 315 315 314 313 314 316 316 315 315 313 313 313 312 311 310 310 308 305 303 303 302 301 301 300 299 299 299 299 299 299 299 300 299 297 296 295 295 295 295 295 296 297 298 298 298 298 298 298 298 299
308 308 308 308 309 310 312 314 315 315 315 315 314 314 314 314 313 314 315 315 314 313 312 312 311 310 310 310 309 306 303 302 301 301 301 301 301 300 300 300 299 300 300 300 299 298 296 296 295 295 295 295 296 296 297 297 298 298 298 298 297 297 297
308 308 308 308 309 310 311 313 314 314 314 314 314 314 314 313 313 314 314 313 312 311 311 311 310 310 309 309 307 305 303 301 301 301 301 301 301 301 300 300 299 299 299 299 298 297 296 296 296 296 295 295 296 296 297 296 297 297 297 297 297 297 297
308 309 309 308 308 309 310 312 313 313 313 313 313 313 313 313 312 312 312 310 309 309 310 310 309 308 307 306 306 305 303 301 301 301 301 301 301 301 301 300 299 299 298 298 297 297 296 296 296 296 296 295 295 296 296 296 296 296 296 296 297 297 297
308 309 309 309 308 308 309 311 312 313 312 312 312 312 312 312 312 311 309 308 307 308 309 308 307 306 305 305 304 302 299 298 299 300 300 300 300 300 300 299 299 298 298 298 297 297 297 296 296 296 296 295 295 295 295 295 294 294 295 295 295 295 295
308 309 309 308 307 307 308 310 311 312 312 312 312 312 312 312 311 309 307 306 306 307 306 306 305 304 303 301 300 296 295 297 299 299 299 298 298 298 298 298 298 297 297 297 297 297 296 296 296 296 296 295 294 294 294 293 293 292 292 292 293 293 293
306 306 307 307 306 306 308 310 311 311 312 312 312 312 312 311 309 307 306 306 305 305 304 303 303 301 299 297 296 294 294 296 296 296 295 295 296 297 297 297 298 298 297 297 297 296 296 296 296 295 295 294 294 293 293 292 292 291 291 291 292 292 292
305 306 306 307 307 307 308 310 310 311 311 311 311 311 312 310 308 306 306 305 304 303 302 300 298 297 295 295 294 294 293 293 293 293 294 294 295 296 296 297 297 297 296 296 295 295 295 295 294 294 294 293 293 292 292 291 291 291 291 291 291 292 292
306 306 307 308 309 309 309 309 310 310 310 310 310 310 311 310 308 306 305 303 301 299 298 297 296 295 294 294 293 293 293 293 293 293 293 293 293 294 295 296 296 295 295 294 294 294 294 294 294 293 293 292 292 291 291 291 291 291 291 291 291 292 292

ECMWFFLT1_850_thetae_006.txt.gz
Theta_e
322 321 319 318 315 310 310 313 314 315 316 316 316 315 314 314 315 317 317 317 316 317 318 318 319 319 321 321 321 322 323 322 324 324 324 324 324 324 323 323 323 323 322 322 322 322 322 322 323 324 324 323 322 320 318 317 318 319 320 321 323 326 326
321 319 316 313 311 312 317 320 317 315 314 312 309 308 307 307 309 311 313 313 314 314 313 312 312 312 314 314 316 319 321 321 322 323 323 323 323 322 322 322 322 322 322 322 323 323 323 323 323 324 324 323 323 321 318 316 316 317 317 317 317 320 322
319 316 317 314 312 316 319 318 314 310 309 308 307 306 306 306 306 307 308 310 310 310 308 306 305 305 306 306 307 310 313 315 317 319 319 319 318 319 319 319 320 321 321 321 321 322 321 321 322 322 321 321 320 318 315 314 313 314 315 314 311 312 316
318 317 318 315 313 315 316 316 315 312 309 308 308 307 306 306 306 306 306 307 307 307 306 305 304 304 303 303 303 303 304 305 306 307 308 307 307 308 311 314 318 319 319 319 320 320 319 318 317 316 315 315 315 314 313 311 308 309 310 310 309 309 311
318 318 318 315 315 315 316 318 318 315 311 308 307 308 307 307 306 306 306 306 306 306 306 307 306 306 305 305 305 304 304 304 304 304 304 304 303 303 304 306 310 312 313 314 314 313 313 312 311 312 313 315 315 314 312 309 307 307 309 311 312 313 313
318 318 318 316 317 318 317 319 319 317 314 310 308 308 307 307 307 306 306 306 306 306 306 307 307 306 306 306 306 306 306 306 306 306 305 305 305 305 304 304 306 307 307 307 306 307 309 310 311 313 314 313 313 310 308 310 311 311 312 315 316 317 317
317 318 319 317 319 320 319 319 319 318 317 314 312 309 308 308 307 307 307 306 306 306 306 306 307 309 309 307 306 306 306 306 306 306 306 306 305 305 305 304 305 306 305 305 304 306 309 311 313 314 312 309 309 310 311 313 314 314 314 315 316 317 319
316 317 319 318 318 320 319 318 318 319 319 317 315 311 308 308 307 307 307 307 307 306 306 306 306 308 309 307 306 306 306 306 306 306 306 305 305 304 304 304 304 304 304 304 304 304 306 307 309 310 310 310 311 311 313 313 314 314 315 315 316 317 317
316 315 319 319 318 319 320 318 317 319 320 319 317 314 311 309 308 308 307 307 307 307 306 306 306 306 307 306 306 306 306 306 306 306 305 305 304 304 304 304 304 303 303 303 303 303 303 303 304 304 307 312 313 313 312 312 313 315 315 315 316 316 316
318 316 318 319 319 318 319 318 317 318 319 319 319 317 313 310 309 308 308 308 308 307 307 307 306 306 306 306 306 306 305 305 305 305 305 305 304 304 304 304 304 304 303 303 303 303 303 302 303 302 303 307 311 312 313 313 312 312 312 314 316 316 315
319 319 318 319 319 319 320 320 318 317 318 319 319 318 316 312 309 309 309 308 308 308 308 307 307 307 307 307 306 306 306 305 305 305 306 305 305 305 305 305 305 304 304 303 303 303 303 302 302 302 302 302 305 307 310 311 309 307 309 311 314 316 315
320 319 318 318 319 319 319 320 319 318 318 319 319 319 317 313 310 309 309 309 309 308 308 308 308 308 308 307 307 307 306 306 306 306 306 306 306 306 306 306 306 306 305 305 305 304 304 304 303 303 303 303 303 303 304 305 304 304 306 307 309 311 311
321 321 320 319 318 319 319 320 320 319 318 318 319 319 317 315 312 310 310 309 309 309 309 309 309 308 308 308 308 308 307 306 306 306 306 306 306 306 306 306 306 306 305 305 305 306 306 306 306 306 306 306 306 306 305 305 304 303 303 303 304 304 305
323 322 321 320 319 319 320 319 319 319 319 319 319 319 319 318 316 314 313 312 310 310 310 309 309 309 309 309 308 308 308 308 307 307 307 306 306 305 305 306 306 306 306 305 304 305 307 308 309 308 307 308 309 310 309 308 307 305 304 303 303 302 301
324 323 321 320 319 319 320 320 319 319 319 319 319 319 319 319 318 318 317 315 314 313 311 310 310 310 309 309 309 309 309 308 308 309 309 307 306 306 305 305 306 306 306 305 304 304 306 307 307 307 307 307 308 308 307 308 308 307 306 305 304 303 302
323 322 321 321 320 320 320 320 319 319 319 319 319 319 319 319 319 319 319 318 317 316 315 313 312 311 310 309 310 310 309 309 309 309 309 308 307 308 307 305 305 306 305 305 305 304 305 305 305 306 306 305 305 306 306 306 307 308 308 308 308 307 306
324 323 322 322 322 321 321 321 321 319 318 318 318 318 319 319 318 318 319 319 319 318 317 316 314 313 312 311 310 310 310 310 309 309 309 308 308 309 308 306 305 305 305 305 305 304 305 306 306 306 305 304 304 305 306 306 307 307 308 308 308 307 306
325 323 322 322 321 321 321 321 321 319 318 318 318 318 319 319 318 318 318 319 320 319 319 318 316 316 314 313 312 311 311 310 310 310 310 309 309 308 308 307 305 305 305 305 304 304 304 305 304 303 303 301 301 303 304 305 305 305 305 306 305 303 304
324 323 323 323 323 322 321 319 319 319 319 319 318 316 317 318 318 318 318 319 319 319 319 319 318 317 316 315 314 312 312 311 311 310 310 310 309 309 308 306 305 305 305 304 304 303 303 303 302 301 301 300 299 301 302 302 302 303 303 304 304 303 303
322 322 322 322 322 322 321 319 318 317 318 318 318 317 317 318 318 319 318 318 319 319 319 320 319 318 317 316 315 314 313 312 312 311 311 311 310 309 309 307 306 304 304 304 303 303 303 302 301 300 299 299 298 299 300 300 300 300 301 303 304 305 305
316 316 316 316 317 318 318 317 316 317 317 317 318 319 319 318 319 319 318 318 319 319 319 319 319 319 318 317 316 315 314 313 312 311 311 311 311 310 310 308 306 304 304 304 303 303 302 301 300 300 298 297 297 297 296 296 296 297 299 301 303 304 305
310 311 311 312 312 313 313 313 313 314 315 315 318 319 319 319 319 320 319 319 318 318 319 319 319 319 318 317 316 315 315 314 313 312 311 311 311 311 310 308 306 305 304 304 303 302 302 302 301 300 298 297 296 296 295 295 295 295 296 297 298 299 300
308 309 310 312 312 311 311 312 312 313 313 315 317 318 319 320 321 321 321 321 320 319 318 318 318 318 318 318 317 316 315 314 313 312 311 311 311 310 309 307 306 305 304 304 304 304 304 303 301 299 298 297 296 296 296 296 295 295 295 295 295 296 296
306 306 309 311 313 314 314 315 316 318 318 316 313 313 315 317 319 319 319 319 320 320 319 319 318 317 318 318 317 316 315 314 313 312 311 310 309 308 307 306 304 304 304 304 304 304 303 302 301 299 298 298 298 297 297 296 296 296 296 296 296 296 296
305 304 305 305 307 309 310 312 313 316 318 316 312 310 310 309 312 315 317 319 321 321 320 320 319 317 317 318 317 316 315 314 313 312 310 309 307 307 306 305 304 303 303 303 303 302 301 300 299 299 299 299 298 298 297 296 296 296 296 296 296 296 296
307 306 305 304 303 303 303 307 311 313 315 316 316 314 309 306 305 308 312 317 320 321 321 320 320 319 317 317 317 316 315 314 313 311 309 307 307 307 306 304 303 303 302 302 302 300 300 299 299 300 300 299 298 297 296 296 295 295 296 296 297 297 297
308 307 305 304 303 303 302 306 311 314 314 315 316 316 313 310 307 305 308 313 316 318 321 321 320 320 318 318 317 315 314 314 312 310 309 307 306 305 304 303 302 302 302 301 301 300 300 300 300 300 300 299 297 296 296 295 295 295 296 297 297 298 298
308 306 304 303 302 302 303 305 309 313 314 314 315 316 316 315 313 310 311 314 315 316 319 320 319 319 318 317 316 315 313 312 311 309 308 306 304 304 304 303 303 302 301 300 300 300 300 300 300 299 299 298 297 296 295 296 296 296 296 297 297 298 298
309 307 305 304 304 304 304 306 309 312 315 315 315 315 315 316 315 314 314 314 314 315 317 318 318 317 317 317 315 313 312 311 310 309 307 306 305 305 304 304 303 301 300 300 300 300 300 299 299 299 298 297 296 296 296 296 296 296 296 297 297 297 298
309 309 307 306 306 306 306 306 308 311 314 315 315 315 314 314 315 315 314 314 313 314 316 316 317 316 316 315 314 312 312 311 310 308 307 306 305 304 303 302 302 301 300 300 300 300 300 300 299 299 298 297 297 296 296 296 296 296 297 296 297 297 297
309 309 308 307 306 306 305 303 306 310 313 314 314 314 314 314 314 314 313 312 313 314 315 315 316 316 315 314 313 312 312 311 309 307 305 304 303 302 302 302 301 301 301 300 300 300 300 299 299 298 298 297 297 296 296 296 296 296 296 296 296 296 296
308 307 307 307 306 305 303 302 305 309 312 313 313 314 314 313 314 314 313 313 313 314 315 315 314 313 313 313 312 311 310 309 307 305 303 302 302 302 302 302 302 301 301 301 300 299 299 299 298 298 297 297 297 296 296 296 296 296 296 295 295 295 295
307 307 308 308 307 305 303 302 303 307 311 313 313 313 313 312 313 313 313 313 313 314 314 313 311 310 311 311 310 309 308 306 305 303 301 301 301 301 301 301 301 301 300 300 299 299 298 298 297 297 297 297 297 296 296 296 296 295 295 295 295 294 294
306 307 308 309 309 307 304 302 302 304 308 312 312 312 312 312 312 312 313 313 313 312 312 310 309 309 309 309 309 308 305 302 302 301 301 301 301 301 300 299 299 299 299 298 298 298 298 297 297 297 297 297 296 296 296 295 295 294 294 294 294 294 293
305 306 307 308 308 307 306 304 303 305 308 310 312 312 312 312 312 312 312 312 312 311 309 308 308 308 308 307 306 303 300 299 299 300 300 300 300 299 298 298 298 298 298 298 298 298 297 297 297 296 296 295 295 295 294 294 293 293 293 293 292 292 292
305 305 306 306 306 307 307 307 307 308 309 310 311 311 311 312 312 312 311 310 310 309 308 307 306 306 305 304 301 299 297 296 296 296 297 297 296 296 296 297 297 297 297 297 297 297 297 296 295 295 294 294 294 293 293 293 292 292 292 292 292 291 291
304 305 305 306 306 307 308 309 309 310 310 310 311 311 311 311 311 311 310 309 309 308 306 305 303 301 300 299 297 296 295 295 294 294 294 294 294 293 294 294 295 295 295 295 295 295 295 295 294 294 294 293 293 293 292 292 292 292 292 292 292 292 292

ECMWFFLT1_850_thetae_009.txt.gz
Theta_e
311 311 311 310 308 307 307 307 308 310 310 311 313 314 316 319 320 321 320 320 322 322 322 322 319 319 322 322 322 323 323 323 324 325 325 325 325 325 324 324 323 323 322 322 321 322 322 322 322 322 323 323 323 322 322 320 318 317 318 320 321 320 321
311 311 313 310 308 308 307 307 307 307 307 306 307 309 311 316 319 318 316 315 318 320 321 320 318 320 321 321 321 321 321 322 323 323 323 323 323 323 323 323 322 322 322 322 322 322 322 322 322 322 321 321 321 319 318 317 316 315 315 317 320 318 315
314 312 312 310 310 310 307 307 307 306 307 306 306 306 307 312 315 315 314 312 309 311 313 312 313 318 320 320 320 319 320 321 321 322 322 322 322 321 321 322 321 321 321 321 321 322 321 320 320 320 320 319 317 314 313 314 313 312 311 311 315 316 314
313 311 310 310 311 310 307 307 307 307 307 306 306 306 306 307 310 310 310 308 305 305 305 304 305 309 312 315 315 313 316 319 319 319 319 317 318 318 319 319 320 321 320 320 320 320 319 319 319 318 315 313 312 311 312 312 311 309 309 309 311 312 313
311 309 309 309 310 309 308 307 307 307 307 307 306 306 306 306 306 307 306 306 306 305 305 304 304 304 304 306 306 306 309 310 310 310 309 308 309 310 313 313 314 317 317 318 319 318 318 317 314 310 308 309 310 311 310 310 311 311 312 313 314 314 314
311 310 309 309 309 309 309 308 307 307 307 307 307 306 306 306 306 306 306 306 306 306 306 306 306 306 305 305 305 305 306 305 305 306 305 305 305 305 307 306 307 309 310 311 311 311 310 309 307 306 307 309 309 308 308 310 312 314 314 315 315 316 316
310 310 310 309 310 310 310 310 310 309 307 306 307 307 307 306 306 306 306 306 306 306 306 306 306 306 306 306 306 306 306 306 306 306 306 306 305 305 305 304 304 305 305 305 305 305 305 306 306 306 306 307 307 306 307 310 313 314 314 315 315 316 317
311 311 311 310 310 310 311 312 312 312 311 308 307 307 307 307 307 307 307 306 306 306 306 307 306 307 306 306 306 306 306 306 306 306 306 305 305 305 305 304 304 304 303 304 303 303 304 304 304 304 303 304 305 305 306 308 312 314 315 315 315 316 317
314 313 312 311 312 313 312 312 313 314 314 313 311 308 307 307 307 307 307 307 307 307 306 306 307 306 306 306 306 306 306 306 305 305 305 305 304 304 304 304 303 303 303 303 303 303 302 303 303 302 303 304 304 304 304 304 307 311 314 314 315 316 317
316 314 313 313 314 316 315 314 314 315 315 315 314 311 308 308 307 307 307 307 307 307 307 307 307 307 306 306 306 305 305 305 305 305 304 304 304 304 304 304 304 304 303 303 303 303 303 303 302 302 303 304 304 306 305 304 303 306 309 310 312 315 316
316 315 316 316 317 317 318 317 316 316 315 315 315 313 311 309 308 308 308 307 307 307 307 307 307 307 306 306 306 305 305 305 305 305 305 304 305 305 305 305 305 305 304 304 304 303 303 302 302 302 303 303 303 304 305 304 304 304 305 305 307 309 311
317 316 318 319 318 318 319 319 318 317 316 316 316 314 313 312 310 309 308 308 308 308 308 307 307 307 307 307 306 306 306 306 306 306 306 306 306 306 306 306 306 306 306 305 305 304 304 303 303 304 305 305 304 305 305 305 304 304 303 303 303 304 304
317 317 319 320 319 318 319 319 319 318 317 317 317 316 315 314 312 311 310 309 309 309 309 308 308 308 308 308 308 307 307 307 307 307 307 307 306 307 307 307 307 307 307 307 307 307 307 306 306 306 306 307 306 306 307 306 306 305 303 303 303 303 302
319 318 318 319 320 319 319 319 319 319 318 318 318 317 317 317 316 315 313 312 311 310 310 309 309 309 309 309 309 308 308 308 308 308 308 308 307 307 307 307 307 307 306 307 307 307 307 308 307 306 307 307 307 307 307 307 306 305 304 304 304 303 303
320 320 319 319 320 319 319 320 319 319 319 318 318 318 318 318 318 318 317 316 315 314 313 312 311 310 309 310 309 309 309 309 309 309 308 309 308 308 308 308 308 307 306 306 306 306 306 306 306 306 307 307 306 306 306 305 305 304 305 305 304 303 303
321 322 321 321 320 319 320 320 319 319 319 318 319 318 319 319 318 319 319 318 318 317 317 316 315 314 312 311 310 310 310 309 309 309 309 309 309 309 309 308 308 308 307 306 306 305 306 306 306 306 306 305 305 304 303 303 304 304 304 304 304 303 302
323 323 322 321 321 320 320 320 320 319 319 319 319 319 320 320 319 319 319 319 318 318 318 318 318 317 316 315 313 312 311 311 310 310 310 309 309 309 309 309 309 308 308 307 306 306 306 307 306 306 305 304 304 303 302 302 303 304 304 303 303 302 301
323 323 323 322 321 320 320 320 320 319 319 319 318 319 320 320 320 320 320 319 319 318 318 318 318 319 318 318 317 315 314 313 311 310 310 310 309 309 309 309 309 308 308 308 307 306 306 306 306 306 305 304 303 303 303 302 302 302 302 301 301 300 299
323 323 323 322 321 320 320 320 320 320 319 318 318 318 319 318 319 319 319 319 319 319 319 318 318 319 319 319 318 317 316 315 314 312 311 310 310 310 310 309 309 309 308 308 306 305 305 305 305 304 304 304 304 304 303 302 301 300 299 299 298 298 298
323 323 323 322 321 321 321 320 320 320 320 319 318 317 318 318 318 318 318 318 319 319 319 319 319 319 319 319 319 318 318 317 315 314 313 312 311 310 310 310 309 309 308 307 306 305 304 304 303 303 303 304 304 304 302 301 299 298 297 297 297 297 297
322 322 323 323 323 322 321 319 320 321 321 320 318 317 317 316 316 316 316 316 317 317 318 319 319 319 319 319 319 319 318 317 316 315 314 313 312 311 311 310 310 309 309 307 306 305 304 303 303 302 303 303 302 301 300 299 298 297 296 296 297 297 297
319 320 321 321 320 320 319 318 319 320 319 318 316 316 316 316 316 315 316 316 316 317 318 318 319 319 319 319 319 319 318 317 316 315 315 314 313 312 312 311 311 310 310 308 307 305 304 303 303 303 302 301 301 300 299 298 298 297 297 297 297 297 297
314 315 315 314 313 313 314 314 314 315 314 314 312 312 313 314 313 313 314 313 313 315 318 318 318 319 319 319 319 319 319 318 317 316 315 314 314 313 312 312 312 311 310 308 307 305 304 304 304 303 302 300 300 300 299 298 298 297 297 297 296 296 296
310 310 310 310 310 310 310 310 310 310 310 310 312 314 314 313 312 313 315 316 317 318 320 320 319 319 319 319 319 319 319 318 317 316 315 315 315 315 314 313 312 311 309 308 307 305 304 304 304 302 301 300 300 300 299 298 298 297 296 296 296 296 296
308 309 310 310 308 308 309 308 307 308 308 308 310 311 312 312 313 313 315 316 317 318 319 320 321 321 320 319 319 319 319 318 318 317 316 315 316 315 314 313 312 310 309 308 306 305 304 304 303 302 301 300 300 299 299 298 297 296 296 296 296 295 296
307 308 309 309 309 309 311 312 310 309 310 312 311 310 309 310 309 310 310 310 309 310 311 313 316 319 321 321 320 319 318 318 318 317 316 316 316 314 314 313 311 310 309 308 306 304 303 303 302 301 300 300 299 299 298 298 297 297 296 296 296 296 296
308 307 307 307 306 306 308 312 314 314 314 316 317 315 315 314 312 310 310 309 307 306 305 306 308 312 318 321 321 319 319 318 317 316 316 315 314 313 312 311 310 308 308 307 305 303 302 301 301 300 300 299 299 299 299 298 297 297 296 296 296 296 296
308 307 305 304 304 303 304 306 310 313 314 315 316 315 317 317 315 314 313 311 307 305 305 306 307 310 315 319 320 319 318 317 316 316 314 313 312 311 310 309 308 307 306 305 303 302 302 301 300 300 300 299 299 299 299 299 298 297 297 296 296 296 296
309 307 305 304 303 303 303 303 304 306 308 310 312 312 313 315 316 316 315 314 311 308 308 309 309 310 313 316 318 318 317 316 315 315 313 311 310 310 309 308 307 305 304 303 303 302 301 300 300 300 300 300 300 300 300 299 299 298 297 297 296 296 296
310 308 306 305 304 303 303 302 302 302 303 305 308 310 311 313 314 315 315 315 313 311 310 310 311 312 313 315 317 317 316 314 313 313 311 310 310 309 307 307 306 305 304 304 303 302 301 301 300 301 300 300 300 299 299 299 298 298 297 297 296 296 296
309 308 308 307 305 304 303 303 302 301 301 303 305 309 312 313 313 313 314 313 312 312 311 311 311 312 314 315 316 316 315 313 312 312 311 309 309 307 306 306 305 304 304 303 302 301 301 301 301 300 300 300 299 299 299 298 298 297 297 296 296 296 296
308 308 308 307 305 304 304 304 302 301 301 301 303 308 312 313 313 313 313 312 311 311 311 311 311 312 313 314 315 315 314 312 311 310 309 308 307 307 306 305 304 303 303 302 302 302 301 301 301 300 300 299 299 298 298 297 297 297 296 296 296 296 295
307 307 306 306 305 305 305 304 304 302 301 301 303 308 312 312 312 312 312 312 312 312 311 311 311 312 313 314 313 311 310 310 311 310 309 308 307 307 305 303 302 302 302 301 301 301 301 301 300 299 299 298 298 298 297 297 297 296 296 295 295 294 294
305 305 306 306 306 306 305 304 304 304 302 300 303 308 311 311 311 312 312 312 312 312 312 311 311 311 312 312 310 308 308 309 310 310 309 307 306 305 303 302 301 301 300 300 300 299 299 299 298 298 298 298 297 297 296 296 295 295 294 294 294 294 293
305 305 305 306 307 307 306 305 304 303 302 301 303 307 310 310 311 312 312 312 312 312 312 312 311 311 311 310 308 307 308 309 309 309 309 306 303 302 301 301 300 300 300 299 299 298 298 298 297 297 296 296 295 295 295 294 294 294 293 293 293 293 292
305 305 305 305 306 307 306 306 305 304 303 304 305 307 309 310 310 311 311 312 312 312 312 312 311 311 309 308 307 307 308 308 308 307 306 304 302 301 301 301 300 300 299 298 297 296 296 296 295 295 295 294 294 294 294 293 293 293 292 292 292 292 292
305 305 305 304 304 305 305 305 305 305 305 306 307 309 310 310 311 311 311 311 311 311 311 310 310 309 308 307 307 307 307 307 306 304 303 301 300 299 299 299 298 297 296 295 294 294 294 294 294 294 294 294 294 293 293 292 292 292 292 292 292 292 292

ECMWFFLT1_850_thetae_012.txt.gz
Theta_e
318 314 310 308 308 308 309 314 318 319 320 319 318 320 321 322 321 320 321 322 322 322 322 321 321 322 322 322 322 323 325 324 325 325 325 325 325 325 324 324 324 323 322 321 321 321 321 321 321 321 322 322 321 321 320 319 318 317 316 316 318 319 320
314 310 308 307 307 308 308 310 314 316 317 316 315 318 320 321 321 321 321 321 321 321 321 321 320 320 321 322 321 321 322 323 323 323 324 324 324 325 324 324 324 323 322 322 321 322 321 321 322 321 321 321 320 318 316 315 315 315 313 312 313 315 318
313 310 309 308 307 307 307 307 309 310 311 312 312 315 318 319 320 320 319 318 319 320 320 320 320 318 318 319 320 319 320 321 322 322 323 323 322 323 323 322 322 322 321 321 321 321 321 320 321 320 320 320 318 314 312 312 313 312 312 311 311 312 314
313 312 309 308 307 306 306 306 306 306 306 307 308 311 315 317 317 316 314 314 316 318 319 319 318 318 318 319 319 317 316 318 320 321 321 320 319 319 320 321 321 321 321 321 320 321 321 320 320 320 319 317 313 310 309 310 311 312 313 313 313 313 312
313 311 308 308 307 307 306 306 306 306 306 306 306 308 310 311 311 310 308 306 308 312 314 312 309 311 314 315 315 312 310 312 314 314 312 310 309 310 312 315 317 316 317 318 318 317 318 317 315 314 312 310 308 308 309 310 312 314 314 315 315 315 313
313 310 308 308 307 307 306 306 306 306 306 306 306 306 307 307 306 306 306 305 305 306 307 306 305 305 307 307 306 306 306 307 306 306 305 304 305 305 305 307 308 309 310 311 311 310 310 309 308 307 306 306 306 307 308 312 314 314 315 315 316 316 315
317 313 309 308 308 307 306 306 305 306 306 306 306 306 306 306 306 306 306 306 306 306 306 306 306 306 306 306 306 305 306 306 305 305 306 305 305 305 304 305 305 305 306 306 306 306 305 305 305 305 304 304 304 305 307 311 314 314 314 315 316 316 317
320 316 310 308 308 307 306 306 306 306 306 306 306 306 306 306 306 306 306 306 306 306 306 306 306 306 306 306 306 306 306 306 306 306 305 305 305 305 304 304 304 304 304 304 304 303 303 303 303 303 303 303 303 303 304 307 312 314 314 314 315 316 317
322 317 311 309 309 308 307 307 307 307 307 306 306 306 306 306 306 306 306 306 306 306 306 306 306 306 306 306 306 306 305 305 305 305 305 304 304 304 304 303 303 303 303 303 303 303 303 302 302 302 302 302 302 302 303 304 307 310 311 312 314 314 316
321 318 313 310 311 311 310 309 309 308 308 308 307 307 307 306 307 306 306 306 306 306 306 306 306 306 306 306 306 305 305 305 305 304 304 304 303 304 303 303 303 303 303 303 303 303 303 302 302 302 302 303 303 302 302 303 303 305 306 307 308 310 312
320 318 315 313 312 313 313 313 313 310 309 309 308 308 307 307 307 307 307 307 307 307 306 306 306 306 306 306 306 305 305 305 305 305 305 305 305 305 304 305 305 305 305 305 304 304 303 303 303 304 304 305 305 304 304 303 303 304 304 303 304 305 306
319 318 316 315 314 315 315 315 315 314 312 311 310 309 308 308 308 308 307 307 307 307 307 306 306 306 306 306 306 306 306 307 307 307 307 307 307 307 307 307 306 307 306 306 306 306 305 305 305 305 306 306 306 306 306 305 305 305 304 304 303 303 303
319 319 317 316 316 316 317 316 316 316 314 313 312 310 310 309 309 309 309 308 308 308 307 307 307 307 307 307 307 307 307 307 307 308 308 308 308 308 308 308 308 308 308 307 307 307 307 307 307 307 307 307 306 306 306 306 306 306 306 305 304 304 304
319 319 318 317 316 317 318 318 317 317 316 314 314 313 313 311 310 310 311 310 309 309 309 309 309 308 308 308 308 308 308 308 308 308 308 308 308 308 308 308 307 308 308 309 309 309 309 308 308 307 307 307 306 306 306 306 305 306 306 305 305 305 304
319 319 318 318 317 318 318 318 318 318 317 317 316 316 316 315 314 315 314 313 312 312 312 312 311 311 310 310 309 309 309 309 308 308 308 308 308 308 308 308 307 307 308 308 308 309 309 308 308 308 307 306 306 305 305 305 305 305 306 306 305 304 304
320 320 318 318 318 318 319 319 318 318 318 318 318 318 318 317 317 317 317 316 316 316 316 316 315 315 314 314 313 312 311 310 309 309 309 309 309 309 309 309 308 308 307 307 307 308 308 308 308 307 306 306 305 304 304 304 303 304 304 305 305 304 302
321 320 318 318 318 319 319 319 319 319 319 318 318 318 318 318 318 318 317 317 317 317 317 317 317 317 317 317 317 316 315 314 312 311 310 310 309 309 309 309 309 309 308 308 307 307 308 308 307 307 306 306 305 304 303 302 302 302 302 303 303 302 301
320 319 318 319 319 319 319 319 319 319 319 318 318 318 318 318 318 318 317 317 316 316 316 316 316 317 317 317 317 318 318 318 316 315 314 313 311 310 310 309 309 309 309 309 308 307 307 307 308 307 307 307 306 305 304 304 303 302 301 301 301 301 300
320 319 318 318 319 319 319 319 319 319 319 318 318 318 318 318 318 318 318 317 317 316 316 317 317 317 317 317 318 318 318 318 318 318 317 316 314 313 312 311 310 310 310 310 309 309 308 308 308 307 307 306 306 306 306 305 304 303 301 300 299 300 300
321 321 320 320 320 320 320 319 319 319 318 319 318 318 318 318 318 319 318 318 317 317 316 317 318 317 317 318 318 318 318 318 319 319 318 318 316 315 314 313 312 311 311 312 311 311 310 308 307 307 306 306 306 306 305 304 303 302 301 300 299 299 299
320 320 320 320 320 320 320 319 319 319 319 319 319 318 318 318 319 318 318 318 317 317 317 317 317 316 316 318 319 320 319 319 319 319 319 318 317 316 315 314 314 313 313 313 312 311 310 309 308 307 306 306 306 305 304 302 301 301 300 300 299 298 298
320 319 319 319 318 318 318 318 318 318 318 318 318 318 319 318 318 318 319 319 318 318 318 317 316 315 316 316 317 317 319 319 319 319 319 318 318 317 316 316 315 314 314 313 312 312 311 309 308 307 306 306 305 304 303 301 300 300 299 299 298 298 297
318 318 319 319 318 318 318 318 318 318 320 320 319 320 319 318 318 318 318 318 318 318 317 317 316 316 316 316 315 315 317 319 319 319 319 318 318 317 317 316 316 315 314 313 312 312 311 309 308 307 307 306 305 303 302 301 300 299 298 298 297 297 297
319 319 319 317 317 318 318 318 318 319 320 320 319 318 317 316 316 317 317 317 317 317 316 316 316 316 316 317 317 318 318 319 319 319 319 318 318 318 318 317 316 315 314 313 312 312 311 309 308 307 307 306 305 304 302 300 299 299 298 298 298 297 297
317 316 315 313 312 314 315 315 315 315 315 316 314 313 313 313 313 315 315 315 315 316 316 317 318 318 318 318 319 319 319 319 319 319 319 318 318 318 317 316 315 315 314 313 312 311 309 308 307 307 306 306 306 304 302 300 299 299 299 298 298 298 297
311 311 310 310 310 310 310 310 310 310 311 311 311 310 310 311 312 313 313 314 314 315 317 317 317 318 319 320 321 321 321 320 320 319 318 318 318 317 317 316 315 314 313 313 311 309 308 308 308 307 306 306 306 303 301 300 300 299 299 299 299 298 298
308 308 307 307 306 305 306 306 307 307 308 309 310 311 310 311 312 314 314 313 312 311 311 310 309 309 310 313 316 319 319 320 320 319 318 318 317 316 315 315 314 313 312 312 310 309 308 308 309 307 305 304 303 302 300 300 300 300 300 299 299 299 298
308 308 308 307 306 305 305 306 307 308 308 310 312 313 313 314 316 317 317 315 312 309 307 306 304 304 305 307 310 313 316 318 319 319 318 317 316 314 314 313 312 312 311 310 309 308 307 308 308 307 304 303 302 301 301 300 300 300 300 299 299 299 299
308 308 307 306 305 305 305 306 308 308 308 308 310 312 313 314 316 317 317 316 313 309 307 305 305 305 307 308 309 310 313 315 317 317 317 316 315 314 313 312 311 311 310 309 308 306 306 306 306 305 303 302 302 301 301 300 300 300 300 299 299 299 298
309 308 306 305 304 303 303 304 305 305 305 305 305 306 308 310 311 312 313 314 313 310 307 306 307 307 307 307 307 308 311 313 315 315 315 315 314 313 312 311 311 310 309 307 306 305 305 305 304 303 303 302 302 301 301 300 300 300 300 299 299 298 298
310 309 308 307 305 304 303 303 303 303 303 303 303 305 306 306 305 306 308 310 311 311 310 309 309 309 309 308 308 309 310 312 314 314 314 314 313 312 311 310 310 309 307 306 305 305 305 304 303 302 302 301 301 301 301 300 300 300 299 299 298 297 297
310 309 309 308 307 306 305 304 303 303 302 302 302 303 305 305 305 306 306 307 308 308 309 309 309 310 310 309 310 311 312 313 313 313 312 312 312 311 311 310 309 307 306 306 305 305 304 303 302 302 301 301 301 301 300 300 299 299 298 297 296 295 295
309 309 309 308 308 307 305 304 304 304 303 303 302 302 303 305 307 309 308 307 306 306 307 309 310 311 311 311 311 312 313 313 312 311 311 311 310 310 309 308 307 306 306 306 306 305 303 302 302 301 301 301 300 300 299 299 298 297 296 295 294 294 294
307 307 307 307 306 306 305 305 304 304 304 304 303 303 302 303 306 309 310 309 307 307 308 310 312 312 312 311 311 312 313 311 309 309 309 309 309 308 307 307 307 307 306 305 304 303 302 301 300 300 300 299 299 298 298 297 296 295 294 294 294 294 294
306 306 306 305 305 305 306 306 306 305 304 304 304 304 303 302 302 305 309 311 310 310 310 311 312 312 312 312 312 312 311 309 307 307 308 308 308 307 307 307 306 305 304 302 301 300 300 299 299 299 298 297 296 296 295 294 294 294 294 294 294 293 293
306 306 306 305 304 304 305 306 307 307 306 305 305 305 304 303 302 303 307 310 311 311 311 312 312 312 312 311 311 310 309 308 307 307 307 307 307 307 306 305 304 303 301 300 300 299 299 299 298 296 295 294 294 294 294 294 294 294 294 293 293 292 292
306 306 305 305 305 305 305 305 306 306 306 306 305 305 304 303 304 305 307 309 311 311 311 311 311 311 311 310 310 309 308 307 306 306 306 307 306 305 304 303 301 300 300 299 298 298 297 296 295 294 294 294 294 294 294 294 293 293 293 292 292 291 291

ECMWFFLT1_850_thetae_015.txt.gz
Theta_e
318 317 317 315 310 307 307 307 308 310 311 312 314 315 318 318 317 317 319 322 323 323 322 322 321 322 322 323 324 325 326 325 325 326 326 325 325 325 325 324 324 323 323 322 321 321 321 320 320 321 321 321 321 321 320 319 318 317 316 316 316 317 318
320 319 317 312 308 307 307 307 310 312 313 314 314 315 316 317 317 316 316 318 321 322 321 321 321 320 320 320 321 322 323 323 324 324 325 324 324 324 324 324 324 324 323 322 322 321 321 320 320 321 321 320 319 317 315 315 315 315 314 313 312 313 315
320 318 314 309 307 307 307 308 311 314 315 315 315 315 317 318 317 317 317 316 318 320 321 320 320 318 317 317 319 320 319 321 322 322 322 322 322 322 322 323 323 322 322 322 321 321 321 320 320 320 320 319 317 314 312 312 313 313 313 312 312 312 313
318 314 310 308 307 307 307 307 310 314 315 314 313 313 316 317 317 316 316 315 315 317 318 318 318 316 313 312 316 317 315 318 320 321 321 320 319 320 320 321 321 321 321 321 320 321 320 319 319 318 316 315 312 310 311 312 313 313 314 314 314 314 314
315 310 308 308 307 307 306 306 308 310 311 310 310 311 313 314 314 312 310 310 311 314 316 316 313 310 309 310 313 312 311 315 318 318 316 314 316 317 317 319 319 318 316 315 315 316 314 312 311 310 308 308 307 307 311 313 314 315 315 315 315 315 315
311 309 308 308 308 307 306 306 306 307 307 307 307 308 309 310 309 307 305 305 306 308 310 309 306 305 306 308 309 308 308 311 312 310 308 307 309 310 310 312 311 309 308 308 308 308 307 306 305 305 305 305 305 307 311 314 314 315 315 316 316 316 316
310 308 308 308 308 307 306 306 306 306 306 306 306 307 307 307 306 305 305 305 305 306 305 305 305 305 305 305 305 305 306 306 306 306 305 304 305 306 305 306 306 305 305 305 305 304 304 304 303 303 303 303 303 305 310 313 314 314 314 315 315 315 316
310 309 308 308 308 307 306 305 305 305 306 306 306 306 306 306 306 306 306 306 306 306 306 306 306 306 306 306 306 306 306 305 305 305 305 305 305 305 305 305 304 304 304 303 303 303 303 302 302 302 302 302 303 303 306 309 312 313 313 313 314 315 315
313 311 309 308 308 307 306 305 306 306 305 306 306 305 306 306 306 306 306 306 306 306 306 306 306 306 306 306 306 306 305 305 305 305 305 304 304 304 304 303 303 303 303 303 303 303 303 302 302 302 302 302 302 302 303 305 307 310 310 310 310 311 312
314 312 311 311 309 307 307 306 306 306 306 306 306 306 306 306 306 306 306 306 306 306 306 306 306 306 305 305 305 305 305 304 304 304 304 304 304 303 303 303 303 303 303 303 303 303 303 303 303 304 304 304 304 303 303 303 304 305 306 306 306 306 306
314 309 311 316 313 307 307 307 306 306 306 306 306 306 306 306 306 306 306 306 306 306 306 306 306 306 305 305 305 305 305 306 305 306 306 305 305 305 305 305 305 305 305 306 305 305 304 304 305 306 306 306 306 305 305 305 305 305 305 305 304 304 304
316 310 309 315 315 309 307 307 306 307 306 306 306 306 306 306 306 306 306 306 306 305 305 305 305 306 306 306 307 307 307 307 307 307 307 307 307 307 307 307 307 307 308 308 308 307 307 307 307 307 307 307 306 306 306 306 306 305 305 305 305 304 304
317 313 310 315 317 312 308 308 307 307 307 306 307 306 307 307 306 307 307 306 306 306 306 306 306 307 307 307 307 308 308 308 308 308 308 307 307 307 307 308 308 307 308 309 309 310 309 309 308 308 308 307 307 306 306 305 305 304 304 304 304 304 304
317 315 312 316 318 315 311 310 310 310 310 308 307 307 307 307 307 307 307 307 308 307 307 307 307 307 307 308 308 308 308 308 308 308 308 308 308 308 307 307 307 307 308 308 309 310 310 310 310 309 308 308 308 307 306 305 305 304 304 304 304 303 303
317 315 313 316 318 317 315 313 313 314 315 313 311 309 308 308 308 307 308 308 308 308 308 308 308 308 308 308 308 308 308 308 308 308 308 308 308 308 308 307 307 307 307 307 308 309 310 310 310 310 309 309 308 308 308 307 306 305 305 305 304 304 303
317 315 315 316 318 318 316 315 315 316 317 317 316 315 313 312 311 310 310 309 309 309 310 310 310 310 310 310 309 310 309 309 309 309 309 309 308 308 308 308 308 307 306 307 307 307 308 308 309 309 309 309 308 308 308 308 307 307 306 306 305 304 304
317 316 316 316 318 319 317 316 317 317 317 317 318 317 317 316 315 315 315 314 314 314 314 314 314 313 314 314 314 314 314 313 312 311 310 310 309 309 309 309 309 308 308 308 307 308 308 307 308 308 308 308 308 308 308 308 308 307 306 306 305 304 303
317 316 316 316 318 319 319 317 317 318 318 318 318 318 318 318 317 317 317 317 317 317 317 316 316 317 317 317 317 317 317 316 316 316 315 315 314 313 312 311 311 310 310 309 308 309 309 309 308 308 308 309 309 309 309 309 308 307 306 305 305 303 302
315 315 315 316 318 319 319 318 318 318 318 318 318 318 318 318 317 317 317 318 318 318 318 317 317 317 317 317 318 318 318 318 318 318 318 318 317 317 317 316 315 315 314 312 311 311 311 311 311 310 309 309 309 309 310 310 309 308 306 305 304 303 301
315 317 316 316 318 319 319 318 318 318 318 319 319 318 318 317 317 317 316 316 318 318 318 318 318 317 317 317 317 317 318 318 319 319 318 318 319 318 318 318 317 317 317 315 314 314 313 313 313 312 310 309 309 309 309 309 309 309 307 305 303 302 301
318 318 317 317 319 318 317 317 317 317 318 318 318 318 317 317 317 317 316 317 318 318 318 319 318 318 318 318 317 317 317 318 319 319 319 318 319 318 318 318 318 317 317 317 315 314 313 312 313 312 310 309 309 309 309 308 308 308 307 305 303 301 300
319 318 316 317 318 318 318 317 316 317 317 317 317 317 317 317 317 317 317 318 318 317 317 319 319 319 319 318 318 317 317 316 316 317 318 318 319 318 317 317 317 317 317 316 315 314 313 312 312 312 311 309 308 308 308 307 306 305 304 303 302 301 300
319 318 318 318 318 317 317 317 317 316 316 317 317 317 318 318 317 317 318 318 317 316 317 319 319 319 319 318 318 317 317 315 315 316 318 319 319 318 317 317 317 317 316 315 315 314 314 312 312 312 311 309 308 308 307 306 305 304 302 301 301 301 301
321 321 320 319 317 317 317 317 316 315 316 317 317 317 318 318 317 317 318 317 316 317 318 319 318 318 318 318 317 317 316 316 316 317 318 319 319 318 318 318 318 317 316 315 314 314 313 312 311 312 311 309 308 307 307 305 304 303 302 302 302 302 301
320 320 320 319 318 317 318 317 317 316 315 317 318 317 317 318 318 317 316 316 316 318 318 318 318 318 318 318 318 318 317 317 317 317 317 318 319 319 319 318 318 317 315 315 314 313 312 311 311 311 311 309 308 307 307 306 304 303 302 302 302 301 301
319 320 320 319 318 318 318 319 319 318 317 317 318 317 317 318 317 317 316 316 317 317 317 317 317 317 317 318 318 318 319 319 319 319 319 320 320 319 319 318 318 317 315 314 313 312 311 311 311 310 309 308 308 307 307 306 305 303 302 302 301 301 301
317 318 318 316 315 316 317 317 318 318 317 317 317 318 318 318 317 317 317 317 316 315 315 314 313 313 312 312 310 310 311 313 315 317 318 319 319 319 318 318 318 316 314 313 312 311 311 310 310 309 308 308 308 307 305 304 304 303 302 301 301 300 300
313 314 314 313 313 314 315 315 316 316 316 317 317 317 318 318 317 316 316 315 314 313 312 311 311 309 308 307 306 306 307 307 308 310 312 315 317 318 318 318 317 315 313 312 311 311 310 310 309 309 308 307 306 305 303 303 303 303 302 301 301 300 300
309 311 311 312 312 312 312 312 313 313 313 313 314 314 314 315 314 313 312 310 309 309 310 309 309 308 307 307 307 307 307 307 308 309 311 313 316 316 317 316 315 313 312 311 311 310 310 310 310 308 306 305 304 303 303 303 303 302 302 301 301 300 300
309 309 309 310 310 310 309 309 309 310 310 309 309 309 310 310 310 309 309 308 307 308 309 309 309 308 308 308 307 306 306 306 307 308 309 311 312 314 314 314 313 312 312 311 311 310 310 309 308 306 305 305 304 304 303 303 302 302 301 301 301 300 300
309 308 308 307 307 306 305 306 307 307 308 308 308 307 306 306 306 306 306 306 306 307 308 308 308 308 308 308 307 306 306 306 307 307 307 308 310 312 313 313 312 311 311 311 310 310 309 307 306 305 305 305 304 303 303 302 302 301 301 300 300 299 298
309 309 308 307 306 305 304 303 303 304 304 305 305 304 304 303 304 304 304 304 304 305 306 307 308 308 308 309 309 309 308 308 308 309 309 309 310 311 311 311 311 310 310 310 309 308 307 306 306 305 305 304 303 302 302 301 301 300 300 299 298 297 296
309 309 309 309 309 308 306 304 303 303 303 302 302 302 302 302 303 303 303 303 303 304 304 305 307 309 309 310 310 310 310 310 310 311 310 310 310 310 310 310 309 309 308 307 307 306 305 305 305 305 304 303 302 301 301 300 299 299 298 297 296 295 294
309 309 309 309 309 308 307 306 304 303 303 303 303 303 304 303 303 303 302 302 303 305 306 307 308 309 310 311 311 311 311 311 311 311 310 309 309 309 308 308 308 307 306 306 305 305 305 305 304 303 303 302 301 300 299 299 298 296 295 294 294 294 294
308 309 309 309 308 308 307 306 305 305 305 305 305 305 306 306 306 305 303 302 302 304 307 309 311 311 311 311 312 311 311 311 311 310 309 308 308 307 307 307 307 307 306 305 304 304 304 304 303 301 300 300 299 298 298 296 295 294 294 294 294 294 294
307 307 307 307 306 306 305 305 305 305 307 307 308 308 308 307 306 306 304 303 302 303 305 309 311 311 311 311 311 311 310 310 310 309 308 307 307 306 306 306 306 305 305 304 303 303 303 302 300 299 298 298 297 296 295 295 295 294 294 294 294 294 293
306 306 306 306 306 306 305 305 304 305 306 307 307 307 307 306 305 304 304 303 304 304 306 309 311 311 311 311 311 310 309 309 309 309 308 307 306 305 305 305 304 303 303 302 301 301 299 298 297 296 296 295 295 294 294 294 294 294 294 293 293 293 293

ECMWFFLT1_850_thetae_018.txt.gz
Theta_e
318 319 319 317 314 310 307 307 307 307 310 312 314 315 316 316 316 318 321 322 322 322 322 322 321 321 322 322 324 325 325 326 326 325 326 325 324 324 324 323 324 323 322 322 321 321 321 321 321 322 323 322 321 320 318 318 318 317 316 315 315 315 314
319 320 319 317 313 309 307 307 307 307 309 311 313 314 316 317 316 317 318 319 321 321 321 320 320 319 319 320 322 322 323 323 323 323 324 324 324 324 324 324 324 324 323 323 322 321 321 320 321 322 321 319 317 316 314 313 314 314 313 313 313 313 312
319 319 318 316 311 307 307 307 306 307 308 310 312 312 315 317 316 316 316 317 319 321 320 319 319 318 316 318 320 319 321 321 321 322 323 323 323 323 323 323 323 323 322 321 321 321 321 320 320 320 318 316 314 313 312 312 313 313 313 313 314 313 313
318 318 318 314 309 307 307 307 306 307 307 308 310 310 312 315 316 316 315 314 316 319 319 319 318 316 313 315 318 318 320 321 320 321 320 320 321 321 321 322 322 321 321 320 320 321 319 319 318 317 315 312 311 311 312 313 313 314 314 314 315 315 315
317 318 317 312 308 307 308 307 306 306 306 306 307 307 309 312 313 312 309 309 312 315 316 314 313 311 310 313 315 315 318 320 319 318 317 317 318 318 319 319 318 317 316 315 315 314 312 310 310 309 308 308 309 311 313 313 314 314 314 314 314 314 315
319 318 315 310 307 308 307 307 306 305 305 305 305 306 308 310 310 307 305 305 308 309 309 307 306 305 306 307 308 310 315 317 315 312 309 310 310 309 310 311 310 308 307 307 307 306 305 305 304 305 304 305 309 312 313 314 314 313 314 313 312 311 312
321 319 314 308 307 308 307 306 305 305 305 305 305 306 307 308 307 305 304 305 305 305 305 305 305 305 304 304 305 307 309 309 308 306 304 305 305 305 305 305 305 304 304 304 304 303 303 303 303 303 303 303 306 310 312 313 313 311 311 311 311 310 310
321 319 314 308 308 307 306 306 305 305 305 305 305 306 306 306 305 305 305 305 306 306 306 306 306 306 305 305 305 305 306 305 305 305 305 305 305 304 304 304 304 303 303 303 303 303 303 303 303 302 302 302 304 307 310 311 312 311 309 308 308 309 309
321 318 313 308 308 307 306 306 305 305 305 305 305 305 305 305 305 305 305 305 306 306 306 306 306 306 306 305 305 305 305 305 304 304 304 304 304 303 304 303 303 303 304 304 305 305 305 305 305 304 303 302 302 304 306 308 309 309 307 306 306 306 306
319 317 314 309 307 307 307 306 306 305 305 305 305 305 305 305 305 305 306 305 306 306 306 306 305 305 305 304 304 304 304 304 304 304 304 304 304 304 304 304 305 306 307 308 308 308 308 308 308 307 306 305 304 303 304 305 305 306 305 305 304 304 304
315 316 315 311 307 308 308 306 306 306 306 306 305 305 305 305 305 305 305 305 306 306 306 306 305 305 304 305 305 305 305 305 305 306 306 306 306 306 306 306 307 309 310 311 310 310 310 309 309 308 308 308 307 306 306 305 305 305 305 305 305 305 305
312 314 318 314 309 309 308 307 306 306 306 306 306 306 305 305 305 305 305 306 306 306 306 305 305 305 305 306 307 307 308 308 307 308 308 308 308 307 307 308 309 310 311 311 311 311 310 310 310 310 309 309 308 308 307 306 306 305 305 305 305 305 305
312 315 319 314 311 312 309 308 307 306 307 306 306 306 306 305 306 305 305 306 306 306 306 305 305 305 305 306 307 308 308 308 308 308 308 309 309 308 308 309 309 309 310 310 311 311 311 310 311 311 310 310 310 309 308 307 307 306 305 305 305 305 305
314 317 318 312 312 315 310 309 309 307 307 307 306 306 306 306 306 306 306 306 306 306 306 305 305 305 306 306 306 307 307 308 308 308 308 308 308 308 308 308 308 308 308 309 309 310 310 310 310 310 310 310 310 310 310 309 309 307 307 306 306 305 305
316 319 318 313 313 315 313 312 310 308 307 307 307 307 306 307 307 306 306 306 306 306 306 306 306 306 306 306 306 307 307 307 308 308 308 308 307 308 308 308 308 308 307 307 308 308 309 309 309 309 310 310 310 310 310 310 310 309 308 308 307 306 305
318 319 319 315 313 313 315 315 312 310 310 310 310 309 307 307 307 307 307 307 306 307 306 306 306 306 307 306 307 307 307 307 308 308 308 308 308 308 308 308 308 308 308 308 307 308 308 308 308 308 309 309 309 309 310 310 310 310 309 309 308 307 306
319 319 319 318 315 313 315 317 314 313 313 313 314 315 313 311 309 308 308 308 308 308 307 307 307 307 307 308 308 308 309 309 309 309 309 309 309 309 309 309 310 309 309 309 308 308 308 308 309 310 310 310 309 309 309 310 310 310 310 309 309 308 307
319 318 318 318 317 314 315 317 317 315 314 315 316 317 317 316 315 313 312 311 310 309 309 309 310 310 310 310 310 311 313 314 314 314 313 312 312 312 312 312 313 313 313 313 312 310 309 309 311 313 313 312 310 310 310 310 310 309 309 309 309 308 308
318 317 317 318 317 316 316 316 317 317 316 316 316 316 317 318 317 317 316 315 314 313 313 313 314 314 314 314 314 313 314 316 317 317 317 316 316 315 315 315 315 316 317 316 316 315 313 311 311 313 314 313 312 311 310 309 310 310 310 310 309 309 308
317 316 317 317 317 317 317 316 317 319 318 317 316 317 317 318 318 318 317 316 316 316 316 317 317 317 316 316 316 315 313 315 317 318 318 318 318 317 317 317 317 318 317 317 317 316 316 314 313 314 314 314 314 313 312 310 310 310 310 310 309 309 309
317 316 316 317 317 317 316 316 317 318 319 319 317 317 318 317 317 316 316 317 316 316 316 317 317 317 316 316 316 316 315 315 317 318 318 318 318 318 317 317 317 318 318 317 316 316 316 315 314 314 314 314 314 314 313 311 310 310 310 309 309 309 309
319 317 316 316 316 316 317 317 316 316 317 317 317 317 317 317 317 316 316 316 316 316 316 316 317 317 316 316 315 315 315 316 317 318 317 316 316 317 316 316 317 317 317 317 316 315 315 314 313 313 313 313 313 313 312 311 310 310 310 309 309 309 308
320 318 317 317 317 317 317 317 317 316 316 316 315 315 316 316 316 315 316 316 316 316 316 315 316 317 317 317 317 317 317 317 318 318 317 316 315 316 316 317 317 316 316 317 316 315 314 313 313 312 312 312 311 311 311 310 309 309 309 308 308 308 307
321 320 320 320 319 319 319 318 318 317 317 317 316 315 315 315 315 314 315 316 317 316 316 315 316 317 317 317 317 317 317 318 317 317 317 317 316 316 316 318 318 318 317 317 316 315 315 313 312 312 311 310 310 310 310 309 308 308 308 307 306 306 305
321 321 321 321 320 320 319 318 318 317 317 317 317 316 315 315 314 314 315 317 316 315 315 316 316 317 317 317 318 318 318 318 318 318 319 319 318 318 318 318 319 319 319 318 317 316 316 313 311 311 311 310 310 310 310 309 308 308 307 306 305 304 304
319 319 319 320 320 319 319 318 318 317 318 318 317 317 316 315 315 315 316 316 316 315 316 317 317 317 317 317 316 316 315 315 315 314 315 315 316 317 318 319 320 319 318 318 318 316 315 313 311 310 310 310 310 309 308 308 308 307 305 304 304 303 303
316 317 318 319 320 319 319 318 318 318 318 318 317 316 317 317 316 316 316 316 316 316 317 317 317 315 315 313 312 310 309 308 307 307 307 308 308 310 312 315 317 318 318 318 317 316 314 312 310 310 310 310 309 308 308 308 306 305 304 304 304 303 302
313 316 318 319 319 319 318 317 318 318 319 319 318 317 316 317 317 317 317 317 316 317 317 317 315 315 314 312 310 308 307 306 306 306 306 306 306 307 308 311 314 317 317 317 316 314 311 310 310 310 309 309 308 308 307 305 304 304 305 304 303 302 302
310 313 316 317 316 316 316 316 316 317 317 318 318 317 317 317 317 317 317 317 317 317 317 317 315 315 314 312 310 308 307 306 305 305 306 306 306 307 309 311 314 315 315 315 313 311 310 310 310 309 308 308 308 306 304 304 304 305 304 303 303 302 302
309 310 311 313 313 313 314 314 314 315 315 316 316 316 316 316 317 317 316 317 317 316 316 315 314 313 313 312 310 309 307 305 305 304 305 306 306 307 308 309 311 312 312 312 311 310 309 309 309 308 308 307 306 304 304 304 305 304 304 303 302 302 301
309 309 309 310 311 312 312 312 312 312 312 313 313 314 314 315 315 315 314 314 314 313 313 313 312 312 311 311 310 308 307 306 305 305 305 306 306 306 306 307 309 310 311 310 310 309 309 309 308 307 307 305 304 304 304 304 304 304 303 302 301 300 299
309 309 309 309 310 309 308 307 308 308 309 310 311 312 312 312 311 310 310 309 309 310 310 310 310 310 310 310 308 307 307 307 307 307 306 306 306 307 307 308 308 309 310 309 308 308 308 308 307 305 305 304 304 304 304 304 303 302 301 300 299 298 297
308 309 309 309 308 306 304 304 305 305 305 306 306 306 306 305 305 305 304 304 304 305 305 306 307 308 309 309 308 308 308 308 308 307 307 307 308 308 307 308 308 308 308 308 308 307 306 305 305 304 304 304 304 304 303 302 301 300 299 298 297 296 296
308 308 309 309 309 307 305 305 305 304 303 303 303 303 303 303 303 303 303 303 302 302 302 302 304 306 308 309 309 309 310 309 309 308 308 308 308 308 308 307 307 307 307 307 307 306 305 305 304 304 304 303 303 303 302 301 300 298 297 297 296 296 296
307 308 308 309 309 309 308 307 307 306 304 303 303 303 304 303 304 303 303 303 303 302 302 302 302 303 306 309 311 311 311 310 310 309 309 309 309 308 308 307 307 306 306 306 306 305 304 303 303 303 303 303 302 301 300 299 297 296 296 296 295 295 294
306 307 308 308 309 309 309 307 307 306 306 304 304 304 304 304 304 305 305 304 304 303 302 302 301 302 305 309 311 311 311 310 310 309 309 309 308 308 307 307 306 306 305 305 304 304 303 303 302 302 302 301 299 298 297 296 296 295 295 295 294 294 293
306 306 306 307 308 309 309 307 306 306 306 305 304 304 305 305 306 306 305 304 304 303 303 302 303 304 305 309 311 310 310 309 309 309 308 308 307 307 306 305 305 304 304 303 303 303 302 301 300 299 298 297 296 296 295 295 295 294 294 293 293 294 294

ECMWFFLT1_850_thetae_021.txt.gz
Theta_e
317 318 318 318 316 313 311 310 309 308 308 310 312 311 311 313 316 318 319 320 321 321 321 321 322 322 323 323 324 325 326 327 326 326 326 325 324 324 324 324 323 322 322 321 321 323 323 320 319 320 319 319 319 318 316 315 314 313 314 313 313 313 313
317 319 318 317 316 313 310 310 310 309 308 308 310 310 312 314 316 317 318 320 320 321 320 320 320 320 320 320 322 323 324 325 325 325 325 325 324 324 324 324 323 322 322 321 321 322 323 321 318 317 315 314 315 314 312 312 312 312 312 313 313 314 314
320 320 319 319 315 311 309 310 311 309 307 307 308 309 311 313 314 314 315 318 320 320 320 319 319 318 317 318 319 320 322 322 323 324 325 324 324 325 324 324 324 323 322 322 322 321 321 321 319 317 315 314 314 313 312 313 313 313 314 315 315 315 315
321 321 321 319 314 310 308 309 309 308 307 307 306 307 309 311 312 311 313 317 320 320 319 319 318 315 316 318 319 319 321 322 322 322 323 323 323 324 324 324 324 323 323 323 322 321 320 320 318 316 315 314 313 312 312 313 313 313 314 314 315 315 315
321 319 320 318 313 308 308 307 308 306 306 306 306 307 308 309 309 308 309 314 318 318 318 317 314 312 314 318 320 320 320 320 321 321 321 322 322 323 323 322 322 321 321 321 320 320 319 319 318 316 313 313 313 312 312 313 313 313 313 313 313 313 313
319 318 319 317 311 308 307 308 307 305 305 306 306 307 307 307 306 305 307 311 314 315 314 312 310 310 311 315 319 320 320 319 318 317 317 317 317 318 317 316 315 314 314 313 312 311 312 313 313 311 310 312 313 312 312 313 312 313 312 312 311 310 310
316 315 315 313 309 307 307 307 306 305 305 305 306 306 306 305 304 304 306 308 309 309 308 306 306 307 309 311 315 317 315 313 309 308 307 308 308 309 308 307 306 306 306 305 304 304 304 305 305 305 306 309 312 312 312 312 312 311 310 309 309 308 308
314 314 313 310 309 307 307 306 306 305 305 305 306 306 305 305 304 304 305 305 305 305 305 305 305 306 306 307 310 310 308 306 305 305 305 305 305 305 304 304 304 303 303 303 303 303 303 302 303 303 303 307 311 312 312 311 311 310 309 307 307 306 306
315 316 314 311 310 308 307 306 305 305 305 305 305 305 305 305 305 305 305 305 305 305 305 305 305 305 305 305 305 305 305 305 305 304 305 304 304 303 303 303 304 305 305 305 306 306 305 304 303 302 302 305 310 312 312 311 311 309 307 305 305 305 305
316 318 315 312 310 308 306 306 306 305 305 305 305 305 305 305 305 305 305 305 306 305 305 305 305 305 305 304 305 304 304 304 304 303 304 303 304 305 306 307 308 309 309 309 309 309 308 308 307 306 305 305 307 310 311 311 309 307 305 305 304 304 304
317 318 316 313 310 308 307 307 306 306 306 305 305 305 305 305 305 305 305 305 305 305 305 305 305 305 304 304 304 304 303 303 304 304 304 305 306 308 309 310 311 311 311 310 310 310 310 310 309 309 308 307 307 307 308 308 307 305 305 305 305 305 305
318 319 317 313 310 308 308 308 307 306 306 306 305 305 305 305 305 305 305 305 305 305 305 305 304 304 304 304 303 303 303 304 305 305 306 306 307 309 310 311 311 311 311 311 311 311 311 311 310 310 310 310 309 308 308 309 308 306 306 306 306 305 305
318 320 316 314 311 308 309 309 307 306 307 306 306 306 306 306 305 305 305 305 306 305 305 305 305 304 304 304 304 304 304 305 305 306 307 307 307 307 308 309 310 310 310 310 310 310 310 310 310 310 310 310 310 310 310 310 309 308 308 307 306 306 305
319 321 318 315 313 310 310 311 309 307 307 307 307 306 306 306 306 306 305 305 305 305 305 305 305 305 305 305 304 304 305 305 306 306 306 307 307 307 307 308 308 309 309 309 310 309 309 309 309 309 310 310 310 310 310 310 310 309 309 308 308 307 306
320 321 319 316 314 311 311 312 311 309 308 307 307 307 307 306 306 306 306 306 306 306 306 305 305 305 305 305 305 305 305 305 305 305 306 306 306 307 307 307 307 307 307 308 308 308 308 308 308 309 310 310 309 309 310 310 310 310 309 309 309 308 308
321 321 318 316 315 312 312 314 313 311 308 307 307 307 307 307 307 307 307 306 306 306 306 306 306 306 306 306 306 306 305 306 305 305 306 306 306 307 307 308 308 308 308 308 308 308 308 308 309 311 312 311 310 310 310 311 311 310 310 310 310 310 310
321 320 317 317 316 312 312 313 314 313 311 308 308 308 307 307 307 307 307 307 307 307 307 307 306 306 307 307 307 307 307 307 307 307 307 307 307 307 308 308 309 309 309 309 309 309 309 309 311 313 314 313 311 311 311 311 311 311 311 311 311 310 310
322 321 318 317 317 314 312 313 314 315 313 311 310 310 309 309 308 309 309 308 308 308 308 307 307 308 308 308 309 309 309 310 310 310 310 310 309 309 309 309 309 310 310 310 310 310 310 309 311 313 315 314 313 313 312 312 312 311 311 311 311 310 310
323 322 318 318 318 317 317 315 314 315 315 314 313 313 313 313 313 314 313 313 312 311 311 310 310 310 310 310 311 312 312 313 314 314 314 314 313 312 311 311 310 311 310 310 311 311 311 310 311 312 314 315 314 314 313 313 313 312 312 311 311 310 310
323 322 319 319 319 319 319 318 316 316 316 316 315 315 315 316 316 317 317 316 316 315 314 314 314 314 314 314 314 315 315 316 316 316 317 316 316 316 315 314 313 312 311 311 313 314 313 312 312 314 314 314 314 314 314 313 313 313 312 311 310 310 309
323 322 320 319 318 318 318 318 318 317 317 317 317 317 317 316 316 317 318 317 317 317 317 316 316 316 317 317 316 316 316 316 316 317 317 317 317 317 316 316 316 315 313 314 315 315 314 313 314 314 314 313 313 314 313 313 313 313 312 311 310 310 309
323 322 320 318 317 317 317 318 318 317 317 317 317 317 317 317 316 316 317 317 317 317 317 317 316 317 317 317 317 316 316 316 316 316 316 316 317 317 316 316 317 316 315 316 316 315 314 313 313 313 313 313 314 313 313 313 313 312 312 310 310 310 309
322 321 320 318 317 317 317 317 316 317 318 318 317 316 316 317 316 316 316 317 317 317 316 315 315 316 316 316 316 316 316 316 316 316 317 317 317 317 317 316 316 316 316 317 317 316 315 314 313 312 312 312 313 313 313 313 312 312 311 310 309 309 308
321 321 320 320 319 318 317 317 317 318 319 319 319 317 316 316 316 316 316 316 316 316 316 315 315 315 315 316 316 316 316 317 316 316 317 317 317 317 317 316 316 316 317 318 318 317 316 315 315 313 311 311 312 312 312 312 311 311 310 309 308 308 307
321 321 321 320 320 319 319 319 319 319 319 319 319 319 318 317 317 316 315 315 315 315 315 315 315 315 315 315 316 316 317 317 317 317 317 317 317 318 318 318 317 317 317 318 318 318 317 316 315 313 312 311 311 310 311 311 310 309 308 308 307 307 306
321 321 321 321 321 321 320 320 320 319 319 318 318 319 318 318 318 317 316 315 315 314 314 314 314 314 314 316 317 317 317 317 316 315 314 314 313 314 316 317 318 318 318 318 318 318 317 316 315 314 313 311 310 310 310 309 309 308 307 306 305 305 305
316 318 319 319 320 320 320 320 319 319 318 318 318 318 318 318 318 317 317 316 315 314 314 314 314 315 316 316 316 315 314 313 311 310 308 308 307 308 311 312 314 315 316 317 318 318 316 315 315 314 312 310 309 309 309 308 307 307 305 305 305 305 305
312 313 315 317 319 319 319 319 319 319 318 318 318 318 318 317 317 317 317 316 315 315 315 315 315 316 316 315 314 312 311 309 308 307 307 306 306 306 307 308 309 311 313 315 317 318 316 315 314 312 310 309 309 308 307 307 307 305 304 304 305 305 304
309 310 313 316 318 318 318 318 318 318 318 318 318 318 318 317 316 317 317 315 315 316 315 315 315 316 315 314 313 311 310 308 307 306 306 306 306 306 306 307 308 311 313 315 315 315 314 313 311 309 308 308 307 307 307 307 306 305 304 305 304 304 303
307 308 310 312 315 316 316 316 316 315 316 317 318 318 318 317 317 317 317 317 317 316 315 315 316 316 315 314 312 310 309 308 306 305 305 306 306 306 306 307 307 309 311 311 310 310 310 310 308 307 307 306 306 306 306 305 304 304 304 304 303 303 303
306 306 307 309 311 313 314 314 314 313 314 315 317 317 317 317 317 317 317 317 317 316 315 316 316 315 314 313 311 309 308 307 306 306 306 306 306 306 306 306 306 306 307 308 308 308 308 308 307 307 307 307 306 306 304 304 304 304 304 303 303 303 302
307 307 308 309 309 310 311 311 311 311 312 313 314 315 316 316 316 316 316 316 316 315 314 314 314 312 311 310 309 309 308 307 306 306 306 306 306 306 306 306 306 306 307 308 308 308 307 307 307 307 306 305 305 304 304 304 304 303 303 302 301 300 299
307 308 309 309 309 309 309 308 307 308 309 310 312 313 314 315 315 315 314 313 312 311 311 310 310 309 310 310 310 310 309 309 308 308 307 306 306 306 306 306 306 306 307 307 308 307 307 307 306 305 305 304 304 304 303 303 303 302 301 300 299 297 296
307 307 308 308 309 310 308 305 305 306 306 307 309 311 312 312 311 309 308 306 305 305 304 305 305 306 307 308 310 310 311 310 310 309 308 307 306 306 307 307 307 307 307 307 307 307 306 306 306 305 304 303 303 303 303 302 301 300 298 297 296 296 295
307 307 307 308 309 309 308 305 304 304 304 304 305 307 307 306 305 304 303 303 303 302 302 302 302 302 303 305 306 308 310 310 310 309 308 308 307 307 307 308 308 307 307 307 306 306 305 305 304 303 302 302 302 301 300 299 298 296 296 295 295 295 294
306 306 306 307 308 309 308 306 305 305 304 303 303 304 304 303 303 303 303 303 303 303 303 303 302 302 302 303 305 308 309 310 310 309 308 308 308 307 308 307 307 307 306 306 305 304 304 303 303 302 301 301 300 298 297 296 296 295 295 294 294 294 294
305 305 305 306 306 308 308 307 306 306 306 304 303 303 304 304 304 304 304 304 304 304 303 303 303 303 303 304 306 308 310 309 309 308 309 308 307 307 307 306 306 306 305 305 304 303 303 302 302 300 299 298 297 296 296 295 295 294 294 294 294 294 294

ECMWFFLT1_850_thetae_024.txt.gz
Theta_e
323 320 317 315 312 309 307 309 313 315 317 318 316 315 316 316 317 318 318 318 318 317 317 319 320 322 323 325 326 327 327 326 326 326 326 326 327 327 325 326 326 325 325 326 327 326 325 323 321 319 319 319 319 318 316 314 313 312 312 314 315 314 314
320 319 319 315 310 308 307 308 313 317 316 315 314 316 317 317 316 317 317 318 318 317 319 320 321 322 323 323 325 325 326 327 327 326 326 327 328 327 326 327 327 326 325 325 327 327 324 322 321 319 318 318 317 316 314 313 312 313 314 315 315 315 315
321 321 319 314 309 308 308 307 312 318 319 316 313 313 316 318 317 317 319 319 318 318 319 320 319 319 321 321 323 324 326 327 327 327 327 328 327 326 326 328 327 326 326 326 326 326 325 323 321 319 318 318 318 316 313 314 314 314 314 314 315 315 315
322 322 319 313 310 309 308 310 314 317 318 318 316 315 314 316 315 316 319 320 318 317 318 318 318 319 319 319 320 321 324 326 326 327 328 328 327 325 325 327 326 326 327 326 326 325 325 324 321 320 319 318 318 315 313 313 313 313 313 313 313 313 314
321 321 318 312 310 311 310 310 312 314 316 315 318 318 314 314 315 315 317 318 318 318 318 318 317 316 316 316 317 319 322 323 324 326 326 327 327 326 326 327 326 326 326 326 325 324 323 323 321 320 319 318 316 314 313 313 312 312 312 311 311 311 312
319 319 317 311 310 312 311 309 311 316 317 316 319 319 313 311 313 314 316 318 318 318 317 316 315 314 315 317 317 319 322 323 323 325 325 325 326 326 325 324 324 324 324 323 323 322 322 321 320 320 318 317 316 314 313 313 312 311 311 310 310 309 310
319 317 315 309 308 310 310 309 311 315 317 316 317 315 309 308 309 310 315 317 315 313 312 311 311 312 316 319 319 320 321 321 321 323 323 324 324 323 321 321 320 320 319 318 317 318 318 318 318 317 316 316 315 314 314 313 313 312 310 309 308 308 307
317 315 314 310 308 309 309 309 308 312 314 314 312 308 304 305 306 306 309 309 307 307 306 307 310 312 315 319 317 313 311 311 311 313 315 315 315 314 314 313 313 311 310 310 311 312 313 314 315 315 314 315 315 314 313 313 313 312 310 308 307 306 305
316 313 314 313 311 309 307 306 305 307 310 309 306 305 305 305 305 305 305 305 305 305 305 305 309 311 313 315 312 306 305 305 305 306 307 307 306 306 305 305 306 305 305 306 308 308 309 311 312 312 313 314 315 314 314 313 313 311 310 309 307 305 304
319 315 316 316 313 309 306 305 305 306 306 305 305 306 305 305 305 305 305 305 305 305 305 305 306 307 308 309 307 304 305 305 305 305 304 304 304 303 304 304 306 306 306 307 307 306 306 309 311 312 313 314 314 315 315 315 314 311 308 308 307 305 305
320 317 317 317 315 310 307 306 306 305 305 305 305 305 305 305 306 306 306 306 306 306 305 305 305 305 305 305 304 304 304 304 304 304 303 304 304 304 306 307 309 309 310 310 309 309 309 310 312 312 312 312 313 314 315 314 313 312 310 307 306 305 305
320 318 317 318 316 311 307 306 306 306 305 305 305 305 306 306 305 306 306 305 305 305 305 305 305 304 304 304 304 303 303 303 304 303 304 305 306 307 308 309 310 310 310 311 311 311 311 312 313 313 313 313 313 313 314 313 312 312 311 308 307 306 306
319 319 318 318 317 311 307 307 306 306 306 305 305 305 305 305 305 305 305 305 306 305 305 304 304 304 304 304 304 305 304 305 305 305 306 306 307 309 309 310 310 310 310 312 311 311 311 312 312 313 313 313 313 313 314 315 313 311 310 309 308 308 308
320 319 318 318 317 311 308 308 307 306 306 306 306 306 306 306 306 305 306 306 306 305 305 305 304 304 304 304 305 306 306 307 308 307 307 307 308 309 310 310 310 310 311 311 311 311 311 310 311 313 313 313 313 313 313 314 313 311 310 310 309 309 310
321 320 319 319 317 312 310 310 308 307 306 306 306 306 306 306 306 306 306 307 306 305 305 305 305 305 305 305 306 306 307 308 309 307 306 308 307 307 308 308 308 308 309 309 311 311 311 311 312 313 313 313 311 311 312 313 313 312 311 311 310 310 310
322 320 319 320 318 315 313 311 311 309 307 306 307 307 306 307 306 306 306 306 306 306 305 306 306 306 306 306 306 306 306 307 307 307 308 309 308 307 308 308 307 307 307 307 309 310 310 311 312 313 313 312 311 311 311 312 312 312 311 310 309 308 309
321 320 319 321 320 317 316 313 312 312 310 307 307 307 307 307 307 307 306 306 307 306 306 306 306 306 306 306 306 306 306 306 306 308 310 310 310 309 309 309 309 308 308 308 308 309 310 311 312 313 313 312 311 312 312 311 311 312 311 310 310 308 308
321 320 319 321 321 319 317 315 313 313 313 310 308 307 307 307 307 307 307 307 307 307 306 307 306 307 307 307 307 307 307 308 308 308 310 310 310 310 311 312 312 310 310 310 310 310 310 311 312 313 313 312 312 313 314 312 311 311 311 311 310 310 310
322 322 321 323 323 319 316 317 314 312 314 314 312 310 310 309 307 307 308 308 308 307 307 307 308 307 308 308 308 309 309 310 310 310 311 310 310 310 311 313 313 312 311 311 312 312 311 310 311 311 312 312 312 313 314 313 312 312 312 311 310 311 311
325 324 324 324 322 318 317 318 316 313 313 315 314 313 314 313 312 311 311 309 309 309 309 309 309 309 310 311 311 312 312 312 313 314 314 314 314 314 314 314 314 314 313 313 314 314 312 311 310 310 312 312 311 313 314 313 312 312 312 311 311 311 310
325 325 325 324 322 319 319 319 318 317 315 315 315 315 315 315 316 316 315 313 312 312 312 313 312 312 314 314 314 314 315 315 316 316 317 316 316 317 317 317 317 316 316 315 316 316 314 313 311 310 312 312 311 312 313 312 312 312 311 312 311 311 311
325 324 324 323 322 321 320 320 320 320 319 317 317 317 317 317 316 316 316 316 316 316 316 316 315 315 315 316 316 317 317 317 317 317 318 318 317 317 317 317 317 317 317 317 316 315 315 314 312 311 312 311 311 312 312 312 312 312 312 312 311 311 311
324 324 324 323 322 321 320 320 321 320 320 319 318 318 318 318 318 317 317 317 317 317 317 317 317 316 317 317 317 317 317 317 317 317 317 317 317 316 317 317 317 317 317 317 315 315 316 315 315 313 312 312 311 311 311 312 312 312 312 311 311 310 311
323 323 324 323 323 322 320 320 320 320 319 319 318 317 318 318 318 318 318 318 317 317 317 317 318 317 317 317 317 317 316 317 317 317 317 317 316 317 317 317 318 318 317 317 316 316 316 316 316 316 314 314 313 311 311 311 311 311 312 311 311 310 310
322 322 323 323 323 322 321 321 320 320 319 319 319 319 319 319 319 318 318 318 317 317 317 316 317 317 317 316 316 316 316 315 316 316 317 317 316 316 316 318 320 319 317 317 316 316 317 317 317 316 316 315 315 314 313 312 311 310 310 310 309 309 309
322 322 323 322 322 322 322 322 321 320 320 320 320 321 321 320 320 320 319 319 318 318 317 316 315 316 316 316 316 315 315 315 315 315 316 316 315 316 318 319 320 319 317 316 317 317 318 318 317 317 317 316 314 314 313 312 311 310 309 309 307 307 307
319 320 321 321 322 322 322 322 321 321 321 321 321 321 321 321 321 320 320 320 319 319 318 317 315 315 315 316 315 314 314 314 313 314 316 316 314 314 316 316 316 316 315 314 316 317 317 317 317 316 316 315 313 312 311 310 309 309 308 307 306 305 306
313 314 314 316 317 318 320 321 321 321 321 321 321 320 320 320 320 319 319 319 319 319 318 317 315 314 315 315 315 314 314 313 313 314 314 312 310 309 309 308 310 312 311 311 313 313 314 316 316 315 315 314 312 311 310 308 308 307 307 306 305 305 305
310 310 311 312 314 315 316 318 319 320 320 320 320 319 319 319 319 319 319 319 319 319 318 317 315 314 315 315 314 314 314 314 313 312 310 308 307 307 306 306 307 308 308 309 311 312 314 316 315 314 313 312 310 309 308 306 306 306 306 306 305 305 305
308 308 309 310 313 314 315 316 317 318 318 318 318 318 318 319 319 319 318 318 319 319 318 316 315 315 315 315 315 314 314 313 311 310 308 306 306 306 306 306 306 305 306 308 310 311 312 314 313 312 310 309 307 307 306 306 306 307 306 306 305 305 304
308 308 307 308 311 313 313 313 314 314 314 315 316 317 318 319 319 319 318 317 318 318 317 316 316 316 316 316 315 314 314 312 310 307 306 306 306 306 305 305 305 305 306 307 308 308 308 309 309 309 308 307 306 306 306 307 307 306 306 305 304 304 303
308 308 308 308 310 311 313 314 313 311 311 312 314 315 316 318 318 318 318 317 318 317 316 315 315 315 315 315 314 314 313 311 309 307 306 306 306 306 306 306 306 306 306 307 307 306 306 306 307 307 307 307 306 305 306 306 305 304 304 304 303 302 301
307 307 308 309 309 310 312 313 312 310 309 312 313 313 314 316 317 317 317 317 317 317 315 314 315 316 315 314 313 312 312 311 309 307 307 307 307 306 306 306 306 305 305 305 305 306 307 306 307 307 306 306 306 305 305 304 303 303 302 301 300 299 298
307 307 307 308 308 309 310 312 311 309 308 311 311 311 313 315 316 316 315 315 316 316 315 315 316 315 314 313 310 309 311 311 310 308 308 307 307 307 306 306 305 305 305 305 306 307 307 306 307 306 306 306 305 304 303 302 301 300 299 298 298 297 297
306 307 307 307 307 308 308 310 310 308 309 309 308 308 311 314 315 314 313 313 313 314 314 314 313 312 310 309 307 307 309 311 310 309 309 307 307 307 306 305 305 305 306 306 307 307 307 306 306 306 305 305 303 303 301 300 299 298 297 297 296 296 296
302 305 306 306 307 307 307 309 309 309 309 309 307 307 310 312 312 313 313 311 309 309 309 308 307 306 305 305 306 307 309 309 310 309 309 308 307 307 306 306 306 306 307 307 307 306 306 305 304 304 303 302 302 301 299 298 298 297 296 295 295 296 297
298 301 303 305 305 306 307 307 308 308 309 309 308 309 311 311 312 311 310 307 304 303 303 303 303 303 303 304 306 308 309 309 310 309 309 308 307 307 306 306 306 306 306 306 306 305 304 303 303 302 302 301 300 299 298 297 297 296 295 296 296 296 296

ECMWFFLT1_850_thetae_027.txt.gz
Theta_e
327 326 326 324 321 315 316 319 316 318 322 320 319 320 321 320 318 319 318 319 324 324 323 323 325 327 327 328 327 326 325 327 329 329 328 329 328 328 328 327 325 325 326 326 326 325 325 324 323 322 322 321 320 320 320 319 317 317 319 319 319 319 319
325 325 325 322 318 314 317 322 322 322 319 318 320 320 322 324 322 322 320 320 323 324 324 324 326 327 325 324 323 322 323 325 327 327 327 329 329 328 328 328 327 326 326 327 326 324 324 323 322 322 321 320 319 319 318 318 317 316 317 317 318 318 317
326 326 324 320 318 317 318 321 323 324 319 315 318 320 323 324 322 323 322 321 322 322 323 324 325 326 324 323 321 320 323 325 325 326 326 327 327 327 328 328 327 327 326 327 326 324 323 323 322 322 322 321 320 319 317 317 317 316 316 316 317 317 317
325 325 323 321 321 320 321 322 323 324 324 320 319 319 322 321 319 321 321 322 322 322 322 323 323 323 323 323 321 319 321 323 325 325 324 325 325 325 327 328 327 326 326 326 326 325 324 323 323 322 322 321 320 318 316 316 316 315 315 315 315 316 316
325 323 322 323 323 322 322 323 323 322 322 321 321 321 321 320 320 320 322 322 323 322 322 322 322 322 322 322 322 322 321 322 323 324 324 325 326 326 326 327 326 326 326 325 325 325 324 324 322 322 320 320 318 316 314 315 314 313 313 313 313 313 314
326 324 322 322 323 322 322 322 321 321 321 321 323 322 319 318 320 321 322 323 322 321 320 321 321 322 322 321 322 323 322 322 323 323 324 324 326 327 326 325 325 325 325 325 325 325 324 323 322 320 319 317 316 315 314 314 313 312 311 311 311 311 312
327 325 323 323 322 321 321 321 321 321 321 322 323 322 318 318 320 322 322 322 323 321 319 317 317 320 322 321 322 323 323 324 324 323 323 324 325 325 324 323 324 323 322 322 323 323 322 321 320 318 318 317 315 315 315 314 313 312 310 309 309 310 309
327 326 323 322 323 322 321 321 321 321 321 322 322 317 313 314 318 321 322 321 320 318 315 313 313 317 321 321 320 321 321 322 322 323 323 323 323 322 321 320 319 319 318 317 317 318 319 319 318 317 317 315 315 316 315 314 314 312 310 309 308 308 308
327 325 323 321 321 320 320 320 320 320 321 321 317 310 307 309 313 316 317 314 312 310 310 314 316 318 320 319 317 316 317 317 318 320 320 319 319 318 317 316 315 314 314 313 314 314 315 316 316 315 316 315 315 315 314 314 313 312 311 310 307 307 307
326 325 322 319 316 315 317 319 317 317 320 318 312 306 306 307 308 310 308 306 306 305 309 315 318 318 319 318 316 314 313 313 313 314 315 314 313 313 313 314 314 314 314 314 314 314 314 314 314 314 315 315 315 315 315 315 314 312 311 310 308 307 307
324 323 320 317 316 316 316 314 310 313 317 314 308 306 306 306 306 307 306 305 306 305 308 313 316 316 317 315 312 310 308 308 308 310 310 310 311 312 314 315 316 315 314 314 313 314 314 314 314 315 315 315 316 315 316 316 316 313 311 309 308 307 307
322 320 319 317 317 317 315 309 307 310 313 311 309 307 308 308 308 308 307 306 306 306 306 309 311 313 313 310 308 307 306 306 307 307 306 307 308 311 313 315 315 313 312 312 313 315 316 315 315 315 315 316 316 316 316 316 316 315 312 309 308 307 308
322 319 318 318 318 317 313 308 306 308 311 312 312 311 312 313 312 311 311 309 308 307 306 306 308 310 310 309 309 308 306 307 307 307 308 309 310 311 313 314 314 313 313 314 315 316 316 316 316 316 316 316 316 317 317 316 316 314 312 310 309 308 309
325 321 319 319 320 319 313 308 306 308 313 315 314 313 314 314 314 314 313 312 311 309 308 306 306 309 311 311 311 309 309 310 311 311 312 313 313 314 315 314 313 314 316 316 315 315 315 315 316 316 316 316 316 316 316 317 316 313 312 311 309 309 310
326 323 320 320 322 320 314 309 307 310 316 317 314 315 315 313 314 315 314 314 313 312 310 308 309 311 311 310 309 310 313 313 313 313 314 315 315 315 315 315 314 314 315 315 315 315 315 315 316 316 316 316 315 316 316 316 315 315 313 312 310 310 310
325 324 322 322 323 321 314 310 307 309 316 318 316 315 315 314 314 314 314 315 314 313 312 311 311 311 308 307 308 312 315 314 312 313 314 314 314 314 314 314 313 311 312 314 315 314 314 315 316 316 316 315 315 315 315 315 315 315 314 313 311 310 310
326 325 325 324 323 320 317 313 309 309 314 317 318 317 315 314 314 314 314 315 315 315 314 312 312 312 310 309 309 310 313 313 312 313 314 313 313 313 313 314 312 310 311 313 314 314 314 314 316 316 316 315 315 315 314 315 314 314 314 313 313 311 311
327 326 325 324 323 322 320 317 313 313 314 315 317 319 316 314 315 314 313 314 314 315 315 313 314 314 314 313 312 311 312 312 311 314 315 314 314 314 314 315 313 311 312 313 313 313 314 314 315 316 316 315 315 315 315 315 315 314 314 314 313 313 312
327 326 324 324 324 324 323 321 318 317 317 316 315 317 316 316 316 315 314 314 313 314 314 313 314 315 314 314 314 314 314 312 312 314 315 314 314 314 314 316 316 313 314 315 315 315 315 314 315 316 316 315 315 315 315 315 314 314 314 314 313 313 313
327 326 325 325 325 325 324 323 321 319 319 319 317 315 315 316 317 316 315 315 314 314 313 313 314 314 313 314 314 313 314 313 314 315 315 315 315 315 314 316 317 315 314 316 316 316 315 315 316 316 315 315 315 315 316 315 314 315 314 314 313 313 313
328 327 327 326 326 325 324 323 322 321 320 320 320 318 316 317 318 317 317 316 316 315 315 314 315 314 314 315 313 311 311 312 314 316 315 316 318 317 316 316 317 316 316 316 316 316 316 316 316 315 315 315 315 314 315 315 315 315 314 313 313 312 312
327 327 327 326 326 325 324 323 323 322 321 320 320 320 318 318 318 318 318 317 317 317 317 317 316 315 316 316 313 311 310 311 315 317 317 318 319 319 319 318 318 318 318 316 316 316 317 316 316 315 316 315 315 314 315 315 315 315 314 313 312 312 312
325 326 326 326 325 324 324 323 323 322 322 321 320 320 320 320 319 319 318 318 319 319 319 319 318 315 314 314 312 311 312 313 316 319 320 320 320 319 320 320 320 319 318 317 317 317 316 316 316 316 316 315 315 315 315 315 315 315 314 313 312 311 311
324 325 325 325 325 324 323 323 323 323 323 322 321 320 321 321 321 320 320 320 321 321 320 319 317 314 313 313 312 312 314 315 316 319 320 320 320 320 319 319 319 319 318 318 317 318 317 316 315 315 315 315 316 316 315 314 314 314 314 313 313 312 311
323 324 325 325 324 324 323 323 323 323 323 323 322 320 321 322 322 322 322 321 322 322 320 318 317 316 316 316 316 315 316 317 317 318 318 318 319 320 320 318 317 317 316 316 317 318 318 316 316 316 316 316 317 316 316 315 314 314 313 313 313 312 312
322 323 324 324 324 324 324 323 323 323 322 322 321 321 322 321 321 322 323 322 322 323 321 319 317 317 317 317 317 317 317 318 318 318 318 318 318 319 319 317 316 315 315 315 317 318 318 317 317 316 317 317 317 317 317 316 315 314 313 312 312 311 311
319 321 321 321 322 323 323 323 323 322 322 321 321 321 321 320 320 321 321 322 322 321 321 320 319 318 318 317 317 317 317 318 318 317 317 317 316 316 316 315 315 315 314 314 316 318 317 316 317 317 317 318 317 317 317 316 314 314 314 312 310 309 309
316 317 318 319 320 320 321 321 321 321 322 322 322 321 320 320 321 321 321 321 321 320 319 319 318 319 319 318 317 316 316 316 317 316 316 315 315 315 314 314 314 314 314 314 315 316 315 313 314 315 316 316 317 316 315 315 314 313 312 310 309 308 308
313 314 315 317 318 318 319 319 319 319 320 320 321 321 320 319 319 320 321 321 320 319 318 316 317 319 319 318 318 317 316 316 316 315 315 315 315 314 313 313 313 314 315 315 313 312 311 310 311 313 315 315 316 315 315 314 312 311 309 308 308 308 308
312 313 313 314 315 316 317 318 318 319 320 320 320 320 320 319 319 320 320 320 319 319 318 316 317 319 319 319 318 316 315 316 316 315 315 315 314 314 314 311 312 315 316 313 309 308 309 310 312 313 314 314 314 314 314 312 310 308 307 307 307 307 307
311 312 312 313 313 314 315 316 317 318 319 320 320 320 320 320 320 320 320 320 319 317 317 318 319 319 319 318 317 316 315 316 317 316 316 314 313 313 311 307 309 313 312 309 307 308 310 313 313 313 313 312 311 311 310 308 307 307 307 307 307 307 306
310 311 311 312 312 313 314 315 315 316 317 317 318 318 319 320 320 319 318 318 318 317 317 318 318 318 318 317 316 315 316 317 317 315 313 312 311 310 307 307 309 310 308 306 307 308 309 311 311 311 311 310 309 309 308 307 306 306 306 306 306 304 303
308 309 310 311 311 312 312 313 314 315 316 316 316 316 317 319 319 319 318 317 317 318 318 317 317 317 317 316 316 316 316 316 315 312 311 311 310 309 308 310 311 309 306 306 307 307 307 307 309 311 310 309 308 308 308 307 306 306 305 304 303 302 301
306 307 308 309 310 310 311 311 312 314 315 315 314 313 315 317 318 319 319 317 316 318 318 317 317 317 316 316 316 315 315 314 312 311 311 311 311 309 309 309 308 306 305 306 306 306 306 306 307 308 308 307 307 307 307 307 306 306 304 302 301 301 301
301 302 303 305 307 309 310 311 311 312 313 314 314 312 313 315 316 318 319 316 315 317 317 316 316 316 315 315 315 314 314 313 311 311 311 311 310 309 307 306 305 305 305 305 305 305 306 306 306 306 306 306 307 306 307 306 304 303 301 301 301 301 300
298 299 300 302 304 306 308 310 310 311 312 314 314 312 312 314 315 317 317 315 314 315 315 315 315 315 315 315 315 313 312 312 311 311 310 310 310 308 305 304 305 305 305 305 305 305 306 306 306 306 306 306 306 305 305 303 301 300 300 300 300 300 300
299 300 301 302 303 304 306 308 309 310 311 312 313 312 312 313 315 315 315 315 315 314 314 314 315 315 315 315 314 312 311 311 311 310 310 310 309 307 305 305 305 305 305 305 305 305 305 306 305 305 304 304 303 303 302 301 300 300 300 300 300 299 300

ECMWFFLT1_850_thetae_030.txt.gz
Theta_e
330 328 326 325 323 317 317 320 320 324 325 324 325 326 324 323 323 323 324 326 325 324 324 324 326 328 328 329 329 326 326 327 326 327 327 326 327 327 327 327 326 326 326 326 325 325 323 323 323 322 322 322 321 321 320 320 320 320 320 320 320 320 317
328 326 326 322 314 312 319 323 323 325 324 323 325 325 325 325 325 324 323 324 325 325 324 324 325 327 327 327 327 325 325 326 326 327 327 326 327 327 327 327 326 325 326 326 326 325 323 323 323 322 321 320 319 319 318 318 318 319 319 318 318 317 316
326 325 324 317 311 315 322 324 323 321 318 318 322 324 325 324 324 325 324 323 324 324 323 324 325 325 325 325 324 323 325 326 326 327 327 327 326 326 326 327 326 324 325 326 325 325 323 323 323 322 320 319 318 317 317 316 317 317 318 318 317 316 314
326 326 322 313 312 317 320 322 323 324 323 319 319 323 324 323 322 323 324 323 323 324 323 323 324 322 323 325 323 323 324 325 325 326 326 326 326 326 326 327 327 324 325 326 325 324 323 323 322 322 321 319 317 317 317 316 316 315 315 316 316 315 311
326 326 321 316 318 320 321 324 324 325 324 321 322 322 320 321 322 322 324 324 322 323 324 323 323 322 321 322 323 324 325 325 325 325 325 325 326 326 326 326 326 324 324 325 324 323 323 323 322 322 321 318 316 316 316 315 314 314 314 314 314 314 311
324 324 323 322 323 323 323 324 323 322 323 322 324 322 318 319 323 323 323 323 322 322 323 323 323 322 319 319 322 324 325 324 324 324 324 324 325 325 325 324 324 324 324 323 322 323 323 322 322 321 320 316 314 314 314 313 312 311 312 312 312 312 312
323 321 322 324 324 322 322 322 322 323 323 323 324 321 319 320 321 322 322 322 323 321 320 321 322 323 321 321 322 322 323 324 324 323 323 324 324 324 324 324 323 322 322 322 321 322 322 322 321 320 317 314 314 314 313 312 311 310 309 310 310 310 310
325 321 320 324 324 322 322 322 322 323 322 324 322 318 317 318 318 320 321 321 321 319 318 319 320 322 322 321 321 321 322 323 324 324 324 323 323 321 320 320 319 319 319 320 320 320 320 320 320 318 316 314 314 315 314 312 311 309 308 308 308 308 307
326 323 322 323 323 322 322 322 322 322 322 322 319 314 311 312 314 318 318 317 316 316 317 320 321 321 320 319 319 319 320 321 321 322 322 321 318 316 316 315 315 315 316 317 317 318 318 318 317 316 315 315 315 315 314 313 311 310 309 308 308 308 308
326 325 323 320 320 320 320 320 321 321 321 319 314 309 307 309 311 311 310 309 309 311 315 319 320 319 317 316 317 317 317 317 317 316 316 316 314 314 314 314 314 314 314 315 315 316 316 316 316 316 315 315 315 314 314 313 312 311 310 309 308 308 308
325 325 323 318 317 317 317 317 317 316 316 313 309 306 305 307 307 306 305 305 306 308 313 317 318 318 317 316 315 313 313 313 312 311 310 311 314 316 316 315 314 313 313 313 314 315 314 315 315 316 315 316 315 315 315 314 312 311 310 308 307 308 307
324 324 323 318 316 317 317 313 311 311 310 308 306 305 306 306 305 306 306 305 306 307 310 314 316 316 315 313 310 309 308 307 307 307 306 308 313 316 315 315 313 313 314 314 314 315 315 315 316 315 316 316 316 316 316 315 313 311 310 309 308 308 308
324 324 322 318 317 319 318 312 309 308 307 306 305 306 309 308 307 307 306 306 306 305 307 311 314 312 310 309 307 306 306 306 305 307 307 308 313 315 315 315 315 316 316 316 316 316 316 316 316 316 316 316 317 317 316 316 315 313 311 310 309 309 310
323 324 321 318 319 320 318 313 308 306 307 308 307 310 313 313 311 310 309 309 309 307 306 308 310 310 310 309 307 306 308 309 309 311 312 314 316 316 315 315 316 316 315 315 315 315 315 316 315 315 315 316 316 317 317 316 316 314 312 311 309 310 310
323 323 322 320 320 320 318 314 307 306 309 309 309 313 315 314 314 313 313 313 312 310 308 307 309 312 312 309 308 310 313 313 312 313 315 316 316 315 313 313 314 313 313 314 315 315 315 316 316 316 316 316 315 316 316 316 316 315 313 312 311 310 310
324 324 323 322 322 321 319 314 308 307 311 310 312 316 315 313 315 314 315 315 313 312 312 311 312 314 311 308 310 314 314 313 312 314 316 315 314 313 312 311 311 311 312 315 316 315 316 316 316 316 316 316 315 316 316 316 315 315 314 313 311 310 310
325 325 323 323 324 322 319 315 308 309 313 312 313 316 314 313 315 315 315 315 314 313 314 312 312 311 308 308 312 314 313 312 312 314 314 313 312 311 311 310 310 310 312 314 315 314 315 316 316 316 315 315 315 315 315 315 315 315 314 313 312 312 312
326 325 324 324 324 322 320 317 311 309 312 313 315 317 314 312 315 315 315 315 314 314 313 312 311 310 307 308 311 313 313 312 312 313 314 313 312 311 311 310 310 310 310 311 312 313 313 315 317 316 316 316 315 315 315 314 314 314 314 314 314 313 312
327 326 326 325 325 323 321 320 316 312 312 313 316 318 315 313 315 315 314 315 315 314 312 311 313 313 310 308 310 311 311 311 312 313 314 314 313 312 312 312 311 310 310 310 312 313 312 314 316 316 316 316 315 315 315 314 314 314 314 314 314 314 313
327 327 326 325 325 324 323 323 320 317 316 315 314 315 315 315 316 315 314 315 314 314 313 310 312 315 313 312 311 310 311 311 311 313 313 313 313 312 313 315 315 312 311 311 313 313 312 314 316 316 316 316 315 315 315 315 315 315 314 314 313 313 313
327 326 326 325 325 325 325 324 322 320 320 318 316 314 313 315 317 316 315 315 314 315 315 313 312 313 312 312 311 310 310 310 310 311 311 312 313 311 312 317 317 314 313 313 314 314 314 315 316 316 317 316 316 315 315 315 316 315 315 314 313 312 312
327 326 326 326 326 326 326 325 324 322 321 320 320 318 316 316 317 317 316 316 315 314 315 314 314 314 312 311 310 309 309 309 309 310 310 311 314 314 314 315 315 312 313 315 315 316 316 316 316 317 316 316 316 315 315 315 316 316 315 314 313 313 312
326 326 326 326 326 326 326 325 324 322 321 321 320 320 319 318 318 317 318 318 317 316 316 315 315 315 314 314 313 310 309 309 309 310 311 312 315 318 317 316 314 314 316 317 317 317 316 316 317 316 316 316 316 316 315 315 316 316 315 314 313 313 312
325 325 326 325 325 325 325 325 324 322 322 321 320 320 320 319 319 319 318 318 318 317 317 316 316 316 315 315 315 314 312 310 310 311 314 316 318 320 320 318 318 318 317 317 316 316 316 316 316 316 316 316 316 316 315 315 315 315 315 315 314 313 312
324 324 325 325 325 324 324 323 323 323 322 322 321 320 319 319 320 319 319 319 318 318 317 317 317 317 317 316 316 316 315 313 312 314 317 319 320 320 320 320 320 319 318 316 316 315 315 315 314 315 315 316 316 316 316 315 315 315 315 315 314 313 312
322 321 322 322 322 323 324 323 322 322 321 321 321 320 319 319 319 320 320 319 319 318 318 317 317 316 317 318 317 315 314 315 315 314 316 319 320 320 320 320 320 319 317 316 315 315 314 314 314 315 316 316 315 315 316 316 316 315 315 314 313 313 312
319 319 319 319 320 321 322 322 323 322 321 320 320 321 321 320 320 320 319 319 319 320 319 318 317 315 316 318 318 317 316 316 317 316 318 320 320 320 320 318 317 316 316 315 314 314 314 314 314 315 315 316 316 316 317 317 317 316 315 315 314 313 313
316 317 317 318 319 320 320 320 321 321 322 321 322 322 321 321 321 320 320 319 319 319 318 317 317 316 316 317 318 318 317 317 317 318 320 320 319 318 318 317 315 315 315 314 314 314 313 314 315 312 310 312 315 317 317 317 317 316 316 316 315 314 314
314 314 315 316 317 318 318 319 319 320 321 321 321 321 321 320 320 320 320 320 319 318 317 317 317 317 316 316 317 318 317 318 317 318 319 319 317 316 317 317 315 315 314 314 314 314 313 312 312 311 310 312 315 315 315 316 316 316 316 315 314 314 313
312 313 314 314 314 315 316 317 318 319 319 319 319 320 320 320 319 318 319 319 319 319 318 318 317 317 317 317 318 317 317 318 318 317 317 317 316 316 316 316 315 314 314 313 313 313 311 310 311 313 314 314 313 312 313 314 315 315 314 313 313 312 311
310 311 312 313 313 314 314 315 316 317 317 318 318 319 320 320 320 319 319 318 318 318 317 317 317 318 319 319 318 318 317 317 319 318 316 316 316 317 316 315 314 314 314 313 312 310 308 310 313 314 313 312 311 310 311 313 314 314 313 313 312 310 309
307 308 310 311 312 312 313 314 314 315 315 316 317 317 318 318 319 319 319 319 318 318 317 317 317 318 319 318 317 317 317 318 319 318 316 316 317 317 316 315 315 314 313 312 310 307 308 312 314 312 311 312 312 310 310 310 311 311 311 309 308 306 305
305 306 307 309 309 310 311 311 312 312 313 314 315 316 316 317 317 317 318 318 319 318 317 316 316 317 318 316 316 317 318 319 319 317 316 316 316 316 315 314 313 312 312 310 307 306 309 314 314 311 311 312 311 309 308 308 308 308 307 306 306 305 304
302 303 304 304 305 305 306 307 308 309 310 311 313 314 315 315 315 315 315 317 319 318 317 315 314 315 316 316 316 317 318 319 318 317 316 316 315 314 313 312 310 310 310 310 308 307 310 313 313 311 311 311 310 309 309 308 308 308 307 307 306 305 303
299 299 299 299 299 299 300 301 303 306 309 310 312 313 313 314 314 314 314 315 317 318 317 316 314 313 316 317 317 317 318 317 317 317 316 314 312 312 311 309 307 306 307 308 308 308 309 311 311 310 310 310 309 309 309 308 308 308 307 306 305 303 302
298 298 298 299 299 299 299 299 300 302 304 307 309 310 312 313 314 314 313 313 315 317 317 316 314 312 315 317 317 316 316 316 316 315 313 311 311 310 309 307 305 305 306 307 307 307 308 309 309 308 309 309 308 308 308 307 307 306 306 304 303 301 300
298 299 299 300 301 302 301 301 301 302 302 304 307 309 311 312 313 313 313 313 314 315 316 316 313 311 314 317 317 317 317 316 315 312 310 310 311 310 308 307 307 307 307 306 306 306 306 307 306 307 308 308 307 307 307 306 306 305 303 302 300 300 300

ECMWFFLT1_850_thetae_033.txt.gz
Theta_e
321 319 323 325 325 325 321 319 319 318 320 322 322 322 321 318 319 320 322 323 324 325 324 324 326 327 327 328 328 327 326 327 326 327 327 326 324 324 326 327 326 326 326 326 325 324 324 322 322 322 322 322 322 321 321 322 322 322 321 320 318 317 317
323 323 324 325 325 322 316 314 315 315 320 322 321 324 324 322 321 322 325 325 324 325 325 323 324 326 327 328 327 325 324 325 326 326 327 326 326 325 326 326 326 326 326 325 324 323 323 322 321 320 321 321 321 321 321 321 321 320 319 317 316 316 316
326 325 323 323 320 316 314 316 319 321 323 324 323 325 324 323 321 319 324 326 324 325 325 324 325 325 326 326 326 324 323 324 324 325 326 327 326 327 326 326 325 325 326 325 323 323 322 321 320 320 320 319 319 319 320 320 319 319 317 316 315 315 315
323 321 317 315 312 313 316 320 322 322 323 322 322 324 324 324 323 320 322 325 325 324 323 324 324 325 326 325 324 325 324 324 324 324 326 327 326 326 326 326 325 325 325 325 323 323 322 322 321 320 319 317 315 316 318 319 318 316 315 314 312 312 312
318 316 312 309 309 313 316 319 320 320 322 321 320 322 322 321 322 322 321 322 323 323 321 321 321 322 325 324 323 324 324 323 324 324 325 326 325 326 326 326 325 324 325 325 324 323 323 322 322 319 317 315 315 315 316 316 315 314 313 312 310 308 307
316 314 311 309 311 314 317 319 320 321 324 322 319 320 319 318 321 323 322 321 321 321 321 322 321 319 321 322 322 323 323 323 323 324 325 324 324 325 325 325 325 324 324 325 324 324 323 322 321 318 315 315 316 316 315 315 314 314 313 311 308 307 306
315 314 311 310 313 316 319 321 321 322 323 322 322 321 318 320 323 323 322 321 320 321 322 323 321 318 319 320 322 323 323 323 323 323 324 324 324 323 323 323 324 324 324 324 324 323 322 321 320 316 314 316 316 316 315 314 313 313 312 311 309 307 307
316 314 312 313 317 319 322 323 323 322 322 322 324 321 317 321 325 323 320 319 320 322 323 323 322 320 320 321 322 322 323 323 324 324 324 324 323 321 321 322 323 323 323 323 323 323 322 321 319 314 313 314 315 314 313 312 311 310 310 310 309 308 307
317 315 315 318 321 321 322 323 323 322 322 322 322 320 316 319 322 321 320 318 319 321 322 322 323 321 320 321 322 322 323 323 324 324 323 322 320 319 319 320 320 321 321 322 322 323 322 321 319 314 313 313 313 312 311 310 310 308 308 309 308 307 307
319 317 317 321 322 321 321 323 322 321 321 321 321 318 313 315 319 318 316 315 316 320 321 321 321 320 319 321 321 322 322 323 323 322 320 318 318 317 317 317 318 318 318 320 322 321 321 321 320 316 314 313 313 311 310 309 308 308 308 308 308 308 308
322 319 319 322 322 320 320 321 320 319 319 319 317 312 309 311 314 312 309 309 313 318 321 320 319 318 318 318 319 319 320 321 322 320 317 316 316 315 315 315 316 315 315 317 318 318 317 318 318 316 315 314 313 311 311 309 308 308 308 307 308 308 309
324 322 321 321 320 318 318 317 317 316 314 313 309 307 306 307 308 307 306 306 309 314 318 319 318 317 317 317 317 317 316 317 318 317 315 315 315 314 314 315 315 314 314 315 315 315 315 315 316 316 316 315 314 312 312 312 309 308 308 308 307 308 309
326 325 323 320 317 317 316 315 314 312 310 307 305 305 306 306 305 305 305 305 306 309 314 317 317 315 315 315 314 313 312 312 313 314 314 314 313 312 312 313 313 313 314 315 315 315 315 315 315 316 316 315 314 313 313 313 311 308 308 308 308 308 310
325 325 324 320 316 317 316 314 311 309 308 306 305 306 307 308 308 307 307 306 305 306 310 313 313 313 311 310 309 309 309 309 310 313 313 313 312 312 311 311 312 313 313 313 314 315 315 315 315 315 316 316 315 314 314 314 313 310 309 309 310 310 310
325 325 324 320 317 318 317 314 309 308 308 306 306 308 311 312 312 311 310 309 307 306 307 309 311 311 310 310 310 311 311 310 311 313 313 312 314 315 314 312 312 313 313 312 314 314 315 315 314 314 315 316 316 315 315 315 315 313 312 311 310 310 310
325 324 322 319 319 319 318 314 309 308 309 308 309 312 314 314 314 313 313 312 309 307 308 311 312 311 310 312 313 313 314 315 316 316 315 313 314 315 314 313 313 314 314 314 315 316 316 316 315 315 315 316 316 315 315 315 315 314 313 311 310 310 311
325 324 321 319 320 320 319 315 308 308 310 310 312 315 314 314 314 314 314 313 312 311 311 313 312 310 311 313 313 313 315 316 317 317 315 313 313 314 314 313 313 314 315 315 316 316 316 316 316 315 315 315 315 315 315 315 314 314 313 311 311 311 311
323 323 321 321 322 321 320 316 309 310 312 311 314 317 314 313 314 315 315 314 313 313 312 310 309 309 312 315 314 314 314 315 316 316 314 313 312 312 312 311 312 313 314 314 315 315 316 316 316 316 315 315 315 315 315 314 314 314 313 312 312 313 312
324 324 323 323 323 322 321 317 311 311 314 313 315 317 314 313 315 315 315 315 314 314 312 309 306 307 310 313 313 313 314 314 315 314 313 312 311 310 310 310 310 311 311 312 314 315 316 316 316 315 316 316 315 315 315 314 314 314 314 313 313 313 313
324 325 324 324 324 322 321 319 315 313 314 315 316 317 314 313 314 315 314 315 315 315 313 311 308 306 306 308 310 311 313 314 314 314 313 312 311 310 310 310 310 310 310 311 311 312 314 315 316 316 316 316 316 315 314 314 313 313 314 314 314 313 313
324 325 325 324 324 322 321 321 320 316 315 315 315 316 315 314 315 315 314 314 315 315 314 313 312 309 306 306 307 308 311 312 313 313 313 312 312 311 311 310 310 310 310 310 310 311 312 313 314 316 316 316 316 315 315 314 314 314 314 313 313 313 313
324 324 325 324 324 324 322 322 322 319 318 318 317 316 315 315 315 315 315 315 314 315 314 314 313 312 310 309 307 307 308 310 311 312 312 312 312 312 311 310 310 310 310 310 310 311 313 314 315 316 316 316 316 316 315 315 315 315 315 314 313 313 313
325 325 325 324 325 325 324 324 323 321 320 321 320 318 317 316 315 315 315 315 315 315 315 314 314 313 313 312 311 309 309 309 309 310 310 311 311 311 311 311 311 311 310 310 311 313 315 316 316 316 316 316 316 316 315 315 314 315 315 314 313 313 313
324 324 324 325 325 325 325 325 324 322 321 321 321 320 319 318 317 316 316 316 316 316 315 315 315 315 314 314 314 313 312 311 310 310 310 312 313 313 312 312 312 312 312 312 313 315 316 316 316 316 315 315 315 316 316 315 315 315 315 315 314 314 313
320 320 320 321 321 323 324 325 324 323 322 321 321 321 320 320 319 318 317 317 317 317 317 316 315 315 315 315 315 315 314 314 313 312 313 315 316 315 314 314 314 314 314 315 316 317 317 316 316 315 315 315 315 315 315 315 315 315 315 315 315 315 314
319 318 319 318 318 319 322 324 324 323 322 321 321 321 321 320 320 319 318 318 318 317 317 317 317 316 316 315 315 316 316 316 316 316 316 317 317 317 317 317 317 317 317 316 317 318 317 316 315 315 315 315 314 314 314 315 315 315 315 316 315 315 315
316 316 318 319 318 319 321 321 321 321 322 322 322 321 321 321 320 319 319 318 318 318 318 318 317 317 316 316 316 316 316 316 317 318 318 318 317 318 319 318 318 318 318 319 319 318 317 317 315 314 314 314 314 315 315 315 315 315 315 316 316 315 314
314 314 315 316 316 318 319 320 319 319 319 320 321 321 322 322 321 321 320 320 320 319 319 318 318 317 317 317 317 317 316 317 318 319 319 319 318 318 318 318 317 317 318 319 319 317 317 316 315 314 314 314 315 315 316 315 315 315 316 316 316 315 314
314 314 315 315 314 315 316 317 318 318 317 317 318 318 319 320 321 321 321 321 321 320 320 319 319 318 318 318 318 317 316 316 317 319 320 320 319 318 318 318 317 316 317 318 318 316 316 315 315 314 314 314 315 315 316 316 316 316 317 317 316 315 315
311 312 312 313 314 314 314 314 316 316 316 316 316 316 317 318 318 319 319 319 319 319 319 319 318 318 318 318 318 317 316 316 316 318 320 320 320 319 319 318 317 316 317 316 316 316 315 314 314 314 314 315 316 315 313 313 314 316 316 316 316 315 314
308 308 309 309 310 311 312 313 314 315 315 315 315 315 316 316 317 318 318 318 317 318 317 317 317 316 316 316 317 317 317 317 317 317 318 319 319 319 318 318 317 317 317 316 315 315 315 314 314 313 314 315 316 313 310 310 312 314 315 315 315 314 313
306 306 306 306 306 307 308 310 311 312 314 314 315 315 315 315 316 316 316 316 316 316 316 315 315 315 315 315 315 315 316 318 319 318 318 318 318 318 318 318 318 317 316 315 315 314 314 314 313 313 314 315 313 310 310 311 313 313 313 313 313 312 311
303 303 303 303 303 304 304 305 306 307 308 309 310 311 312 314 315 315 316 316 316 316 316 315 314 315 315 315 314 314 315 316 317 319 319 318 319 319 318 318 318 317 316 315 315 314 314 314 314 314 314 313 309 308 309 310 309 309 310 310 310 309 307
299 299 301 301 302 302 301 301 301 302 302 302 302 303 305 308 311 313 314 315 315 315 315 315 314 314 314 314 314 313 313 314 316 317 318 318 318 319 318 318 318 317 316 316 315 314 315 315 313 313 312 310 307 307 308 308 306 306 307 307 307 306 306
298 298 298 298 299 299 299 299 299 299 299 299 300 300 301 304 308 310 312 313 313 314 314 314 314 314 314 314 314 314 313 312 314 316 317 317 317 318 318 318 317 317 316 316 315 315 315 313 311 310 310 309 307 307 307 307 307 307 307 307 307 307 307
298 298 298 298 298 298 298 297 298 299 300 300 301 301 301 302 304 306 308 309 311 312 313 314 314 313 313 313 314 314 313 312 314 316 317 317 317 318 318 317 316 316 315 314 314 313 311 310 310 310 311 310 308 308 307 307 307 308 308 308 307 307 305
299 299 299 299 299 298 298 298 298 299 300 301 302 302 302 302 303 303 304 306 308 310 312 313 313 313 313 312 312 313 313 312 314 316 317 317 317 317 316 314 313 312 311 311 312 311 309 309 311 313 312 311 310 310 309 308 308 308 307 306 305 304 302

ECMWFFLT1_850_thetae_036.txt.gz
Theta_e
322 317 313 314 314 312 313 313 313 315 318 321 323 323 320 317 316 317 318 319 321 322 324 325 325 325 326 325 325 325 326 325 325 326 327 327 326 326 327 327 326 326 326 325 325 325 324 325 324 324 323 323 323 322 322 322 321 319 318 318 317 317 317
318 312 313 315 314 313 313 313 313 313 315 318 321 321 320 319 320 319 319 319 319 318 320 324 325 325 326 326 326 326 326 326 325 325 327 327 325 324 325 327 326 325 326 326 325 325 324 324 323 322 322 322 323 323 322 322 320 318 317 317 316 316 316
315 313 315 316 315 314 312 312 313 314 315 318 319 321 323 323 324 323 321 321 320 318 318 322 323 324 326 327 327 325 325 326 326 325 326 327 326 324 325 327 326 325 326 326 325 325 324 324 323 321 321 322 322 323 323 321 319 318 317 315 315 314 314
314 314 315 315 315 314 313 313 316 318 320 322 321 322 324 323 323 324 323 323 322 320 319 320 322 324 325 326 326 324 324 325 325 325 325 327 327 326 326 327 325 325 325 325 325 324 324 323 322 321 321 321 321 322 322 320 318 317 315 313 311 311 311
314 314 313 313 314 314 315 316 320 322 323 323 322 321 323 322 320 322 324 324 323 322 321 320 320 323 324 324 324 324 323 323 323 324 324 325 326 326 327 326 326 325 325 324 324 324 323 323 322 321 320 320 320 321 320 319 317 315 313 310 308 307 307
314 313 312 312 312 313 315 317 320 322 321 321 320 319 321 321 319 320 322 324 324 323 322 320 318 320 322 322 322 322 322 320 321 322 323 325 324 325 326 326 326 326 325 324 324 323 322 322 321 320 319 318 319 319 319 317 314 313 312 310 308 307 306
315 313 311 310 311 313 315 317 319 320 321 320 319 318 317 318 319 320 322 323 323 322 320 319 317 317 319 320 320 320 320 321 321 322 323 324 323 324 325 325 326 326 325 324 323 323 322 322 320 318 317 317 317 317 317 315 313 311 310 310 308 307 306
320 315 311 309 311 314 316 317 319 320 321 321 319 318 315 314 319 321 321 321 321 320 320 319 316 316 317 319 320 320 321 321 321 322 323 323 323 323 324 325 326 326 325 324 322 322 322 322 321 317 316 315 315 316 315 314 313 311 309 309 308 307 306
323 316 311 309 312 316 316 317 319 320 322 321 321 320 315 313 318 319 319 320 320 320 320 318 316 316 318 319 319 320 321 322 322 323 323 322 322 323 323 325 325 325 325 324 323 322 321 322 320 316 313 313 313 315 315 314 313 310 309 308 308 307 307
322 316 312 311 314 316 316 318 321 322 323 321 321 321 316 313 315 316 317 320 321 320 320 318 316 315 317 319 319 321 322 323 323 323 322 320 321 322 322 323 324 325 325 325 323 322 321 320 317 313 312 312 311 313 314 313 312 310 309 308 308 308 309
323 319 314 312 315 317 317 319 322 322 323 321 322 321 315 310 313 314 315 319 321 321 320 319 316 315 317 319 320 322 322 323 324 323 321 319 320 320 321 322 323 324 324 324 323 322 321 319 315 312 313 313 311 311 312 311 310 309 309 308 308 309 310
325 321 315 314 317 318 317 319 321 322 322 322 322 317 310 308 310 310 310 316 319 319 318 317 315 315 318 319 320 322 323 323 322 321 319 318 318 317 318 318 320 322 323 323 323 322 322 320 316 313 314 313 312 312 312 311 310 310 309 309 308 309 310
325 321 316 316 318 318 317 318 321 322 321 321 318 311 306 306 307 306 307 311 314 315 316 315 314 316 317 317 319 321 322 322 320 318 317 316 316 316 315 315 317 319 321 321 320 321 321 320 319 316 314 313 312 312 312 311 312 311 310 309 308 308 310
325 321 319 318 319 318 317 318 320 320 319 318 311 305 305 306 305 305 305 308 310 312 313 313 314 316 316 315 317 318 321 321 318 315 315 314 314 315 314 314 315 316 317 317 317 317 317 317 318 317 314 313 312 312 311 311 311 312 310 308 308 308 310
325 323 322 321 319 317 316 317 317 317 315 311 307 306 307 306 305 306 305 306 308 309 311 311 313 315 315 315 314 314 317 319 316 314 314 314 314 314 314 314 314 315 315 315 315 315 315 315 315 316 315 314 313 313 312 311 312 313 311 309 308 310 311
326 324 324 323 320 316 317 317 314 312 310 307 307 309 309 308 308 307 306 305 306 307 309 310 311 312 312 311 309 309 312 315 315 313 312 312 312 313 314 314 314 314 314 315 315 315 315 315 315 315 315 315 314 313 312 312 314 314 313 311 311 310 311
324 323 324 324 320 317 318 317 313 310 308 307 311 313 312 311 311 311 309 306 305 306 308 308 308 308 307 307 306 305 308 310 310 309 309 308 308 309 311 312 313 314 314 314 314 314 314 314 314 314 314 315 314 313 313 314 315 315 313 313 312 311 310
324 323 322 322 320 318 319 318 313 309 308 310 313 315 313 313 313 314 313 309 305 305 307 308 308 308 307 307 306 306 307 308 308 308 308 308 308 308 309 309 311 312 312 312 311 312 313 314 315 314 314 315 314 314 314 315 315 314 313 313 312 311 311
324 323 321 320 320 319 319 319 314 310 310 313 315 315 314 313 314 314 314 313 309 307 308 308 309 310 310 309 308 310 311 311 311 310 310 310 310 311 310 310 310 310 311 311 312 314 315 315 315 315 314 315 315 315 315 315 314 314 314 313 313 313 312
323 323 322 321 320 320 319 318 315 312 313 314 315 316 314 313 314 314 314 314 313 312 311 309 309 311 312 311 311 312 314 315 314 313 312 311 312 313 312 312 312 311 312 313 313 315 315 315 315 315 315 315 315 315 315 315 314 314 314 313 313 313 313
323 323 322 321 321 321 320 318 315 315 316 315 315 317 315 312 314 315 314 314 314 314 314 311 309 311 313 313 312 312 314 315 315 314 313 312 312 313 313 313 313 313 313 312 312 313 314 315 315 315 315 315 316 316 315 314 314 314 314 314 314 313 313
323 323 323 322 321 321 321 319 317 318 318 316 316 317 316 313 314 315 314 314 314 315 315 313 310 310 311 311 312 312 313 314 314 314 313 312 312 312 311 311 312 312 313 312 312 312 313 313 314 314 315 315 315 316 315 314 314 314 314 314 314 314 313
323 323 324 323 322 320 319 319 319 318 318 318 317 318 317 314 314 315 315 314 314 314 315 315 313 312 311 310 310 310 312 313 313 313 312 312 311 311 311 310 310 311 311 311 311 311 311 312 312 313 314 314 315 316 315 315 314 313 314 314 313 313 313
323 323 322 322 322 321 319 319 320 319 319 319 318 319 318 317 315 315 315 315 315 315 315 315 314 314 313 312 311 310 311 312 313 313 313 312 311 311 311 311 310 310 310 310 310 310 310 310 311 313 314 315 316 316 316 315 315 314 314 314 314 313 313
323 323 322 322 322 321 319 319 320 321 321 321 320 319 319 318 317 316 316 315 316 316 316 316 315 314 314 314 313 313 312 312 312 312 313 313 312 312 311 311 310 310 309 310 310 310 309 310 311 313 314 315 316 316 316 316 315 315 314 314 314 314 313
321 320 320 321 321 321 321 321 321 321 321 322 322 320 320 319 319 318 317 316 316 316 317 317 316 315 314 314 315 315 314 314 313 313 313 313 312 312 311 311 311 310 310 310 310 311 311 311 313 314 315 316 316 316 316 316 315 315 315 315 315 315 315
318 318 318 319 321 321 322 322 321 320 320 320 321 322 321 320 320 320 319 318 317 317 317 318 318 316 315 314 315 315 315 315 315 314 314 314 314 313 312 311 311 311 311 311 312 312 313 314 315 316 316 316 316 315 315 315 315 315 315 315 315 315 315
315 315 315 317 318 320 320 321 321 321 320 320 320 321 321 321 320 320 320 320 319 318 318 318 318 318 318 316 316 315 315 315 315 315 315 315 315 315 314 313 312 311 312 313 313 314 315 316 317 317 317 316 316 315 315 315 315 315 315 315 315 315 315
313 313 313 314 315 316 317 318 319 320 320 320 320 319 319 319 319 320 320 320 321 320 320 319 319 319 319 319 318 317 317 316 316 315 316 316 316 317 317 317 316 315 315 316 316 317 317 318 318 318 318 318 316 315 315 315 315 315 315 315 315 315 315
312 313 314 314 314 314 314 315 316 317 317 318 318 318 318 317 317 318 319 319 319 319 320 320 319 319 319 320 320 319 319 318 317 317 316 317 317 317 317 317 317 317 317 317 318 318 318 319 318 317 316 317 317 316 315 315 315 315 315 315 314 315 315
309 310 311 312 313 314 314 314 314 314 315 315 316 315 315 316 316 316 317 317 317 317 317 317 317 318 318 319 319 319 319 319 319 318 318 317 317 317 318 318 317 317 316 316 317 318 318 318 318 317 317 317 317 316 315 315 315 315 314 313 314 315 315
305 305 305 306 307 309 311 311 312 312 312 313 314 314 314 315 315 315 315 315 315 316 315 315 315 316 317 317 317 317 318 318 318 318 317 317 317 317 317 317 317 317 317 317 317 318 317 317 317 317 317 317 316 315 315 314 315 315 314 313 314 314 313
300 300 300 301 301 302 304 305 306 307 308 309 310 311 312 313 313 314 314 315 315 315 314 313 313 314 315 315 316 316 316 316 317 316 316 316 317 317 317 317 317 317 317 318 318 319 318 318 317 316 316 316 315 315 315 314 315 315 314 313 312 311 310
299 299 299 299 299 299 300 300 301 302 303 303 303 304 305 307 308 309 310 312 312 313 314 314 314 314 314 314 315 315 316 315 315 315 316 316 317 317 317 317 317 318 318 318 318 318 318 318 317 316 315 315 314 315 314 313 313 313 312 311 310 309 308
299 299 299 299 299 299 299 299 299 299 299 299 299 299 300 300 301 302 303 304 306 308 310 312 313 313 314 314 314 314 314 314 313 313 315 315 316 315 315 315 316 317 318 318 318 318 318 317 317 316 315 314 314 315 313 311 311 311 310 309 308 307 307
299 299 299 298 298 298 299 299 299 299 299 298 298 298 298 299 299 300 300 300 300 302 304 306 309 311 312 313 313 314 314 314 313 312 313 314 314 313 313 313 314 315 316 317 317 317 317 316 316 315 314 314 314 313 311 310 310 309 308 307 307 307 306
298 298 298 298 298 298 298 298 298 298 298 299 299 299 299 299 299 299 300 300 300 300 300 302 304 307 309 310 312 312 314 314 314 313 312 312 312 312 313 313 313 314 316 316 316 317 317 315 314 314 313 314 313 310 309 310 309 308 308 308 307 306 306

ECMWFFLT1_850_thetae_039.txt.gz
Theta_e
319 316 316 318 317 316 317 319 321 322 324 324 323 321 316 314 318 320 320 322 324 324 324 324 324 325 326 326 325 325 325 325 324 324 324 325 326 326 326 326 326 326 326 325 325 324 325 326 326 326 325 325 324 323 321 319 318 318 318 318 319 318 316
320 317 316 318 317 315 316 317 319 321 323 324 324 323 318 316 317 317 317 319 321 322 323 324 324 324 325 325 324 324 324 324 324 325 325 325 325 326 326 326 326 326 326 326 325 324 324 325 325 324 325 324 323 322 320 318 316 316 316 316 316 316 315
323 318 316 318 316 314 315 315 317 319 321 322 322 322 320 318 317 317 318 318 318 318 320 323 324 324 324 325 325 325 325 325 325 325 325 326 326 326 326 326 326 326 326 326 325 325 324 324 324 323 324 323 322 322 320 318 316 315 314 314 314 315 314
323 316 314 316 314 313 314 313 314 316 318 321 322 321 321 319 317 316 318 318 317 316 318 321 322 323 324 326 326 326 325 325 325 325 325 326 327 326 325 325 326 326 325 325 325 325 324 324 323 323 323 323 322 321 320 318 316 313 311 310 310 311 311
322 314 312 313 313 313 313 313 314 316 319 322 323 322 321 321 319 317 317 318 318 318 318 319 320 321 324 325 326 325 324 324 324 324 324 325 326 326 325 324 326 326 324 324 325 325 324 324 323 322 322 322 322 321 319 317 315 312 310 308 307 307 306
321 315 314 313 313 313 313 314 316 318 320 322 322 322 322 322 321 319 318 319 320 320 320 319 318 320 323 324 323 323 323 323 323 323 323 324 324 325 325 325 326 326 325 325 325 324 324 324 323 322 321 321 321 320 318 317 314 312 311 309 307 306 305
321 316 316 314 313 314 314 315 317 318 321 322 321 321 321 323 322 321 320 320 320 320 321 319 317 318 321 322 321 320 321 321 322 322 323 324 325 324 324 325 326 326 325 325 325 324 324 323 322 321 321 320 320 319 318 316 314 311 310 308 306 306 305
321 318 318 314 312 313 314 315 317 319 321 321 321 320 319 320 321 321 321 321 320 319 320 319 316 316 318 320 319 319 319 319 320 322 323 324 325 324 323 324 325 325 325 325 324 324 323 323 322 321 320 319 318 318 317 315 313 311 309 307 306 306 306
321 322 322 316 311 313 314 316 318 319 321 321 321 321 318 317 319 321 321 320 320 319 318 317 315 314 316 317 317 318 318 319 320 321 323 324 324 324 324 324 325 326 325 325 324 323 322 322 321 322 321 318 317 317 317 315 313 311 309 307 306 306 307
324 326 325 317 310 312 315 316 318 319 320 321 321 321 319 316 317 320 320 319 319 319 319 317 314 314 315 316 317 319 319 320 320 322 323 323 323 323 324 324 325 325 325 325 324 322 321 321 321 321 319 317 314 313 314 314 312 310 309 307 307 307 308
327 327 323 315 310 313 315 315 317 318 319 320 319 319 319 316 314 317 319 319 319 320 319 315 313 314 316 317 318 319 320 321 321 322 322 322 322 323 323 324 324 325 325 324 323 322 321 321 320 319 317 315 312 311 310 311 310 309 308 308 308 309 310
328 326 321 313 310 314 315 315 317 318 318 319 318 317 317 313 310 313 316 318 320 321 319 314 311 314 317 318 319 320 321 322 322 322 321 321 321 322 323 323 324 324 324 324 323 322 322 321 319 317 315 313 312 311 310 310 310 310 309 308 308 309 310
326 325 322 315 313 314 315 316 316 318 319 319 320 318 313 308 308 312 313 315 319 320 318 313 311 315 319 320 320 321 321 323 323 321 320 319 320 320 322 322 323 323 323 324 323 321 321 320 318 315 314 313 312 311 311 311 311 311 310 308 308 309 309
325 326 324 319 316 316 316 316 316 317 318 319 319 316 309 306 308 310 309 311 317 319 316 312 310 315 319 320 321 322 322 322 322 321 319 317 317 318 319 321 322 323 323 323 322 321 319 318 317 315 313 312 313 312 311 311 311 311 311 309 309 308 309
324 325 324 321 320 319 317 316 316 316 315 315 314 309 305 305 306 306 306 309 315 317 314 311 311 315 318 319 321 322 322 322 320 319 317 316 315 315 317 320 322 322 323 323 322 321 320 319 318 316 315 314 313 313 312 311 311 311 311 311 310 309 310
323 323 323 322 322 321 318 316 316 315 313 311 308 306 305 306 305 305 305 307 311 313 312 311 311 315 316 317 318 319 321 322 318 315 315 315 315 314 315 318 320 321 321 320 319 319 318 318 317 317 317 316 314 313 313 312 311 311 312 312 311 311 311
322 323 322 322 322 321 319 318 316 314 310 307 306 306 307 306 306 306 305 306 307 309 310 310 311 314 315 316 316 316 318 320 318 315 314 314 314 314 314 315 317 317 317 316 316 316 316 316 316 315 316 316 315 314 313 313 312 311 312 313 313 312 311
322 322 323 323 323 321 319 318 317 312 308 307 307 307 308 308 308 308 307 306 305 306 309 310 310 311 313 313 313 312 313 316 317 315 314 314 313 313 314 314 314 315 315 315 315 315 315 315 315 314 315 315 315 314 314 313 312 311 313 314 314 312 311
323 322 323 324 323 321 319 319 318 313 308 308 310 310 310 310 310 311 312 310 307 305 307 309 309 309 310 309 309 308 309 312 314 314 313 313 312 312 313 314 314 314 314 314 314 314 314 314 314 314 314 314 314 314 314 313 312 312 314 314 313 313 311
323 322 323 323 322 321 319 319 318 314 310 310 312 313 312 312 311 312 313 313 311 309 308 308 308 309 310 309 308 307 306 308 310 311 311 312 312 313 314 314 313 314 314 314 314 313 313 313 313 313 314 314 314 314 314 313 312 313 314 314 313 312 312
323 323 323 323 322 320 319 319 318 315 312 312 313 314 314 313 313 313 314 314 314 313 312 311 309 308 309 310 309 308 307 308 309 311 311 312 313 314 315 314 314 314 314 314 313 312 312 313 314 315 315 315 314 314 314 313 314 314 314 314 313 312 312
322 323 323 322 321 320 319 319 318 315 315 315 315 315 316 315 313 313 314 314 314 314 314 314 311 309 308 308 309 309 309 310 311 312 313 313 313 314 314 315 314 314 314 314 314 314 313 313 314 314 314 315 315 315 315 314 315 315 314 314 313 313 313
323 323 323 322 321 321 320 320 318 316 317 318 316 315 316 316 313 313 314 314 314 314 314 314 314 312 309 308 308 309 310 310 311 312 313 313 312 312 313 314 314 314 314 314 313 314 314 314 314 314 314 315 315 315 315 315 315 315 314 314 314 313 313
323 322 322 323 321 320 320 319 318 317 317 319 318 317 317 317 314 313 314 314 315 314 314 314 314 314 313 311 310 309 309 310 310 311 311 312 312 312 312 313 313 313 313 313 313 313 313 313 314 314 314 314 314 315 314 314 315 315 315 314 314 314 313
322 321 321 322 321 320 319 319 318 318 317 318 319 318 318 318 317 315 315 315 315 315 315 315 315 315 314 314 313 312 311 310 310 310 310 311 312 312 312 312 312 312 311 311 312 312 311 311 312 312 312 313 314 315 315 315 315 315 315 315 314 314 313
322 321 321 322 321 321 319 319 319 319 318 318 318 318 318 319 318 317 317 316 316 316 316 316 316 316 316 315 314 314 314 313 312 311 310 310 310 311 311 311 312 312 311 311 311 311 310 310 310 310 310 311 312 314 315 315 315 315 315 315 315 315 314
320 320 321 321 321 321 320 320 320 320 320 320 319 318 318 319 318 318 318 318 317 317 317 316 316 317 317 316 315 314 314 314 314 314 313 312 312 311 311 310 310 310 310 310 310 310 310 310 310 310 310 310 311 313 314 315 315 315 316 316 315 315 315
318 319 319 320 320 320 320 319 320 320 320 320 319 317 317 319 319 319 319 319 319 319 319 318 318 318 318 318 317 316 315 314 314 315 315 314 314 314 313 313 312 312 311 311 311 310 310 311 311 312 312 312 312 312 313 314 315 315 316 316 315 315 315
315 316 317 318 318 319 319 319 320 319 319 319 319 318 318 319 321 320 320 320 320 320 320 320 320 320 320 319 319 318 318 317 316 315 315 315 315 315 315 315 314 314 314 314 314 314 313 314 314 314 314 314 314 314 314 315 315 316 316 315 315 315 315
311 312 313 314 315 316 317 318 319 319 319 319 319 319 320 320 320 320 320 320 320 320 320 320 321 321 320 320 320 320 319 319 319 318 317 317 316 316 315 315 315 315 315 316 316 316 316 316 316 316 316 316 316 316 316 316 316 316 316 315 315 315 315
306 308 310 311 313 314 314 316 317 317 318 318 318 318 318 319 318 318 318 318 318 318 319 319 320 320 320 319 319 319 319 319 319 319 319 318 318 318 317 316 316 316 316 316 317 317 317 317 317 317 316 317 317 316 316 316 317 317 316 316 315 315 315
304 304 305 306 308 309 310 311 312 313 314 315 315 316 316 316 316 316 316 316 316 316 317 317 318 318 318 318 318 318 318 318 318 318 318 318 318 318 318 318 318 317 317 317 317 317 318 318 317 317 316 316 316 316 315 315 316 317 316 316 316 315 314
306 305 304 304 304 304 305 305 306 307 308 309 310 311 312 314 314 314 315 315 315 315 315 315 315 316 316 316 316 316 316 316 317 317 317 317 317 317 317 317 317 317 317 317 317 317 317 318 317 317 317 316 315 315 315 314 314 315 316 316 315 314 313
304 304 304 303 303 302 302 302 303 303 303 304 304 305 306 308 309 311 312 312 313 313 313 313 314 314 314 314 314 314 315 315 316 316 316 316 316 316 316 316 316 316 316 316 316 315 316 317 317 317 317 316 315 315 315 314 314 314 314 314 314 313 313
301 301 301 301 301 301 301 300 300 300 301 301 301 301 302 302 303 304 305 306 306 306 307 308 309 311 312 313 313 313 314 314 314 315 315 315 315 315 315 314 314 314 314 314 314 313 313 314 315 316 316 316 316 316 316 316 314 314 313 313 313 313 312
299 299 299 299 299 299 299 299 299 299 299 299 299 299 299 299 300 300 300 300 300 300 301 301 302 303 305 307 309 311 313 313 313 313 313 313 314 314 314 314 313 313 312 312 312 312 312 312 313 315 316 316 316 316 316 316 315 313 313 313 313 312 310
298 298 298 298 298 298 298 298 298 298 298 298 298 298 298 298 299 299 298 299 299 299 299 299 299 299 299 300 301 303 306 309 311 312 312 312 312 313 313 314 314 313 312 312 312 313 313 312 312 313 315 316 316 317 317 316 315 314 313 312 311 309 307

ECMWFFLT1_850_thetae_042.txt.gz
Theta_e
323 322 323 323 323 322 321 322 323 322 322 321 321 320 318 319 322 323 324 325 326 325 326 325 325 325 325 324 324 323 323 322 323 323 323 324 326 326 326 326 325 325 325 325 324 324 325 326 326 326 325 324 323 321 319 318 318 318 319 320 320 317 314
324 323 322 322 322 321 321 323 323 322 321 320 320 318 314 313 317 320 321 323 325 325 326 325 325 325 325 325 325 324 323 323 324 323 323 324 325 326 327 326 326 326 326 325 325 324 324 325 325 325 324 322 320 318 316 315 315 316 316 316 316 315 314
324 323 322 323 321 320 321 322 323 322 322 321 320 318 315 313 315 317 318 320 323 323 324 325 325 325 325 325 325 324 324 324 324 324 323 324 325 326 327 326 326 326 326 325 325 325 324 324 324 325 323 321 319 317 315 314 314 314 315 314 314 314 314
322 321 321 321 319 319 320 321 322 321 321 321 320 319 317 315 315 316 317 318 320 320 321 323 324 324 325 326 325 325 324 325 325 324 324 324 324 326 326 326 326 326 326 325 325 325 324 324 324 324 323 320 319 317 314 312 311 311 312 312 313 312 310
321 317 317 318 316 317 318 319 320 319 320 322 322 320 318 316 315 315 317 319 319 319 320 321 322 323 325 326 326 326 325 324 325 325 325 324 324 325 325 325 326 326 326 325 325 325 324 324 324 323 322 320 319 317 314 310 308 307 308 308 309 308 306
320 316 315 315 315 317 317 317 318 319 321 322 321 320 319 317 316 315 316 318 319 320 321 320 320 321 323 325 326 326 325 323 324 324 324 325 325 325 325 325 325 326 326 325 325 325 325 324 323 323 321 320 319 316 313 311 309 307 306 306 306 305 304
321 317 315 316 317 318 316 316 318 319 320 320 318 317 316 315 315 313 314 318 320 321 321 321 319 319 321 324 325 324 324 323 323 323 323 324 325 325 326 325 325 326 325 325 325 325 325 324 323 323 321 320 319 316 314 311 310 308 306 306 306 305 305
323 319 318 318 318 316 315 315 318 319 320 319 319 318 314 310 310 311 313 317 319 320 320 320 319 317 320 323 322 321 322 322 321 321 321 323 324 324 325 325 325 326 325 324 325 325 325 324 323 323 321 320 319 317 315 312 310 308 307 306 306 306 305
325 322 319 319 318 315 314 316 317 319 320 320 320 319 315 310 308 310 313 316 319 319 318 318 317 316 318 321 321 320 321 321 321 320 320 321 323 324 324 324 325 325 325 324 325 325 324 324 323 322 321 320 319 317 315 313 311 309 307 306 306 306 306
325 322 319 319 318 316 315 316 318 319 320 320 320 320 316 311 309 310 312 315 317 318 318 318 317 314 316 319 320 321 321 321 321 321 320 321 323 323 323 323 324 324 324 324 324 324 324 323 323 322 321 320 317 316 314 313 311 309 307 306 306 308 309
325 322 322 323 321 317 316 317 318 319 320 320 320 318 316 312 309 311 313 314 316 317 318 318 316 315 316 318 319 320 321 321 321 320 321 321 322 323 323 323 323 324 324 324 324 324 323 323 322 322 321 318 315 314 311 310 309 308 307 306 307 309 310
325 324 325 325 322 317 316 317 318 319 319 319 320 318 314 309 307 311 314 316 317 318 319 317 314 315 318 318 319 320 320 321 321 321 322 321 322 322 322 322 323 324 324 324 325 323 322 322 321 321 321 317 314 313 310 308 308 308 308 307 308 310 310
325 326 326 322 317 316 317 318 318 319 319 318 319 317 312 307 306 308 311 314 316 320 320 316 312 314 318 319 319 321 321 322 322 322 321 321 321 321 321 322 323 324 325 324 324 323 321 321 321 321 320 316 313 311 309 308 309 309 308 308 308 310 310
326 327 325 318 313 314 317 317 318 319 318 316 316 314 309 306 306 307 308 308 313 319 320 315 311 314 318 320 321 322 322 322 323 321 320 319 319 319 320 322 323 324 324 324 323 322 321 321 321 320 318 316 313 311 310 310 310 310 309 308 308 309 309
328 327 323 318 315 316 318 318 318 318 316 314 312 309 306 305 305 306 305 304 308 315 317 312 310 314 318 320 321 322 322 322 322 319 318 317 317 317 318 320 322 323 324 324 323 322 321 321 320 318 316 314 313 312 311 311 310 310 310 309 309 309 309
327 326 323 321 318 318 319 319 318 316 314 311 308 306 305 305 305 305 305 304 305 309 311 308 308 313 317 318 320 321 321 322 320 317 315 315 315 315 316 319 321 322 323 323 323 322 321 320 318 316 314 313 313 312 312 312 311 310 310 310 310 309 308
326 325 323 322 320 320 321 319 317 316 313 308 306 305 305 305 305 305 305 305 305 306 307 307 308 312 315 316 317 318 319 321 320 316 314 315 315 314 315 318 321 322 322 322 321 320 320 319 318 317 316 315 314 314 313 313 312 311 310 310 310 310 309
326 324 323 321 320 322 322 319 317 315 310 307 306 306 306 307 307 307 306 305 304 305 305 307 309 311 314 315 315 315 315 317 319 317 314 314 314 314 314 316 319 321 320 319 319 318 318 317 317 317 317 317 317 316 315 314 313 312 311 310 310 310 309
325 323 323 322 321 322 321 319 317 314 309 307 308 308 308 309 309 310 310 308 306 304 305 307 309 310 312 313 313 313 311 313 316 316 315 314 314 313 314 314 316 317 317 316 316 315 315 315 315 315 315 316 316 316 316 316 315 314 313 311 310 311 310
324 323 322 323 323 322 320 318 318 315 310 309 310 310 310 311 311 312 313 312 310 309 308 308 308 308 309 310 309 309 308 309 312 315 315 314 313 312 313 314 314 314 315 315 314 314 314 314 314 314 314 314 314 314 315 316 316 316 315 312 311 311 311
324 323 323 323 322 322 321 319 319 316 313 312 312 313 313 313 312 312 313 313 313 313 312 311 310 309 308 308 309 309 309 308 309 312 313 313 312 311 312 313 314 314 314 314 314 314 314 314 313 313 314 313 313 314 314 315 316 316 315 312 311 313 312
324 324 322 320 319 321 321 319 319 317 315 314 313 314 315 315 314 313 313 314 314 314 314 314 313 312 309 309 309 310 311 309 308 310 312 312 313 313 313 313 314 314 314 314 314 314 314 314 314 314 314 314 314 314 314 314 314 314 314 312 312 314 313
323 322 321 319 319 321 321 319 319 318 316 315 314 314 315 316 314 313 313 314 314 314 314 314 314 314 313 311 309 309 311 311 311 312 314 315 315 315 315 314 314 314 314 314 314 314 314 314 315 314 314 314 314 314 315 314 314 314 314 313 313 314 314
321 320 321 321 320 321 321 319 319 318 316 315 315 315 315 316 315 314 313 313 314 314 314 314 314 314 314 313 312 311 311 311 312 312 313 314 314 315 315 315 315 315 315 314 314 314 314 314 315 314 314 314 314 315 315 315 315 315 314 314 314 314 314
321 321 321 321 321 321 321 320 319 318 316 316 316 317 317 317 317 315 314 314 314 314 315 315 315 315 315 315 314 313 312 312 312 311 311 311 312 312 313 314 315 315 314 314 314 314 314 313 314 314 314 314 314 314 314 315 315 314 314 314 314 315 315
321 321 321 322 322 321 321 320 318 318 317 316 317 318 318 318 318 317 317 316 315 316 316 316 316 316 316 316 316 315 314 314 313 313 313 312 312 312 312 312 313 313 313 313 313 313 313 312 312 312 313 313 313 312 313 313 313 314 314 314 314 314 315
320 321 321 321 321 320 320 319 318 318 317 316 316 317 318 318 318 318 318 317 317 317 316 316 316 316 316 316 316 316 316 315 315 314 314 314 314 314 313 313 312 312 312 312 312 312 312 312 312 311 312 312 311 312 312 312 312 313 313 314 314 314 315
319 320 320 320 320 319 319 319 319 319 319 318 317 318 318 318 318 318 318 318 318 318 317 317 317 317 317 316 316 317 317 316 316 315 315 315 314 314 314 314 314 314 314 314 313 313 313 313 313 313 313 313 313 313 313 313 313 313 313 314 314 315 315
315 316 317 318 319 319 319 319 319 319 319 319 319 319 319 319 318 318 319 319 319 319 319 319 319 319 319 318 318 318 318 318 317 317 317 316 315 315 315 314 314 315 315 315 314 315 315 315 315 315 315 315 315 315 315 314 314 315 314 315 314 315 315
311 312 313 315 317 317 317 318 318 318 318 319 319 319 318 318 318 318 319 320 320 320 320 320 320 320 320 320 319 319 319 319 318 318 318 317 317 317 317 316 316 316 316 315 315 315 315 315 315 315 315 315 316 316 316 316 316 316 316 316 316 316 315
308 308 310 312 313 313 314 315 315 316 317 318 318 318 318 318 318 318 319 319 319 319 319 319 319 319 319 319 320 320 319 319 319 319 319 318 318 318 318 318 318 318 317 317 317 316 316 316 316 316 316 316 316 316 317 317 317 316 316 316 316 316 315
307 307 307 308 308 308 309 310 310 311 313 314 315 316 316 316 316 316 317 317 317 317 316 316 316 316 317 318 318 318 319 319 319 319 319 318 318 318 318 318 318 318 318 318 318 318 318 317 317 317 317 317 317 317 317 317 317 316 316 316 316 316 315
307 308 308 308 308 307 307 307 307 307 308 309 310 311 312 313 313 313 313 314 314 315 315 314 314 314 314 315 315 315 316 316 316 316 316 317 317 317 317 317 317 317 317 317 317 317 317 317 317 317 317 317 317 317 317 317 317 316 316 316 316 315 315
305 306 307 308 309 308 308 307 306 307 306 306 306 307 307 307 307 308 308 309 309 310 311 311 311 311 310 310 311 312 312 313 313 313 314 314 314 314 315 315 315 316 316 316 316 316 316 316 316 316 316 315 315 315 315 315 316 316 316 316 315 315 314
301 302 302 303 304 304 304 304 304 304 304 304 304 304 304 304 304 303 303 304 304 304 305 305 306 306 305 305 306 306 307 307 309 310 310 311 312 312 312 313 313 314 315 315 315 315 314 314 314 314 314 313 313 312 312 312 313 314 315 316 315 315 314
299 299 299 299 299 300 300 300 300 301 301 301 301 301 301 300 300 300 300 300 300 300 300 300 300 301 301 301 301 301 301 302 303 304 305 306 307 308 309 309 311 312 313 313 314 314 313 313 312 312 312 312 312 312 311 311 311 312 313 314 314 314 314
298 298 298 298 298 298 298 298 299 299 299 299 299 299 299 299 299 299 299 299 299 299 299 299 299 299 299 299 299 299 299 299 299 299 300 300 301 302 303 303 305 307 309 311 312 313 313 313 312 311 311 312 312 312 311 311 310 310 311 312 313 314 314

ECMWFFLT1_850_thetae_045.txt.gz
Theta_e
325 324 325 325 325 325 324 323 323 323 322 321 321 321 322 323 324 323 323 324 325 325 325 324 324 324 323 323 323 323 323 323 324 324 325 326 326 326 326 326 325 325 325 325 324 325 325 326 326 325 326 326 325 325 325 324 324 323 323 322 319 317 317
325 324 323 324 323 322 320 320 320 319 317 316 316 317 317 317 320 321 322 323 324 325 325 325 325 325 325 324 323 323 323 323 324 324 324 325 326 327 327 326 326 325 326 325 325 324 325 325 325 325 325 324 322 321 320 320 320 320 320 318 316 316 315
325 323 323 323 321 319 318 318 318 317 316 315 315 314 313 313 317 319 319 321 323 324 324 324 325 325 325 325 325 324 324 324 324 324 324 324 326 327 327 327 326 326 326 326 325 325 325 324 325 325 324 322 319 317 316 317 316 317 316 315 315 314 313
324 324 323 320 317 316 317 317 317 316 317 317 316 315 314 315 318 319 318 319 321 322 322 323 324 325 325 325 325 325 325 325 325 325 324 324 325 326 326 327 327 327 326 326 325 325 325 325 325 324 323 321 317 315 314 314 314 314 314 313 312 311 310
323 323 320 315 314 315 316 316 316 317 318 318 317 317 316 317 318 319 320 320 320 320 319 321 322 323 324 325 325 325 325 325 325 325 325 325 325 325 326 326 326 327 326 325 325 325 325 324 324 324 323 321 318 314 312 312 311 312 312 312 310 308 306
323 321 316 314 314 315 315 316 317 318 318 317 316 316 316 316 316 317 319 320 320 320 320 320 320 321 323 324 325 326 326 326 325 326 326 326 325 325 326 326 326 326 326 326 326 325 325 324 324 324 322 321 318 313 310 309 308 308 309 309 308 305 304
322 318 315 314 315 315 316 318 319 319 317 315 314 313 312 315 315 315 317 320 320 320 321 321 320 319 320 323 325 326 326 326 325 325 326 326 325 325 326 326 326 325 326 326 325 325 325 324 324 324 322 321 318 314 311 309 307 307 307 306 305 304 304
321 317 316 316 316 317 318 320 320 319 317 316 315 313 310 312 314 314 316 319 320 321 321 321 320 318 319 322 325 324 325 324 324 324 325 325 325 325 325 326 325 325 325 325 325 325 325 324 324 323 323 321 318 316 314 311 309 308 306 305 305 305 305
320 318 318 318 318 318 319 320 320 319 319 317 316 314 310 310 312 314 316 318 319 319 320 320 319 317 318 322 323 322 322 322 322 323 322 322 323 324 325 326 325 325 325 325 325 325 325 324 324 323 323 321 318 317 315 313 312 309 306 305 305 305 306
321 319 319 319 318 318 319 321 320 320 319 317 316 315 311 309 311 314 315 317 318 319 319 319 317 316 316 320 322 320 320 320 320 321 320 321 322 323 324 325 325 326 326 325 324 325 324 324 323 323 322 320 318 318 315 314 313 310 307 305 305 306 307
323 321 320 318 317 317 319 320 321 320 320 318 317 315 311 309 310 313 315 316 317 318 319 318 316 314 315 317 319 319 319 320 320 321 321 321 322 323 324 324 324 326 325 325 324 324 324 324 323 323 322 319 317 317 315 313 312 309 307 306 306 307 309
323 321 321 320 317 317 318 320 320 321 321 320 317 314 311 308 308 311 313 314 315 316 317 316 314 315 316 317 318 318 319 320 321 322 322 322 322 322 323 323 324 325 325 325 324 324 323 323 323 322 322 320 316 316 315 312 311 308 307 307 308 309 310
323 321 323 323 319 317 318 319 320 321 321 320 317 313 310 308 307 309 310 311 312 314 314 312 312 315 318 318 318 319 320 321 322 322 322 321 321 321 322 323 323 324 325 325 324 323 322 322 322 321 322 320 315 313 312 310 311 310 308 308 309 309 310
323 323 325 324 319 317 318 320 320 320 320 318 315 311 308 306 306 307 308 309 310 312 312 310 311 316 319 319 319 320 321 322 322 322 320 318 318 319 321 322 323 324 325 325 324 323 321 321 322 321 321 320 314 310 309 309 311 310 309 309 309 309 310
323 325 325 321 317 317 319 319 318 318 316 315 312 308 306 305 305 306 306 306 308 311 311 309 311 316 319 320 321 321 322 322 322 320 318 316 316 316 318 322 323 324 325 325 323 322 321 321 321 320 320 319 314 310 309 309 310 310 309 310 310 309 310
324 326 324 317 316 319 320 319 317 316 314 311 308 306 305 304 305 305 305 305 307 309 309 307 309 315 319 319 320 321 322 322 321 319 316 315 315 314 316 320 323 324 324 324 323 322 322 321 321 320 318 317 315 312 311 310 310 310 310 310 310 310 309
325 326 322 317 318 321 321 319 317 315 312 308 306 305 305 305 305 305 304 305 306 307 307 305 307 313 317 318 319 320 321 321 320 318 315 314 315 314 315 319 323 323 324 324 322 322 321 319 319 317 315 314 314 313 312 312 312 311 310 310 309 309 309
326 325 322 319 321 322 321 319 316 313 309 306 306 306 306 306 305 305 305 305 306 306 306 306 307 311 315 317 317 318 319 320 320 318 315 315 315 314 315 319 322 323 323 323 321 320 319 318 317 316 314 314 314 314 314 314 313 313 312 311 310 309 309
324 323 322 321 322 322 321 318 315 310 308 307 308 308 308 308 308 307 306 305 305 305 306 308 309 311 313 315 315 315 315 317 319 318 316 315 315 314 314 317 321 323 322 321 319 318 317 317 317 316 315 315 315 315 315 316 316 316 315 314 312 311 309
324 323 323 322 322 322 320 318 314 310 309 310 310 310 311 311 311 312 311 309 308 307 308 308 309 310 311 312 313 313 311 311 314 317 317 316 315 314 313 315 317 320 321 320 318 317 316 316 316 315 314 314 315 315 315 316 317 318 317 317 316 313 311
324 323 323 322 322 321 319 318 314 310 311 312 312 312 313 313 313 313 313 313 313 312 311 311 310 309 308 308 309 308 307 306 308 311 315 316 315 313 312 313 315 316 317 317 316 316 315 315 314 314 314 314 314 314 314 315 315 317 318 318 318 316 314
323 323 323 322 322 320 319 318 315 312 312 313 314 314 314 314 313 313 313 314 314 314 314 313 313 312 310 308 308 307 308 306 305 307 310 313 312 311 311 312 314 314 315 314 314 314 314 314 314 314 314 314 314 314 314 314 314 314 315 316 317 317 316
322 322 322 321 321 320 319 319 317 315 315 315 314 314 315 315 314 313 314 314 314 314 314 314 314 314 313 311 309 309 310 310 308 308 309 311 311 311 311 312 313 314 314 314 314 314 314 314 314 314 315 315 315 315 315 314 315 314 314 314 315 315 314
322 322 322 321 320 318 318 318 317 316 317 317 314 313 315 316 315 314 313 313 314 314 314 314 314 314 314 313 312 310 310 311 311 311 312 314 314 314 314 314 314 314 314 314 314 314 314 314 314 314 315 315 315 314 314 315 315 315 315 315 314 314 314
322 321 320 319 318 317 318 319 318 318 317 316 315 315 315 316 316 315 313 313 313 314 314 314 314 314 314 314 314 313 312 312 312 312 313 314 314 314 314 314 314 314 314 314 314 314 314 314 314 314 314 314 314 314 314 314 314 314 314 314 315 314 315
321 320 320 319 319 319 319 319 319 318 318 317 317 317 317 316 317 316 315 314 314 314 315 315 315 315 315 315 315 314 314 313 313 313 312 312 312 312 312 312 312 313 313 313 314 314 314 313 314 313 313 312 312 312 312 312 312 312 312 312 313 313 313
321 321 320 320 320 320 320 319 319 318 318 318 318 318 318 318 318 318 318 317 317 316 316 316 316 316 316 316 315 315 315 315 314 314 314 313 313 313 312 312 312 312 312 313 313 313 313 313 313 313 313 312 312 312 312 312 312 312 312 312 312 312 312
320 320 320 319 319 319 319 318 318 318 318 318 317 317 318 318 318 318 318 318 318 318 317 317 317 317 317 317 317 316 316 316 316 316 316 315 315 314 314 314 314 313 313 313 313 313 313 313 313 313 313 313 313 313 313 314 314 314 314 314 314 314 314
317 318 318 319 318 318 318 318 318 318 318 318 318 317 318 318 318 318 318 318 318 318 318 318 318 318 318 318 318 318 318 318 318 318 317 317 317 316 316 316 315 315 315 314 314 314 314 314 314 314 315 314 314 315 315 315 315 315 315 316 316 316 316
315 316 317 318 318 318 318 318 318 318 318 318 318 318 318 318 318 318 318 318 318 319 319 319 319 319 319 319 319 319 319 319 319 319 319 319 318 318 318 317 317 317 316 316 316 316 316 316 315 315 315 315 315 315 315 315 315 315 316 316 316 316 316
311 312 314 315 316 316 316 316 316 316 316 317 318 318 318 318 318 318 317 318 318 318 318 319 318 318 318 318 318 318 318 319 319 319 319 319 319 319 319 318 318 318 318 318 318 318 318 317 317 317 317 317 317 316 316 316 316 316 316 316 316 316 316
306 307 308 309 309 309 310 310 311 312 312 313 313 314 314 314 314 314 315 315 315 315 315 316 316 316 315 315 316 316 316 316 317 317 317 317 318 318 318 318 318 318 318 318 318 318 318 318 318 318 318 318 318 317 317 317 317 316 316 317 317 316 316
306 306 307 307 307 307 307 307 306 306 306 306 307 307 307 307 307 308 308 308 309 308 309 309 310 310 311 311 311 312 312 312 312 313 313 313 314 314 315 315 315 315 316 316 316 316 316 317 317 317 317 317 317 317 317 317 317 316 316 316 316 316 315
307 306 306 307 306 307 307 307 306 305 304 304 304 303 303 303 303 303 303 303 303 303 303 303 303 304 304 305 305 305 306 306 306 306 307 307 308 308 309 309 310 310 311 312 312 313 314 315 315 316 316 316 316 316 316 315 315 315 315 314 314 314 313
304 304 303 303 303 304 304 304 304 303 303 302 301 301 301 301 300 301 301 300 300 300 300 300 300 300 300 301 301 301 301 301 301 301 301 302 302 302 303 303 303 304 305 305 307 308 309 311 313 314 315 315 315 315 315 314 314 314 313 313 312 311 311
300 300 300 300 300 300 301 301 301 301 301 300 300 300 299 299 299 299 299 299 299 299 299 299 299 299 299 299 299 299 299 299 299 299 299 299 299 299 300 300 300 300 301 301 301 302 303 305 307 310 312 314 315 314 314 313 313 313 312 311 311 310 310
298 298 298 298 298 299 299 299 299 299 299 299 299 299 299 299 299 299 299 299 299 299 299 299 299 299 299 299 299 299 299 299 299 299 299 299 299 299 299 299 299 299 299 299 299 299 300 300 301 303 307 311 313 314 314 313 312 312 311 311 311 310 310

ECMWFFLT1_850_thetae_048.txt.gz
Theta_e
329 330 330 330 329 329 328 328 328 327 327 327 326 325 325 326 325 325 325 327 328 328 326 325 327 326 327 328 325 325 328 329 329 329 329 328 329 329 327 327 328 327 328 328 327 328 328 327 326 325 326 326 326 326 326 325 325 325 325 322 319 318 318
329 330 329 328 328 329 329 327 325 324 322 323 325 324 323 324 323 323 323 324 326 327 326 326 327 326 326 326 324 323 325 327 328 329 329 329 328 329 328 327 329 329 329 328 327 327 327 327 326 326 326 325 325 325 325 325 324 324 322 320 318 317 316
329 329 328 328 328 329 327 323 321 320 317 320 324 324 325 325 322 321 321 322 324 325 325 327 326 326 326 325 324 324 323 325 327 329 329 329 328 329 329 328 328 328 328 328 327 327 327 327 327 327 326 325 325 324 323 323 322 321 319 317 316 315 314
329 328 327 327 327 326 324 321 321 321 319 319 321 321 322 323 318 317 320 321 321 322 324 327 326 326 326 325 324 324 324 325 328 328 328 329 329 329 329 329 328 328 328 328 327 327 328 327 327 327 325 324 323 323 322 321 319 318 317 315 314 313 312
328 326 325 325 324 324 322 322 323 325 324 321 319 318 318 318 317 317 320 320 319 320 322 325 326 325 325 326 325 325 326 327 328 328 328 329 329 329 329 328 328 327 327 327 326 326 327 326 327 327 325 323 322 321 319 317 316 315 314 313 312 311 309
326 323 324 323 323 324 324 324 326 326 326 323 320 320 319 319 320 319 319 319 319 319 320 321 323 325 325 325 325 326 327 328 328 327 328 328 327 328 329 328 327 326 326 326 325 325 325 325 325 326 324 323 321 318 316 315 315 314 313 312 310 309 307
324 323 325 323 323 326 326 325 326 327 326 323 321 322 320 320 320 319 319 319 318 319 319 319 320 323 324 325 325 326 327 329 328 327 329 329 327 327 328 328 328 326 326 326 325 324 325 326 325 325 324 323 321 317 315 314 313 313 312 311 309 307 305
322 323 323 319 321 326 326 325 326 327 325 324 323 321 318 319 318 318 318 319 319 319 320 320 319 319 321 324 326 328 329 329 327 326 329 329 328 328 328 327 328 327 327 328 327 325 325 326 326 325 325 324 320 318 315 313 312 312 311 309 308 306 305
321 322 320 316 318 322 324 325 327 327 326 326 323 316 316 319 317 316 319 320 319 320 319 319 318 318 319 323 325 327 328 327 326 326 326 326 326 327 328 328 327 327 328 329 328 327 326 326 326 325 325 324 321 319 316 314 313 312 309 308 307 306 306
321 321 318 315 318 321 323 326 326 325 325 324 318 311 312 317 317 319 320 319 319 319 318 319 319 318 320 323 324 324 324 323 323 323 323 323 324 325 327 328 327 328 329 328 328 328 327 327 326 326 325 323 321 321 318 316 314 312 309 308 308 306 306
322 321 318 317 320 321 322 324 324 323 323 321 314 309 311 315 318 321 320 319 318 318 318 318 318 317 319 323 324 323 322 320 321 321 321 322 323 323 326 328 328 328 328 328 328 328 328 327 326 325 324 322 321 320 319 317 316 312 309 309 308 307 307
322 321 320 320 321 321 322 322 323 322 321 320 315 310 311 316 320 322 321 319 319 319 320 318 316 316 317 320 323 322 320 320 321 321 321 321 322 321 324 326 327 328 328 327 327 326 327 327 327 325 324 323 320 319 318 316 315 313 311 310 309 307 308
322 321 320 320 321 322 322 323 323 321 320 320 317 313 315 318 321 323 322 321 321 321 321 319 317 317 316 318 321 321 319 320 322 322 321 322 322 322 323 324 326 328 328 327 326 326 326 326 326 326 324 322 319 319 319 315 314 314 313 312 310 309 309
322 322 321 320 321 322 323 324 323 321 321 319 317 316 318 319 321 322 321 322 322 322 321 318 319 320 318 318 320 321 320 321 323 323 321 321 322 322 323 325 326 327 327 327 326 325 324 324 325 325 323 321 318 318 318 314 313 315 315 314 312 310 310
322 323 323 321 321 322 323 323 322 322 321 317 316 318 318 317 320 320 320 322 322 321 319 318 319 322 322 320 320 320 321 321 322 321 320 320 320 320 323 325 326 327 327 327 325 324 323 323 324 323 322 320 317 316 317 315 313 315 315 314 313 312 311
323 323 324 322 320 321 322 322 322 322 320 316 315 316 314 313 317 319 318 320 321 320 318 316 318 321 322 321 321 321 322 321 321 319 318 319 319 319 321 324 326 326 326 327 325 323 323 322 322 320 320 319 317 315 316 315 315 315 314 313 313 314 312
323 323 324 323 320 321 321 321 321 322 320 317 314 312 310 311 315 316 318 319 319 318 316 314 317 320 321 321 322 322 322 321 320 319 319 319 318 318 320 323 324 325 326 326 324 322 322 321 320 319 319 319 318 316 316 315 315 315 315 314 313 314 313
323 323 324 322 321 321 321 320 321 322 320 316 311 308 310 313 315 315 317 318 318 317 316 314 315 318 319 320 321 322 322 320 319 319 317 316 316 318 320 323 324 325 326 326 324 322 322 320 319 319 318 318 318 317 316 316 316 316 316 315 314 313 313
323 322 321 320 321 322 321 320 320 319 317 313 309 308 312 314 315 316 317 318 317 317 316 315 315 316 318 319 319 320 321 321 320 318 317 317 316 316 320 323 323 324 326 326 324 323 323 321 319 319 318 318 317 317 317 316 316 317 316 316 315 314 314
324 322 319 319 321 322 321 319 316 313 312 311 310 312 315 315 315 315 315 315 316 315 315 314 315 315 316 318 318 318 319 320 320 318 318 318 316 315 318 322 323 323 324 325 324 323 321 320 319 320 320 319 318 317 317 317 317 317 317 317 317 316 315
323 322 319 320 322 322 320 316 311 309 308 309 310 313 315 315 315 315 315 315 315 315 315 315 315 315 316 316 316 317 316 317 319 319 319 318 316 315 316 319 322 323 323 324 324 321 320 319 318 319 320 319 318 318 318 318 318 318 318 318 318 317 316
322 322 321 322 322 321 318 314 309 309 309 310 311 313 315 315 316 316 315 315 314 314 315 314 313 314 315 316 316 316 315 315 316 318 319 318 317 315 315 316 318 320 321 321 321 320 318 317 317 318 318 317 316 317 317 318 318 318 318 317 317 317 317
322 322 322 322 322 320 317 313 310 310 311 311 312 314 316 317 318 317 316 315 313 313 314 313 311 311 312 314 316 316 316 315 315 316 318 318 317 315 315 315 315 316 317 317 317 317 316 315 314 316 316 315 315 316 318 318 318 318 317 317 317 317 317
322 322 322 322 321 319 315 311 311 312 312 313 313 313 314 316 317 317 315 314 314 314 314 313 313 313 311 311 312 314 316 316 315 316 317 318 317 316 316 316 315 315 315 315 315 314 314 314 314 314 314 314 315 316 317 317 318 318 317 317 316 316 316
322 322 322 321 320 318 314 312 313 314 314 315 315 314 314 314 315 314 314 314 314 314 314 314 314 314 313 312 310 312 315 316 315 317 318 318 318 318 317 317 316 314 314 314 314 313 314 313 313 313 313 314 314 315 315 315 316 317 318 316 316 316 316
321 321 320 320 319 318 316 315 315 316 316 316 316 315 314 315 315 314 314 314 314 314 314 315 314 314 315 314 312 312 315 315 315 316 317 317 317 317 317 318 317 315 314 313 313 314 315 314 313 313 313 314 314 314 313 313 314 314 316 316 316 316 316
320 319 319 318 318 317 317 317 317 317 317 317 317 316 316 316 317 316 315 314 314 314 314 315 315 315 315 315 315 314 315 314 314 315 315 314 314 314 314 315 316 316 315 315 314 315 316 317 316 314 314 314 314 313 313 312 312 312 312 312 314 315 315
320 319 318 318 318 318 318 318 318 318 318 318 318 318 318 318 318 318 317 316 316 316 316 317 316 316 316 316 316 316 316 315 315 315 315 314 314 314 313 313 314 315 316 315 315 314 314 315 315 314 314 314 314 314 314 313 312 312 312 311 312 312 314
319 318 319 319 319 319 319 318 318 318 318 318 318 318 318 319 319 319 318 318 318 318 318 318 317 317 317 317 317 317 317 317 317 317 316 315 315 315 315 314 314 315 315 316 315 314 314 314 314 314 314 314 315 316 315 313 312 312 313 313 313 314 314
318 318 318 318 318 319 318 318 318 318 318 318 318 317 317 318 318 318 318 318 318 319 318 318 318 318 318 318 319 319 319 319 319 319 318 318 317 317 316 316 316 316 316 317 316 315 315 315 315 314 314 315 315 316 316 315 313 313 314 315 315 315 316
315 316 317 317 317 317 317 316 316 316 317 317 317 317 317 317 317 317 317 317 318 318 318 318 319 319 319 319 319 319 319 318 319 319 319 319 319 319 318 318 318 318 318 318 317 317 317 317 317 316 316 316 316 317 318 317 316 315 315 316 316 316 316
310 311 312 313 313 313 313 313 312 313 314 314 315 315 316 316 316 316 316 316 317 317 317 317 317 317 317 316 316 316 316 316 316 316 316 316 317 317 317 317 317 317 318 318 317 317 317 317 317 317 318 318 318 319 319 319 319 318 317 316 317 317 317
306 307 307 307 307 307 308 308 307 307 308 308 308 309 310 309 309 310 310 310 310 311 311 311 311 311 311 310 310 310 310 311 311 311 312 312 312 312 313 313 313 314 314 315 315 315 315 315 315 316 316 317 318 318 318 319 320 319 317 316 316 316 317
305 305 305 304 305 305 305 305 304 304 304 304 303 303 303 303 303 303 303 304 304 304 304 304 304 304 304 304 304 304 304 304 305 305 305 306 306 306 306 307 308 308 309 310 310 311 311 312 312 313 313 314 314 315 316 317 318 318 317 316 316 315 316
307 306 305 303 302 302 302 303 303 302 302 302 301 301 300 300 300 300 300 301 300 300 300 300 300 300 300 300 300 300 300 301 301 300 301 301 301 301 301 302 303 303 303 304 304 305 306 307 308 309 309 311 312 313 314 315 316 316 316 316 316 316 316
303 304 303 302 301 300 300 300 300 300 300 300 300 300 299 299 299 299 299 299 299 299 299 299 299 299 299 299 299 299 299 299 299 299 299 299 299 299 299 299 299 300 300 300 300 300 301 301 302 303 303 305 307 309 311 313 314 315 316 316 316 316 316
299 299 299 299 299 299 298 299 299 299 298 299 299 299 298 299 299 298 299 298 298 298 298 298 298 298 298 299 299 298 299 299 299 299 298 298 299 299 298 299 299 299 299 299 299 299 299 299 299 299 300 300 301 302 304 307 310 312 314 315 316 315 315

ECMWFFLT1_850_thetae_054.txt.gz
Theta_e
330 330 329 331 331 329 330 331 331 331 331 331 331 331 330 329 329 329 329 330 330 330 329 330 331 331 331 332 332 330 330 331 330 331 331 330 329 328 328 329 328 328 329 329 329 328 328 328 327 327 327 326 326 326 327 327 325 325 325 324 324 324 324
330 329 329 331 331 330 331 331 331 331 331 331 331 331 330 328 328 329 329 329 329 329 330 331 331 331 331 331 331 330 330 331 329 329 330 330 329 328 328 329 328 328 328 329 328 328 328 328 328 328 327 327 327 327 327 326 324 324 324 324 323 323 323
329 328 329 331 330 330 331 331 331 331 331 332 332 331 329 327 326 326 326 326 326 327 328 330 330 329 330 331 331 329 330 330 329 329 329 329 330 329 328 329 328 328 328 327 327 327 327 328 328 328 327 327 327 327 327 325 324 324 323 323 323 323 323
327 327 330 331 330 329 330 331 332 333 333 332 330 329 327 326 324 324 324 324 323 324 327 330 330 329 329 329 330 329 328 330 330 329 329 329 329 329 329 329 328 328 328 327 326 326 327 327 328 328 328 327 326 326 326 325 324 323 322 321 320 320 319
327 327 329 330 330 330 331 332 333 333 333 330 328 326 325 324 322 322 323 323 323 323 326 329 329 329 328 327 328 328 327 328 329 329 329 329 329 329 330 329 328 328 328 327 326 326 327 327 327 328 328 327 326 325 324 323 322 321 320 318 317 316 315
329 328 328 330 331 330 331 333 333 332 331 330 328 326 326 325 322 322 322 322 324 323 324 327 329 329 329 327 327 327 326 326 327 329 329 328 328 328 329 329 327 327 327 326 325 326 326 326 327 328 327 326 326 324 323 322 321 320 318 317 315 314 313
330 329 328 330 331 330 331 332 332 331 331 328 325 325 325 323 321 322 322 322 324 323 322 324 327 329 329 328 327 327 327 326 326 327 327 327 328 327 328 328 327 327 327 325 324 326 326 326 327 327 326 326 325 323 322 322 320 319 317 316 315 312 311
329 329 328 329 331 331 331 332 331 331 329 325 324 324 322 319 320 321 322 323 324 323 321 321 324 328 328 328 328 327 327 327 326 326 326 326 327 327 327 327 328 327 326 325 325 326 326 326 326 326 325 325 324 322 322 321 319 318 316 315 312 310 310
328 328 327 327 329 330 331 331 331 331 329 328 328 326 320 320 321 319 320 324 324 322 321 320 320 323 325 327 328 328 327 326 325 325 326 325 326 328 327 327 328 327 326 325 326 326 326 325 326 326 325 324 322 321 321 319 318 317 315 312 310 309 310
326 327 325 325 328 330 330 331 330 330 330 330 330 326 323 324 322 320 320 321 321 320 320 320 321 323 323 323 326 327 327 326 326 325 326 326 326 327 327 327 326 327 326 326 325 327 326 324 325 325 324 323 321 320 320 319 317 316 313 311 309 310 309
325 326 323 324 328 329 330 330 330 330 329 330 329 326 325 323 321 323 323 320 319 320 320 321 324 326 325 320 322 327 328 327 326 326 326 326 326 326 327 327 326 326 326 326 326 326 325 324 325 325 324 322 321 320 319 317 316 315 313 310 309 310 309
325 327 324 326 329 329 330 330 330 330 329 329 327 324 322 317 317 322 322 320 320 321 321 322 324 327 325 320 323 327 327 327 327 327 327 326 326 325 326 326 327 327 326 325 326 326 324 324 325 326 324 322 322 321 318 316 315 314 312 310 309 310 308
326 328 327 328 330 329 329 330 330 329 328 327 323 319 316 313 316 320 321 322 322 321 322 321 322 326 324 322 325 327 327 328 328 328 328 328 327 326 326 327 327 327 326 325 326 326 324 324 325 326 325 323 322 321 319 317 316 313 311 310 309 309 309
327 329 329 330 330 329 330 330 330 327 325 322 315 313 314 314 319 324 324 324 324 323 324 322 321 325 325 322 323 325 327 327 326 327 327 327 327 326 327 328 328 327 326 325 325 325 325 325 325 325 325 324 322 321 321 320 317 312 311 310 309 309 309
326 328 330 330 329 329 330 330 327 323 322 318 312 315 320 320 321 325 325 324 324 324 324 323 322 323 324 323 320 322 324 323 324 325 324 324 324 323 324 327 328 328 327 326 325 325 325 326 325 325 325 324 322 321 321 320 316 312 311 310 310 310 310
323 326 328 329 328 328 328 327 323 320 320 317 312 319 326 324 324 325 324 323 324 323 323 323 323 323 325 324 322 322 324 323 324 325 323 322 323 322 322 326 328 328 327 327 326 326 326 325 325 325 324 323 321 321 321 320 316 313 311 311 310 310 311
325 325 326 326 326 326 325 324 321 320 321 317 314 321 326 325 325 325 323 323 323 323 322 320 321 324 324 323 324 324 324 324 324 323 322 322 324 324 323 325 328 327 327 328 327 327 326 325 326 325 323 322 320 319 320 318 316 315 313 311 311 311 311
327 326 326 325 324 324 324 324 322 320 322 320 319 324 324 323 325 325 323 324 323 322 321 318 320 323 322 322 324 323 322 323 323 322 323 323 324 324 323 324 327 327 327 327 326 326 325 325 325 323 322 322 319 317 318 317 316 316 314 312 312 312 312
328 327 325 324 324 324 323 323 322 322 323 324 323 323 322 322 324 323 322 323 322 321 320 318 320 323 322 322 323 322 322 322 322 322 322 321 321 323 323 323 325 326 326 325 325 325 325 325 324 322 322 321 319 317 317 317 316 316 315 314 313 313 314
328 328 326 324 322 322 321 321 322 323 325 326 323 320 320 322 322 321 321 322 321 320 318 318 319 321 321 322 322 321 321 322 322 321 321 320 321 322 323 323 323 325 325 324 325 325 325 324 323 322 321 320 319 318 317 317 317 317 316 315 314 314 315
328 328 326 323 321 322 322 322 322 324 325 325 322 319 320 321 320 320 321 321 319 319 318 317 318 320 321 321 322 322 321 321 321 321 320 321 320 321 322 321 322 325 324 323 325 325 324 324 322 321 321 320 319 318 317 316 316 316 317 316 315 315 316
329 326 323 324 325 325 324 324 325 325 325 323 321 320 321 320 319 320 321 320 319 319 318 317 318 319 320 320 321 321 321 320 321 320 320 321 320 320 321 321 321 324 323 322 324 325 324 323 322 321 320 320 320 318 317 316 314 315 317 317 316 316 316
327 324 321 323 326 325 324 325 326 325 324 321 319 320 319 318 319 319 319 319 319 318 317 316 317 317 319 320 320 320 320 319 320 320 320 320 320 320 321 320 320 321 323 323 324 324 324 322 322 322 321 320 320 318 318 317 316 316 318 317 317 317 317
325 323 322 323 324 323 323 324 325 323 322 320 319 319 319 318 319 319 319 319 319 318 317 316 316 316 317 319 319 319 319 318 319 319 319 320 320 319 320 320 319 319 322 324 324 324 323 322 322 322 321 320 320 320 320 319 318 318 319 319 318 318 318
325 325 324 322 321 321 321 322 322 321 321 320 319 319 319 319 318 318 318 318 317 316 316 315 315 315 317 318 318 318 319 318 318 318 319 319 319 319 318 319 319 319 319 322 323 323 323 322 321 321 321 321 320 320 320 320 319 320 320 320 319 319 319
324 323 320 317 318 320 321 321 321 320 320 320 319 319 318 319 318 318 318 316 313 311 311 311 311 312 313 316 316 316 318 318 317 317 319 319 319 319 319 319 320 319 319 319 319 320 320 320 319 318 319 319 319 319 318 318 319 320 320 320 319 319 319
322 318 316 317 320 322 321 321 320 320 320 320 319 319 319 319 319 319 318 315 312 312 312 311 310 310 310 310 310 313 317 318 317 318 319 319 319 320 319 319 320 320 320 319 318 318 318 318 318 317 317 317 317 317 315 315 316 317 318 319 320 320 319
321 320 321 322 323 323 321 321 320 321 321 320 319 320 320 320 319 318 316 314 313 314 314 314 314 313 313 311 309 311 316 317 317 319 319 318 318 319 319 319 319 319 319 319 319 318 318 319 319 319 319 319 318 317 316 315 314 314 314 315 316 318 319
323 323 323 323 323 322 321 321 320 320 320 320 319 318 318 318 317 316 315 314 314 314 314 314 315 315 315 315 313 313 315 316 317 319 319 318 317 318 318 318 318 318 318 318 318 318 318 318 318 318 319 319 319 319 319 318 318 317 316 316 315 315 315
321 321 321 321 320 319 318 318 318 317 317 316 316 316 317 317 316 316 314 313 314 314 314 315 315 315 316 316 316 316 316 317 319 320 320 320 319 319 320 320 320 319 318 318 318 318 318 318 318 317 317 316 315 317 319 319 319 319 319 319 318 317 316
318 317 317 317 316 316 315 315 315 314 314 314 314 315 316 316 316 316 315 315 315 315 316 316 317 317 317 316 317 317 317 318 318 319 320 320 319 319 320 320 320 320 319 319 319 319 319 319 318 317 317 316 315 316 317 318 318 318 318 319 319 319 319
317 317 316 316 316 315 315 314 314 314 315 315 315 316 316 316 316 317 317 317 317 317 318 318 318 318 318 318 318 318 318 318 317 318 319 318 317 317 317 317 317 317 317 316 316 316 317 318 318 318 318 318 318 318 318 318 318 317 317 318 319 320 320
317 316 316 316 316 317 316 316 316 317 317 317 317 317 317 317 317 318 318 318 318 318 318 318 318 318 318 318 318 318 318 318 317 317 318 317 314 313 313 313 313 313 313 312 312 312 312 313 314 315 315 315 316 316 316 316 317 317 317 317 318 318 318
314 315 315 315 315 316 316 317 317 317 317 317 317 317 317 316 316 317 317 317 316 316 316 316 315 315 314 313 313 313 312 312 312 312 313 312 311 309 309 309 310 310 310 310 310 310 310 310 310 310 310 310 310 310 310 310 310 311 312 312 313 314 315
306 307 308 310 310 311 312 312 312 312 312 313 312 311 311 310 309 309 309 309 309 309 308 307 307 307 307 306 306 306 306 306 306 306 306 305 305 304 305 306 307 308 308 309 309 309 308 308 307 307 306 304 304 303 303 302 302 303 303 304 304 306 307
301 301 301 302 302 303 304 304 304 304 304 304 303 302 303 303 302 303 304 303 302 301 301 301 301 302 302 302 302 302 302 302 302 301 301 301 300 301 301 302 302 303 304 304 304 304 303 303 302 301 300 300 299 299 299 299 299 299 299 299 299 299 299
300 299 299 299 299 299 299 299 300 300 301 301 300 300 300 302 303 305 306 305 303 302 301 300 299 299 299 299 299 299 299 300 300 299 299 299 299 299 299 299 299 299 299 299 300 299 299 299 298 298 298 298 298 298 298 298 298 298 298 298 299 300 300

ECMWFFLT1_850_thetae_057.txt.gz
Theta_e
332 330 330 331 332 331 330 331 331 330 330 329 330 331 330 331 331 329 328 328 329 329 328 329 330 330 331 331 330 330 330 328 329 330 330 329 328 327 329 329 328 327 327 327 327 326 326 327 327 326 326 326 326 326 326 326 326 325 324 324 324 324 324
332 330 331 331 331 331 332 331 330 331 330 329 331 332 331 331 330 328 327 328 329 329 328 329 330 330 331 332 331 330 330 329 329 330 330 329 328 327 328 329 328 327 328 328 328 326 326 326 327 326 326 326 326 326 326 325 325 324 323 323 323 323 323
332 331 331 331 332 332 332 331 331 331 330 330 332 332 332 331 330 329 329 330 330 330 329 330 331 331 331 332 330 329 330 330 330 330 330 329 329 328 327 328 327 327 328 328 328 328 326 326 326 326 326 326 326 326 325 324 324 324 323 323 322 322 321
332 330 330 331 332 332 332 331 331 331 331 331 332 332 332 330 329 329 330 330 330 330 330 330 330 330 331 331 331 329 330 330 329 329 329 329 329 328 327 328 328 327 327 327 327 327 327 327 326 326 326 326 326 325 324 324 324 323 323 323 322 322 320
330 329 329 331 331 331 331 331 331 332 332 332 332 332 332 330 328 328 328 328 329 330 330 330 330 329 329 331 331 330 329 329 329 329 329 329 329 329 328 329 329 327 327 327 326 326 326 327 327 326 326 326 326 325 324 324 323 322 322 322 322 322 320
330 328 328 329 330 330 331 331 332 332 333 333 333 332 331 329 327 326 326 326 328 329 329 329 329 328 328 329 330 329 328 328 328 328 329 329 328 329 328 329 329 327 327 327 326 326 326 327 327 327 326 326 326 325 324 324 323 321 320 320 321 321 320
330 328 327 329 330 330 331 331 332 332 332 332 331 330 328 327 325 324 323 324 326 327 327 328 329 328 328 328 328 328 327 327 327 328 328 328 328 328 328 329 328 327 328 327 326 326 326 326 327 327 327 326 325 324 323 323 322 320 318 319 319 317 316
328 328 328 329 330 330 331 332 332 333 332 331 329 327 326 325 325 324 323 322 324 325 324 325 327 328 329 328 328 327 327 326 326 327 327 327 327 327 327 328 328 327 327 326 325 326 326 325 326 327 326 325 324 323 322 321 320 319 318 317 316 314 314
327 328 328 328 330 330 331 333 333 332 331 330 328 326 324 324 324 323 323 323 324 324 322 322 326 329 329 328 328 328 327 326 327 327 327 327 327 327 327 327 328 327 327 326 325 325 326 326 326 326 324 323 323 323 323 321 319 318 317 316 315 314 313
326 326 326 326 329 330 331 332 332 331 331 329 326 325 324 323 322 322 324 325 324 323 321 321 324 327 328 328 328 328 327 327 326 326 327 327 327 327 326 327 327 327 326 325 325 326 326 326 327 326 324 322 322 322 323 321 319 318 317 316 314 313 311
326 326 326 327 328 330 331 332 331 331 331 328 327 326 324 321 320 322 324 325 324 323 321 321 323 324 325 325 326 328 327 326 326 325 326 327 327 327 327 327 327 327 326 325 325 326 326 326 326 326 325 324 322 322 321 320 318 317 316 315 314 312 311
327 327 327 328 329 330 330 331 331 331 330 329 329 327 323 322 322 323 323 323 324 322 322 324 326 326 325 322 322 326 327 326 326 326 326 327 327 326 326 327 326 326 326 325 326 327 326 325 326 325 325 324 323 321 320 319 317 316 315 314 313 312 311
328 328 328 329 330 330 330 331 331 330 329 329 329 327 324 324 326 325 323 322 322 322 323 325 327 327 324 320 321 326 326 326 326 326 326 326 326 326 326 326 326 325 326 326 325 326 326 325 325 325 324 324 323 322 321 318 317 315 313 314 313 312 310
328 327 328 329 329 330 330 331 330 329 329 329 328 326 323 323 324 325 324 322 322 323 323 324 326 326 323 319 322 326 326 327 327 327 327 327 327 327 326 326 326 326 326 326 325 326 325 324 325 325 324 323 323 323 320 318 317 315 313 312 312 311 310
327 327 329 329 329 330 330 330 329 329 328 328 327 323 319 321 323 323 323 322 322 323 322 322 325 326 322 319 321 324 325 326 326 325 325 325 326 326 326 326 326 326 327 326 326 326 325 323 324 325 323 322 322 323 321 317 316 315 313 311 310 310 309
326 327 328 328 329 330 330 329 329 328 328 327 324 319 318 322 325 324 322 322 323 323 321 321 323 325 323 319 318 322 324 324 325 324 324 323 323 324 324 326 326 326 326 326 326 326 326 324 324 325 324 323 322 322 322 320 317 315 314 312 310 309 309
325 327 327 328 330 330 329 329 327 326 327 324 321 320 321 322 324 324 322 322 324 323 321 321 323 325 324 321 321 323 324 324 325 324 323 323 324 324 324 325 326 326 326 326 326 326 326 325 325 324 325 325 323 322 322 322 320 318 315 312 310 309 310
325 328 328 329 331 329 326 327 326 325 323 321 323 325 323 321 324 324 323 323 324 323 320 320 323 325 323 323 323 323 323 324 323 323 323 323 324 325 323 323 324 326 325 325 326 327 326 325 325 324 324 324 323 322 321 321 321 319 316 313 311 310 310
327 329 329 330 330 328 326 326 325 323 321 322 326 326 322 322 324 324 323 323 324 323 319 318 322 323 321 322 323 321 322 323 322 323 323 323 323 323 322 321 322 325 325 325 325 326 326 326 325 324 324 323 322 320 319 319 319 318 316 313 312 311 310
328 329 329 329 330 329 328 326 324 322 322 324 327 325 322 322 323 323 323 324 323 321 318 319 322 322 320 322 322 321 322 322 322 322 322 321 321 321 320 320 322 324 325 325 324 325 325 326 325 324 323 322 320 318 318 317 317 317 315 313 312 311 311
328 329 328 329 329 329 328 326 324 323 323 325 326 324 322 322 321 321 322 323 321 320 318 319 322 322 320 322 322 322 322 322 321 321 320 321 321 320 320 320 321 323 324 324 325 325 325 325 324 323 321 320 319 318 317 317 316 315 315 315 313 311 312
329 329 328 329 329 329 327 325 324 324 324 324 324 323 322 321 320 320 321 321 320 319 318 318 319 320 321 321 321 321 321 321 321 320 320 321 320 319 320 320 320 322 323 323 325 326 325 324 323 322 321 321 320 319 317 316 316 316 316 316 315 314 313
329 329 328 328 328 328 326 325 325 325 324 323 323 322 321 320 320 320 321 320 319 318 317 317 318 319 320 321 321 320 320 321 321 319 319 320 319 318 320 320 319 320 322 323 324 326 325 323 322 321 321 321 320 319 317 316 316 316 316 316 316 315 314
329 328 328 327 327 326 326 326 326 325 324 322 322 321 320 319 319 320 320 320 319 319 318 317 318 318 319 320 320 320 320 320 320 319 319 320 320 319 319 319 318 318 321 323 324 325 325 323 322 322 322 321 320 319 318 317 316 316 316 317 317 317 316
328 327 327 327 327 326 325 326 326 324 322 321 320 320 319 319 320 320 320 320 319 319 318 316 316 317 318 320 319 319 319 318 319 319 319 319 320 319 318 318 317 317 320 323 324 324 324 323 322 322 322 321 320 319 318 317 316 316 316 317 318 318 319
328 327 326 327 327 326 325 325 325 323 321 319 319 319 318 319 319 319 319 319 319 318 318 316 316 316 317 318 319 318 318 316 317 318 318 319 319 319 318 318 318 318 319 321 323 324 323 323 322 322 322 321 321 320 319 318 317 318 318 317 317 318 319
326 326 327 326 326 326 325 324 323 321 320 319 319 319 318 319 318 318 319 317 315 314 314 315 315 315 317 318 318 318 317 317 317 318 319 319 319 320 320 320 320 320 319 319 320 320 321 321 320 320 320 320 320 319 319 319 318 318 318 318 318 318 319
326 326 326 325 325 324 324 323 322 320 320 320 319 319 319 318 318 319 318 314 311 310 310 310 310 311 314 316 317 317 317 318 319 319 319 319 319 319 320 320 319 319 319 319 318 318 318 318 318 318 318 317 317 317 317 318 317 316 315 316 316 316 317
326 325 324 324 323 322 321 321 321 320 320 320 319 319 319 319 319 319 316 313 312 313 312 311 311 310 311 312 313 315 317 318 319 319 318 318 318 318 319 319 318 318 318 319 319 318 318 318 318 318 318 318 318 317 317 317 316 316 316 315 315 314 314
324 324 323 323 322 320 320 320 320 320 320 319 320 320 319 319 319 317 315 313 314 314 314 314 314 313 313 312 311 313 315 317 319 319 319 319 318 318 318 318 317 317 318 318 318 318 318 318 318 318 318 319 319 319 318 318 318 318 319 318 318 317 316
321 322 322 322 321 321 321 321 321 320 320 320 320 319 318 318 317 316 315 314 313 313 314 315 315 315 315 315 314 315 316 317 319 319 320 320 319 319 319 318 318 318 319 319 319 318 318 318 318 318 318 318 318 318 317 317 317 318 318 319 319 319 319
317 319 320 320 319 319 319 319 318 318 318 318 317 316 316 316 316 316 315 314 313 314 315 316 315 316 316 316 316 317 318 318 319 320 320 320 320 319 319 319 319 319 318 318 318 318 318 318 318 318 318 318 317 317 317 317 317 317 318 318 318 319 319
314 315 315 315 315 315 315 315 315 316 316 315 315 315 316 316 315 315 315 314 315 316 317 317 317 317 317 317 317 318 318 317 317 318 318 317 317 317 317 317 317 316 316 315 315 314 313 313 313 314 314 314 314 314 314 314 313 313 313 314 314 314 315
312 312 312 312 313 313 314 314 314 315 315 314 314 315 316 316 315 316 316 316 317 317 317 317 318 318 318 318 318 317 318 317 316 315 316 316 316 316 315 314 313 313 313 312 311 310 310 310 310 309 309 308 307 306 306 305 304 304 303 304 304 304 304
307 308 308 309 310 310 311 313 314 314 314 315 315 316 316 315 314 314 314 313 314 314 313 313 315 315 315 315 315 313 312 311 310 310 310 311 312 311 310 308 307 307 306 306 306 306 305 305 304 303 302 301 301 300 300 299 299 299 299 299 299 299 299
303 303 303 304 305 305 305 306 307 307 308 309 310 310 310 308 307 307 307 306 305 305 305 305 308 310 310 309 309 308 307 305 304 303 303 303 303 303 302 301 301 301 300 300 300 300 299 299 299 299 299 299 299 299 299 299 300 300 300 300 300 300 300
301 301 301 302 302 303 304 304 304 304 304 304 305 304 304 304 304 304 304 304 303 302 301 301 302 303 303 302 302 302 302 301 300 299 299 299 299 299 299 299 298 298 298 298 298 299 299 299 299 299 299 299 300 300 300 301 302 303 302 303 303 304 304

ECMWFFLT1_850_thetae_060.txt.gz
Theta_e
330 330 331 332 332 332 332 332 333 331 329 329 329 330 330 329 327 328 328 328 328 329 328 328 329 328 328 329 329 328 328 328 328 329 329 329 328 328 328 328 328 327 328 327 325 325 325 326 326 326 326 325 325 325 325 325 325 326 325 325 325 324 324
330 330 330 331 331 331 332 332 333 331 329 329 330 330 330 329 328 329 329 328 328 329 328 329 329 328 328 329 329 328 329 329 328 329 329 329 328 327 327 328 328 327 327 327 326 325 324 325 326 325 326 326 326 326 325 325 326 325 325 325 325 324 324
328 329 330 330 331 331 332 333 332 331 330 331 331 330 331 330 329 329 328 328 329 329 328 328 328 329 328 330 330 328 329 329 328 329 330 329 328 327 326 327 327 327 327 327 326 326 325 324 325 325 325 326 325 326 325 325 325 324 323 324 323 323 323
328 329 330 330 330 331 331 332 332 331 331 332 331 331 331 330 329 329 328 328 329 329 328 328 329 329 329 330 330 328 329 329 328 328 330 330 329 327 327 327 327 327 326 326 326 326 326 325 324 324 325 325 325 325 325 325 324 323 323 323 322 322 321
329 330 330 330 330 330 331 331 332 331 331 332 331 331 331 330 329 329 328 328 329 329 328 328 329 330 329 330 331 329 329 329 328 329 329 329 329 328 327 327 327 327 326 326 326 326 326 326 325 325 325 325 325 326 325 324 324 323 323 323 322 322 322
330 331 330 329 329 330 330 331 332 331 330 331 332 330 329 330 330 329 328 329 330 329 329 330 330 330 330 331 331 330 329 328 329 329 328 328 328 328 328 327 327 328 327 327 327 326 326 326 326 325 325 326 326 325 324 324 324 323 323 323 322 322 321
330 331 330 329 329 330 330 331 332 331 330 331 331 330 330 331 330 329 328 329 329 329 329 330 330 329 329 330 330 329 329 328 328 328 328 327 328 328 328 327 327 328 327 327 327 327 326 326 326 326 325 326 325 324 324 324 323 323 323 322 321 320 319
331 331 331 330 330 330 331 331 332 332 331 331 331 331 332 331 329 327 327 327 327 328 328 328 328 328 328 328 329 329 328 328 328 328 327 328 328 328 328 328 328 328 327 327 327 326 325 325 326 326 325 325 325 324 323 323 322 322 321 320 320 318 316
332 330 329 331 331 331 331 331 331 331 332 332 332 332 331 329 326 325 325 325 326 327 326 326 327 328 328 327 327 328 327 327 328 327 327 328 328 328 328 328 328 328 327 327 327 326 325 326 326 326 325 325 325 324 323 322 320 320 320 319 319 317 315
333 330 329 330 331 331 331 331 331 331 331 332 332 331 329 327 326 324 323 324 326 326 325 325 326 327 328 327 327 327 327 326 327 326 326 327 327 327 327 327 328 328 327 327 327 326 325 326 326 327 326 326 325 324 324 322 321 320 319 318 318 315 313
333 331 329 330 331 332 332 331 331 331 332 332 331 330 328 327 326 324 323 324 324 325 324 324 325 327 328 328 327 327 326 326 326 326 326 326 326 327 327 326 327 328 326 326 326 325 325 326 326 327 326 326 324 323 322 322 321 320 319 317 317 315 313
332 332 330 329 330 332 332 332 332 332 332 331 330 328 326 327 327 325 324 323 323 324 323 322 326 328 328 328 328 327 326 326 327 326 326 326 326 326 327 327 327 327 327 327 326 325 325 325 326 327 326 325 323 322 321 320 320 319 318 317 316 315 313
331 332 331 330 329 331 332 332 333 332 331 330 329 326 326 327 327 325 325 324 323 323 321 321 325 327 326 326 327 326 326 326 326 326 325 325 325 326 326 327 327 326 327 326 326 326 326 325 326 327 325 324 323 322 321 321 319 318 318 317 316 315 313
329 330 331 330 330 331 331 331 332 332 331 330 328 326 327 327 326 325 325 324 323 322 321 321 324 325 324 323 323 326 327 326 325 325 325 325 325 326 326 326 327 326 326 326 326 326 326 326 326 327 325 325 325 323 321 321 320 318 318 317 316 315 313
329 330 330 331 330 329 328 330 331 331 331 330 328 327 326 324 324 325 326 325 323 322 322 323 324 324 323 321 322 326 327 326 325 326 325 325 325 325 325 326 326 326 326 327 326 325 326 327 327 327 326 326 325 324 322 322 320 318 318 317 316 314 312
330 331 330 331 330 328 328 331 331 331 331 330 329 328 325 323 325 326 325 324 322 322 324 325 324 324 321 320 323 327 327 326 326 326 325 325 325 325 325 325 326 326 326 326 326 325 326 326 326 326 326 326 325 324 323 322 320 319 318 316 315 313 311
330 331 330 331 330 328 329 330 330 330 330 329 329 328 325 325 326 325 324 323 323 323 324 325 325 323 319 319 324 327 327 327 326 324 324 324 325 325 325 325 326 326 326 326 325 325 325 326 326 326 326 325 325 324 323 321 319 319 318 316 315 314 312
330 332 331 330 330 329 329 329 330 330 329 329 329 326 324 324 325 324 323 323 323 322 321 323 324 322 319 319 323 325 325 325 324 323 323 323 323 323 323 324 325 325 326 325 325 325 325 325 326 325 325 326 325 324 323 321 319 318 317 316 316 315 312
331 332 331 330 330 329 328 328 329 329 328 329 326 322 322 324 324 323 323 323 324 321 319 323 324 322 321 322 323 324 324 324 323 323 323 323 323 324 323 321 322 324 325 325 325 325 325 325 325 325 325 325 325 324 323 322 321 320 319 318 317 316 313
331 331 330 329 329 330 329 328 329 329 328 326 322 319 323 325 323 323 324 324 324 321 319 323 324 322 322 323 323 323 323 323 322 322 323 323 323 323 322 320 320 322 324 325 326 326 325 325 325 325 325 325 324 324 323 322 322 321 320 319 318 316 314
331 331 330 329 329 329 329 328 328 328 326 323 320 320 324 325 323 323 323 323 323 320 318 322 324 322 321 322 321 322 323 322 322 322 322 321 321 321 320 319 319 321 324 325 325 326 326 326 325 325 325 325 324 323 323 322 321 321 320 318 318 316 313
331 331 329 329 328 328 328 328 327 325 322 322 323 323 323 325 324 323 323 323 323 320 317 321 322 321 321 322 321 321 322 322 322 321 321 321 321 320 319 319 319 321 324 325 325 326 326 325 325 325 325 325 324 323 322 320 319 319 318 317 316 315 313
331 330 329 328 328 328 328 327 326 324 322 323 324 323 323 324 324 323 323 323 322 319 318 321 322 320 321 322 321 321 322 321 321 320 320 321 320 318 319 319 319 321 324 324 325 326 325 325 325 324 324 323 323 322 321 318 317 317 317 316 315 314 313
330 330 329 329 328 328 327 325 324 324 325 325 324 322 322 323 323 323 323 322 321 318 318 320 321 320 321 322 321 321 321 321 320 320 320 320 319 318 319 318 318 320 323 325 326 326 325 324 324 323 322 322 321 321 320 318 317 316 316 315 314 313 313
328 329 329 329 329 328 326 325 323 324 325 325 324 322 322 321 321 322 322 321 320 318 317 318 319 319 320 321 321 320 321 320 320 319 319 320 319 319 318 318 316 318 323 325 325 324 323 323 322 322 321 321 320 319 318 317 316 315 315 314 313 313 314
327 328 328 328 328 328 327 325 323 323 324 324 323 322 321 320 320 321 321 320 319 318 317 317 318 318 320 321 320 319 320 320 319 319 319 319 319 319 318 317 316 318 322 325 325 324 323 322 322 322 321 321 320 319 319 317 317 317 317 317 317 317 318
326 327 328 328 328 327 327 325 323 323 324 323 322 322 321 320 320 320 319 319 318 318 317 317 317 318 319 320 320 318 318 318 319 318 319 319 319 319 318 318 318 318 320 323 324 323 323 322 322 322 322 321 321 320 319 319 319 319 319 318 319 319 319
325 326 327 328 327 326 326 324 323 322 322 322 321 320 320 319 320 320 319 318 318 318 318 316 316 317 318 319 319 317 316 317 318 318 318 319 319 319 319 319 319 318 319 320 321 320 320 320 320 321 321 321 321 320 320 320 319 319 319 318 318 318 318
324 324 327 327 326 324 323 322 322 322 322 321 320 319 319 319 319 319 319 318 317 317 317 317 316 317 318 318 318 317 316 317 318 319 319 319 319 320 320 320 319 319 318 318 318 318 318 319 319 319 319 319 319 319 319 318 318 317 317 317 316 316 316
322 322 324 326 324 323 321 320 320 321 321 320 319 319 319 319 319 319 318 316 313 312 313 315 315 315 317 317 317 317 317 318 319 319 319 319 319 319 320 319 319 318 318 318 317 317 318 318 318 318 318 318 318 318 318 318 317 317 317 317 316 316 316
318 318 321 323 321 321 320 319 319 319 320 319 319 319 319 318 318 318 317 314 311 310 311 312 313 313 314 315 315 316 318 319 319 319 318 319 319 319 319 318 318 318 318 318 318 317 317 318 318 318 318 318 318 318 318 318 318 318 317 317 317 318 318
312 313 318 321 320 320 320 319 318 318 319 319 319 318 318 318 318 317 315 313 313 313 312 313 314 313 313 314 314 314 316 318 318 319 319 319 318 318 318 319 319 319 319 319 318 318 318 318 318 318 318 318 318 318 318 318 318 318 317 317 317 318 319
311 310 313 317 319 319 319 318 318 318 318 318 318 317 317 317 317 315 314 313 314 314 314 315 316 316 316 316 315 315 316 317 318 319 319 319 319 319 319 320 320 320 319 319 318 318 318 318 317 317 317 317 317 317 316 316 316 315 315 315 315 315 316
312 310 310 312 315 316 317 317 317 317 317 317 317 316 316 316 316 314 314 314 314 315 315 315 316 316 317 317 317 317 317 317 318 319 319 319 319 318 318 319 318 317 317 316 316 315 315 314 313 312 312 312 311 310 309 309 308 307 307 306 306 306 306
311 310 309 310 311 312 312 313 314 314 314 315 315 315 315 315 315 314 313 313 314 314 315 315 315 315 315 315 315 315 316 317 317 317 317 318 317 316 316 315 315 314 313 312 311 310 309 308 306 306 305 304 304 303 302 301 301 301 300 300 300 300 300
308 308 308 308 308 308 308 309 310 311 310 310 311 313 313 313 313 313 312 311 311 312 313 314 314 313 313 312 311 310 310 312 312 312 312 314 313 311 310 309 308 308 306 305 304 303 302 301 301 300 300 300 299 299 299 299 299 300 300 300 300 300 300
305 305 305 305 305 305 305 306 306 307 307 307 308 309 309 309 309 309 308 307 306 307 308 308 308 308 309 310 309 307 306 305 304 303 303 305 304 302 302 301 301 301 300 300 299 299 299 299 299 299 299 299 300 300 300 300 301 301 301 301 301 301 301

ECMWFFLT1_850_thetae_063.txt.gz
Theta_e
332 329 328 329 330 332 332 331 330 329 330 331 330 329 329 330 329 329 330 331 331 330 329 328 329 328 328 328 330 329 328 328 327 327 328 328 328 328 328 328 328 327 327 327 327 325 324 325 325 325 325 325 324 324 325 324 324 324 325 324 324 325 324
331 328 326 328 330 331 332 331 330 329 330 330 330 330 330 331 330 330 331 331 331 330 328 328 329 329 329 329 330 329 327 327 327 327 328 329 328 328 327 327 328 328 327 327 327 325 324 324 325 325 325 324 324 324 325 324 324 325 325 324 325 324 324
331 329 327 329 330 331 332 332 331 331 331 331 330 331 331 331 331 331 331 331 331 330 328 328 329 329 330 330 330 329 327 327 327 327 328 329 329 329 328 327 327 328 327 327 327 326 325 324 324 324 325 324 324 324 325 324 325 325 324 325 325 324 324
331 329 329 330 330 331 332 332 332 332 332 331 331 330 329 330 331 331 330 330 330 329 328 329 329 330 330 329 329 329 328 327 327 327 328 329 329 329 329 327 327 327 327 325 325 325 325 324 324 324 324 324 324 324 325 325 325 325 324 324 324 324 323
330 330 330 330 331 331 332 332 332 332 332 332 331 330 328 328 330 331 330 330 330 328 328 328 329 329 329 329 328 328 329 328 328 329 328 328 329 329 329 328 327 327 327 326 325 325 326 325 324 324 324 324 324 325 325 325 325 324 323 323 323 322 321
330 330 330 330 331 331 331 332 332 332 332 331 330 329 329 328 328 330 331 330 329 328 328 329 328 328 328 328 328 329 329 328 328 329 328 328 329 329 329 328 327 327 327 327 326 326 326 326 325 324 324 324 325 325 325 325 325 324 323 323 322 322 321
330 329 330 329 330 331 331 331 331 331 332 331 328 327 328 328 327 328 330 330 328 327 328 328 327 327 328 328 329 329 330 329 328 329 328 328 329 329 329 328 327 327 327 327 327 326 326 326 325 325 324 324 325 325 325 325 325 324 323 323 322 322 322
330 329 329 330 330 331 330 330 331 331 332 331 329 327 327 328 327 327 329 329 327 327 328 328 327 327 328 329 329 330 330 329 329 329 329 329 329 329 328 328 328 327 327 328 327 326 326 326 325 325 325 325 325 325 325 325 324 323 323 322 321 321 320
330 329 329 330 331 331 330 329 330 330 331 331 330 328 328 328 328 328 328 328 327 327 328 328 327 327 329 329 330 330 330 330 329 329 329 328 328 328 328 328 328 327 327 328 327 326 326 326 325 326 326 325 325 325 325 324 324 323 323 322 321 320 318
331 330 328 329 330 331 330 329 330 331 331 331 331 330 329 329 329 328 328 328 328 329 329 329 328 328 329 329 329 330 330 330 329 329 328 327 327 327 328 328 328 328 328 328 327 326 326 326 325 326 326 326 325 324 325 324 324 324 323 322 320 319 316
331 331 329 329 329 330 331 330 330 331 331 331 331 330 330 330 330 329 328 328 329 329 329 328 327 327 327 328 328 328 329 329 328 328 327 327 327 327 327 328 328 328 328 328 327 327 326 325 325 326 326 326 325 325 324 324 323 324 323 321 319 318 315
332 331 330 330 330 329 330 330 331 331 330 330 331 332 331 330 330 329 328 328 328 328 328 327 325 325 326 327 327 327 327 327 327 327 327 327 327 327 327 327 327 327 328 328 327 327 327 325 325 326 326 326 326 325 325 324 323 323 322 319 317 317 315
331 331 331 330 330 329 329 329 329 330 327 326 328 332 331 330 330 329 328 327 326 326 326 326 324 324 326 327 327 327 326 326 326 326 326 326 326 326 326 326 327 327 327 327 327 327 326 325 325 326 326 326 326 326 325 325 322 321 320 318 317 316 315
331 331 331 330 328 328 328 329 329 329 327 325 325 328 331 331 330 329 326 324 325 325 325 325 324 324 326 327 327 327 326 326 326 326 326 325 325 325 326 326 326 327 327 327 327 327 326 325 325 326 326 326 327 326 325 324 322 320 319 318 317 316 315
331 330 331 330 328 328 329 329 328 329 328 325 324 325 328 330 329 328 325 323 324 324 325 325 324 324 326 328 327 327 327 326 326 325 325 324 324 324 325 325 326 326 326 327 327 327 326 326 325 325 326 327 326 325 324 323 322 321 320 318 317 317 316
330 330 331 330 329 329 329 328 328 328 327 325 324 324 327 329 328 327 325 324 324 324 324 324 322 323 326 326 326 325 326 326 326 325 324 323 323 324 324 325 325 326 326 326 327 327 326 326 326 326 326 326 326 325 323 322 321 321 321 320 318 317 316
329 329 330 330 330 330 330 329 328 327 326 326 325 324 326 328 328 327 326 325 325 324 323 323 322 322 324 323 322 321 323 325 325 324 324 324 323 324 324 325 325 325 326 326 326 326 326 326 326 326 326 326 326 325 324 323 322 322 322 321 320 318 316
329 329 329 329 330 330 329 330 329 327 326 326 325 323 324 327 327 327 326 326 325 324 322 322 322 322 322 321 319 318 321 324 325 325 325 324 324 325 324 325 325 325 325 325 325 326 326 326 326 326 326 326 326 326 325 325 324 323 322 321 320 320 318
329 329 329 329 330 329 329 329 329 328 327 326 324 322 323 326 327 327 327 327 326 324 323 323 323 322 321 320 319 320 323 325 326 325 325 324 324 325 324 324 325 325 326 325 325 325 325 325 326 326 326 326 326 326 325 325 324 323 321 318 318 319 317
328 329 329 330 330 330 330 330 329 328 327 325 323 322 323 326 327 327 327 327 326 325 324 324 324 322 321 320 320 323 325 326 326 324 323 322 323 324 323 323 323 323 324 325 325 325 325 325 326 326 326 326 325 325 325 325 324 323 321 318 317 317 316
328 328 329 329 330 330 330 330 329 328 327 324 322 322 323 325 327 327 327 326 325 324 324 324 323 322 321 321 321 323 325 325 325 323 322 322 323 323 323 321 320 320 321 323 325 326 326 326 326 326 326 326 325 325 325 325 324 323 322 320 317 317 317
327 328 328 329 330 330 330 330 329 328 327 324 322 323 324 326 326 326 326 324 323 322 321 322 323 322 322 322 323 324 324 324 324 322 322 322 322 323 322 320 319 318 319 322 325 326 326 326 326 326 326 326 326 325 325 324 324 323 323 321 318 317 317
326 327 328 328 329 329 329 329 329 328 327 325 324 323 323 325 325 325 324 324 323 321 320 322 322 322 323 323 323 323 323 323 322 322 322 322 321 321 320 319 318 317 317 321 324 325 326 326 326 326 325 325 325 325 324 324 324 323 323 322 320 319 318
324 326 326 327 328 328 329 328 328 328 327 327 325 322 321 323 324 323 324 324 323 321 320 322 323 321 322 322 321 322 322 322 322 322 321 320 320 320 319 318 318 317 319 322 324 325 326 326 325 325 325 324 324 324 324 323 323 322 321 321 320 320 319
324 325 325 326 327 328 329 328 328 328 327 325 323 319 318 322 323 323 323 323 323 320 319 322 323 320 320 321 321 321 321 322 321 321 320 320 320 319 318 318 318 317 320 323 324 325 326 325 325 324 324 323 323 323 323 322 322 321 319 318 318 318 317
322 324 325 325 326 327 329 328 328 328 325 322 320 317 318 323 325 324 323 323 323 320 318 321 322 320 320 321 321 321 321 321 321 320 320 320 320 318 318 318 317 316 319 323 325 325 325 324 324 323 322 321 321 321 321 320 319 319 317 316 315 315 314
321 323 325 325 325 326 328 328 328 327 323 321 320 318 320 324 325 324 323 323 323 321 319 320 322 321 320 320 321 321 321 321 320 320 320 319 320 319 318 318 317 316 319 324 325 324 323 322 322 321 320 320 320 320 319 318 318 317 316 315 315 314 314
321 322 324 324 325 326 327 327 327 324 321 321 321 320 322 324 324 323 323 323 322 321 318 318 320 320 319 320 320 321 320 320 320 319 319 319 319 319 318 318 317 317 319 324 325 324 323 322 322 321 320 320 320 319 319 318 318 317 317 317 317 317 317
320 321 322 323 323 324 326 326 324 322 322 322 323 323 324 324 323 323 322 322 321 320 318 317 318 318 318 319 320 320 320 319 319 319 319 319 319 319 318 318 318 318 319 322 322 321 321 321 321 321 321 321 321 320 319 319 318 318 318 318 318 318 317
317 319 320 321 319 319 324 325 322 321 323 322 321 323 324 322 322 322 321 320 320 319 318 317 317 318 318 319 320 320 320 319 318 318 318 318 319 319 318 319 319 318 318 319 319 318 318 319 320 320 320 320 320 320 319 319 319 318 318 318 318 317 317
314 315 317 318 315 313 317 323 322 321 321 319 319 321 322 321 320 320 319 319 318 318 317 317 317 318 318 318 318 319 319 318 317 317 318 319 318 318 318 319 319 319 318 318 318 318 317 318 319 320 319 319 318 318 318 318 318 318 318 318 318 318 318
311 312 312 313 312 310 312 317 320 319 318 317 318 319 319 319 319 318 318 318 317 317 317 317 317 317 317 318 318 318 318 317 316 317 318 318 318 318 319 320 319 319 319 318 318 318 318 318 319 319 319 319 319 318 319 318 318 318 318 317 317 317 317
310 310 309 309 309 308 309 313 316 317 317 317 317 318 317 318 319 317 317 316 316 316 316 316 316 316 316 316 317 317 318 317 317 318 319 319 319 319 319 319 319 319 318 318 318 318 318 318 318 318 318 318 318 318 317 317 317 316 315 315 314 314 313
310 309 309 308 307 306 307 309 312 314 315 315 317 317 316 316 316 315 314 313 313 313 313 314 314 315 315 315 315 316 318 318 318 318 319 319 319 319 319 318 319 319 319 319 319 318 318 318 318 318 317 317 317 316 316 315 314 312 311 310 309 308 307
309 309 309 309 308 306 306 308 310 311 311 312 313 313 312 311 312 312 311 312 312 312 313 314 314 315 316 317 316 316 318 319 319 319 319 319 319 319 319 319 318 319 319 318 318 317 316 316 315 315 314 313 312 311 309 308 308 306 305 304 303 302 301
307 308 309 309 308 307 307 307 308 309 309 309 310 309 308 308 309 309 309 310 310 311 311 311 312 314 315 316 317 318 318 318 318 316 316 316 316 315 315 315 315 315 314 314 313 312 311 310 309 307 306 305 304 303 302 301 301 301 300 300 300 300 300
304 306 307 307 307 307 307 306 307 307 308 308 308 308 307 306 307 307 307 307 307 308 308 307 308 309 309 310 311 312 313 314 314 312 311 310 310 309 309 309 308 308 307 306 305 304 304 303 302 301 300 300 300 300 299 299 299 299 299 299 299 299 299

ECMWFFLT1_850_thetae_066.txt.gz
Theta_e
334 334 334 333 333 333 332 332 332 331 332 331 331 331 331 330 329 330 329 328 328 329 330 331 329 329 329 329 328 329 330 331 330 330 329 329 329 329 329 328 327 327 327 327 327 326 324 324 324 325 326 326 326 326 325 324 324 323 324 325 324 325 323
332 332 333 333 332 332 332 331 332 332 332 331 330 331 331 330 329 330 329 328 327 327 329 330 329 329 329 329 328 329 330 330 330 329 329 328 329 329 329 328 327 327 327 327 327 327 325 323 324 325 325 325 325 325 324 324 324 324 325 325 324 325 323
328 330 333 333 332 332 331 330 331 331 331 330 330 331 330 330 329 329 329 329 328 328 329 330 329 329 329 328 328 329 329 329 329 328 328 329 329 329 329 328 327 326 327 327 327 327 326 324 324 324 325 325 324 324 324 324 324 324 325 324 324 324 324
325 330 332 333 332 332 331 331 331 331 331 330 330 330 330 329 328 328 329 329 329 329 329 330 330 329 328 328 328 328 329 329 328 327 328 329 329 329 329 329 327 326 326 326 326 326 325 325 324 324 324 324 324 324 324 324 324 324 324 324 324 324 324
325 327 331 333 333 332 331 330 331 331 332 331 330 330 330 329 328 327 328 329 329 329 330 329 330 329 328 328 329 328 329 329 328 328 328 328 329 329 329 329 328 327 326 327 326 326 325 325 325 324 324 324 324 324 324 324 324 324 325 324 324 324 323
328 327 330 332 333 333 332 330 330 331 332 331 330 330 328 328 327 327 328 329 328 329 329 328 329 329 328 328 329 329 328 328 328 328 328 328 329 329 329 329 329 328 327 327 327 327 326 326 325 324 324 324 324 324 324 324 324 324 324 324 324 323 321
329 329 330 331 332 333 333 332 331 330 331 331 331 331 329 329 328 327 327 328 328 328 328 327 328 329 329 329 329 329 328 327 328 328 328 328 329 329 329 329 329 328 327 327 327 327 327 326 326 325 324 324 324 324 324 324 324 324 324 323 323 322 320
328 329 330 331 332 333 332 332 331 331 331 331 331 331 331 331 329 327 327 327 327 327 328 328 328 329 329 329 329 328 328 328 328 329 328 328 329 328 328 329 328 328 327 327 327 327 327 326 326 326 325 324 324 324 324 324 324 324 324 323 322 321 321
327 327 329 330 331 332 333 332 332 332 331 330 331 331 331 331 331 329 328 327 328 328 328 328 328 328 329 329 328 328 328 328 329 329 328 328 329 328 328 329 328 328 328 327 327 327 327 327 326 326 326 325 325 324 324 323 324 324 324 323 322 321 320
327 326 327 329 329 330 331 331 331 332 331 329 328 329 328 329 330 330 330 329 328 329 329 328 328 328 329 328 327 328 329 329 329 329 329 328 328 328 328 329 328 328 328 327 327 328 328 327 326 326 326 326 325 324 323 324 324 324 324 324 322 321 320
327 327 327 327 326 327 328 329 328 330 331 329 328 328 327 326 327 329 330 330 329 329 329 328 327 327 328 327 328 329 329 330 330 330 329 328 328 329 329 329 328 328 328 327 327 328 328 327 326 326 325 326 326 325 324 324 324 324 324 324 323 321 319
328 328 326 324 324 326 327 327 327 329 330 330 329 329 328 326 325 325 328 330 330 329 327 327 327 327 328 328 328 329 330 330 330 330 329 328 328 328 328 328 328 328 328 327 327 328 327 327 327 326 325 325 326 326 325 325 324 324 323 323 323 321 317
329 329 327 324 324 326 326 326 326 328 330 330 330 330 328 325 324 324 325 327 329 329 327 326 327 327 328 329 329 329 329 329 330 329 329 328 328 328 327 327 327 327 327 327 327 327 327 327 327 326 325 325 326 326 326 325 325 324 322 323 323 320 315
330 329 326 324 325 326 326 325 326 328 330 330 330 329 327 324 323 324 325 325 327 328 328 327 328 328 329 329 328 328 328 328 328 328 328 328 328 327 327 327 327 327 327 326 327 327 327 326 326 326 326 325 325 326 326 325 325 325 323 321 320 317 314
330 329 327 326 327 327 326 327 328 329 329 329 329 329 326 324 323 324 326 326 325 326 328 328 328 328 328 328 327 328 327 327 327 327 327 327 326 326 326 326 325 326 326 326 326 327 327 326 326 326 325 325 325 325 326 325 325 325 323 320 318 316 314
329 329 329 329 328 327 327 328 328 329 329 329 329 329 326 324 323 323 325 326 324 324 326 328 327 327 327 326 326 327 327 326 326 326 326 326 325 325 325 325 325 325 326 326 326 326 326 326 326 325 325 325 325 325 326 325 324 324 324 321 319 317 316
329 329 329 329 328 328 328 328 328 329 330 329 328 328 326 324 323 323 323 324 323 323 325 327 327 326 326 326 326 327 327 327 326 326 326 325 325 325 325 325 325 325 325 326 326 326 326 326 326 326 325 325 325 325 325 324 323 323 323 322 320 320 319
328 329 329 329 328 328 328 329 329 329 330 330 328 327 325 324 323 323 322 322 322 323 325 327 326 326 327 326 326 326 327 327 326 326 326 326 325 325 325 324 325 325 325 326 326 326 325 325 325 325 325 325 325 326 326 324 322 322 322 322 321 321 321
326 327 328 329 328 329 329 329 329 329 329 330 329 327 325 323 323 322 321 321 322 323 325 326 326 326 327 326 325 326 326 325 325 325 325 325 325 324 324 324 325 325 325 326 326 326 325 325 325 325 325 325 325 326 326 325 323 322 322 322 322 322 322
323 324 326 328 328 328 329 329 329 329 328 328 329 328 325 324 323 323 321 321 322 323 325 326 325 325 325 325 325 325 324 322 322 324 325 325 325 324 325 325 325 325 325 326 326 326 325 325 325 325 325 325 325 326 326 326 324 324 323 323 323 322 320
322 323 324 326 327 328 328 329 329 329 328 328 327 327 325 325 324 323 322 322 322 323 325 326 325 324 323 324 324 324 321 319 321 323 325 325 325 325 325 325 325 325 325 325 326 326 326 326 325 325 325 325 325 325 326 326 326 325 325 324 323 320 318
322 322 323 324 325 327 327 328 329 329 329 328 327 326 325 325 324 323 322 323 322 323 325 326 325 323 323 324 323 321 319 321 324 325 325 325 325 325 324 323 323 323 322 323 324 325 325 325 325 325 325 325 325 325 325 326 325 325 325 324 323 321 318
321 321 321 323 324 325 327 328 329 329 329 329 327 325 325 324 323 322 322 322 321 323 324 326 326 324 324 323 322 320 320 323 326 326 325 324 323 324 323 322 321 320 319 319 320 321 323 324 325 324 324 325 325 325 325 325 325 325 324 324 323 322 320
320 321 321 321 323 324 326 327 328 329 329 329 328 326 325 324 323 323 322 321 321 323 324 325 325 325 325 323 321 320 321 323 325 325 324 323 323 323 323 322 320 319 318 317 317 318 321 324 325 324 324 325 325 325 325 325 325 324 324 325 323 321 320
318 320 321 321 322 324 325 326 326 328 329 329 329 328 326 324 323 323 323 321 321 323 324 324 323 323 323 323 321 321 322 323 324 324 323 322 322 322 322 321 319 318 317 317 317 319 321 323 325 325 325 325 325 325 324 324 325 325 324 324 323 320 320
316 318 320 321 323 324 324 325 325 326 328 329 329 329 327 324 323 324 323 320 321 322 323 321 320 320 322 322 322 323 323 323 323 323 322 322 321 321 320 319 318 317 317 316 318 321 322 323 324 324 325 325 324 324 324 324 324 324 323 323 323 321 320
313 315 317 320 322 323 324 324 325 326 327 327 328 328 326 323 323 324 321 319 320 322 322 320 319 321 322 323 323 322 322 322 322 322 322 321 320 320 319 318 317 317 316 316 319 322 323 323 324 324 324 324 323 323 323 323 323 322 321 321 320 319 317
312 312 314 317 320 323 324 324 325 325 325 325 326 327 325 323 324 322 319 318 321 323 322 321 321 322 322 322 322 322 321 321 322 321 321 321 320 320 319 318 318 317 315 316 320 323 323 323 323 323 322 322 321 321 321 320 320 319 318 318 317 315 315
311 310 311 314 317 320 322 323 324 324 323 324 326 327 326 325 325 323 321 321 323 324 323 321 321 322 322 321 321 321 321 321 321 321 320 320 320 319 319 318 318 317 316 317 321 323 323 322 321 320 320 319 319 319 318 318 318 317 317 316 316 316 316
310 309 309 311 314 317 319 319 321 321 320 322 324 325 325 325 325 325 324 324 324 324 323 321 320 321 321 320 320 321 321 321 321 320 320 320 319 319 319 319 318 317 317 319 322 323 323 321 320 319 319 319 319 318 318 318 318 317 317 317 317 317 317
310 309 308 308 310 313 314 315 316 316 315 316 321 324 323 323 324 324 323 323 324 324 323 320 319 321 321 320 320 320 320 320 320 320 319 319 319 319 319 318 318 318 318 318 320 321 320 320 320 319 319 319 319 319 318 318 318 317 318 318 317 318 318
309 309 308 307 308 309 311 310 311 312 311 311 315 320 321 322 321 319 318 319 320 321 320 319 319 320 320 320 320 320 320 320 320 319 318 318 319 319 319 318 318 318 318 318 318 318 317 318 319 319 319 319 319 318 318 318 318 318 318 318 317 317 317
308 308 307 307 306 307 308 307 307 309 308 308 312 317 318 317 316 315 315 316 317 318 319 319 319 320 319 320 320 320 320 320 320 319 318 318 319 319 318 318 318 318 318 318 318 317 317 317 318 319 319 319 318 318 318 318 317 317 317 317 317 317 316
307 307 307 306 306 306 306 306 306 307 306 306 310 314 313 312 313 313 314 315 316 317 318 318 319 319 318 319 319 319 319 319 319 318 317 317 318 318 317 317 318 318 318 318 318 318 317 317 317 317 317 317 316 316 316 315 314 314 313 313 312 311 310
306 307 306 306 306 306 306 306 306 306 306 306 308 311 311 311 312 313 314 315 315 316 317 317 318 318 318 318 318 318 318 318 318 317 317 317 318 317 317 317 318 318 318 317 317 317 317 316 316 315 314 313 312 310 309 308 307 306 305 304 304 303 303
305 306 306 306 305 305 305 305 305 306 306 306 307 308 309 311 312 313 313 314 314 315 315 316 316 317 317 317 316 316 316 316 316 316 317 317 316 316 316 316 316 315 315 315 314 313 312 311 310 309 308 306 305 303 302 302 301 301 301 301 300 301 301
304 305 305 305 304 305 305 305 305 305 305 306 305 305 306 307 309 310 310 311 311 312 313 314 315 314 314 313 314 314 314 314 314 314 315 316 315 314 315 314 312 310 309 309 308 306 304 303 303 302 302 301 301 300 300 300 300 300 300 300 300 300 300

ECMWFFLT1_850_thetae_069.txt.gz
Theta_e
334 334 333 334 333 332 331 331 332 332 331 331 332 334 333 332 332 331 330 330 330 331 331 330 330 330 330 330 329 329 330 331 331 331 331 330 330 329 329 329 328 327 327 327 327 327 327 327 327 326 326 326 326 327 327 326 325 324 324 324 324 325 323
333 333 333 333 331 329 330 331 331 331 331 331 332 334 333 332 332 331 330 330 330 331 331 330 330 330 331 330 328 327 329 330 331 331 331 330 329 329 329 328 328 328 327 327 327 327 327 327 327 327 326 326 326 327 327 325 324 324 324 325 324 324 323
331 332 332 331 330 329 331 332 331 331 331 331 332 332 332 331 332 332 331 330 330 331 330 329 328 329 331 330 328 328 328 330 331 331 330 330 329 329 329 328 329 328 327 327 327 327 326 326 327 327 326 326 326 326 326 325 324 323 324 325 325 324 323
331 332 332 331 330 329 331 331 331 331 331 331 331 331 331 331 332 332 332 331 329 330 330 328 326 328 330 330 329 328 329 329 330 330 330 330 329 329 329 329 329 329 327 327 327 327 326 325 326 327 326 326 326 326 325 324 324 324 324 325 325 325 324
332 332 331 330 329 330 331 331 330 331 330 330 331 332 332 332 332 333 332 331 329 329 329 327 326 328 329 329 329 329 329 329 330 330 329 329 328 329 329 329 329 328 328 327 327 327 326 326 326 326 326 326 326 326 325 324 324 324 325 325 325 325 324
332 331 330 329 329 330 331 331 331 330 330 329 329 330 332 331 332 332 332 331 330 329 329 327 326 328 329 328 328 328 328 328 329 329 329 328 327 328 328 329 329 329 328 327 327 327 326 326 326 326 326 326 326 326 325 324 324 324 325 325 325 324 324
331 330 329 329 329 330 331 332 331 328 327 327 327 328 330 330 329 330 330 330 330 330 328 326 326 327 328 328 328 327 327 328 328 328 329 328 327 327 329 329 329 329 329 328 327 327 327 326 326 326 326 326 326 325 325 325 325 325 324 325 324 325 324
330 329 329 329 328 329 331 331 330 327 324 324 325 326 328 330 330 329 329 329 329 330 329 327 327 328 328 328 328 327 327 328 329 329 328 328 328 328 328 329 329 329 329 328 327 327 327 326 326 327 326 326 325 325 325 326 325 325 325 325 324 324 323
329 329 329 328 328 328 330 330 329 328 325 325 325 325 327 329 330 330 329 328 327 329 330 330 329 329 328 328 328 327 327 327 329 329 328 328 328 328 328 329 329 329 329 329 328 327 327 327 327 327 326 326 325 325 325 325 325 325 325 325 324 323 322
329 328 327 328 328 328 329 329 328 327 327 326 325 327 327 327 328 329 330 330 328 327 329 330 330 329 329 328 328 327 327 327 328 329 329 328 328 329 329 328 329 329 329 329 328 327 327 327 327 327 327 326 326 326 325 325 325 325 325 325 324 323 322
327 327 326 327 328 328 328 328 327 327 327 327 325 326 327 326 327 327 328 330 330 327 326 328 329 330 329 329 329 328 329 328 328 329 329 328 329 329 329 328 329 329 329 328 328 327 326 327 327 327 326 326 326 327 326 326 326 325 325 325 324 323 322
327 327 327 327 328 328 328 328 327 326 327 327 326 326 327 327 328 328 328 330 330 328 326 326 327 328 329 329 329 329 329 328 328 329 329 329 329 329 329 329 329 329 329 328 328 327 327 327 327 326 326 326 326 326 327 327 327 325 324 324 324 324 322
329 329 328 328 328 328 328 327 326 326 326 326 326 327 328 328 329 328 328 329 328 327 327 327 327 327 328 329 329 329 329 328 328 328 328 329 329 329 329 329 329 329 329 328 328 327 327 327 327 326 326 326 325 326 326 326 327 325 324 323 324 324 322
329 329 329 329 328 328 327 326 327 328 328 326 326 328 329 329 329 329 328 328 327 326 326 326 326 326 328 329 328 328 328 327 329 329 329 329 329 329 329 329 329 328 328 328 328 328 327 327 327 327 327 326 325 325 326 326 326 326 324 323 323 323 323
328 328 328 329 329 329 328 327 328 329 329 327 327 328 329 329 329 328 327 326 326 325 325 325 326 326 328 329 329 329 327 328 329 330 330 330 329 329 329 328 328 327 327 327 328 328 327 327 327 327 326 326 325 325 325 326 326 325 325 323 323 323 322
325 326 328 328 328 329 329 328 328 328 328 328 327 327 327 328 329 328 326 325 324 325 325 326 325 325 326 327 328 329 328 328 329 329 329 329 329 329 329 328 328 327 327 327 327 327 327 327 327 327 326 326 325 325 325 325 326 325 325 324 322 321 320
321 323 325 326 327 328 328 328 328 328 328 329 327 327 327 327 328 327 325 324 323 325 326 325 324 324 325 326 328 329 329 328 328 328 328 328 328 328 328 328 327 327 326 326 326 326 326 326 326 326 326 326 325 325 325 325 326 325 324 324 322 319 317
320 321 322 323 325 326 327 327 328 328 328 328 328 328 328 328 328 326 324 323 324 326 327 325 323 324 325 326 327 328 328 328 328 328 327 327 327 327 327 327 326 326 326 326 325 325 325 325 326 326 326 326 325 325 324 325 326 325 324 324 322 319 318
319 320 321 322 323 325 326 327 328 328 328 328 328 328 328 328 328 327 325 323 324 327 327 324 322 323 324 324 326 327 328 327 327 327 327 327 327 327 326 326 326 326 325 325 325 325 325 325 325 325 326 326 326 325 324 324 325 324 323 323 323 321 320
319 320 321 322 322 323 325 327 327 328 328 328 328 329 329 329 329 327 326 324 324 326 327 324 322 323 324 323 324 325 327 326 327 327 327 326 326 327 326 326 326 325 325 324 324 325 325 325 325 325 325 326 326 325 325 325 325 325 323 322 322 321 321
317 319 321 321 322 322 323 325 326 327 328 329 329 329 329 330 329 328 326 324 324 325 325 324 322 323 324 323 323 325 326 326 326 327 327 326 326 327 327 326 325 325 325 324 324 325 325 325 325 325 325 326 326 325 325 325 326 326 324 322 321 322 322
314 318 320 321 321 321 322 324 326 327 327 328 329 329 329 329 329 329 327 324 323 323 323 322 323 324 324 323 323 325 326 326 326 326 325 326 326 327 327 326 326 325 325 325 325 325 325 325 325 325 325 326 326 325 325 325 326 326 325 323 322 322 323
313 315 319 321 321 321 321 322 324 325 326 327 328 328 329 329 329 329 328 325 322 322 323 323 323 324 323 322 323 324 325 325 326 324 323 323 325 326 326 326 326 325 325 325 325 325 325 325 325 325 325 326 326 325 325 325 325 325 326 325 324 323 323
312 313 315 319 321 321 320 321 322 323 324 325 327 327 328 329 329 329 328 326 324 323 322 323 324 324 323 321 321 322 323 325 325 323 321 322 325 326 325 326 326 325 324 324 324 323 323 323 324 324 325 325 325 325 325 325 325 325 325 326 326 325 324
312 312 312 315 318 320 321 321 322 323 324 325 325 326 326 327 328 328 328 327 326 324 323 323 325 325 323 321 320 321 324 325 323 322 323 324 325 326 325 325 324 323 322 320 320 319 318 319 320 322 324 324 325 325 325 325 325 325 325 325 325 325 323
310 311 311 312 314 317 320 321 322 323 324 324 324 325 325 326 326 326 327 327 327 325 324 324 325 325 323 322 321 322 325 324 322 322 324 326 325 325 324 323 322 321 320 318 318 317 316 317 319 322 324 324 325 325 325 325 325 324 325 325 325 324 323
309 310 310 311 312 314 316 319 320 322 323 323 324 325 325 325 325 326 326 326 327 326 325 325 326 325 324 323 322 323 324 323 322 323 325 325 324 323 323 323 323 321 319 317 316 316 316 318 321 323 324 324 325 325 325 325 325 324 324 325 325 324 323
308 308 309 310 311 311 313 315 317 318 319 321 322 323 324 325 325 325 325 326 327 326 326 326 327 326 324 324 324 324 324 322 322 323 324 324 323 323 323 323 322 319 318 316 315 315 317 319 322 324 324 324 324 324 324 324 324 324 324 324 324 323 323
307 307 308 309 309 310 310 311 313 314 316 317 319 320 322 323 324 325 325 326 327 326 326 326 327 326 324 324 324 324 323 323 323 323 323 323 323 322 322 321 320 318 317 317 315 314 317 321 323 324 324 324 323 323 323 322 323 323 323 322 321 321 320
306 306 307 307 308 308 308 308 309 311 312 314 315 317 319 321 322 323 324 325 326 326 326 326 326 326 324 323 323 323 323 323 322 322 322 322 322 322 321 320 319 318 317 317 316 315 318 321 322 322 322 322 321 321 320 320 320 319 319 318 317 317 316
306 306 306 306 306 306 306 306 306 307 309 310 311 312 314 316 318 319 321 324 325 326 325 326 326 326 323 322 323 323 323 323 321 321 321 321 321 321 320 320 319 318 318 317 316 317 320 321 320 319 319 319 318 318 318 317 317 317 316 316 316 316 316
306 305 305 305 305 305 305 305 305 305 307 308 307 308 310 312 313 314 316 320 324 325 324 325 326 325 323 322 323 322 322 322 321 321 321 320 320 321 320 320 319 318 318 317 317 319 322 321 318 317 318 318 318 318 318 317 317 317 317 317 316 316 317
305 305 305 304 304 305 304 304 305 305 306 306 306 306 307 309 311 311 311 315 319 321 322 323 324 324 322 321 322 321 321 321 321 321 321 320 320 320 320 320 319 318 317 318 318 319 320 320 319 319 319 319 319 319 318 318 317 317 317 317 317 317 317
304 304 304 304 304 304 304 304 304 305 305 306 307 307 307 308 310 310 310 312 316 319 319 320 321 322 322 320 320 320 320 320 320 320 320 320 320 320 320 319 319 318 318 318 318 318 317 318 319 319 319 319 318 318 318 318 318 317 316 316 315 315 314
303 304 304 304 304 304 303 303 304 304 304 305 306 306 307 307 308 309 310 312 315 317 317 317 319 320 320 318 318 318 318 318 319 320 319 319 319 319 319 319 318 317 317 317 317 317 317 317 318 318 318 317 316 316 316 316 315 314 312 311 310 309 307
302 303 303 303 303 303 303 303 303 304 304 304 304 305 305 305 306 309 310 312 314 315 315 316 317 318 317 315 316 316 316 316 317 318 318 318 318 318 318 317 317 316 316 316 317 317 316 316 315 315 313 312 311 311 311 310 309 307 306 304 304 303 302
300 301 302 302 302 303 303 303 303 303 303 303 304 304 304 304 305 307 308 309 309 310 313 314 315 315 314 313 313 314 314 314 315 316 317 317 316 315 315 314 313 312 312 312 313 313 312 311 309 308 306 305 305 305 304 303 303 302 301 301 301 301 301

ECMWFFLT1_850_thetae_072.txt.gz
Theta_e
332 333 333 333 333 333 332 332 331 330 330 331 332 332 331 331 331 332 333 333 332 330 329 329 331 330 330 329 329 329 330 330 328 327 331 332 330 330 331 331 330 330 330 330 330 331 330 330 329 328 328 329 329 329 328 328 328 327 326 326 327 327 325
332 332 332 332 332 332 332 331 330 330 331 331 332 332 332 332 332 333 333 333 333 331 329 329 331 331 330 329 329 329 330 330 328 327 329 330 330 331 332 332 331 331 330 330 330 330 330 330 330 330 329 329 329 328 328 327 328 327 326 326 326 327 326
333 332 332 332 332 332 332 331 330 330 331 331 331 332 332 332 332 333 333 333 333 331 329 330 330 330 329 328 329 330 330 330 330 329 329 329 330 331 331 332 331 331 331 331 331 331 330 330 330 330 330 329 329 328 327 327 327 327 327 326 326 328 326
334 333 332 332 332 332 331 331 330 331 331 330 331 331 332 331 331 331 332 332 333 330 328 330 330 330 328 326 327 329 330 330 329 329 329 330 331 331 331 332 331 331 331 331 331 331 330 330 330 330 330 329 328 328 328 328 327 327 327 327 326 328 326
332 332 331 331 331 331 331 331 330 331 331 331 330 330 330 330 330 330 330 331 331 329 328 330 330 330 330 328 327 327 329 330 329 329 330 331 331 330 331 332 331 331 331 330 330 330 330 330 330 330 329 328 328 329 329 328 328 327 327 327 327 328 327
330 330 330 330 331 331 331 331 330 331 332 331 329 328 327 328 328 329 330 329 329 329 329 330 330 329 330 329 327 327 329 330 329 328 330 330 330 330 331 332 332 331 331 330 330 330 330 330 330 330 329 328 328 329 328 327 328 328 327 328 328 328 327
330 330 330 330 330 330 330 331 331 331 331 329 327 326 326 326 326 327 329 329 328 329 330 331 330 328 329 328 327 328 329 330 329 328 330 331 330 330 330 331 332 331 331 330 330 331 330 330 330 330 329 328 328 328 328 327 327 328 328 328 328 328 327
330 330 329 329 329 329 330 331 330 331 331 329 327 325 325 326 326 327 328 328 328 328 329 331 330 328 328 327 328 328 329 330 329 329 331 331 330 330 329 330 331 331 330 330 330 330 330 330 330 329 329 328 328 328 328 328 327 328 328 328 328 327 326
330 330 329 329 329 329 330 330 330 331 331 330 329 327 325 325 326 327 328 328 328 328 329 329 329 328 328 328 329 329 329 329 328 328 330 331 330 330 330 331 332 331 331 331 331 331 330 330 329 329 329 328 328 328 328 328 328 327 327 328 328 326 326
329 329 329 329 329 329 329 330 330 330 330 329 328 328 327 326 327 327 329 329 329 329 329 328 328 328 327 327 328 330 330 330 328 328 330 330 330 330 330 330 331 331 331 331 330 330 331 330 330 330 329 329 328 328 328 329 328 328 327 328 328 327 326
328 329 329 329 329 329 330 330 329 328 328 327 327 328 327 327 327 327 328 330 330 330 329 328 328 328 327 326 327 329 330 330 329 329 329 329 330 331 330 330 329 329 330 330 328 329 329 330 330 330 330 330 329 328 328 328 328 328 327 328 328 327 326
328 328 329 329 329 328 329 329 329 329 328 326 326 327 328 327 327 327 328 330 330 330 330 329 327 327 328 328 328 329 329 329 329 329 329 329 330 331 331 331 330 329 328 328 328 328 327 326 329 331 330 330 329 329 329 328 328 327 327 328 327 327 327
327 328 329 329 329 329 329 329 329 329 330 328 325 326 328 328 327 328 328 329 330 330 330 329 328 327 327 328 328 328 328 329 329 329 329 329 330 331 330 329 330 330 329 328 329 329 327 326 328 330 330 330 330 330 329 329 328 327 327 328 328 327 327
324 326 327 328 329 330 330 329 329 329 330 329 327 327 327 327 327 329 330 329 329 329 330 330 328 327 326 326 326 327 327 328 329 330 330 329 330 330 329 328 329 329 329 328 328 329 330 329 329 330 330 330 330 330 329 329 328 327 326 327 327 327 327
320 321 323 325 327 328 329 329 329 329 329 329 329 329 328 327 328 329 330 330 329 329 330 330 329 328 327 326 325 326 327 328 329 329 329 329 329 329 329 329 329 329 328 327 327 329 331 331 330 330 330 330 330 330 329 329 329 328 326 326 326 327 327
318 319 320 321 323 325 327 328 328 329 329 329 329 330 329 329 329 330 330 330 330 329 329 329 329 328 329 328 327 326 326 327 328 328 328 329 329 329 330 331 329 328 326 326 328 330 330 330 330 330 330 330 330 330 329 328 328 327 327 326 325 326 326
318 319 320 320 321 322 325 327 328 328 328 328 329 329 330 330 331 331 331 331 330 329 328 327 326 327 328 328 328 327 326 327 328 327 327 329 330 329 330 330 329 327 325 326 329 330 329 330 331 330 330 330 330 330 329 329 328 327 327 327 325 324 325
317 319 320 320 321 322 323 324 326 327 327 328 329 329 329 330 331 331 331 331 331 330 328 326 325 325 326 328 327 326 327 328 328 326 325 327 329 329 328 329 329 328 327 329 330 330 330 331 331 330 330 329 329 329 329 329 328 327 327 327 325 323 324
315 317 319 320 321 321 322 322 324 326 327 328 328 329 329 329 330 330 330 331 331 330 328 327 325 325 326 327 327 326 328 328 327 326 325 325 328 330 330 330 329 328 330 330 330 330 330 330 330 330 329 329 329 328 329 329 328 328 327 327 325 323 322
313 314 317 319 320 320 321 321 322 324 325 327 328 328 329 329 329 329 330 330 330 330 329 327 325 325 326 326 325 326 327 328 328 327 325 325 329 330 328 329 328 328 330 331 330 331 330 330 330 330 329 329 328 328 329 329 328 327 327 327 326 324 321
312 312 314 316 318 320 320 320 321 322 323 325 326 327 328 328 329 329 329 330 330 330 330 329 327 325 326 326 325 326 328 328 328 327 325 326 329 330 329 329 328 328 329 331 330 330 330 330 330 329 329 329 328 328 329 329 328 327 327 327 326 325 323
311 311 312 313 316 318 319 320 320 321 321 323 325 326 327 328 328 329 329 330 330 329 328 329 328 327 326 326 325 326 327 328 328 327 327 328 329 329 329 328 327 327 328 329 329 328 328 328 327 328 329 328 327 328 328 328 327 327 326 326 326 326 324
310 311 312 312 313 315 317 319 320 320 321 322 323 325 326 327 327 328 329 329 329 329 328 328 328 327 327 326 324 324 326 327 327 327 328 329 327 326 327 326 326 326 327 328 328 327 326 324 323 326 328 327 327 328 328 327 327 327 326 326 326 325 324
309 309 310 311 312 313 314 316 318 320 321 322 322 323 324 325 326 327 328 328 329 330 328 328 327 327 328 326 324 324 326 327 326 327 329 329 326 325 326 326 326 326 326 327 326 326 325 323 323 325 326 325 325 326 327 327 327 327 326 326 326 325 325
308 308 308 309 310 311 312 313 315 317 319 321 322 323 323 324 325 326 328 328 329 329 329 327 326 326 327 326 323 324 327 327 327 328 329 328 326 325 325 325 326 326 326 326 326 325 325 324 324 325 326 325 324 325 326 326 326 327 326 327 326 325 325
307 307 307 307 308 309 310 311 312 314 316 318 319 321 323 324 325 326 327 327 327 328 328 328 327 326 326 325 324 325 327 327 328 327 327 326 326 326 326 326 326 326 325 325 326 326 325 325 325 325 325 325 325 325 325 325 325 325 325 326 325 325 325
306 306 306 306 307 307 308 309 310 311 313 314 316 318 320 322 324 324 325 325 326 326 327 327 327 325 325 325 325 326 327 327 327 326 325 324 325 325 327 327 326 325 325 325 325 324 323 322 321 321 321 322 323 324 325 325 325 324 325 325 326 326 325
306 306 305 306 306 306 307 308 308 309 310 311 313 314 316 319 321 322 323 323 324 325 325 326 327 326 325 324 326 327 327 326 326 325 325 324 323 324 325 325 325 325 325 324 323 321 319 318 318 317 318 319 320 321 323 325 325 325 325 325 325 325 324
305 305 305 305 305 305 306 306 307 307 307 308 309 311 313 315 317 319 320 321 323 324 324 325 326 327 326 324 325 327 327 325 325 326 325 323 322 322 324 325 326 325 324 322 320 318 317 316 316 317 319 320 320 321 324 325 325 325 325 325 325 324 324
305 305 305 305 304 305 305 306 306 306 306 307 308 308 310 311 313 315 317 318 320 322 324 324 325 326 326 325 325 327 327 326 325 325 324 321 320 321 324 325 325 324 322 321 318 317 316 314 315 319 321 322 322 324 325 325 325 325 325 325 325 324 323
304 304 304 304 304 304 304 305 305 305 306 306 307 307 308 309 310 311 313 315 317 319 321 323 324 325 326 326 326 326 326 325 324 324 323 321 320 321 323 324 324 324 322 319 317 316 316 315 316 320 322 323 323 324 324 324 324 324 323 323 323 323 322
304 304 304 304 304 303 303 304 304 305 305 305 306 306 306 307 308 310 311 312 314 316 318 321 322 323 325 326 326 326 325 324 323 323 323 322 322 322 323 323 323 323 321 319 317 317 316 315 318 321 322 322 322 322 322 321 320 320 320 320 319 318 318
304 304 304 304 304 303 303 303 304 304 304 304 305 305 305 305 306 308 309 310 312 313 315 317 319 320 321 324 326 325 323 322 322 323 323 323 323 322 322 322 322 322 320 318 317 317 316 317 319 319 319 319 320 319 319 318 317 317 317 316 316 315 315
303 303 303 303 303 303 303 303 303 303 304 303 304 304 304 304 304 305 307 308 310 311 312 314 316 316 317 321 323 322 321 322 322 322 322 321 322 322 321 322 322 321 320 318 317 318 319 319 319 317 317 317 318 318 317 317 316 316 316 316 316 316 316
302 302 302 302 303 303 303 302 302 302 303 303 303 303 303 304 304 304 305 306 308 309 310 311 312 312 314 318 320 321 321 321 320 320 320 320 321 321 321 321 322 320 319 318 318 320 320 319 319 318 317 318 318 317 317 316 316 316 316 316 315 315 315
301 301 301 301 302 302 302 302 302 301 301 302 303 303 303 303 303 303 304 304 305 306 308 310 309 309 312 316 317 318 319 318 318 320 320 320 320 320 321 321 321 320 319 318 320 320 319 318 318 318 318 318 317 316 316 315 314 313 312 312 311 310 310
301 301 301 301 301 301 301 301 301 301 301 301 301 302 302 302 302 302 302 303 303 304 305 306 307 307 310 313 315 317 317 317 317 318 319 319 320 320 320 321 321 320 319 319 319 319 318 317 317 316 315 315 315 314 313 312 310 308 308 308 307 306 305

ECMWFFLT1_850_thetae_075.txt.gz
Theta_e
335 335 334 334 333 333 333 333 334 334 334 333 333 332 333 333 332 332 333 332 331 331 331 332 331 330 329 326 326 329 331 333 332 332 333 331 328 328 328 329 329 328 328 331 331 331 331 331 331 332 331 330 329 329 329 329 329 329 328 328 329 329 328
335 334 334 334 334 334 334 333 334 334 334 333 332 332 333 333 332 332 332 332 331 331 331 331 331 329 328 326 326 328 331 333 331 329 330 329 328 330 330 329 329 329 330 331 331 331 331 331 330 332 331 330 329 329 329 329 329 329 328 328 329 329 329
335 334 334 335 335 335 334 334 335 335 334 333 332 331 331 331 331 331 331 331 331 332 332 332 331 329 328 327 327 329 330 331 329 328 329 329 331 331 331 330 329 330 332 330 330 332 332 331 331 332 332 330 329 329 329 328 329 330 329 328 329 330 329
333 333 334 335 334 334 333 333 335 335 335 334 331 330 330 330 330 331 332 331 331 330 331 333 332 330 329 328 327 328 329 330 329 329 329 330 332 332 330 330 330 330 330 330 331 332 332 332 331 331 331 331 330 330 329 328 329 330 329 329 329 329 329
331 332 333 333 333 333 332 333 334 335 335 334 331 329 330 330 331 331 332 331 331 329 329 331 330 329 330 328 326 327 329 329 328 329 330 329 330 331 329 329 330 329 329 330 331 331 331 332 331 330 330 331 332 331 330 329 329 330 330 329 329 329 329
332 332 332 333 333 332 331 332 333 333 335 334 332 329 329 330 329 330 331 331 331 329 328 329 327 327 328 327 325 326 328 329 328 328 330 329 329 329 328 328 328 329 329 330 330 331 331 331 331 330 330 331 330 330 330 331 330 330 330 329 329 329 329
331 332 333 333 333 332 332 332 331 332 332 333 333 331 328 328 327 328 330 330 330 331 330 329 328 327 327 327 326 327 329 329 329 329 329 331 330 328 328 328 328 329 329 330 331 331 331 330 330 330 330 330 330 329 330 330 330 330 329 328 328 329 329
330 331 332 333 333 333 332 332 331 330 330 331 332 332 330 329 327 326 327 328 329 331 331 330 330 329 329 330 329 329 330 330 330 330 330 330 329 327 328 328 329 329 330 330 330 330 330 330 330 330 330 330 330 330 329 329 329 329 329 329 328 329 329
329 329 331 332 332 331 330 331 330 329 329 328 329 331 332 331 328 326 326 327 327 329 330 330 332 332 331 331 330 330 330 330 329 329 328 329 329 328 328 328 328 329 330 330 330 330 330 330 330 330 330 329 329 330 330 329 329 328 329 329 328 329 329
328 329 329 330 331 330 329 330 330 329 329 328 327 328 331 331 330 328 327 327 327 328 328 329 331 332 332 332 331 330 330 330 329 328 328 329 329 328 328 327 327 329 330 329 329 330 331 330 330 330 330 329 330 330 330 329 329 329 329 329 329 329 329
327 328 328 328 329 330 330 330 331 330 330 330 328 327 328 330 331 330 328 328 328 328 329 329 329 330 332 332 332 331 330 330 329 328 328 329 329 328 327 326 326 329 330 329 329 330 330 330 331 330 329 329 330 330 330 330 329 329 329 329 329 329 329
323 325 326 327 328 329 330 330 330 330 330 329 329 328 329 329 330 331 331 329 329 329 329 329 329 329 330 331 331 331 330 330 328 327 327 327 327 327 327 326 327 329 329 329 329 330 330 330 330 330 329 330 330 329 329 330 329 329 329 329 329 329 329
319 321 323 325 326 327 329 330 330 330 330 329 328 329 330 329 329 331 332 332 331 330 330 330 329 329 329 329 329 331 331 330 328 327 326 326 327 327 328 328 329 330 329 329 330 331 331 331 330 329 330 330 329 328 329 328 328 329 329 328 329 329 328
318 318 319 320 322 324 326 328 330 330 331 330 330 330 330 330 330 331 332 332 332 332 332 331 330 330 329 329 329 330 332 331 328 328 328 327 327 328 328 328 328 329 329 329 330 330 330 331 330 328 328 328 328 329 329 329 329 329 328 328 329 328 328
317 318 318 319 320 321 322 324 326 328 329 329 329 330 330 330 331 331 330 331 331 332 332 332 332 331 330 329 329 330 331 331 329 330 330 328 328 328 328 328 328 329 329 329 330 330 329 329 328 328 327 326 326 328 329 330 330 329 328 328 328 328 328
316 316 317 318 319 320 321 321 322 324 326 328 329 329 329 330 330 330 329 327 328 330 331 331 332 332 331 330 329 329 330 330 330 330 330 329 330 329 327 328 329 328 328 329 329 330 329 327 325 327 327 324 325 328 330 330 330 329 328 328 328 328 328
315 316 316 317 318 320 320 321 321 322 324 325 327 328 328 329 329 328 328 327 327 328 329 330 331 331 331 330 330 330 329 329 329 329 329 329 330 329 328 328 328 328 328 330 330 329 329 327 324 326 325 324 326 329 329 330 329 329 328 327 328 328 328
314 315 315 315 316 317 319 320 321 321 322 323 324 326 328 329 328 328 329 329 329 329 328 329 330 330 330 330 331 331 330 329 329 329 329 329 330 330 329 326 326 327 328 329 330 329 328 327 325 326 326 326 328 329 329 330 329 329 329 328 328 327 327
313 314 314 314 314 315 316 318 319 320 321 321 322 323 326 328 328 329 330 329 329 329 328 328 329 329 330 329 329 331 331 328 328 329 329 329 330 330 329 326 326 326 327 327 329 329 329 328 327 327 328 328 329 329 329 330 330 329 328 328 328 327 326
312 312 313 313 313 313 313 315 317 319 320 320 320 321 323 325 327 328 329 329 329 329 328 328 328 328 329 329 328 330 330 328 327 328 328 329 330 330 329 328 327 326 326 328 330 329 329 329 329 328 329 329 329 329 328 329 329 329 328 328 328 327 325
311 311 311 312 312 312 312 313 315 316 318 319 320 320 321 323 326 327 327 328 328 329 328 328 327 326 327 328 328 328 329 327 327 328 328 329 329 329 329 328 327 326 327 329 330 328 327 328 328 328 329 329 329 329 328 328 329 329 328 327 327 327 325
311 310 310 310 310 311 311 312 313 314 315 317 318 319 319 321 324 325 326 327 328 328 328 328 328 327 327 327 327 327 328 328 329 329 328 329 329 328 328 328 327 326 326 327 328 327 327 327 327 328 330 329 328 328 329 328 328 329 328 327 327 327 325
310 309 310 310 310 310 310 310 311 312 313 314 316 317 319 320 321 323 325 326 327 328 328 328 328 328 327 328 327 328 329 328 328 328 328 329 331 329 327 327 327 326 326 326 326 327 327 327 327 327 329 329 328 328 327 326 327 328 327 327 326 326 325
309 309 309 309 309 309 309 309 310 311 312 312 313 315 316 317 319 321 323 324 325 327 328 328 328 328 328 328 328 328 329 327 326 327 327 328 330 329 327 326 327 326 326 325 326 327 326 327 327 326 327 327 326 326 326 325 327 328 327 326 326 326 325
308 308 308 308 308 308 308 308 309 310 311 311 312 312 313 314 316 318 321 322 324 325 327 327 327 328 329 329 328 327 328 327 327 326 325 326 328 328 327 327 327 326 325 326 328 328 327 327 328 327 327 326 324 325 325 325 327 328 326 326 327 325 324
307 307 307 307 307 307 307 307 307 308 309 310 310 311 311 312 313 315 317 320 323 324 326 326 326 327 329 329 328 328 327 327 327 326 324 323 325 327 327 328 328 326 326 327 329 328 327 328 328 328 327 326 325 325 325 324 326 327 327 326 325 325 324
307 307 307 307 306 306 306 306 306 307 307 308 309 310 311 311 311 312 314 317 320 323 324 325 325 326 327 328 328 328 327 327 328 327 325 325 326 327 327 327 326 326 327 329 328 327 327 327 326 326 326 325 325 325 324 324 324 325 326 326 325 325 325
306 306 306 306 306 306 306 305 305 305 306 306 307 308 309 309 310 310 311 313 316 319 321 323 324 325 326 326 327 327 327 327 328 328 327 327 326 326 326 327 327 327 328 329 327 326 326 326 326 325 326 326 326 326 325 325 325 324 325 325 325 325 325
306 306 306 306 306 305 305 305 305 304 304 305 305 306 307 308 308 309 310 311 313 315 318 320 321 323 324 325 325 326 326 327 327 328 327 326 326 326 326 327 327 328 327 326 326 326 325 325 325 326 326 326 326 325 324 324 324 325 325 325 324 325 324
305 305 305 305 305 305 304 304 304 304 304 304 304 305 305 306 307 308 308 309 310 312 314 316 317 320 322 323 324 324 325 326 327 327 327 326 327 327 326 325 326 327 327 325 325 326 324 323 323 324 325 325 324 323 322 321 322 324 326 326 325 325 324
305 305 305 305 305 304 304 304 303 303 303 303 303 303 303 304 305 306 307 307 308 310 311 313 314 316 318 320 322 323 324 324 325 327 327 327 327 327 326 325 325 327 326 325 325 325 322 321 323 323 323 323 323 320 318 319 322 324 326 326 325 325 325
304 304 304 304 304 304 304 303 303 303 303 303 303 303 303 303 303 305 306 307 307 308 309 310 312 314 315 317 319 321 322 322 323 325 325 325 326 326 326 325 325 325 325 324 324 322 319 318 320 321 321 321 320 317 317 321 324 325 325 324 325 325 324
303 303 303 303 303 303 303 303 303 303 302 302 302 302 302 302 302 303 304 306 307 307 308 309 309 311 313 314 316 319 320 319 321 323 323 325 326 326 325 324 323 324 325 324 322 320 317 316 318 320 320 320 319 319 320 323 323 323 323 323 322 322 322
303 303 303 303 303 303 302 302 303 302 302 302 302 302 301 301 301 301 302 304 305 306 306 307 308 309 310 311 314 316 317 317 319 322 323 324 325 325 324 323 323 323 324 323 320 319 317 316 317 319 319 319 319 320 321 321 319 319 319 319 319 319 319
302 302 302 302 302 302 302 302 302 302 302 302 302 301 301 301 300 301 301 302 303 304 305 306 307 308 308 309 311 312 313 315 316 318 321 323 323 323 323 323 323 323 323 322 320 318 317 317 317 318 317 317 318 318 318 317 316 315 314 314 314 314 314
302 302 302 302 302 302 302 301 301 301 301 301 301 301 301 300 300 300 300 301 302 302 303 304 305 306 307 308 309 309 310 312 313 314 318 321 321 321 321 321 321 321 320 321 320 318 317 318 318 318 317 316 316 316 315 315 314 312 312 311 311 311 311
302 302 301 301 301 301 301 301 300 300 300 301 301 301 300 300 300 299 299 300 301 301 302 302 304 305 306 307 308 308 308 310 310 311 314 318 320 319 318 319 319 319 318 319 320 319 319 318 318 317 316 316 316 315 314 313 312 311 311 310 309 309 309

ECMWFFLT1_850_thetae_078.txt.gz
Theta_e
336 336 336 335 334 334 334 334 334 334 334 334 334 334 334 334 334 334 334 334 333 333 332 332 332 331 330 331 332 331 330 329 328 326 325 327 330 331 330 331 331 331 331 331 331 331 332 332 331 331 331 331 330 330 330 330 329 330 330 329 329 329 328
336 336 336 336 335 335 335 335 335 334 334 334 333 333 333 333 334 334 334 334 333 333 332 332 332 332 331 331 332 331 330 329 328 327 326 327 329 330 330 330 330 330 330 330 331 332 332 332 332 331 331 331 331 330 330 330 329 329 330 329 329 329 328
334 334 334 334 334 335 335 335 334 333 334 333 333 334 333 332 332 333 333 333 333 332 332 332 332 332 331 331 332 331 331 329 328 328 327 327 328 329 330 331 330 329 329 330 330 331 331 331 331 331 331 331 331 330 329 329 329 329 330 329 328 329 329
332 332 332 332 332 333 334 334 334 333 333 333 333 334 334 333 331 330 332 332 332 332 332 332 332 332 331 331 331 331 331 330 329 329 328 326 327 327 328 330 330 329 329 329 329 330 331 331 331 331 331 331 331 331 330 329 329 329 329 329 327 328 329
332 331 332 332 333 334 334 334 334 333 332 332 332 332 333 333 329 328 331 332 332 331 331 331 331 331 331 331 331 331 331 330 329 329 328 327 327 326 327 329 330 330 330 329 328 329 330 331 331 330 330 331 331 331 330 329 329 328 329 329 327 328 329
331 331 332 332 333 334 334 334 333 332 332 331 330 331 331 331 329 327 328 329 331 331 330 330 330 330 330 331 332 331 331 329 328 328 327 327 327 327 328 329 328 329 330 330 329 330 330 330 331 331 330 330 331 331 331 330 329 329 329 329 328 328 329
328 329 330 331 332 333 333 333 333 332 331 330 330 330 330 330 330 328 326 326 328 329 329 329 329 329 330 331 333 332 331 330 329 328 328 327 328 328 328 329 327 326 328 330 331 330 330 330 331 331 330 330 330 330 331 331 329 328 329 330 329 329 329
326 327 327 329 330 331 332 332 332 331 331 331 331 330 329 329 329 329 328 326 326 327 329 329 329 330 331 331 333 333 332 331 329 328 328 329 329 328 328 328 325 324 326 329 330 330 329 330 331 331 330 329 330 331 331 331 330 328 329 330 330 329 329
324 326 327 328 329 330 330 331 331 332 331 331 330 330 329 329 328 328 328 327 326 327 329 329 329 330 331 332 332 331 330 330 329 328 328 329 329 329 328 327 326 326 327 329 329 329 329 329 330 331 330 329 330 331 331 331 331 330 329 330 330 329 329
321 322 324 326 327 328 329 329 330 330 330 330 330 330 330 329 329 328 327 327 327 328 329 329 329 329 330 331 332 331 330 330 330 329 329 329 330 329 327 327 327 328 328 329 329 329 329 329 329 330 330 329 329 330 331 331 331 331 330 330 329 329 329
320 320 320 321 323 325 326 327 328 328 329 330 330 330 330 330 329 329 328 327 328 328 328 329 329 329 330 331 331 330 330 330 330 330 330 330 330 329 327 327 327 328 328 329 329 329 329 329 329 330 329 329 329 329 330 330 330 330 330 329 329 329 329
319 318 318 318 319 320 321 322 324 326 327 329 329 330 330 330 330 330 330 329 328 328 327 327 327 328 330 330 329 330 330 330 331 331 330 331 330 329 329 328 327 328 328 329 329 328 329 329 329 330 329 330 330 329 329 329 330 329 329 329 329 329 329
318 317 317 317 318 318 319 319 320 322 323 325 328 329 330 330 330 330 330 330 329 329 328 328 328 329 330 329 329 329 330 331 332 332 331 331 330 329 329 328 328 328 328 328 328 328 328 328 329 329 329 329 330 330 330 330 330 329 329 329 329 329 329
316 316 317 317 316 317 318 318 319 320 320 321 323 326 328 329 330 330 330 330 330 329 329 330 330 330 331 330 329 329 329 330 331 331 332 330 330 329 329 328 328 328 328 327 326 327 327 328 329 329 329 328 328 329 330 330 330 329 329 329 329 329 329
315 316 316 316 315 315 316 316 317 318 319 320 320 321 323 325 328 329 329 329 329 329 329 328 329 330 330 331 330 329 329 330 330 330 331 331 330 330 329 329 328 327 327 326 326 327 327 328 329 329 329 328 328 330 330 330 330 329 328 329 329 329 328
314 314 314 314 314 314 314 314 314 315 316 318 319 320 320 321 323 326 328 328 328 328 328 327 327 328 329 329 330 330 329 330 330 329 330 330 330 330 329 329 328 327 327 327 327 327 327 328 328 329 329 328 328 330 331 330 329 328 327 328 328 328 329
313 313 313 313 313 313 312 312 313 313 314 315 316 318 319 320 320 322 325 327 328 328 328 328 327 328 329 328 329 329 329 329 328 329 329 330 330 330 329 329 329 329 328 328 328 327 327 327 328 328 328 327 327 330 330 329 328 328 328 328 329 329 329
312 312 312 312 312 312 312 312 312 311 312 313 314 315 317 318 319 320 322 324 326 327 328 328 329 329 329 328 329 329 329 329 328 329 329 329 329 330 329 329 330 330 330 329 327 327 327 327 327 327 328 327 327 329 330 328 328 329 328 328 329 329 329
311 311 311 311 311 311 311 311 311 311 311 312 312 313 314 315 316 318 319 322 324 326 327 327 328 329 329 329 329 329 330 330 329 329 329 330 330 329 329 329 330 330 330 329 328 327 327 328 328 328 328 328 328 330 330 328 327 329 330 329 328 329 329
310 310 310 310 310 309 309 309 310 310 310 311 311 312 312 313 314 315 317 319 321 323 325 326 327 328 328 328 328 329 330 329 329 329 330 330 330 329 329 329 329 330 330 329 328 328 329 328 328 329 329 329 328 329 330 328 327 328 329 329 328 328 328
309 309 309 309 308 308 308 308 309 309 310 310 310 311 312 312 312 313 314 316 318 321 323 324 326 327 327 327 328 329 329 328 328 328 329 329 329 329 328 328 329 329 330 328 326 328 329 329 328 328 329 328 326 327 329 327 327 328 329 328 328 327 327
309 308 308 308 308 308 307 307 308 308 308 308 309 310 311 312 312 312 313 314 316 319 321 322 324 325 326 326 327 328 329 329 328 328 328 329 329 329 328 327 328 328 329 328 326 327 329 329 328 328 328 327 325 327 328 327 327 328 328 328 327 327 326
308 308 308 308 307 307 307 307 307 307 307 307 307 309 310 311 311 311 312 313 314 316 319 321 323 324 324 324 325 327 328 329 328 328 328 328 328 327 327 327 327 327 329 329 327 326 328 329 328 328 329 327 326 328 328 327 328 328 328 327 327 327 327
307 307 307 307 307 307 306 306 306 306 306 306 306 307 307 308 309 310 311 311 312 313 315 318 320 322 322 323 324 325 327 328 329 328 328 328 328 328 327 327 327 327 328 330 329 328 328 328 328 329 329 327 326 327 328 327 328 329 328 327 327 327 327
307 307 307 306 306 306 306 305 305 305 305 304 304 305 305 306 307 308 309 310 310 311 312 314 316 318 320 321 323 324 326 327 328 328 328 329 329 328 327 326 326 325 325 328 329 329 328 327 328 328 329 328 327 328 328 328 328 329 328 327 326 326 326
306 306 306 306 306 306 305 305 304 304 304 304 304 304 304 304 304 305 307 308 309 309 310 311 313 315 318 320 322 324 325 326 327 328 328 328 328 327 327 327 327 326 325 325 327 329 328 327 328 328 328 328 329 329 329 329 329 328 328 326 326 325 325
305 305 305 305 305 305 305 304 303 303 303 303 303 303 303 302 303 303 305 306 307 307 308 310 311 313 315 318 320 322 323 324 326 327 328 328 327 327 327 327 326 325 324 325 326 328 328 328 328 329 329 329 329 329 328 328 328 328 327 326 326 326 326
305 305 305 305 304 304 304 304 303 303 303 303 302 302 302 302 302 302 303 304 305 306 307 309 311 312 313 315 317 319 322 323 325 326 327 328 328 327 327 327 326 324 324 325 326 327 328 327 328 328 329 329 329 329 328 328 327 327 327 326 326 326 326
304 304 304 304 304 304 303 303 303 303 303 302 302 302 302 302 302 301 302 302 302 303 305 307 310 311 312 314 316 318 319 321 323 325 326 326 327 327 327 327 326 326 325 326 327 327 326 326 327 328 328 327 327 327 327 327 327 326 326 326 326 326 325
304 304 303 303 303 303 303 302 302 303 302 302 302 301 301 301 301 301 301 301 301 301 302 304 308 310 311 312 314 316 318 320 321 323 324 325 325 326 326 326 327 326 326 326 327 327 326 325 326 327 327 326 326 327 327 326 325 325 325 326 326 326 325
303 303 303 303 303 303 302 302 302 302 302 302 302 301 300 300 300 300 301 301 300 300 301 302 305 308 310 311 312 314 316 318 320 321 322 323 324 325 326 326 326 326 326 325 325 326 327 326 325 325 326 326 326 326 326 325 325 325 326 326 326 325 325
303 303 302 302 302 302 302 301 301 301 302 302 302 301 300 300 300 300 301 301 301 300 300 301 303 305 308 309 310 312 313 314 317 318 320 321 322 323 325 326 326 325 324 324 325 327 327 325 324 325 327 327 326 325 325 325 324 324 324 325 325 325 324
302 302 302 302 302 302 301 301 301 301 301 301 301 300 300 300 300 299 300 300 300 300 300 300 301 302 305 307 308 309 310 311 312 314 316 318 320 321 323 325 326 325 324 324 326 327 326 324 324 326 327 325 324 323 323 322 320 320 321 322 323 324 324
302 302 301 301 301 301 301 300 300 300 300 300 300 300 300 300 299 299 299 299 300 300 300 300 300 301 302 304 306 307 309 309 309 310 312 314 317 319 321 322 323 324 325 325 326 326 326 325 325 326 324 323 321 320 319 318 318 320 322 323 323 324 323
302 302 301 301 301 301 301 300 300 300 300 300 300 300 299 299 299 299 299 299 299 299 300 300 300 301 301 302 303 305 306 307 307 308 309 311 313 314 315 316 317 320 324 326 325 325 326 325 324 324 323 322 320 318 317 317 319 321 322 321 321 321 320
302 302 301 301 301 300 300 300 299 299 299 299 300 299 299 299 299 299 298 299 299 298 299 299 300 300 300 301 301 302 303 305 306 306 307 308 308 308 310 311 312 314 320 324 324 325 325 324 322 323 323 321 319 318 318 319 319 319 319 318 317 317 316
302 302 301 301 301 301 300 300 299 299 299 299 299 299 299 299 299 299 298 298 298 298 298 298 299 299 300 300 300 301 301 302 304 305 305 305 306 306 307 308 309 311 315 320 322 323 322 322 321 321 320 319 318 317 318 318 317 317 316 316 315 314 313

ECMWFFLT1_850_thetae_081.txt.gz
Theta_e
336 336 336 336 336 336 336 335 335 335 334 334 334 333 334 333 333 333 333 333 334 333 333 333 333 333 333 333 332 332 332 331 331 332 332 331 330 330 328 329 330 330 330 329 330 330 331 331 330 330 331 330 330 330 331 330 330 329 328 329 329 329 329
334 335 335 335 335 334 335 335 334 334 334 334 333 333 333 333 333 333 333 333 332 332 331 331 332 332 333 332 332 331 332 332 331 331 331 330 329 328 326 327 330 331 330 330 330 331 330 330 330 330 330 330 330 330 331 331 330 329 329 329 329 329 329
333 333 333 332 332 332 333 333 333 334 334 333 333 332 332 332 333 333 332 332 331 330 330 331 331 331 331 331 331 331 331 333 332 331 331 330 329 328 327 327 329 331 331 331 331 330 330 331 330 330 330 330 330 330 330 330 330 329 329 330 330 329 329
331 331 331 331 331 331 332 333 334 334 334 333 332 332 331 331 331 332 332 331 329 329 329 330 330 330 330 330 331 331 331 332 332 332 331 330 329 328 327 327 329 330 330 330 329 328 329 331 331 330 330 330 330 329 329 330 330 329 330 330 330 330 329
329 329 330 330 330 331 332 333 333 333 332 332 332 331 331 330 330 331 331 330 329 328 328 328 328 328 329 330 330 330 330 331 332 332 332 331 330 329 328 328 329 330 330 329 327 327 328 330 330 329 330 330 330 330 330 330 330 330 330 330 329 329 329
326 327 327 328 328 329 331 332 331 331 331 331 331 331 331 331 330 330 329 329 329 328 328 328 327 327 328 329 329 330 330 330 331 332 332 331 330 329 329 328 328 329 329 327 327 328 330 330 330 330 330 330 330 330 330 330 330 330 330 329 328 329 329
322 323 324 325 326 327 329 330 330 330 329 329 330 330 330 330 330 330 329 329 329 329 328 328 328 328 328 329 329 330 330 330 331 332 332 331 330 330 330 329 328 329 328 327 327 329 330 330 330 330 330 331 330 330 330 330 331 330 330 329 329 329 329
319 320 320 321 322 324 326 328 329 329 328 328 328 329 329 330 330 330 329 329 329 329 328 328 328 328 329 329 329 329 329 329 330 331 332 331 329 330 330 329 329 329 329 328 328 328 329 330 329 329 330 331 330 330 330 331 331 331 329 329 328 329 329
318 318 317 317 318 319 321 323 324 325 325 326 326 327 328 329 329 329 329 329 329 329 329 328 328 328 328 328 328 328 329 329 329 330 331 330 329 329 329 329 329 329 329 329 329 328 328 329 329 329 330 331 331 329 329 330 330 331 330 329 328 328 329
317 317 317 316 316 317 318 319 319 320 321 322 323 324 326 327 328 329 328 328 328 329 329 329 329 328 328 328 327 327 328 329 329 329 330 329 329 328 329 329 329 329 329 330 330 329 327 327 329 329 330 331 331 330 330 329 329 330 330 329 329 328 329
316 316 316 315 315 315 316 317 317 318 319 320 320 321 322 324 326 327 328 327 328 329 329 329 329 328 328 328 328 328 328 328 328 329 330 329 329 329 329 329 329 329 329 330 330 329 326 326 328 329 330 330 330 330 330 329 329 329 330 330 329 328 329
315 315 314 314 314 314 314 314 315 315 316 317 318 319 320 321 323 325 326 326 327 328 329 328 328 328 328 327 327 328 329 328 327 327 329 329 330 330 330 330 330 329 329 329 329 329 327 327 328 329 330 330 330 330 329 329 330 330 330 330 328 328 329
313 313 313 313 313 313 313 313 313 313 313 314 315 317 318 319 320 321 323 325 326 328 328 328 328 328 328 327 326 327 328 329 328 328 328 328 329 329 330 330 330 330 330 329 329 328 328 328 329 328 329 329 330 330 329 329 330 330 330 330 329 329 329
312 311 311 311 311 312 312 312 312 312 312 313 313 314 315 316 317 318 320 322 324 326 326 327 327 327 328 327 327 327 327 328 329 328 329 328 328 329 330 331 331 330 330 330 329 328 328 328 328 328 328 329 330 330 329 329 329 329 329 329 329 329 329
311 311 311 311 311 311 311 311 311 312 312 312 312 312 313 313 314 315 317 319 321 323 324 325 326 327 327 327 327 327 327 328 329 328 329 329 329 329 329 331 331 331 330 330 329 328 328 328 328 328 329 330 330 329 329 329 329 329 329 328 329 329 329
310 310 310 310 310 310 310 310 311 311 312 312 312 312 312 312 312 313 314 316 318 320 322 323 325 326 326 327 327 327 328 328 328 328 329 329 329 329 329 330 330 330 330 330 329 329 328 329 329 329 328 329 330 330 329 329 329 329 329 328 328 329 329
309 309 309 309 309 308 309 309 310 310 311 311 312 312 312 312 312 312 313 313 315 317 319 320 322 323 324 325 326 327 328 328 328 328 329 329 329 328 328 329 329 330 330 330 329 329 328 328 328 328 328 328 329 330 330 329 329 329 329 329 328 328 328
309 309 308 308 308 308 308 308 308 309 309 310 311 311 311 311 311 312 312 312 313 315 316 317 319 321 322 323 325 326 327 328 327 328 329 329 329 329 329 328 329 329 330 330 330 329 329 328 327 328 328 328 328 329 329 329 329 330 330 330 328 327 328
308 308 307 307 307 306 306 306 306 306 307 308 309 310 310 310 310 311 311 312 312 313 314 315 316 318 319 321 323 324 326 327 327 328 328 328 328 328 329 328 329 329 329 330 330 329 329 328 328 328 328 328 328 328 329 329 330 330 330 330 329 327 328
307 306 306 306 305 305 305 305 305 305 305 306 307 308 309 309 309 309 310 311 311 312 312 313 314 315 316 318 320 322 324 325 326 327 328 328 328 328 328 328 329 330 330 330 329 329 329 329 328 328 328 328 328 328 328 329 330 330 329 329 329 328 327
306 306 305 305 304 304 304 304 304 304 304 304 305 306 306 307 307 308 309 309 310 311 311 311 311 312 313 315 316 318 321 322 325 326 327 328 328 327 327 328 329 329 329 330 329 329 328 328 328 328 328 328 329 329 328 329 329 329 329 328 328 328 327
305 305 304 304 304 304 303 303 303 303 303 303 304 304 304 305 306 306 307 308 308 309 310 310 310 310 311 312 314 315 317 320 322 323 325 327 328 328 328 327 328 328 329 329 329 329 328 328 328 328 329 329 329 329 328 328 329 329 328 328 327 327 327
304 304 304 303 303 303 303 303 303 302 302 301 302 303 302 302 303 304 305 306 307 307 308 308 309 310 310 311 312 314 315 317 319 321 322 324 326 328 328 328 328 328 328 329 329 329 328 328 328 328 328 329 329 329 329 329 329 329 328 327 326 327 328
304 304 303 303 302 301 302 302 302 302 301 301 301 301 301 301 302 302 303 304 305 305 306 307 308 309 310 311 312 313 314 315 318 319 321 322 325 326 327 328 328 328 328 328 328 328 328 328 328 327 327 328 328 329 329 329 329 329 328 327 327 328 328
304 303 303 303 302 301 301 302 302 302 301 300 300 300 300 300 301 301 302 302 303 303 304 305 307 308 309 310 311 312 313 314 316 318 320 322 324 325 326 327 327 328 328 327 326 327 327 328 328 326 324 325 327 328 329 329 329 329 328 328 328 328 327
303 303 303 302 301 300 300 301 302 302 301 300 300 300 300 300 300 301 301 301 301 302 303 304 305 306 307 309 310 311 313 314 314 316 319 321 322 324 324 326 327 327 328 327 326 325 325 327 328 326 324 325 327 328 328 328 329 329 328 327 328 327 326
302 302 302 302 300 300 299 300 300 301 301 300 299 300 300 300 300 300 300 300 301 301 301 302 303 304 306 307 309 310 312 313 314 315 317 319 321 322 323 324 325 326 327 327 326 325 325 326 327 327 327 327 327 327 328 329 329 329 328 328 328 327 327
302 302 302 301 299 299 299 298 299 300 300 299 299 299 300 300 300 300 300 300 301 301 301 301 302 303 304 305 306 308 310 312 313 314 315 317 319 321 322 323 324 325 326 326 326 326 326 326 326 327 328 328 327 326 328 329 329 328 328 328 328 327 327
301 301 301 300 299 298 298 298 298 299 299 298 298 299 299 300 300 300 300 300 300 300 300 300 301 301 302 303 304 306 307 309 311 313 314 315 317 319 321 323 324 324 325 326 326 326 326 326 325 327 328 327 326 327 328 329 328 327 327 327 328 327 327
301 301 300 300 299 299 298 298 298 298 298 298 298 298 299 299 299 299 299 299 298 298 299 299 299 300 301 301 302 303 305 306 308 310 311 312 314 316 319 321 323 324 325 325 325 326 326 326 325 327 328 327 326 326 328 328 328 327 326 326 327 327 326
300 300 300 299 299 299 298 298 298 298 298 297 297 297 298 298 298 298 297 297 297 297 297 298 298 298 299 300 301 302 303 304 305 307 309 310 311 313 315 318 320 322 324 324 325 326 326 326 326 327 328 328 327 327 328 328 328 327 327 326 326 326 325
299 299 300 300 299 299 298 298 298 298 298 298 297 297 297 297 297 297 297 297 297 297 297 297 297 297 298 299 300 301 301 302 303 304 306 308 309 310 313 315 317 320 322 324 325 325 326 326 326 326 327 327 327 327 328 327 327 327 327 327 326 326 326
299 299 300 300 299 299 298 298 298 298 298 298 297 297 297 297 297 297 297 297 297 297 296 296 296 297 297 297 298 300 300 301 302 303 304 306 307 308 310 312 314 317 319 322 324 325 326 326 325 325 326 327 327 327 327 326 326 327 327 327 326 326 326
299 299 299 300 299 299 298 298 298 298 298 298 297 297 297 297 297 297 297 297 297 297 296 296 296 296 296 297 297 299 299 300 301 302 303 304 306 306 308 309 311 313 315 319 322 324 326 326 325 325 326 327 326 326 326 326 325 325 326 326 326 325 325
299 299 299 299 299 298 298 298 298 298 297 298 298 297 297 297 297 297 296 296 297 296 296 296 296 296 296 296 296 297 299 299 300 301 302 303 304 305 306 307 309 310 312 314 318 321 325 326 325 324 326 327 326 326 326 325 325 324 324 324 323 323 323
300 299 299 299 298 298 298 298 298 298 297 298 298 298 297 297 297 297 297 296 296 296 295 295 295 295 296 296 296 296 298 298 299 300 301 302 302 303 304 306 307 308 309 311 315 319 323 324 324 324 325 325 325 324 324 323 323 322 321 320 321 321 322
300 299 298 298 298 298 298 298 298 298 298 297 298 298 298 297 297 297 297 297 296 295 295 295 295 295 295 296 295 296 297 297 298 299 300 301 301 302 303 305 307 308 309 309 312 316 318 320 321 322 323 323 322 322 321 321 320 319 319 319 320 321 321

ECMWFFLT1_850_thetae_084.txt.gz
Theta_e
334 334 334 334 334 334 334 334 334 334 334 333 332 332 332 332 332 332 331 331 331 331 331 330 329 329 330 330 331 331 331 331 331 331 331 331 331 331 331 331 332 331 331 330 330 329 330 330 329 329 329 329 329 330 330 331 330 330 330 330 329 329 329
333 333 333 333 333 333 334 333 333 333 333 333 333 333 332 331 331 331 330 330 330 331 331 329 328 328 328 329 330 331 331 330 330 330 331 331 331 331 331 331 331 331 331 331 330 329 329 330 330 329 329 330 330 330 330 330 330 330 330 330 329 329 329
331 332 332 332 332 332 332 332 332 332 332 332 332 333 332 331 331 331 330 330 330 330 330 329 328 327 327 327 328 329 330 329 329 329 330 329 330 331 331 331 332 330 330 330 329 329 329 330 330 330 329 330 329 329 329 330 330 330 330 330 330 329 329
329 329 330 331 331 331 331 331 331 331 331 331 331 332 331 331 331 331 330 330 330 329 329 328 328 328 328 327 327 329 329 329 329 329 329 329 330 331 331 331 331 330 329 329 328 328 329 330 330 330 329 329 329 329 329 329 329 330 330 331 330 329 329
325 326 327 327 328 328 328 329 331 331 330 329 330 330 330 330 330 330 330 330 329 329 328 328 328 328 328 327 328 328 329 329 329 329 329 329 329 330 331 331 330 329 328 327 326 326 328 329 330 330 329 329 330 329 329 329 330 329 330 331 330 329 329
322 324 324 325 325 325 325 327 328 329 328 328 328 328 328 329 329 329 329 329 329 329 329 328 328 328 328 328 328 328 328 328 328 329 329 329 329 330 330 331 331 330 328 327 326 327 328 329 330 331 330 329 329 329 329 329 330 329 330 330 330 329 329
319 320 321 322 322 323 324 324 325 326 326 327 327 326 326 327 327 327 327 327 328 328 328 328 328 328 328 328 328 328 328 328 328 329 329 329 329 330 330 331 331 330 329 327 327 328 329 330 330 330 330 329 330 330 329 329 330 330 330 330 329 329 329
318 317 318 318 318 320 321 322 323 324 325 325 325 325 325 325 326 326 326 325 326 327 327 328 328 328 329 329 328 328 328 328 328 328 328 328 329 329 330 330 331 330 329 327 328 329 330 330 330 329 329 329 330 330 329 329 330 330 330 330 329 329 329
316 316 315 315 316 317 318 319 320 320 321 321 321 322 322 322 323 324 324 325 326 326 326 326 327 328 329 328 328 328 328 328 328 328 328 328 328 329 330 330 330 330 329 328 327 328 329 330 330 329 329 329 329 329 329 330 330 330 330 330 330 329 329
315 314 314 314 314 315 315 316 316 317 317 318 318 319 319 320 320 320 321 323 324 325 325 326 326 327 328 328 328 328 327 327 327 327 327 328 327 328 329 330 330 330 328 328 328 327 328 330 330 330 330 331 330 329 329 330 330 329 329 329 330 330 329
313 313 313 313 313 313 313 313 314 314 314 315 315 316 317 317 318 318 319 320 321 322 324 324 325 326 327 327 327 327 326 326 327 327 327 328 327 328 328 328 330 330 329 329 329 328 328 329 329 329 330 330 330 330 330 329 329 329 328 329 329 330 330
312 312 312 312 312 312 312 312 312 313 313 313 313 314 314 314 315 316 318 319 319 319 320 322 323 324 325 326 326 326 326 326 326 327 327 328 328 328 328 328 329 330 330 330 329 329 328 328 329 329 330 329 329 330 330 330 330 329 328 329 329 329 329
310 310 310 311 311 311 311 312 312 312 312 312 312 312 312 313 313 314 315 316 317 318 318 319 320 322 323 324 324 324 325 326 325 326 327 328 328 327 328 328 328 329 329 329 329 329 329 329 329 329 330 329 329 329 329 330 330 329 329 329 329 329 329
309 309 309 309 310 310 311 311 311 311 311 311 312 312 312 312 312 313 313 313 315 316 317 318 318 319 320 321 322 323 323 324 325 325 326 327 328 328 328 328 328 328 329 329 329 329 329 329 330 330 330 330 329 329 329 329 330 329 329 329 329 329 329
308 308 308 309 309 310 310 310 310 311 311 311 311 311 311 312 312 312 313 313 313 314 314 315 316 317 317 318 319 320 321 322 323 324 325 327 327 327 327 327 328 328 328 329 329 329 330 330 330 330 329 329 329 329 329 329 329 329 329 329 329 329 330
307 307 307 308 308 308 309 309 309 310 310 310 310 311 311 311 311 312 312 313 313 313 313 313 314 314 314 315 316 317 318 320 321 322 323 325 327 327 328 328 328 328 328 329 329 329 330 331 331 330 329 329 328 328 330 329 329 329 329 329 329 329 330
306 306 306 306 306 307 307 308 308 309 309 310 310 310 310 310 310 311 311 311 312 312 312 312 312 312 312 313 313 314 314 315 317 320 322 325 326 326 327 328 327 328 328 328 328 329 329 330 331 330 329 328 328 328 328 329 329 330 329 329 329 329 329
304 305 305 305 305 306 306 306 307 307 308 309 309 309 310 309 309 309 309 310 310 310 311 311 311 311 311 312 312 313 313 313 314 316 319 322 324 325 326 327 327 327 327 328 328 328 329 330 331 330 329 329 328 328 329 329 329 329 330 329 329 328 328
303 303 303 304 304 304 304 304 305 305 306 307 308 308 308 308 308 308 308 308 308 308 309 309 309 309 310 311 312 312 313 313 314 314 315 319 322 324 325 326 327 327 327 327 328 328 328 329 330 331 330 329 328 328 329 329 329 329 329 329 329 328 328
302 301 301 302 302 303 303 303 303 304 304 305 305 305 305 306 306 306 306 307 307 307 307 307 307 308 308 309 310 311 312 313 314 314 314 316 319 321 323 325 326 326 327 327 327 327 328 328 329 330 330 329 327 327 328 329 329 329 328 329 329 328 328
301 300 300 300 301 301 300 301 302 302 303 303 303 302 303 303 304 304 304 305 305 305 305 305 306 306 306 308 309 310 312 313 313 314 314 314 316 319 321 322 323 325 326 327 327 327 328 328 329 329 330 329 328 328 328 328 328 328 328 328 329 329 329
300 299 299 299 300 300 299 300 300 301 301 301 301 301 301 302 302 302 302 302 303 303 304 304 303 303 304 306 307 308 310 311 312 313 314 314 315 317 319 320 321 323 325 326 327 327 327 328 328 329 329 329 329 330 329 329 328 328 328 328 329 328 329
298 298 298 298 298 298 298 299 299 299 300 300 300 300 300 300 301 300 301 301 301 301 302 302 302 302 303 304 305 307 308 309 310 311 312 313 314 316 317 319 320 322 323 325 326 327 327 328 328 329 329 329 330 330 330 330 330 329 329 329 328 328 328
297 297 297 297 297 297 298 298 298 298 299 299 299 300 300 300 299 299 299 299 299 299 300 300 300 301 302 303 304 305 306 307 309 310 311 311 313 314 316 318 320 321 323 324 325 326 327 327 328 328 329 329 329 330 330 330 330 330 329 329 329 329 328
298 298 297 297 297 297 297 297 297 298 298 298 298 298 298 298 298 298 298 298 298 298 298 298 299 300 301 302 303 304 305 306 307 308 309 310 311 313 314 316 318 320 322 323 324 325 326 327 328 328 328 328 329 329 330 330 331 330 329 329 329 329 329
298 298 297 297 296 296 297 297 297 297 297 297 297 297 297 297 297 297 297 297 297 297 297 298 298 299 299 300 302 303 304 305 305 306 308 309 310 311 313 315 317 319 321 322 323 324 324 325 327 327 328 328 328 328 329 330 330 330 330 329 329 329 329
298 298 298 297 297 296 297 297 297 297 297 297 297 297 297 297 296 296 296 296 296 296 296 297 297 298 298 299 300 302 303 304 304 305 306 307 308 309 310 312 314 317 319 321 322 323 324 324 325 326 327 327 327 327 328 329 329 329 329 329 328 328 328
298 298 298 298 298 297 297 297 297 297 296 296 296 296 296 296 296 296 296 296 296 296 296 296 296 297 298 298 299 300 301 302 303 304 305 305 306 307 308 310 312 314 317 319 321 322 322 324 325 325 326 326 326 326 327 328 328 328 328 328 328 328 328
298 298 298 298 298 297 297 297 297 297 297 297 297 296 296 297 297 297 296 296 295 294 294 294 295 296 297 298 298 299 300 301 302 303 304 304 305 306 306 308 309 311 313 316 318 320 320 322 324 325 326 326 326 326 327 327 327 326 326 327 327 325 325
298 298 298 298 298 297 297 297 297 297 297 297 297 297 297 297 297 297 296 295 294 293 293 293 294 295 296 297 297 298 299 300 300 302 302 303 304 305 305 306 307 309 311 313 316 317 319 320 323 324 325 326 326 326 326 327 327 327 327 328 326 324 325
298 298 298 298 298 297 297 297 297 297 297 297 297 297 297 297 297 296 296 294 293 293 293 293 294 295 296 296 296 297 298 298 299 300 301 302 303 303 304 305 306 307 309 311 313 314 316 318 321 323 324 325 326 326 326 326 327 328 328 328 327 327 327
298 298 298 298 298 298 297 297 297 297 297 297 297 297 297 297 296 296 295 294 293 293 294 293 293 294 295 296 296 296 297 297 298 298 299 301 302 302 303 304 304 305 306 308 310 312 314 316 319 321 323 323 324 325 325 326 327 327 328 327 328 328 327
298 298 298 298 298 298 297 297 297 296 296 296 297 297 297 296 296 295 294 294 293 293 294 293 293 294 294 295 296 296 296 297 297 298 298 299 300 301 302 302 303 304 305 306 308 311 313 315 317 320 322 323 324 325 325 325 326 327 327 327 327 327 325
298 298 298 298 298 297 297 297 297 296 296 296 296 296 296 296 295 294 293 293 294 293 293 293 294 293 294 294 295 296 296 296 297 297 298 298 299 299 300 301 302 303 304 305 307 309 312 314 316 319 322 324 324 324 324 324 325 326 326 327 327 327 325
298 298 298 298 298 298 297 297 297 296 296 296 296 296 296 295 294 293 293 293 293 293 293 293 293 293 293 293 294 295 296 296 296 297 297 298 298 298 299 300 301 302 303 305 307 308 310 313 316 318 321 323 325 324 324 324 325 325 326 326 327 327 326
298 298 298 298 298 297 297 297 297 296 296 296 296 296 296 295 295 294 294 293 292 293 293 293 293 293 293 292 293 294 295 296 296 297 297 297 298 298 299 300 300 302 303 304 306 307 308 310 314 317 321 323 323 324 324 324 324 325 325 325 325 324 325
298 298 298 298 298 297 297 297 297 297 296 296 296 296 296 295 295 295 294 293 293 293 293 293 293 293 292 292 292 293 295 296 296 297 297 297 297 298 299 300 300 301 302 304 305 307 307 308 310 315 319 321 320 320 322 323 323 323 324 323 322 321 321

ECMWFFLT1_850_thetae_090.txt.gz
Theta_e
332 332 331 331 331 331 330 329 328 328 328 327 327 327 327 328 328 327 328 327 327 327 329 329 328 327 327 328 327 326 327 327 327 327 326 326 326 326 326 326 326 326 326 327 327 328 329 329 329 329 329 330 330 329 329 328 328 329 330 331 331 330 329
330 330 329 330 330 330 329 328 327 327 326 326 326 326 327 328 327 327 327 327 326 326 327 327 326 325 325 326 326 326 326 327 327 326 326 326 327 326 326 327 326 326 326 326 327 328 329 329 329 329 329 329 329 329 329 329 328 328 329 330 331 330 329
329 329 329 329 329 328 327 327 326 326 326 325 326 327 327 327 326 325 325 325 325 326 326 326 325 325 324 324 325 325 326 326 326 326 326 326 326 326 326 326 326 326 326 328 328 328 329 329 329 329 329 329 329 329 329 329 329 328 328 330 331 331 329
327 328 328 328 327 327 326 326 326 326 325 325 325 326 326 326 325 324 324 325 326 326 325 324 324 323 323 324 324 323 324 325 325 325 325 325 326 326 326 326 326 326 327 328 328 328 328 329 329 329 329 329 329 329 329 330 329 328 328 329 330 330 329
325 325 325 325 325 325 324 324 324 324 324 324 324 324 324 324 324 324 324 324 324 323 322 321 321 321 321 322 322 323 323 323 324 323 323 323 324 325 326 326 326 326 326 326 326 326 327 328 328 329 329 329 328 328 329 329 329 328 328 328 328 329 328
322 322 322 322 322 322 322 321 321 321 321 321 321 321 321 321 321 321 320 319 318 318 317 317 317 318 318 319 319 320 321 322 323 323 322 322 323 324 325 326 327 327 326 326 325 325 326 327 328 328 328 328 328 328 328 328 327 326 327 328 329 329 328
319 319 319 320 320 319 319 318 318 317 317 317 317 316 316 316 316 316 316 315 315 315 315 316 316 316 317 317 317 317 318 319 320 321 321 322 323 324 324 325 326 326 326 325 325 325 325 326 327 328 328 328 328 328 328 328 327 326 326 327 328 329 328
316 316 317 317 317 316 316 315 315 314 314 314 314 313 313 313 313 313 313 313 313 313 314 314 314 315 315 315 315 315 315 315 316 317 318 319 321 322 323 323 324 325 325 324 324 325 325 326 327 328 328 328 328 328 328 328 328 327 325 326 327 328 328
314 314 314 314 314 314 313 313 313 312 312 312 312 312 312 312 312 312 312 312 312 312 312 312 312 312 313 313 313 313 313 313 313 314 314 314 315 317 319 320 322 323 324 323 323 324 324 325 326 327 327 328 328 328 328 328 328 328 326 326 327 328 328
313 313 313 313 312 312 312 312 311 311 311 311 311 311 311 311 311 311 311 311 311 311 311 312 312 311 312 312 312 312 312 312 312 312 313 313 313 313 314 315 317 319 321 322 322 323 324 324 325 326 327 327 327 328 327 327 328 328 327 326 327 327 328
312 312 311 311 311 311 311 311 311 311 311 310 310 310 310 311 311 311 311 311 311 311 311 311 311 311 311 311 311 311 311 312 312 312 312 313 313 313 313 313 313 315 318 320 321 322 323 324 324 326 326 327 327 328 328 327 328 328 327 327 327 327 328
311 310 310 310 310 310 310 310 310 310 310 310 310 310 310 310 310 310 310 310 310 310 310 310 310 310 310 310 310 310 311 311 311 311 312 312 312 313 313 314 313 313 314 317 320 322 323 323 324 325 326 327 327 328 328 327 327 327 327 328 327 326 327
310 310 309 310 310 310 310 310 310 310 310 310 309 309 309 309 309 309 309 309 309 309 309 309 309 309 309 309 309 309 309 310 310 310 311 311 311 312 313 313 314 314 313 313 316 320 322 323 324 325 326 327 327 328 328 328 327 327 327 327 327 326 326
309 309 309 309 309 309 309 309 309 308 308 308 308 308 308 308 308 308 308 307 307 307 307 306 306 306 307 307 307 307 308 308 309 309 310 310 310 311 312 312 313 314 313 312 313 318 321 322 324 325 326 326 327 327 328 328 328 328 328 328 328 327 326
308 308 307 307 307 307 307 307 306 306 306 306 306 305 305 305 305 305 305 305 304 304 304 304 304 304 304 304 305 305 306 306 307 307 308 309 309 310 311 312 312 313 314 313 312 315 319 322 323 325 326 326 327 327 327 327 328 328 328 328 328 328 327
306 306 306 305 305 305 305 304 304 304 303 303 303 303 303 303 302 302 302 302 302 302 302 302 302 302 302 302 303 303 304 304 305 306 306 307 308 309 309 310 311 312 313 314 313 313 316 319 322 323 324 325 326 326 326 327 328 328 328 328 328 328 327
304 304 304 303 303 302 302 302 302 301 301 301 301 300 300 300 300 299 299 299 299 299 299 299 300 300 300 301 301 301 302 302 303 304 305 305 306 307 308 308 309 310 311 312 313 313 313 316 319 320 322 323 324 325 325 325 326 327 327 327 327 328 328
302 302 301 301 300 300 300 300 299 299 299 298 298 298 297 297 297 297 297 297 297 297 297 297 297 298 298 299 299 300 300 301 301 302 303 304 305 306 306 307 308 309 309 310 311 312 312 313 316 318 320 321 322 324 325 325 325 326 327 327 327 327 328
300 300 299 299 299 298 298 298 297 297 297 297 296 296 296 296 296 296 296 296 296 296 296 296 296 296 296 297 298 298 299 299 300 301 301 302 303 304 305 305 306 307 308 309 309 310 311 312 313 315 317 318 320 321 323 324 325 325 326 327 327 327 327
299 298 298 298 297 297 297 297 297 296 296 296 296 296 296 296 295 295 295 295 295 295 295 295 295 295 295 295 296 297 298 298 299 299 300 301 301 302 303 304 305 306 307 307 308 309 309 310 311 313 314 315 317 318 321 323 324 324 324 326 327 328 327
297 297 297 297 297 296 296 296 296 296 296 296 296 295 295 295 295 295 295 295 295 295 295 295 295 295 295 295 295 296 297 297 298 298 299 299 300 301 301 302 303 304 305 305 306 307 308 308 309 310 312 313 314 315 317 320 321 322 323 325 326 327 328
297 297 297 296 296 296 296 296 296 296 296 295 295 295 295 295 295 295 294 294 294 294 294 294 294 294 294 294 295 296 297 297 297 298 298 298 299 299 300 301 302 303 303 304 304 305 306 307 307 308 310 311 312 314 315 317 318 320 322 323 324 326 327
297 297 296 296 296 296 296 296 296 295 295 295 294 294 294 294 294 294 294 294 294 294 294 294 294 294 294 294 294 295 296 297 297 297 297 298 298 298 299 300 300 301 302 303 303 304 305 305 306 307 308 308 309 311 313 314 316 317 319 321 322 324 325
297 296 296 296 296 296 296 296 295 295 294 294 294 294 294 294 294 294 294 294 294 294 294 294 294 294 294 294 294 295 295 296 297 297 297 297 297 298 298 299 299 300 301 302 302 302 303 304 305 306 308 308 308 308 309 311 313 315 317 318 321 322 323
296 296 296 296 296 295 295 295 294 294 294 293 293 293 293 293 293 293 293 293 293 293 293 293 294 294 294 294 294 295 295 296 296 297 297 297 297 297 297 298 298 299 300 300 301 301 302 303 304 305 306 308 308 308 308 309 311 313 314 316 319 320 322
296 296 296 295 295 295 295 294 294 293 293 293 293 293 293 293 293 293 293 293 293 293 293 293 293 294 294 294 294 294 295 296 296 296 297 297 297 297 297 297 297 298 298 298 299 300 301 301 303 304 305 306 307 309 309 309 310 311 312 314 316 319 321
296 296 295 295 294 294 294 294 293 293 293 293 293 293 293 293 293 293 293 293 293 293 293 293 293 294 294 294 294 294 295 295 296 296 296 296 297 297 297 297 297 297 297 297 298 298 299 300 301 302 304 305 306 307 308 309 310 311 312 312 314 317 320
295 295 294 294 294 294 294 293 293 294 294 293 293 293 293 293 293 293 293 292 292 293 293 293 293 293 293 294 294 294 295 295 296 296 296 296 296 297 297 297 297 297 297 297 297 298 298 299 300 301 302 303 305 306 307 309 309 311 312 312 313 315 318
295 294 294 294 294 294 294 293 293 294 294 294 293 293 293 293 293 293 292 292 292 292 292 292 293 293 293 293 294 294 294 295 295 296 296 296 296 296 297 297 297 297 297 297 298 298 298 298 299 300 301 302 303 305 307 308 309 309 311 312 313 315 317
294 294 294 294 294 294 294 294 294 294 294 294 294 293 293 293 293 293 292 292 292 292 292 292 292 292 293 293 294 294 295 295 295 296 296 296 296 296 297 296 296 297 297 298 298 298 298 298 299 300 300 301 301 304 306 308 309 310 310 311 312 314 316
295 294 294 294 294 294 294 294 294 294 294 294 294 293 293 293 293 292 292 292 292 292 292 292 292 292 293 293 293 294 294 295 295 295 296 296 296 296 296 296 296 297 297 298 298 299 299 298 299 299 300 300 300 302 304 307 309 310 311 311 312 314 316
295 295 294 294 294 294 294 294 294 294 294 294 294 293 293 293 293 292 292 292 292 292 292 291 291 292 292 293 293 293 294 294 295 295 296 296 296 296 296 296 296 296 297 297 298 299 298 298 298 299 299 299 300 301 303 305 307 309 311 313 313 314 316
296 295 295 294 294 294 293 294 294 294 294 294 294 293 293 293 293 292 292 292 292 292 292 291 291 292 292 292 292 293 293 294 294 295 295 295 296 296 296 296 296 296 296 297 297 298 298 298 298 298 298 298 299 300 301 303 305 307 310 313 314 314 316
296 296 295 295 294 294 293 294 294 294 294 294 293 293 293 293 292 292 292 292 292 292 291 291 291 292 292 292 292 292 293 293 294 294 295 295 295 295 295 295 295 296 296 296 297 297 298 298 298 298 298 298 298 300 301 302 304 306 309 313 315 315 316
296 296 296 295 295 294 294 294 294 294 294 294 293 293 293 293 293 292 292 292 292 292 291 291 291 292 292 292 291 291 292 293 293 293 294 294 295 295 295 295 295 295 295 296 296 297 297 298 298 298 297 298 299 300 301 302 304 306 308 312 314 315 315
297 296 296 295 295 294 294 294 294 294 294 294 294 294 293 293 293 292 292 292 292 292 292 291 291 292 291 291 291 291 292 293 293 293 293 294 294 294 294 294 294 294 295 295 296 296 297 297 297 298 298 298 299 300 300 301 302 304 307 310 312 314 316
297 296 296 295 295 295 294 294 294 294 294 294 294 294 293 293 293 292 292 292 292 292 292 291 291 291 291 291 291 291 292 292 293 293 293 293 293 293 293 293 294 294 294 295 295 296 296 297 297 297 298 298 299 299 299 300 300 302 304 306 308 311 313

ECMWFFLT1_850_thetae_093.txt.gz
Theta_e
329 329 328 328 328 328 328 328 327 327 326 326 326 325 325 326 326 326 325 325 324 324 324 324 324 324 325 325 324 323 324 325 326 327 328 328 327 327 326 327 326 327 328 327 327 327 327 328 327 326 326 327 327 328 328 328 329 329 329 329 329 329 330
328 328 328 328 328 328 327 327 327 326 326 325 325 324 325 325 325 325 324 324 323 323 323 323 324 323 322 322 321 321 321 322 323 324 325 326 326 327 327 327 327 326 327 327 327 326 327 329 328 327 326 326 327 327 328 328 329 329 329 329 329 329 330
327 327 327 327 327 327 326 326 325 324 324 324 323 323 323 323 323 323 323 322 321 320 320 320 320 319 318 317 317 317 318 318 320 321 322 323 323 324 324 325 325 326 326 327 327 326 326 328 328 326 326 326 327 327 328 328 329 329 329 328 328 329 329
325 325 325 325 325 324 324 323 322 322 321 320 320 320 320 320 320 320 319 318 318 317 315 315 315 315 314 314 314 314 315 315 316 317 318 319 320 320 321 322 323 325 326 326 326 326 326 327 327 326 326 326 326 327 327 328 328 329 329 328 328 328 328
323 323 323 323 322 322 321 320 319 318 317 316 316 315 315 315 315 314 314 314 314 313 313 312 312 312 312 312 312 312 312 313 313 313 314 314 315 316 316 318 319 322 324 325 326 326 325 325 326 326 326 326 326 326 327 328 328 329 329 328 328 329 328
320 320 320 319 319 319 317 316 315 314 314 313 313 313 312 312 312 312 312 312 312 312 311 311 311 311 311 311 311 312 312 312 312 312 312 312 312 312 313 313 314 316 318 322 323 324 325 325 325 325 325 326 326 326 327 327 328 328 328 328 328 328 328
318 317 316 316 316 315 314 314 313 313 312 312 311 311 311 311 311 311 311 311 311 311 311 311 311 311 311 311 311 311 311 311 312 312 312 312 312 312 313 312 312 313 313 316 318 321 323 324 324 325 325 326 326 326 327 327 328 328 328 328 328 327 326
316 314 314 314 313 313 313 312 312 311 311 311 311 310 310 311 310 310 311 310 310 311 311 311 311 311 311 311 311 310 311 310 311 311 311 312 312 312 312 313 313 313 313 313 314 316 318 321 323 324 325 326 326 326 327 327 327 328 328 328 327 326 325
313 313 312 312 312 312 311 311 310 311 310 310 310 310 310 310 310 310 310 310 310 310 310 310 309 309 309 309 309 309 309 309 309 310 310 310 311 311 312 312 312 313 313 313 314 314 314 316 320 322 323 325 326 326 327 327 327 327 327 328 327 327 326
311 311 311 311 311 311 310 310 310 310 310 310 309 309 309 309 309 309 309 308 308 308 307 307 307 306 306 306 306 306 306 307 307 307 308 308 309 310 310 311 311 312 313 313 313 314 313 313 317 320 322 324 325 326 327 327 327 326 327 328 328 328 327
310 310 310 310 310 310 310 310 310 309 309 309 308 308 308 308 307 307 306 306 305 305 304 304 304 303 303 303 303 303 303 304 304 304 305 305 306 307 308 308 310 310 311 313 313 313 313 313 314 317 320 323 324 325 326 327 327 327 327 327 327 327 327
309 309 310 310 309 309 309 309 308 308 307 307 306 306 306 305 304 304 303 302 302 301 301 301 300 300 300 300 300 300 300 301 301 302 302 303 303 304 305 306 307 308 309 311 312 313 313 313 312 314 318 320 323 323 324 325 326 327 327 327 327 328 327
309 309 308 308 308 308 307 307 306 305 305 304 304 303 302 302 301 300 300 299 299 298 298 298 298 298 297 298 298 298 298 298 299 299 300 301 301 302 303 304 305 306 307 308 309 311 312 312 312 313 315 317 320 321 322 322 323 324 326 327 327 328 327
307 307 307 307 306 306 305 304 304 303 302 301 300 300 299 298 298 297 297 297 297 296 296 296 296 296 296 296 296 296 296 297 297 298 298 299 299 300 301 302 303 304 305 306 307 309 310 310 310 311 313 315 317 319 320 319 319 320 323 325 325 326 326
306 306 305 305 304 304 303 302 301 300 299 299 298 297 297 296 296 296 296 296 296 296 296 296 296 296 295 295 295 295 295 296 296 296 297 297 298 299 299 300 301 302 303 304 306 307 308 308 309 310 311 312 314 316 317 316 316 317 320 323 324 324 325
304 304 303 303 302 301 300 299 298 298 297 297 296 296 296 296 296 296 296 295 295 295 295 295 295 295 295 295 295 295 295 295 295 296 296 297 297 298 298 299 300 300 301 302 304 305 305 306 306 307 309 310 311 313 314 314 314 314 316 320 323 323 324
302 302 301 300 299 298 298 297 297 296 296 296 296 296 296 295 295 295 295 295 295 295 295 295 295 295 295 295 295 295 295 295 295 296 296 296 297 297 298 298 299 299 300 301 302 303 303 304 304 305 306 308 309 310 311 312 313 313 313 316 320 322 323
300 299 299 298 297 297 296 296 296 296 296 295 295 295 295 295 295 294 295 295 295 295 294 295 295 295 295 295 295 294 294 295 295 296 296 296 297 297 297 298 298 299 299 300 301 302 302 303 303 304 304 305 306 307 309 310 311 312 312 313 316 319 321
298 298 297 297 296 296 296 296 296 296 295 295 295 294 294 294 294 294 294 294 294 294 294 294 294 295 295 295 294 294 294 294 295 295 296 296 296 297 297 298 298 298 299 299 300 301 301 302 302 302 303 303 304 305 306 308 309 310 311 312 313 315 318
297 297 296 296 296 296 296 296 295 295 295 294 294 294 294 294 294 294 294 294 294 294 294 294 294 295 294 294 294 294 294 294 295 295 295 296 296 297 297 297 298 298 298 299 299 299 300 300 301 301 302 302 302 303 303 305 306 307 309 311 312 313 314
296 296 296 296 296 296 296 295 295 294 294 294 294 294 294 294 294 294 294 294 294 294 294 294 294 294 294 294 294 294 294 294 295 295 296 296 296 297 297 297 297 297 298 298 298 298 298 298 299 300 301 301 301 302 302 303 304 305 306 308 310 311 312
296 296 296 296 296 295 295 294 294 294 294 294 294 294 294 294 294 294 294 294 294 294 294 294 294 294 294 294 294 294 294 295 295 295 296 296 296 297 297 297 297 297 297 297 298 298 298 298 298 299 299 300 300 300 301 302 302 303 304 305 307 309 311
296 296 296 295 295 295 294 294 294 294 294 294 294 294 294 294 293 293 293 293 293 294 294 294 294 294 294 294 294 294 294 295 295 296 296 296 296 296 297 297 297 297 297 297 297 297 297 298 298 298 298 299 299 299 300 301 302 302 302 303 304 307 308
296 295 295 295 294 294 294 294 294 294 294 294 293 293 293 293 293 293 293 293 293 293 293 293 294 294 294 294 294 294 294 294 295 295 296 296 296 296 297 297 297 297 297 297 297 297 297 297 298 298 298 299 299 300 300 300 301 302 302 302 303 304 305
295 295 294 294 294 294 294 294 294 294 293 293 293 293 293 293 293 293 293 293 293 293 293 293 294 294 294 294 294 294 294 295 295 296 296 296 296 296 296 297 297 297 297 297 297 297 297 297 298 298 298 298 299 300 300 300 300 301 301 301 301 302 303
295 294 294 294 294 293 294 294 294 294 293 293 293 293 293 293 293 293 293 293 293 293 293 293 293 294 294 294 294 294 294 295 295 296 296 296 296 296 296 296 297 297 297 297 297 297 297 297 298 298 298 298 299 299 300 301 301 300 300 299 299 301 303
294 294 294 294 294 294 294 294 294 294 293 293 293 293 293 293 293 293 293 293 293 293 293 293 293 294 294 294 294 294 295 295 295 296 296 296 296 296 296 296 296 296 296 296 296 296 297 297 297 298 298 298 299 299 300 301 300 300 299 298 298 300 302
294 294 294 294 294 294 294 294 294 294 293 293 293 293 293 293 293 293 293 292 293 292 292 293 293 293 293 294 294 294 295 295 296 296 296 296 296 296 296 295 295 295 295 296 296 296 296 297 297 297 298 298 299 299 300 300 300 299 299 299 299 299 301
294 294 294 294 294 294 294 294 294 294 293 293 293 293 293 293 293 292 292 292 292 292 292 292 293 293 293 294 294 294 295 295 296 296 296 296 296 296 295 295 294 294 294 295 295 296 296 296 297 297 298 298 298 299 299 299 299 299 299 300 300 300 301
294 294 294 294 294 294 294 294 294 294 293 293 293 292 292 292 292 292 292 292 292 292 292 292 292 293 293 293 294 294 295 295 295 295 296 296 295 295 295 294 294 294 294 294 295 296 296 296 297 297 297 298 298 298 299 299 299 299 299 300 300 301 303
293 293 293 294 294 294 294 294 294 293 293 293 293 292 292 292 292 292 292 292 292 292 292 291 292 292 292 293 294 294 294 294 295 295 295 295 295 294 294 294 294 293 294 294 295 295 296 296 297 297 297 297 297 297 298 298 298 299 300 300 300 302 303
294 293 293 293 294 294 294 294 294 293 293 293 293 292 292 292 292 292 292 292 292 292 291 291 291 292 292 293 293 293 293 294 294 294 294 294 294 294 294 294 293 293 294 294 294 295 295 296 297 297 297 297 297 297 297 297 297 298 299 300 301 302 303
294 294 293 293 294 294 294 294 294 293 293 293 293 292 292 292 292 292 292 292 292 291 291 291 291 292 292 293 293 293 293 293 293 293 293 293 293 293 293 293 293 293 294 294 294 294 295 296 296 297 297 297 296 297 297 297 296 296 297 299 300 302 303
294 294 294 294 294 294 294 294 294 294 294 293 293 293 292 292 292 292 292 292 292 291 291 291 291 292 292 292 292 293 293 293 293 293 293 293 293 293 293 293 293 293 293 294 294 294 295 295 296 296 297 297 297 297 297 297 296 296 297 298 299 300 302
295 294 294 294 294 294 294 294 294 294 294 293 293 293 292 292 292 292 292 292 292 291 291 291 291 291 291 292 292 292 292 292 292 292 292 292 292 292 292 292 292 293 293 293 294 294 295 295 296 296 297 297 297 298 298 297 297 296 296 297 297 299 300
295 295 294 294 294 294 294 294 294 294 294 294 293 293 292 292 292 292 292 292 292 292 291 291 291 291 291 291 291 292 292 292 292 292 292 292 292 292 291 292 292 292 293 293 294 294 294 295 296 296 297 297 297 298 298 298 298 297 296 296 297 298 299
295 295 295 295 295 294 294 294 294 295 294 294 293 293 292 292 292 292 292 292 292 292 292 292 291 291 291 291 291 291 292 292 292 292 292 292 292 292 291 291 292 292 293 293 293 294 294 295 295 296 296 297 297 297 297 298 298 298 297 296 296 297 298

ECMWFFLT1_850_thetae_096.txt.gz
Theta_e
329 328 328 327 327 328 327 326 326 325 325 325 324 323 323 323 324 323 323 322 322 320 319 318 317 317 316 316 316 315 315 317 320 322 322 323 325 326 326 326 327 328 328 329 329 328 330 330 329 329 329 329 329 330 331 332 332 330 330 330 330 331 331
327 326 326 326 326 326 326 325 324 323 322 322 322 321 321 321 321 320 319 318 317 315 314 313 313 312 313 313 312 312 312 313 316 318 318 319 321 322 323 323 324 325 326 327 327 327 329 330 329 329 328 327 327 329 330 331 332 332 330 329 329 330 331
325 325 324 324 323 323 322 322 321 319 318 318 317 317 316 316 315 315 314 313 312 312 312 312 311 311 311 312 311 311 312 312 313 314 313 315 317 318 318 319 320 321 322 323 324 326 327 328 328 327 328 327 327 328 329 330 331 332 332 331 329 328 330
324 323 322 322 321 320 319 318 317 316 314 314 314 313 313 312 312 311 311 311 311 311 311 311 311 311 311 311 311 311 311 311 311 312 311 312 314 314 314 316 317 318 319 320 321 322 323 324 325 326 327 326 327 328 328 329 330 330 331 332 331 329 329
322 321 320 319 318 317 316 315 315 313 312 312 312 311 311 311 311 311 310 310 310 310 310 310 310 310 310 310 310 310 310 310 310 311 311 311 312 312 312 313 314 315 316 318 319 320 320 321 322 323 325 325 326 327 327 328 329 329 330 332 332 330 328
319 317 317 316 315 314 313 313 313 312 311 311 310 310 310 310 310 310 310 309 309 309 309 308 308 308 308 308 308 307 308 308 308 309 309 310 310 311 311 311 312 312 313 314 315 317 318 319 320 320 321 322 323 325 326 327 328 329 330 331 332 332 329
316 314 314 313 312 312 311 311 311 310 310 310 310 310 310 309 309 308 308 307 307 306 306 305 305 305 305 305 305 305 305 305 305 305 306 307 307 308 309 310 310 311 312 312 313 314 315 316 317 318 318 318 320 321 323 325 327 328 329 330 331 332 331
313 312 312 312 311 311 310 310 310 310 310 309 309 309 308 308 307 306 305 305 304 303 302 302 302 301 301 301 301 301 301 301 302 302 302 303 303 305 305 306 307 309 310 311 311 312 312 313 314 315 316 316 317 319 320 322 324 327 328 329 329 330 332
311 311 311 311 310 310 310 310 309 309 308 308 307 307 306 305 304 303 302 301 301 300 299 299 299 299 298 298 298 298 298 298 298 299 299 299 300 301 303 304 307 308 308 309 310 310 310 311 312 313 315 315 316 317 319 320 322 324 326 328 329 329 331
310 310 310 310 310 309 309 309 308 307 307 306 305 304 303 302 301 300 299 298 298 297 297 297 297 297 297 297 297 297 297 297 297 297 297 297 297 298 300 302 305 307 307 307 308 309 309 310 311 312 314 314 315 316 317 317 318 320 322 325 327 329 330
310 310 310 309 309 308 307 306 306 305 304 303 302 301 300 299 298 297 297 297 297 296 296 296 296 296 296 296 296 296 296 296 296 295 295 296 296 296 297 298 301 303 303 304 306 307 308 309 309 310 311 312 313 313 314 314 314 316 318 321 323 325 328
309 308 308 307 306 306 305 304 303 302 301 300 299 298 298 297 297 296 296 296 296 296 296 296 296 296 296 296 295 295 295 295 295 295 295 295 295 296 296 297 298 300 299 300 302 303 305 306 307 307 308 308 310 311 312 312 312 314 316 317 320 323 324
307 306 306 305 304 303 302 301 300 299 299 298 297 297 297 296 296 296 296 296 296 296 295 295 295 295 295 295 295 295 295 295 295 295 295 295 295 295 296 297 298 299 299 301 301 302 303 304 304 304 305 306 307 308 309 310 310 311 312 313 316 319 322
305 304 304 303 302 301 299 298 298 297 297 297 297 296 296 296 295 295 295 295 295 295 295 295 295 295 295 295 295 295 295 295 295 295 295 295 295 295 296 297 298 298 299 301 302 302 302 302 302 302 303 304 304 305 306 307 307 308 308 309 311 314 317
303 302 301 300 299 298 297 297 297 296 296 296 296 295 295 295 295 295 295 295 295 295 295 295 295 295 295 295 295 295 294 295 295 295 295 295 295 296 296 297 299 298 299 301 302 302 302 301 301 301 302 302 302 303 304 305 305 305 305 305 305 308 311
301 300 299 298 297 297 297 296 296 296 295 295 295 295 295 295 295 295 295 295 295 295 295 295 295 295 295 295 295 295 294 294 294 295 295 295 295 296 297 299 299 300 300 301 301 301 300 300 300 300 301 301 301 301 302 302 303 303 304 303 302 304 306
298 298 297 297 296 296 296 296 295 295 295 295 295 295 295 295 294 294 294 294 294 294 294 295 295 295 295 295 295 294 294 294 295 295 295 296 296 297 298 300 300 300 300 301 301 300 299 299 299 300 300 300 300 300 300 300 301 302 303 303 302 302 303
297 297 296 296 296 296 295 295 295 294 294 294 294 294 294 294 294 294 294 294 294 294 294 294 295 295 295 295 294 294 294 295 295 296 296 297 297 298 299 300 300 300 300 300 299 299 298 298 298 299 299 299 299 299 299 299 300 301 302 302 302 302 303
296 296 296 296 295 295 294 294 294 294 294 294 294 294 294 294 294 294 294 294 294 294 294 294 294 294 294 295 294 294 295 295 296 296 297 297 298 299 299 299 300 300 299 298 298 298 297 297 298 298 298 299 299 299 299 299 299 300 301 301 302 302 303
296 296 296 295 295 294 294 294 294 294 294 294 294 294 294 294 294 293 294 294 294 294 294 294 294 294 294 294 294 294 295 296 296 297 298 299 299 299 299 299 299 299 298 298 297 297 297 297 297 297 297 298 298 298 298 299 299 300 300 301 301 302 303
296 295 295 294 294 294 294 294 294 294 294 294 294 294 294 294 294 294 294 294 294 294 294 294 294 294 294 294 294 295 296 296 296 297 298 299 300 299 299 299 299 298 297 297 297 297 296 296 296 297 297 297 298 298 298 298 299 299 300 300 301 301 302
295 295 294 294 294 294 294 294 294 294 294 294 294 294 294 294 294 294 294 294 294 294 294 294 294 294 294 294 294 295 296 296 297 298 299 299 299 299 298 298 298 298 297 296 296 296 296 296 296 296 297 297 298 298 298 298 298 298 299 299 300 300 301
295 294 294 294 294 294 294 294 294 293 293 294 293 293 293 293 294 293 293 294 294 294 294 294 294 294 294 294 294 294 295 297 298 299 299 298 298 298 298 298 298 297 297 296 296 296 295 295 296 296 297 297 298 298 298 297 297 298 298 299 299 299 300
295 294 294 294 294 294 294 293 294 293 293 293 293 293 293 293 293 293 293 293 293 294 294 293 294 294 294 294 294 294 296 297 299 299 298 298 298 298 298 297 297 297 297 296 296 296 295 295 296 296 297 297 298 298 297 297 297 297 297 298 298 298 299
295 295 295 294 294 294 294 293 294 293 293 293 293 293 293 293 293 293 293 293 293 293 293 293 294 294 294 294 294 295 296 297 298 298 298 298 298 297 297 296 296 296 296 296 296 296 295 295 296 296 297 297 297 297 297 297 296 297 297 297 297 298 298
295 295 295 294 294 294 294 293 293 293 293 293 293 293 293 293 293 293 293 293 293 293 293 293 294 294 294 294 294 295 297 297 298 298 298 298 297 297 296 296 296 296 296 296 296 295 295 295 296 296 296 297 297 297 297 297 297 297 297 297 297 297 298
295 295 295 294 294 294 294 293 293 293 293 293 293 293 293 293 293 293 293 293 293 293 293 293 294 294 294 294 294 296 297 298 298 297 297 297 297 297 296 296 296 295 295 296 295 295 294 295 296 296 296 296 297 297 297 297 297 297 297 297 297 297 297
296 295 294 294 294 294 294 294 293 293 293 293 293 293 293 293 293 293 293 293 293 293 293 293 294 294 294 294 294 296 297 297 297 297 297 297 297 297 296 296 295 295 295 295 295 294 295 295 296 296 296 296 296 296 296 297 297 297 297 297 297 296 296
296 295 295 295 294 294 294 294 293 293 293 293 293 293 293 292 292 293 292 292 293 293 293 293 294 294 294 294 295 296 297 297 297 297 297 297 297 296 296 295 295 295 295 295 294 295 295 296 296 296 296 296 296 296 296 297 297 298 298 298 297 296 296
296 295 295 295 294 293 293 294 294 293 293 293 293 293 293 292 292 292 292 292 293 293 293 293 293 294 294 294 294 296 296 296 297 297 296 296 296 296 296 295 294 294 294 294 294 295 295 296 296 296 296 295 295 295 296 297 298 298 298 298 297 296 296
296 296 296 295 294 294 294 294 294 294 294 293 293 293 293 293 292 292 292 292 292 293 293 292 293 293 293 293 294 296 296 296 296 297 296 296 296 296 295 294 293 293 294 294 294 295 295 296 296 296 295 295 295 296 296 297 298 298 297 297 296 295 295
296 297 296 295 295 294 294 294 294 295 295 295 294 293 293 293 292 292 292 292 292 292 292 292 292 292 293 293 293 295 295 295 295 296 296 296 296 296 295 295 294 293 294 294 295 295 296 296 296 295 295 295 295 296 297 298 297 296 296 297 296 295 295
296 297 296 295 295 295 295 294 294 295 296 296 295 294 293 293 293 292 292 292 292 292 292 292 292 292 292 292 292 294 294 294 294 296 296 295 296 296 295 295 294 293 294 294 294 295 296 295 295 295 295 295 296 296 297 297 297 296 297 296 295 295 295
297 297 296 295 295 295 295 295 295 296 296 295 294 293 294 295 295 294 293 293 292 292 292 292 292 292 293 293 293 293 293 293 293 295 296 295 295 295 295 294 293 293 293 294 294 295 295 295 295 295 295 295 295 296 297 297 297 297 298 296 295 295 295
296 296 296 296 296 295 295 295 295 296 296 295 294 294 294 296 296 296 295 295 294 293 293 292 292 292 293 293 293 293 293 292 293 295 296 295 295 295 294 293 292 292 293 293 294 294 294 294 295 295 295 295 295 295 296 296 297 298 298 297 296 296 295
295 296 296 298 298 297 296 296 296 296 297 297 297 297 296 297 297 297 296 296 295 295 295 294 292 292 292 293 293 293 293 293 293 294 295 295 294 294 294 292 292 292 292 293 293 294 294 294 294 294 294 294 295 295 295 296 296 297 298 298 296 296 295
297 296 297 298 299 298 297 298 298 297 298 298 299 298 298 298 298 297 297 296 296 296 296 295 294 292 292 292 293 293 293 293 293 293 294 294 294 293 293 292 292 292 292 292 293 294 294 294 294 294 294 294 294 294 295 295 296 296 297 298 297 296 295

ECMWFFLT1_850_thetae_099.txt.gz
Theta_e
332 330 329 328 328 327 327 326 324 323 323 323 323 322 321 320 319 318 316 314 313 312 314 316 314 313 314 314 314 315 313 314 317 319 320 321 321 321 320 318 318 320 322 324 325 327 327 327 326 326 328 329 329 329 330 330 330 330 330 331 332 332 332
329 328 327 327 326 326 325 324 322 321 321 320 319 317 316 315 314 313 312 311 311 311 311 312 311 311 311 310 310 311 310 311 313 315 316 317 317 317 316 315 318 320 321 322 323 323 324 325 325 325 326 325 324 326 328 329 329 329 330 331 331 331 331
327 326 326 325 325 324 323 321 320 318 317 316 314 313 312 312 311 311 311 310 310 310 310 310 310 310 309 309 309 309 309 309 309 311 311 311 312 313 312 313 316 318 319 319 320 321 321 321 322 323 323 323 323 324 325 326 327 328 329 329 330 331 331
326 325 324 324 323 322 321 320 318 316 315 312 311 311 311 310 310 310 309 309 309 308 308 307 307 307 306 307 307 306 306 306 306 308 309 308 308 310 310 312 314 315 316 317 318 318 318 319 319 320 320 321 322 322 323 322 322 323 326 327 329 331 332
324 323 322 322 321 320 319 318 317 316 314 311 310 310 310 309 309 308 308 307 306 306 305 304 304 304 304 304 303 303 303 302 303 304 304 304 305 307 308 310 312 314 314 314 314 315 315 316 317 317 318 319 319 320 320 320 319 320 322 325 327 330 331
321 320 320 319 319 318 317 317 316 313 311 310 309 309 308 307 306 306 305 304 303 302 301 301 301 300 301 301 300 299 300 300 300 301 300 299 302 305 307 308 310 312 312 312 312 313 313 314 314 315 315 316 317 318 318 319 320 320 320 323 326 328 329
318 318 317 317 317 316 315 315 313 311 309 308 308 306 305 305 303 302 302 300 300 299 298 298 298 298 298 298 298 297 298 297 297 299 299 298 299 301 303 307 310 311 311 311 310 311 311 311 312 313 313 314 315 316 317 318 319 319 320 321 323 325 327
316 316 315 315 314 314 313 312 311 309 308 306 305 304 302 301 300 299 298 298 297 297 297 297 297 297 297 297 296 296 297 297 296 297 298 298 299 301 302 305 309 311 309 309 309 310 310 310 310 311 312 313 313 314 315 315 316 317 318 317 316 318 322
315 314 314 314 313 312 311 309 308 307 305 303 302 300 299 298 298 297 297 297 297 297 297 297 297 297 296 296 296 296 296 296 296 296 297 297 298 301 302 304 308 310 307 305 308 308 309 309 309 310 310 310 311 311 311 312 313 314 314 315 313 313 316
313 313 313 312 311 309 308 307 305 304 302 300 299 298 297 297 297 296 296 296 296 296 296 296 296 296 296 296 296 296 296 296 297 297 296 297 297 300 302 303 307 308 304 303 306 306 306 308 308 308 308 309 309 309 309 310 310 311 311 312 313 311 310
313 312 311 310 308 306 305 304 302 300 299 298 297 297 296 296 296 296 296 296 296 295 296 296 296 296 296 296 296 295 296 297 299 300 300 299 298 300 303 305 306 305 302 303 306 305 305 306 306 306 307 307 308 308 308 308 308 309 309 309 310 308 304
311 310 308 306 305 304 302 301 299 298 297 297 296 296 296 295 295 295 295 295 295 295 296 296 296 296 296 295 295 295 296 298 301 302 303 302 301 302 305 306 306 303 301 304 306 305 306 306 305 305 305 306 306 306 306 307 307 306 305 306 306 303 302
309 306 305 304 302 301 299 298 297 297 296 296 295 295 295 295 295 296 295 295 295 295 296 296 296 295 295 295 295 295 296 298 300 302 303 304 303 304 305 306 305 303 302 304 305 304 305 304 303 303 304 304 305 305 305 305 305 305 303 304 304 301 300
305 304 302 301 299 298 297 297 296 296 295 295 295 295 295 295 296 296 295 295 295 295 295 296 295 295 295 295 295 295 296 297 300 302 303 304 304 304 305 305 304 303 303 304 304 303 304 302 302 302 303 303 303 303 304 303 304 304 302 302 304 302 300
302 301 299 298 297 297 296 296 296 295 295 295 295 295 295 296 296 296 295 295 295 295 295 295 295 295 295 296 296 296 296 298 301 303 303 304 304 304 304 304 304 303 303 303 302 302 302 301 301 301 301 302 302 302 302 302 302 303 302 302 303 302 302
299 298 298 297 297 296 296 295 295 295 295 295 295 295 295 295 295 295 295 295 295 295 295 295 295 295 295 296 296 297 298 300 302 303 303 304 304 303 304 303 303 303 302 301 301 300 299 299 299 299 299 300 301 301 301 301 301 302 302 302 302 303 303
298 297 297 296 296 296 295 295 295 295 296 296 295 295 295 295 295 295 295 295 295 295 295 295 295 295 295 295 296 297 299 301 303 304 303 303 303 303 303 303 302 302 301 301 300 299 298 298 298 298 298 298 299 300 300 300 301 301 301 301 302 303 303
297 297 296 296 295 295 294 295 296 296 296 295 295 295 295 295 295 295 295 295 294 295 294 295 295 295 295 295 296 298 299 301 303 303 303 303 303 302 302 302 301 301 300 300 299 298 298 297 297 297 298 298 299 299 299 299 300 300 301 301 301 302 302
296 296 296 295 295 294 295 295 296 296 296 296 295 295 294 295 295 294 295 294 294 295 294 295 295 294 295 294 295 298 300 301 303 303 303 303 302 302 302 301 301 300 299 299 298 297 297 297 297 297 297 298 298 298 298 299 299 300 300 300 300 301 301
296 295 295 295 294 294 295 295 295 295 296 296 296 296 295 294 294 294 294 294 294 294 294 295 294 294 295 294 296 300 302 302 303 303 302 302 302 301 301 300 300 299 299 298 297 297 297 297 296 296 296 297 297 297 297 298 298 299 299 299 299 300 300
296 295 294 294 294 295 295 295 295 294 295 295 295 295 295 295 295 294 294 294 294 294 294 295 294 294 295 294 297 302 303 302 303 303 302 302 301 301 300 300 300 299 298 298 297 297 297 297 296 296 296 296 296 296 297 297 298 298 298 298 299 299 299
296 296 296 295 295 295 295 295 295 294 294 294 294 295 295 296 296 295 294 294 294 294 294 294 294 294 295 294 297 301 303 302 302 302 301 301 301 300 299 299 299 298 298 297 297 297 297 296 295 295 296 296 296 296 297 297 297 298 298 298 298 299 299
298 298 298 297 296 295 294 294 294 294 293 294 294 294 294 295 296 296 294 294 294 294 294 294 294 294 295 294 295 300 302 302 302 301 301 300 300 299 299 299 298 298 298 297 297 297 297 296 295 295 296 296 296 296 297 297 297 297 298 298 298 298 298
300 298 298 297 297 296 295 294 294 293 293 294 293 294 294 294 296 295 294 293 294 294 293 294 294 294 295 295 295 298 301 301 301 301 300 300 300 299 299 298 298 298 298 297 297 297 296 295 295 296 296 296 296 297 297 297 297 297 297 297 297 298 298
300 299 298 297 296 296 295 294 294 293 293 293 293 294 294 294 296 296 295 293 293 294 293 294 294 294 294 295 295 298 301 301 300 301 300 300 300 299 299 298 298 298 298 297 297 296 295 295 296 296 296 297 297 297 297 297 297 297 297 297 297 297 298
300 299 297 296 296 296 296 296 296 294 293 293 293 293 293 294 295 296 296 295 293 293 293 294 294 294 294 295 295 298 300 300 300 300 300 299 299 299 299 298 297 297 297 297 296 296 295 296 296 296 297 297 297 297 297 297 297 297 297 297 297 297 297
298 298 297 297 298 298 298 298 298 297 296 295 294 294 293 293 294 295 296 295 293 293 294 293 294 294 294 295 295 298 300 301 300 300 300 299 299 299 298 297 297 297 297 296 296 295 295 296 296 296 296 297 297 297 297 297 297 297 297 297 297 297 297
300 300 300 300 299 299 298 299 299 299 298 297 296 295 293 293 293 294 296 296 294 293 293 293 293 294 294 294 295 298 300 300 300 300 299 299 299 299 298 297 297 296 296 296 295 295 295 295 295 296 296 296 296 296 296 296 296 296 297 297 297 297 297
301 301 300 300 300 299 299 299 299 300 299 298 297 295 294 293 293 292 294 296 295 293 292 293 293 293 294 294 295 298 299 299 300 300 299 299 299 298 298 297 296 296 295 294 295 295 295 295 295 296 296 296 296 296 296 296 296 296 296 296 297 297 297
301 301 300 300 300 300 300 300 300 300 300 299 299 298 296 294 293 292 292 295 296 294 292 293 293 293 294 294 295 297 298 298 299 299 299 298 298 298 298 297 296 295 294 294 294 294 294 294 294 295 296 296 296 296 296 296 295 295 296 296 297 297 296
301 301 301 300 300 300 300 301 300 300 300 300 300 299 298 296 294 293 292 292 294 294 293 292 293 293 293 293 293 296 297 297 298 299 299 298 298 298 297 297 296 294 293 293 294 294 294 294 294 295 296 296 296 296 295 295 295 296 296 296 296 296 296
301 301 301 300 300 301 301 301 301 301 300 300 300 299 299 298 297 296 294 292 292 293 293 292 292 292 293 293 292 294 295 295 296 298 299 297 297 298 297 297 296 294 292 293 293 293 294 294 294 295 295 295 295 295 295 295 295 296 296 296 296 296 296
301 301 300 300 301 301 301 301 301 301 300 300 300 300 300 299 299 299 298 296 293 292 292 292 292 292 292 292 292 293 294 294 294 296 298 298 297 297 297 297 296 294 292 293 293 294 294 295 294 295 295 295 295 295 295 295 295 295 296 296 296 296 296
301 301 300 301 301 301 301 301 301 301 300 300 300 300 301 300 300 300 299 299 297 295 294 293 292 292 292 292 292 292 293 293 293 295 297 298 297 297 297 297 296 294 292 292 293 294 295 295 295 295 295 295 295 295 295 295 295 295 296 296 296 296 296
301 301 300 301 301 301 301 301 301 301 301 300 301 301 301 300 300 300 300 300 299 298 296 295 293 292 292 292 292 292 292 292 292 293 296 297 297 296 296 296 295 293 292 292 293 294 295 295 295 295 295 295 295 295 295 295 295 295 295 296 296 296 296
300 301 301 301 301 301 301 301 301 301 301 302 302 301 301 300 300 300 300 299 300 299 299 297 294 291 291 291 291 291 292 292 292 292 294 296 296 296 295 295 294 293 293 293 292 293 294 295 295 295 295 295 295 295 295 295 295 295 295 295 295 296 296
300 301 301 302 302 302 302 301 301 301 302 302 301 301 301 300 300 300 299 299 300 299 300 299 296 292 291 291 291 291 291 291 292 292 293 296 296 294 294 294 294 294 294 294 293 293 294 295 295 295 295 295 295 295 295 295 295 295 295 295 295 295 296

ECMWFFLT1_850_thetae_102.txt.gz
Theta_e
333 332 330 330 329 327 325 325 324 323 323 322 320 317 316 314 313 312 311 311 311 311 311 310 310 310 310 310 310 309 309 309 309 309 309 309 309 309 309 310 311 313 317 319 320 320 320 320 317 315 315 315 314 315 317 319 321 323 323 325 327 328 328
331 330 329 328 327 326 325 324 323 320 318 317 315 313 312 311 311 311 310 310 310 310 310 309 309 309 309 308 308 307 307 306 306 306 306 306 306 306 307 307 308 309 309 313 315 315 315 316 317 316 314 311 308 309 312 314 316 315 314 318 322 323 325
328 328 327 326 324 324 323 321 320 317 314 313 312 311 311 310 310 310 309 309 309 309 308 307 307 307 306 305 304 304 303 302 303 302 302 302 302 303 304 305 307 309 310 310 311 311 312 313 314 314 314 314 312 307 306 308 309 312 315 318 319 320 324
327 326 325 324 323 322 321 319 317 314 312 311 310 311 310 309 309 308 308 307 306 306 305 305 304 303 302 301 300 300 299 300 299 299 299 299 299 299 301 305 308 310 312 311 311 311 311 312 312 312 312 312 311 309 306 304 307 314 318 318 320 321 321
325 324 323 323 322 321 319 318 315 311 310 311 309 309 308 308 307 306 305 304 303 302 301 301 300 300 299 298 299 299 298 299 298 298 298 297 298 300 302 307 310 311 312 311 310 311 311 311 311 311 311 310 309 309 308 306 306 309 311 313 316 317 315
323 322 322 321 320 319 318 317 314 310 309 309 308 307 306 305 304 303 302 300 300 299 299 299 298 298 298 297 298 297 298 298 297 300 300 298 300 302 304 308 310 311 310 307 308 311 310 310 310 310 310 309 309 308 308 308 307 306 307 309 308 304 304
321 320 320 319 318 318 317 315 312 309 308 307 306 305 303 302 300 299 299 298 298 298 298 298 297 298 297 297 297 297 297 297 296 299 299 299 301 302 303 306 310 311 305 302 306 308 307 308 308 309 308 308 308 308 307 307 307 307 306 306 304 303 303
318 318 317 317 316 316 315 313 310 307 306 304 303 301 300 299 298 298 297 297 298 297 297 297 297 297 297 297 297 296 298 297 296 296 297 299 301 301 302 304 309 308 301 301 306 305 304 306 307 307 307 307 307 307 306 305 304 305 304 303 303 304 304
317 316 315 315 315 314 313 311 307 305 303 301 300 298 298 298 297 297 297 297 297 297 297 297 297 297 296 296 296 296 298 299 299 297 297 299 300 303 305 304 304 304 300 303 307 305 306 307 306 306 306 306 306 305 305 304 302 302 302 302 301 301 301
315 314 314 313 313 312 310 307 303 302 300 299 298 297 297 297 296 296 296 296 296 296 297 296 296 296 296 296 296 297 300 302 303 301 298 299 299 302 307 304 299 299 300 304 305 304 306 305 302 303 304 304 305 304 305 304 303 302 301 301 301 300 299
314 313 313 312 310 307 305 302 300 299 298 297 297 296 296 296 296 296 296 296 296 296 296 296 296 296 296 296 296 298 301 303 304 302 300 300 300 302 306 304 300 299 302 304 304 303 304 301 298 301 303 304 304 304 304 304 304 303 301 301 301 300 299
313 312 312 310 306 303 301 300 298 298 297 297 296 296 296 296 296 296 296 296 296 296 296 296 296 296 296 296 296 297 300 301 302 304 303 301 301 303 305 305 303 301 301 302 302 303 303 299 297 299 300 300 301 301 302 303 303 302 301 301 300 299 300
312 310 308 305 302 300 299 298 298 297 296 296 296 297 297 297 297 297 296 296 295 295 296 296 296 296 295 295 296 297 299 300 301 304 304 302 302 304 304 304 304 302 299 299 299 299 299 297 296 297 297 297 297 298 300 301 302 301 299 300 300 299 299
309 307 304 301 299 298 298 297 297 296 296 296 297 298 298 298 297 296 296 295 295 295 295 295 296 296 296 296 296 297 298 300 301 303 304 304 303 304 303 303 303 301 299 298 297 297 297 296 296 296 297 297 297 297 298 299 300 300 299 299 299 299 300
305 302 300 299 298 297 297 296 296 295 296 297 298 298 298 299 297 295 295 295 295 295 295 296 296 296 297 298 299 299 300 302 303 304 304 303 303 303 303 303 302 301 299 298 297 297 296 296 296 296 296 297 297 297 298 299 299 300 300 299 299 299 300
300 299 298 297 297 297 296 296 296 296 296 296 297 297 297 298 297 295 295 295 295 295 295 295 296 296 296 298 300 302 303 304 304 304 304 303 303 303 302 302 302 300 298 296 296 296 296 296 297 296 296 296 297 297 297 298 299 299 299 299 299 299 299
298 298 297 297 297 296 295 296 296 296 296 296 296 297 296 296 295 295 295 295 295 295 295 295 295 295 295 297 300 302 303 304 304 304 304 303 302 302 302 301 301 299 297 296 296 297 297 297 297 296 296 296 296 297 297 297 297 298 298 298 298 298 298
297 297 297 296 296 296 296 297 296 296 296 295 296 298 297 295 295 295 295 295 295 295 295 295 295 295 295 297 301 303 304 304 303 303 303 303 302 301 301 301 300 298 297 297 297 297 297 297 296 295 295 296 296 296 297 297 297 297 298 298 298 298 298
297 296 296 296 296 296 296 297 296 296 296 295 295 296 296 295 294 295 294 294 295 294 295 295 295 295 295 296 302 303 303 304 304 302 302 302 301 300 299 299 299 297 297 298 297 297 297 296 296 295 296 296 296 296 297 297 297 297 297 298 298 298 298
296 296 296 296 296 296 296 296 297 298 299 298 297 295 294 294 294 294 294 294 295 295 295 295 295 295 295 296 299 302 302 303 303 302 302 302 301 299 298 298 298 298 298 298 297 297 297 296 295 296 296 296 296 297 297 297 297 297 298 298 298 298 298
296 296 296 296 296 296 296 296 296 297 298 298 298 297 297 295 294 294 294 294 294 295 295 295 295 295 295 296 297 300 302 303 303 301 301 301 300 300 299 298 298 298 298 298 297 297 296 295 295 295 296 296 296 296 297 297 297 297 297 297 297 298 298
296 296 296 296 297 296 296 295 295 295 295 296 298 300 299 297 294 294 294 294 294 295 295 295 295 294 295 296 296 298 301 302 302 301 301 301 300 300 299 299 298 299 298 297 297 296 295 295 295 295 296 296 296 297 297 297 296 296 297 297 297 297 297
297 297 297 296 296 296 295 295 295 295 295 295 296 297 297 295 294 294 294 294 294 295 295 294 295 294 294 295 296 298 300 301 302 301 300 301 301 300 300 299 297 298 298 297 296 295 294 295 295 295 296 296 296 297 297 296 296 296 296 296 297 297 297
298 297 296 296 295 295 295 295 295 294 295 295 294 295 295 295 294 293 294 294 294 294 294 294 294 294 294 295 296 297 299 301 301 301 300 300 300 300 300 298 296 297 297 296 296 295 294 294 294 294 296 296 296 297 296 296 296 296 296 296 296 296 296
298 297 297 295 294 294 294 294 295 294 294 295 294 295 296 296 295 293 293 294 294 294 294 294 294 294 294 295 296 298 300 301 301 301 300 300 300 299 299 298 296 296 296 295 295 294 294 294 294 294 295 296 296 296 296 296 296 295 295 295 295 296 296
298 298 298 296 294 295 294 294 294 294 294 294 294 294 296 296 295 294 293 293 293 293 294 293 294 294 294 294 296 298 301 301 301 301 300 299 300 299 299 298 297 296 295 294 294 294 293 294 294 294 295 296 296 296 296 296 295 295 295 295 295 296 296
299 298 296 295 296 296 295 294 294 294 294 294 294 294 294 295 297 295 293 293 293 293 293 293 293 293 294 295 295 297 300 301 300 300 300 299 299 300 299 298 297 296 295 293 293 293 293 294 294 294 295 295 296 296 296 295 295 295 295 295 295 296 296
297 297 298 298 299 299 298 297 296 295 294 294 293 293 293 294 296 296 294 293 292 293 293 293 293 293 293 294 295 295 298 300 300 300 300 298 298 299 299 298 297 296 295 293 292 293 293 294 294 294 294 295 295 296 296 295 295 295 295 295 295 296 296
299 300 301 301 300 299 299 298 296 295 294 294 293 293 293 293 294 296 295 293 292 292 292 292 293 293 292 293 294 293 295 298 299 300 300 298 298 299 299 297 297 297 295 293 292 293 294 294 295 295 294 295 295 295 295 295 295 295 295 295 295 295 295
302 302 302 301 298 297 298 298 297 297 296 296 295 293 293 292 292 294 294 294 292 292 292 292 292 292 292 292 293 292 293 295 298 300 300 298 298 298 298 297 297 297 294 292 292 293 294 294 295 295 295 295 295 295 295 295 295 295 295 295 295 295 295
302 302 302 300 297 298 300 299 299 299 298 299 299 297 295 294 292 292 292 293 292 292 292 292 292 292 292 292 292 292 292 293 296 298 299 299 298 298 298 297 297 296 294 292 293 293 294 294 295 295 295 295 295 295 295 295 295 295 295 295 295 295 296
302 302 301 298 297 299 300 299 300 300 299 300 300 300 299 297 295 294 293 293 293 292 292 292 292 292 292 292 292 292 292 292 294 295 297 298 298 297 297 297 297 295 293 293 293 293 294 294 294 294 295 295 295 295 295 295 295 295 295 295 295 295 295
302 302 299 297 298 299 300 301 302 302 301 301 301 300 300 299 299 298 297 296 295 295 293 292 291 291 291 291 291 292 292 292 292 293 294 296 297 297 297 296 295 294 293 293 293 293 294 294 294 294 294 295 295 295 295 295 295 295 295 295 295 295 295
302 301 297 297 299 300 301 302 302 301 301 300 301 301 301 301 301 300 300 299 298 298 296 294 292 291 291 291 291 291 292 292 292 292 292 294 296 297 296 294 293 293 294 294 294 294 294 294 294 294 294 294 295 295 295 295 295 295 294 294 294 295 295
302 299 297 298 299 300 300 301 301 300 299 299 300 301 301 301 301 301 301 301 300 299 299 297 294 292 291 291 291 291 292 291 291 292 292 293 295 296 295 293 293 294 295 295 295 294 294 294 294 294 294 294 294 295 295 295 295 294 294 294 294 295 295
301 298 297 298 299 300 301 302 302 301 301 301 301 302 301 301 301 301 301 301 301 300 300 299 296 292 291 291 291 291 292 291 291 292 292 293 295 295 294 294 295 295 295 295 295 295 294 294 293 293 293 293 294 295 295 295 294 294 294 294 294 294 295
299 298 297 298 299 299 301 302 302 302 303 303 303 302 301 301 301 300 300 300 301 301 300 299 296 292 291 292 291 291 291 291 291 292 292 293 294 294 295 295 296 295 295 295 295 295 294 293 293 293 293 293 293 294 295 295 294 294 294 294 294 294 295

ECMWFFLT1_850_thetae_105.txt.gz
Theta_e
332 332 331 331 330 329 328 327 325 324 324 322 320 319 317 315 314 312 312 311 311 311 310 310 309 309 309 309 308 307 306 305 304 303 302 302 302 302 304 306 307 308 310 309 307 307 308 306 303 303 302 301 301 302 302 300 301 309 315 316 315 316 316
332 332 331 330 329 328 327 327 324 321 320 319 316 315 313 312 312 311 311 310 310 309 309 309 308 308 307 306 304 303 302 302 301 301 300 300 300 301 303 306 308 309 309 306 305 308 309 308 307 305 303 300 300 301 301 299 299 304 310 312 313 314 311
332 331 330 329 327 327 325 325 322 317 315 314 312 312 311 311 310 310 310 309 309 308 307 307 306 305 304 302 301 300 300 300 300 299 299 299 299 301 305 308 309 310 309 306 306 309 309 308 307 304 300 299 300 300 299 299 299 299 303 307 308 307 305
330 329 328 327 326 325 323 321 318 314 312 312 311 310 310 310 309 309 308 308 307 305 304 303 302 302 301 300 300 299 299 299 299 299 298 299 299 302 306 308 309 310 308 305 305 306 307 304 304 303 299 298 299 298 298 298 298 299 300 300 299 299 299
328 327 326 324 323 322 321 318 314 312 311 311 310 309 308 308 307 307 306 305 303 302 301 300 300 300 299 299 299 299 299 299 299 298 298 298 298 302 306 307 307 306 303 302 303 304 305 304 303 302 299 298 298 297 297 298 297 299 299 298 297 297 298
326 325 324 323 321 321 320 316 311 310 310 309 308 307 306 306 305 304 303 301 300 300 299 299 299 299 298 298 298 298 298 298 298 298 298 298 298 301 305 305 303 300 301 303 304 305 305 303 301 300 299 298 299 297 297 297 297 298 298 298 297 298 298
324 323 322 322 321 320 319 316 311 309 309 308 307 306 304 303 302 300 300 300 299 299 299 299 299 298 298 298 298 298 297 297 297 297 297 298 299 300 300 299 298 299 302 303 303 304 303 300 299 300 300 299 298 297 297 297 297 297 298 298 297 298 298
323 323 322 321 320 319 319 316 310 308 307 305 304 303 301 300 299 299 299 299 299 299 298 298 298 298 297 297 297 297 297 297 297 297 297 298 301 299 297 296 297 300 302 300 300 301 299 297 297 299 300 300 298 297 297 297 297 297 297 298 298 298 298
322 321 321 320 319 319 317 313 308 306 305 302 301 300 299 299 299 299 299 299 298 298 298 298 297 297 297 297 298 299 299 298 296 296 297 298 301 302 299 297 296 298 299 297 297 298 297 297 296 297 298 298 298 298 297 297 297 297 298 298 298 298 298
320 320 319 318 317 316 313 309 306 304 301 300 299 298 298 298 298 298 298 298 298 298 298 297 297 297 297 298 299 299 299 299 297 296 296 298 303 304 301 297 296 296 297 296 296 296 296 296 296 296 296 296 297 297 298 298 297 297 298 298 298 298 298
318 317 317 316 314 312 309 305 303 301 299 298 298 297 298 298 298 298 298 297 297 297 297 297 297 297 297 298 299 299 299 299 297 296 296 297 301 302 300 297 296 296 296 296 296 296 296 296 296 296 296 296 296 297 297 298 298 297 298 298 298 298 298
315 314 313 312 311 308 305 302 300 299 298 297 297 297 297 297 297 297 297 297 297 297 297 297 296 297 297 297 298 298 298 298 298 297 297 298 299 299 299 298 297 296 296 296 296 296 296 296 296 296 296 296 296 296 297 297 298 298 297 298 298 298 298
312 311 310 309 307 305 302 300 299 298 297 297 297 297 297 297 297 297 297 297 297 297 297 297 297 297 296 296 297 297 297 299 300 299 298 300 300 299 299 299 297 296 295 295 295 296 295 296 296 296 296 296 296 296 296 297 297 298 297 297 298 298 297
311 309 307 305 303 301 300 299 298 297 297 297 297 297 297 297 297 297 297 297 297 297 297 297 297 296 296 297 297 298 300 302 303 301 299 299 300 299 298 298 296 295 295 295 295 295 295 295 295 296 296 296 296 296 296 296 296 296 297 296 296 297 297
310 308 305 303 301 300 299 298 297 297 296 297 297 297 297 297 297 297 297 297 296 296 296 296 296 296 297 298 299 300 302 303 303 302 299 298 298 298 297 296 295 295 295 295 295 295 295 295 295 295 296 296 296 296 296 296 296 296 297 297 296 296 297
307 305 302 300 299 298 298 297 297 296 296 297 297 297 297 297 296 296 296 296 296 296 296 296 296 296 297 298 300 302 302 301 301 301 300 298 297 296 295 295 295 295 295 295 295 294 295 295 295 295 295 296 296 296 296 295 296 296 296 296 296 296 296
304 302 300 298 298 297 296 296 296 297 297 297 297 296 296 296 296 296 296 296 296 295 295 295 295 296 297 297 300 303 303 301 300 301 300 298 296 295 295 295 295 295 295 295 294 294 294 295 295 294 295 295 296 295 295 295 296 296 296 296 296 296 296
301 299 298 298 297 296 296 296 296 297 296 296 296 296 296 296 296 296 296 295 295 295 295 295 295 296 297 298 300 303 303 301 300 300 299 297 296 295 295 295 296 296 295 295 294 294 294 294 294 294 295 295 295 295 295 295 295 296 296 296 295 296 296
299 298 297 297 297 296 296 296 296 296 296 296 296 296 295 295 295 295 295 295 295 295 295 295 295 296 297 298 299 302 303 301 299 300 299 297 298 297 296 296 296 295 295 294 294 294 294 294 294 294 294 295 295 295 295 295 295 295 295 295 295 295 295
298 297 297 297 296 296 296 296 296 296 296 296 295 295 295 295 295 295 295 295 295 295 295 295 295 296 297 298 299 301 302 301 299 300 300 299 299 298 297 297 296 295 294 294 293 294 294 294 294 293 294 295 295 295 295 295 295 295 295 295 295 295 295
297 297 297 296 296 297 296 296 296 296 295 295 295 295 295 295 295 295 295 295 295 295 295 295 295 296 297 297 298 299 301 301 299 300 300 300 300 299 298 298 296 294 294 294 293 293 293 293 293 293 294 294 295 295 295 295 295 295 295 295 295 295 295
297 297 297 297 297 297 296 297 297 296 295 295 296 295 295 295 295 295 295 295 295 295 295 295 295 295 296 296 297 298 299 300 300 300 300 300 300 299 298 298 296 294 294 293 293 293 293 293 293 293 294 294 295 295 295 295 295 295 295 295 295 295 295
297 297 297 297 297 296 296 297 297 296 296 296 296 295 294 295 295 295 295 295 295 295 294 294 294 295 295 296 296 296 298 299 299 299 300 300 300 299 299 298 297 295 293 293 293 293 293 293 293 294 294 294 295 295 295 295 295 296 296 295 295 295 295
297 297 297 297 296 296 296 296 296 296 296 296 295 294 294 295 294 295 294 294 295 295 294 294 294 294 295 296 296 297 298 299 299 299 299 299 300 299 299 299 298 295 293 293 293 293 293 293 293 294 294 294 295 295 295 295 295 295 295 295 295 295 295
297 297 296 296 295 295 295 295 295 295 296 295 295 294 294 294 294 294 294 294 294 294 294 294 294 294 294 295 297 298 299 300 300 299 298 298 299 299 298 299 298 295 294 294 293 292 293 293 294 294 294 294 294 295 295 295 295 295 295 295 295 295 295
296 296 296 295 295 295 295 295 295 295 295 295 295 294 294 294 294 294 294 294 294 294 294 294 294 294 294 294 296 298 299 299 300 300 298 298 299 299 299 299 297 295 295 294 292 292 293 293 294 294 294 294 294 295 295 295 295 295 295 295 295 295 295
296 295 295 295 295 295 295 295 295 295 295 295 295 295 294 293 294 294 294 294 294 294 294 294 293 293 293 293 294 296 297 298 299 300 298 297 298 299 299 298 297 296 295 294 293 293 293 293 294 294 294 294 294 295 295 295 295 295 295 295 295 294 294
295 295 294 294 295 295 295 295 295 294 294 294 295 295 294 294 293 293 293 294 294 294 294 293 293 293 293 293 293 294 295 296 298 299 298 297 298 298 298 297 296 295 294 293 293 293 294 294 294 294 294 294 294 294 294 295 295 295 295 294 294 294 294
295 294 294 294 294 294 294 294 294 294 294 294 294 294 294 294 293 293 293 294 294 294 293 293 293 293 292 292 292 293 294 295 296 298 297 297 297 297 297 296 295 294 294 293 293 294 294 294 294 294 294 293 293 294 294 294 295 295 294 294 294 294 294
295 294 294 294 294 294 294 294 294 294 294 294 293 294 294 293 293 293 293 293 293 293 293 293 293 293 292 292 292 293 293 294 295 296 297 297 296 297 297 296 294 293 294 294 294 294 294 294 294 293 293 293 293 293 294 294 294 294 294 294 294 295 295
295 295 295 295 295 294 294 294 294 294 294 294 293 293 293 293 293 293 293 293 293 293 293 293 293 293 293 293 292 292 292 292 293 294 295 296 296 296 296 295 293 293 294 294 294 294 294 294 293 293 292 292 292 293 293 294 294 294 294 294 294 295 295
296 296 296 295 295 295 295 295 295 295 295 294 293 293 294 294 294 294 294 294 293 293 293 292 293 293 293 293 292 292 292 292 292 292 293 294 294 294 294 294 293 294 294 294 294 294 294 293 293 292 292 292 292 292 292 293 293 293 293 294 294 295 295
298 297 296 295 295 295 295 296 297 297 297 296 295 295 295 296 296 296 296 295 295 294 293 293 293 293 293 293 293 292 292 292 292 292 292 293 293 293 294 294 294 294 294 294 294 294 293 292 292 291 291 291 291 291 292 292 293 293 293 294 294 295 295
299 297 296 295 296 296 298 299 300 300 299 297 296 297 297 297 298 298 298 298 297 297 295 293 293 293 293 293 292 293 293 292 293 293 293 293 293 293 294 294 294 294 295 295 294 293 292 292 292 292 291 291 291 291 291 292 292 293 293 294 294 295 295
299 297 296 296 296 298 300 301 301 301 301 299 298 299 299 299 299 299 300 299 299 299 297 294 293 293 293 293 293 293 293 293 293 293 293 293 293 293 294 294 295 295 295 295 294 293 292 291 291 291 291 290 290 290 291 291 291 293 294 294 294 295 295
299 298 296 296 297 299 301 302 301 301 300 298 299 300 300 300 300 300 300 300 300 300 298 295 293 293 293 293 293 293 293 293 293 293 293 293 293 294 295 295 295 295 295 295 293 292 292 291 291 291 290 290 290 290 291 291 292 293 294 294 294 295 295
299 298 296 296 297 300 301 300 299 299 299 299 300 300 300 300 300 300 300 300 300 300 298 296 294 293 293 293 293 293 293 293 293 293 293 293 294 294 295 295 295 295 295 294 293 292 291 291 291 291 290 290 290 290 291 292 293 294 294 294 294 294 295

ECMWFFLT1_850_thetae_108.txt.gz
Theta_e
331 331 331 331 330 329 329 328 327 326 325 325 324 322 321 320 318 316 315 313 312 312 311 311 310 309 309 307 306 304 302 301 300 300 300 301 302 303 305 305 306 306 305 302 300 300 301 301 300 300 299 298 298 298 298 298 298 299 302 304 305 305 305
331 331 331 331 330 329 329 328 328 326 324 323 321 319 317 315 313 312 311 311 311 311 310 310 309 308 306 303 302 300 300 300 299 300 300 300 302 303 305 305 305 305 303 300 298 298 299 299 298 299 299 298 298 298 298 297 297 298 298 299 299 299 299
332 331 331 330 330 329 328 328 328 325 322 320 317 315 313 311 311 310 310 310 310 309 309 308 306 304 302 300 300 299 299 299 299 299 300 300 302 303 304 304 302 301 300 300 300 300 298 297 297 297 297 298 298 297 297 297 297 297 298 298 298 298 298
332 331 330 329 328 328 327 328 327 323 319 316 314 312 311 310 310 309 309 309 309 308 307 304 302 300 299 299 299 299 299 299 299 299 299 300 301 301 301 300 299 299 300 301 302 300 297 296 296 296 297 297 297 297 297 297 297 297 297 297 298 298 298
330 329 329 328 327 327 326 327 326 321 316 314 312 311 310 309 309 308 308 308 307 305 302 300 299 299 299 299 298 298 298 298 298 298 298 299 299 299 298 298 298 298 299 300 299 297 296 296 296 296 297 297 297 297 297 297 297 297 297 297 298 298 298
328 327 327 326 326 326 325 324 321 317 314 312 311 310 309 308 307 307 305 304 303 301 300 299 299 299 298 298 298 298 298 298 298 298 298 298 297 297 297 297 297 297 297 298 297 296 296 296 296 296 296 296 297 297 297 297 297 297 297 297 297 298 298
326 326 325 325 325 325 322 318 315 313 312 311 310 309 308 307 305 303 302 300 300 299 299 298 298 298 298 298 298 298 298 297 297 297 298 298 297 296 296 297 297 296 296 296 296 296 296 296 296 296 296 296 296 297 297 297 297 297 298 298 297 298 298
325 325 324 324 324 324 321 315 311 311 311 309 308 307 306 304 302 300 299 299 299 298 298 298 298 298 298 298 298 298 297 297 297 297 298 299 298 297 296 296 296 296 296 296 296 295 296 296 296 296 296 296 297 297 297 297 297 297 297 298 298 298 298
324 324 323 323 323 322 321 316 311 310 309 308 306 305 303 301 299 299 298 298 298 298 298 298 298 298 298 298 298 298 297 297 297 297 298 299 299 297 296 296 296 296 296 296 295 295 296 296 296 296 296 296 296 297 297 297 297 297 297 297 297 298 298
323 323 322 322 322 321 321 317 311 308 307 305 304 302 300 299 298 298 298 298 298 298 298 298 298 298 298 298 298 298 297 297 296 297 297 297 298 297 296 296 295 296 295 295 295 295 296 296 295 296 296 296 296 296 297 297 297 297 297 297 297 297 298
322 322 322 322 321 320 320 315 309 307 305 302 301 300 298 298 298 298 298 298 298 298 298 298 298 298 298 298 298 298 297 297 296 296 297 297 297 297 296 295 295 295 295 295 295 295 295 295 295 295 295 296 296 296 295 296 296 296 296 297 297 297 297
322 321 321 320 320 319 317 311 306 304 302 300 299 298 298 298 298 298 298 297 297 297 298 298 298 298 298 297 297 297 297 297 296 296 297 297 297 296 295 295 295 295 295 295 295 295 295 295 295 295 295 296 296 295 295 295 295 295 296 296 297 297 297
320 320 320 319 318 316 312 307 303 301 300 299 298 298 298 297 297 298 297 297 297 298 298 298 298 298 297 297 296 297 298 298 297 296 296 296 296 295 295 295 294 294 295 295 295 295 295 295 295 295 295 295 295 295 295 295 295 295 295 295 296 296 296
319 319 318 317 315 311 306 303 301 300 299 298 297 297 297 297 297 297 297 297 297 297 298 298 298 298 297 297 297 298 299 298 297 296 296 295 295 295 294 294 294 294 294 294 295 295 295 295 294 294 294 295 295 295 295 295 295 295 295 295 295 295 295
317 316 315 313 310 306 302 300 299 299 298 298 297 297 297 297 297 297 297 297 297 297 297 297 297 297 297 297 297 298 297 297 297 296 295 294 294 294 294 294 294 294 294 294 294 294 294 294 294 294 294 294 295 295 294 295 295 295 295 295 295 295 295
314 312 310 308 305 302 300 299 299 298 297 297 297 297 297 297 297 297 297 297 297 297 297 297 296 296 297 297 298 298 297 296 297 296 295 294 294 294 294 294 294 294 294 294 294 294 294 294 294 294 293 294 294 294 294 294 295 295 295 295 295 295 295
311 308 306 304 302 300 299 298 298 297 297 297 297 297 297 297 297 297 297 297 297 297 297 296 296 296 297 297 299 299 297 296 296 296 295 295 294 294 294 294 293 293 294 294 294 294 294 293 293 293 293 293 294 294 294 294 295 295 295 295 295 295 295
309 306 304 301 300 299 298 298 297 297 297 297 297 297 297 297 297 297 297 297 297 297 297 296 296 296 297 297 299 299 297 296 296 297 297 296 295 294 295 295 294 293 293 294 293 294 293 293 293 293 293 294 294 294 294 294 294 295 295 295 295 294 294
307 304 301 299 298 298 297 297 297 297 297 297 297 297 297 297 297 297 297 297 297 296 296 296 296 296 296 297 298 298 296 296 298 299 299 298 297 296 296 297 295 293 293 294 293 293 293 293 293 293 294 294 294 294 294 294 294 294 294 295 294 294 294
303 301 299 298 298 297 297 296 296 297 297 297 297 297 297 297 297 297 297 297 296 296 296 296 296 296 296 296 297 297 296 297 299 300 300 299 298 298 298 298 296 293 293 293 293 293 293 293 293 293 294 294 294 294 294 294 294 294 294 295 294 294 294
301 299 298 298 298 297 296 296 296 297 296 296 297 297 297 297 297 297 297 296 296 296 296 296 295 295 296 296 297 297 297 298 299 300 299 299 299 299 298 298 297 294 292 293 292 293 293 293 293 293 294 294 294 294 294 294 294 295 294 294 294 294 294
300 299 298 298 298 297 296 296 296 296 296 296 296 297 297 297 296 296 296 296 296 296 295 296 295 295 295 295 296 297 297 298 299 300 299 299 299 299 298 298 297 294 292 293 293 293 293 293 293 294 293 294 294 294 294 294 294 294 294 294 294 294 294
299 299 298 298 298 297 296 296 296 296 296 296 296 297 297 296 296 296 296 296 296 296 295 295 295 295 295 295 296 297 296 297 298 299 299 298 299 299 298 298 297 294 292 293 293 293 293 293 293 293 293 293 293 293 294 294 294 294 294 294 294 294 294
299 298 298 298 297 297 296 296 296 296 296 296 296 296 296 296 296 296 296 295 295 295 295 295 295 295 295 295 296 297 297 297 298 298 297 298 299 298 298 298 296 293 292 293 293 293 293 292 292 292 292 292 293 293 293 294 294 294 294 294 294 294 294
298 298 298 298 297 297 296 296 296 296 296 296 296 296 296 296 296 295 295 295 295 295 295 295 295 294 295 295 296 297 298 298 298 298 297 297 298 298 298 297 294 293 293 293 293 293 293 292 292 292 292 292 292 293 293 293 294 294 294 294 294 294 294
298 298 298 297 297 297 296 296 296 296 296 296 296 296 296 295 296 296 295 295 295 295 295 294 294 294 294 295 296 296 297 298 299 298 296 297 298 298 297 295 293 293 293 293 293 293 292 292 291 291 291 291 292 292 293 293 293 293 293 293 293 294 295
298 298 297 297 297 297 296 296 296 296 296 296 296 295 295 295 296 295 295 295 295 295 295 294 294 293 293 293 294 295 296 297 299 298 297 296 297 297 296 294 293 293 294 293 293 293 292 292 291 291 291 291 291 292 292 292 293 292 293 293 294 295 295
298 298 297 296 296 296 295 295 296 296 295 295 295 295 295 295 296 295 295 295 294 294 294 294 293 293 293 293 293 294 295 297 298 298 297 296 296 296 294 293 293 293 293 293 293 293 292 291 290 290 291 291 291 292 292 292 292 293 293 294 295 295 296
298 297 296 296 295 295 295 295 295 295 295 295 295 295 295 295 295 295 294 294 294 294 294 293 293 293 293 293 293 293 294 296 296 297 296 295 295 294 293 293 293 293 293 293 293 292 291 291 290 290 291 291 292 292 292 292 293 293 294 295 296 296 296
298 297 296 295 295 295 295 295 295 295 295 295 295 295 295 295 294 294 294 293 293 294 293 293 293 293 293 293 292 292 293 294 295 295 295 294 294 293 293 293 293 293 293 293 293 292 291 290 290 290 291 291 291 292 292 293 293 294 295 296 296 296 296
297 297 296 295 295 295 295 295 295 295 295 295 295 294 294 294 294 294 293 293 293 293 293 293 293 293 293 293 292 292 292 292 293 293 293 293 293 293 293 293 293 293 293 294 292 291 291 290 290 290 290 291 291 292 292 293 293 293 294 296 296 296 296
297 296 295 294 295 295 295 295 295 295 294 294 294 294 294 294 294 293 293 293 293 294 294 294 293 293 293 292 292 292 293 293 293 293 293 293 293 293 293 292 292 293 293 293 292 291 291 290 290 290 290 290 291 291 292 293 293 294 294 295 296 295 296
297 295 294 294 295 295 295 294 294 294 294 294 294 294 294 294 294 294 294 293 294 294 294 294 293 293 293 293 293 293 293 293 293 293 293 293 293 292 292 292 292 292 293 292 291 291 291 290 290 290 290 290 291 291 292 293 293 294 295 295 295 295 296
297 295 294 295 294 294 295 294 294 294 294 294 294 294 294 295 295 295 295 294 294 294 294 293 293 293 293 293 293 293 294 294 293 293 293 293 293 293 292 292 292 292 292 291 291 291 291 290 290 290 290 290 291 291 292 293 293 293 294 295 295 295 296
297 295 294 295 295 294 294 294 294 294 294 294 294 295 295 296 297 297 296 295 295 294 294 293 293 293 293 293 294 294 294 294 293 293 293 293 293 293 293 292 292 292 292 291 291 290 290 290 291 290 290 290 291 291 292 292 293 293 294 294 295 295 295
297 295 295 295 295 294 294 294 295 294 294 295 296 296 297 298 298 298 298 297 296 295 295 294 293 293 293 294 294 294 294 294 294 293 293 293 293 293 293 293 293 292 292 291 291 290 290 290 290 290 291 291 291 291 291 292 292 293 294 294 294 295 295
297 296 296 296 295 294 295 296 297 296 296 297 297 298 298 299 299 299 299 298 297 296 296 295 293 293 293 294 294 294 294 294 294 294 294 294 294 294 293 293 293 292 292 292 291 290 290 290 290 290 291 291 291 291 291 291 292 293 293 294 294 294 295

ECMWFFLT1_850_thetae_111.txt.gz
Theta_e
331 330 330 332 333 332 331 330 329 328 327 325 325 324 323 322 321 320 318 316 314 313 312 311 311 310 309 308 306 304 302 302 301 301 301 301 301 301 301 302 301 301 301 300 299 299 299 300 300 300 299 298 298 298 298 298 297 298 297 297 298 297 298
332 332 332 332 332 331 330 329 328 327 326 325 324 323 321 319 317 316 314 313 312 312 311 310 309 308 306 304 302 301 301 301 301 301 300 300 300 300 300 300 299 300 299 298 299 299 298 299 299 300 300 299 298 298 297 297 297 297 297 297 297 297 297
332 332 331 331 331 330 330 328 327 326 324 323 322 320 318 316 314 313 312 311 311 310 310 308 306 304 302 301 301 301 301 301 301 300 300 299 299 298 298 298 298 298 299 299 298 298 298 298 298 298 298 298 298 297 297 297 297 297 297 297 297 297 297
331 331 330 331 330 330 329 327 325 324 322 320 318 316 315 313 312 311 311 310 310 309 307 305 303 301 300 300 300 300 300 300 300 299 299 298 298 297 297 297 297 297 298 298 297 297 297 297 297 297 297 297 297 297 297 297 297 297 297 297 297 297 297
331 331 331 331 330 328 326 325 324 322 319 317 315 314 313 311 311 310 310 309 308 306 304 301 300 300 300 300 300 300 300 299 299 298 298 297 297 297 297 296 296 296 297 297 296 296 296 296 296 296 296 297 297 297 296 297 297 297 297 297 297 297 297
332 332 331 330 328 326 325 323 322 320 316 314 313 312 311 310 310 309 308 306 305 303 301 300 300 299 299 299 299 299 299 298 298 298 298 297 296 297 296 296 296 296 296 296 296 296 296 296 296 296 296 296 296 296 297 297 297 297 297 297 297 297 297
332 331 330 328 326 324 323 321 318 315 313 312 312 311 310 309 308 307 306 303 301 300 299 299 299 299 299 299 299 299 299 298 298 298 298 297 296 296 296 296 296 296 296 296 295 295 296 296 296 296 296 296 296 297 297 296 296 297 297 297 297 297 297
330 329 327 326 324 323 321 318 314 312 311 311 311 310 309 308 306 305 303 300 299 299 299 299 299 299 299 298 299 298 298 298 298 298 298 297 296 296 296 296 296 296 296 295 295 295 295 296 296 295 296 296 296 296 297 297 296 296 296 296 296 297 297
329 327 326 324 323 322 321 317 312 310 310 310 310 309 307 306 304 302 300 299 299 298 299 299 298 298 298 298 298 298 298 297 297 297 297 296 296 296 296 296 295 295 295 295 295 295 295 295 295 295 295 295 295 296 296 296 296 296 296 296 296 296 296
327 325 324 324 322 321 321 319 314 310 309 309 308 307 305 303 302 300 299 299 298 298 298 298 298 298 298 298 298 298 297 297 296 296 297 296 296 295 295 295 295 295 295 295 295 295 295 295 295 295 295 295 295 294 295 296 295 296 296 296 296 296 296
325 325 323 322 322 321 320 319 315 310 308 308 306 304 303 301 300 299 298 298 298 298 298 298 298 298 298 298 298 297 297 296 296 296 296 296 295 295 295 295 295 295 295 295 295 295 295 295 295 294 294 294 294 294 294 294 295 295 295 295 295 295 296
324 323 322 321 321 320 319 319 316 310 307 306 304 303 301 300 299 298 298 298 298 298 298 298 298 298 298 298 297 297 297 296 296 296 296 295 295 295 294 294 294 295 295 294 294 295 294 294 294 294 294 294 294 294 294 294 295 295 294 295 295 295 295
322 322 321 320 320 319 319 318 314 309 306 305 303 301 300 298 298 298 298 298 298 298 297 297 298 297 297 297 297 298 297 296 296 295 295 295 294 294 294 294 295 294 294 294 294 294 294 294 294 294 294 293 293 294 294 294 294 294 294 294 294 295 295
321 320 320 319 319 318 318 316 312 307 305 304 301 299 298 298 298 297 298 297 297 297 297 297 297 297 297 297 297 297 297 296 296 295 295 294 294 294 294 294 294 294 294 294 294 294 294 294 294 293 293 293 293 294 294 294 294 294 294 294 294 294 294
320 319 319 318 318 317 317 313 308 305 304 302 300 298 297 297 297 297 297 297 297 297 297 297 297 297 297 297 297 297 296 296 296 295 294 294 294 294 294 294 294 294 294 294 294 294 294 294 294 293 293 293 293 293 294 294 294 294 294 294 294 294 294
319 318 318 317 317 316 313 308 304 303 302 300 298 297 297 297 297 297 297 297 297 296 296 296 297 297 297 298 298 297 296 296 295 295 294 294 294 294 294 294 294 294 294 294 294 294 294 293 293 293 293 293 293 293 293 294 294 294 294 294 294 294 294
317 316 316 315 315 313 309 304 302 301 300 298 298 297 297 297 297 297 297 297 296 296 296 296 296 297 297 298 298 296 296 295 295 295 294 294 294 294 294 293 293 293 293 293 293 293 293 293 293 293 293 293 293 293 293 294 294 294 294 294 293 293 294
315 314 313 313 312 309 304 301 300 299 298 297 297 297 297 297 297 297 296 296 296 296 296 296 296 296 297 297 297 296 295 296 296 296 295 295 295 295 295 294 293 293 293 293 293 293 293 293 292 293 292 293 293 293 293 293 294 294 294 293 293 293 294
313 312 311 310 308 304 301 300 299 298 298 297 297 297 297 297 296 296 296 296 296 296 296 296 296 296 296 296 296 296 296 296 297 297 296 296 296 296 295 295 293 293 293 293 293 293 293 292 292 292 292 292 292 292 293 293 293 293 293 293 293 293 294
312 309 308 306 304 301 300 299 299 298 297 297 297 297 297 296 296 296 296 296 296 296 296 296 296 296 296 296 296 296 296 296 296 297 297 296 296 296 296 295 294 292 293 293 293 293 293 292 292 292 291 291 292 292 292 293 293 293 293 293 293 293 294
310 308 305 303 301 299 299 299 298 297 297 296 296 296 296 296 296 296 296 296 296 296 296 296 296 296 295 295 296 296 296 296 296 296 297 297 297 296 296 295 293 292 292 293 293 293 293 292 292 291 291 291 291 292 292 292 292 293 293 293 293 293 294
309 306 303 301 300 299 299 298 297 297 296 296 296 296 296 296 296 296 296 296 296 296 296 296 295 295 295 295 295 295 295 296 296 296 297 298 297 297 297 295 293 292 293 293 293 293 292 292 291 291 290 291 291 291 291 292 292 292 292 292 293 294 295
307 304 302 300 300 299 298 297 296 296 296 296 296 296 296 296 296 296 296 296 296 296 296 296 295 295 295 295 295 295 295 295 295 295 296 297 298 297 297 295 292 292 293 293 293 293 292 292 291 291 290 291 291 291 291 291 292 292 292 293 294 295 295
305 302 300 300 299 299 298 297 296 296 296 296 296 296 296 296 296 296 296 296 296 296 296 295 295 295 295 295 295 295 295 296 296 295 296 296 297 297 296 293 292 293 293 293 293 292 292 291 291 291 291 291 291 291 291 292 292 293 293 294 294 295 295
303 300 300 300 299 299 298 297 296 296 296 296 295 296 296 296 296 296 296 296 296 296 295 295 295 295 295 295 295 295 295 296 296 296 295 295 296 296 294 292 292 293 293 293 292 292 291 291 291 291 291 291 291 292 292 292 293 293 293 294 295 295 296
302 300 300 300 299 299 298 297 296 296 295 295 295 296 296 296 296 296 296 296 296 295 295 295 295 295 295 295 295 295 295 295 295 296 296 295 295 295 294 292 293 293 293 292 292 292 291 291 291 291 292 292 292 292 292 293 293 293 293 294 295 295 295
301 300 300 300 299 298 297 297 296 296 295 295 295 296 296 296 296 296 296 295 295 295 295 295 295 295 295 294 295 294 294 295 295 295 296 295 294 294 294 293 293 293 293 292 292 291 291 291 291 292 292 292 292 292 292 292 293 293 293 294 295 295 295
300 300 300 300 299 298 297 297 296 296 296 295 295 296 296 296 295 296 295 295 295 295 295 295 295 295 295 295 294 294 294 295 295 295 295 295 294 294 293 292 292 292 292 292 291 291 291 291 291 291 291 292 292 292 292 292 292 293 293 294 294 294 295
300 300 299 300 299 298 297 296 296 297 296 295 295 295 295 295 295 295 295 295 295 295 295 295 295 295 295 294 294 294 294 294 294 295 295 294 294 293 293 292 292 292 292 292 291 291 291 291 291 291 291 292 292 292 292 292 292 292 293 293 294 294 295
300 299 299 299 299 297 297 297 297 297 296 295 295 295 295 295 295 295 295 295 295 295 295 295 295 295 294 294 294 294 294 294 294 294 294 294 293 293 293 292 292 292 291 291 291 291 291 291 291 291 291 291 292 292 292 292 292 292 293 293 293 294 295
300 299 299 299 298 297 297 297 296 296 296 295 295 295 295 295 295 294 294 294 294 295 295 295 295 294 294 295 294 294 294 293 294 293 293 293 293 293 292 292 292 292 291 291 291 291 291 291 291 291 291 291 291 291 291 291 291 292 292 293 293 294 295
299 299 299 299 298 297 296 296 296 296 296 295 294 295 295 295 294 294 294 294 294 294 294 294 294 294 294 294 294 294 294 293 293 293 293 293 293 292 292 292 291 291 291 291 290 290 291 291 291 291 291 291 291 291 291 291 291 291 292 292 293 294 295
299 298 299 298 298 296 295 295 295 295 295 295 294 294 294 294 294 294 294 294 294 294 294 294 294 294 294 294 294 294 294 294 293 293 293 293 292 292 292 292 292 292 291 291 291 290 291 291 291 291 290 291 291 291 291 291 291 291 292 292 293 294 295
299 299 299 298 297 296 295 295 295 294 295 295 294 294 294 294 293 293 293 294 294 294 294 294 294 294 294 294 294 294 294 294 293 294 293 293 292 292 292 292 292 292 292 291 291 291 291 291 291 290 290 290 290 291 291 291 291 291 291 292 292 294 295
299 299 299 298 298 296 295 295 294 294 294 294 294 294 294 293 293 293 293 294 294 294 294 294 294 294 294 294 294 294 294 293 294 294 293 293 293 293 293 292 292 292 292 292 291 291 291 291 291 291 290 290 290 290 291 291 291 290 291 291 292 293 294
299 299 299 298 297 296 294 294 294 293 294 294 294 293 294 294 294 294 294 294 294 294 294 294 294 294 294 294 294 294 294 293 294 294 294 293 293 293 293 293 293 293 293 292 292 292 291 292 291 291 291 291 291 291 291 291 291 290 290 291 292 293 294
299 299 299 298 296 295 294 294 294 293 293 294 293 293 294 294 294 294 294 294 294 294 294 294 294 294 294 294 294 294 294 294 294 294 294 294 294 294 293 293 293 293 293 293 293 292 292 292 292 292 292 292 291 291 291 291 291 290 290 291 292 293 294

ECMWFFLT1_850_thetae_114.txt.gz
Theta_e
333 332 329 329 330 331 332 332 332 331 329 328 326 324 323 322 320 319 317 314 312 311 310 310 310 310 309 307 305 303 302 302 302 302 302 302 302 302 301 301 301 300 300 299 299 299 299 299 299 299 297 297 296 296 296 296 296 296 296 296 297 297 297
332 331 330 329 330 330 331 331 331 330 328 326 324 322 320 319 317 315 313 312 311 310 309 309 309 308 305 303 302 302 302 302 302 302 301 301 302 301 300 300 300 299 299 299 299 299 298 299 299 299 298 297 297 296 296 296 296 296 296 296 296 296 296
331 331 330 330 330 331 331 330 330 329 327 325 322 319 317 315 314 313 312 311 309 308 308 308 306 304 302 301 301 301 301 302 301 301 301 301 301 301 300 300 300 299 299 299 299 299 298 298 297 297 298 297 297 296 296 296 296 296 296 296 296 296 296
331 331 331 331 331 331 330 330 329 327 325 323 319 316 314 312 312 311 310 309 308 307 306 305 303 302 301 301 301 301 301 301 301 301 301 301 300 300 300 300 300 299 299 299 298 298 297 297 297 296 297 297 297 296 296 296 296 296 296 296 296 296 296
332 332 331 331 331 330 331 330 327 325 323 321 316 313 312 311 310 309 308 307 306 305 303 302 301 301 301 301 300 301 301 301 301 300 300 300 300 300 299 299 299 298 298 298 297 296 296 296 296 296 296 297 297 296 296 296 296 296 296 295 296 296 296
333 332 332 331 331 331 330 328 325 323 321 318 314 312 310 309 308 307 306 306 304 302 301 300 300 300 300 300 300 300 300 300 300 300 300 299 299 299 299 298 298 297 297 297 296 296 296 296 296 296 296 296 296 296 296 296 296 296 296 295 295 296 296
332 331 331 331 331 331 328 325 323 320 318 315 312 310 309 307 306 305 304 304 302 300 300 300 300 300 300 300 300 300 300 300 300 299 299 299 298 298 298 297 297 297 297 296 296 295 295 295 295 296 296 296 296 296 296 296 296 296 296 295 295 295 296
331 331 331 331 330 329 326 323 321 318 315 312 310 309 307 306 304 303 303 302 300 300 299 299 299 299 299 299 299 299 299 299 299 299 298 298 298 297 297 297 296 296 296 295 295 295 295 295 295 295 295 295 296 296 297 296 296 295 295 295 295 295 295
330 331 331 330 329 326 324 322 320 315 312 310 309 307 306 304 302 302 301 300 299 299 299 299 299 299 299 299 299 299 299 298 298 298 298 297 297 297 296 296 295 295 295 295 295 295 295 295 294 294 294 294 295 295 296 296 296 296 295 295 295 295 295
330 330 330 329 327 325 323 322 320 315 311 308 307 306 304 302 301 300 300 299 299 299 299 299 299 299 299 299 299 298 298 298 297 297 297 297 297 296 295 295 295 295 295 295 295 294 294 294 294 294 294 294 294 293 294 295 295 295 295 295 294 295 295
329 329 329 327 325 324 322 322 321 316 310 307 305 304 303 301 300 299 299 298 298 298 298 298 298 298 298 298 298 298 298 297 297 297 297 296 296 295 295 295 295 295 295 294 294 294 294 294 294 294 294 293 293 293 293 294 294 294 294 294 294 294 294
329 328 327 326 324 324 322 321 320 318 311 306 304 302 301 299 298 298 298 298 298 298 298 298 298 298 298 298 298 298 297 297 296 297 296 295 295 295 295 295 295 295 295 294 294 294 294 294 294 294 293 293 293 293 293 293 294 294 294 294 294 294 293
328 327 325 324 323 322 321 320 320 317 311 305 302 300 299 298 297 297 297 298 298 298 298 298 298 298 297 297 298 297 297 296 296 296 295 295 295 295 295 295 295 295 294 294 294 294 294 294 294 293 293 293 292 292 293 293 293 294 294 293 293 293 293
327 326 324 323 322 321 321 319 318 315 308 303 301 299 298 297 297 297 297 297 297 297 297 297 297 297 297 297 297 297 296 296 296 295 295 295 295 295 295 295 295 294 294 294 294 294 294 294 294 293 293 292 292 292 292 292 292 293 293 293 293 293 293
326 325 323 322 321 320 320 318 317 312 305 301 299 298 297 297 297 297 297 297 297 297 297 297 297 297 297 297 297 297 296 295 295 295 295 295 295 294 294 294 294 294 294 294 294 294 294 294 293 293 292 292 292 292 292 292 292 292 293 293 293 293 294
324 323 322 321 320 319 319 317 314 309 303 300 299 297 296 296 296 297 297 297 297 297 297 297 297 297 297 297 297 296 296 295 295 295 295 295 294 294 294 294 294 294 294 294 294 294 294 293 293 293 292 292 292 292 292 292 292 292 292 293 293 293 294
322 321 320 319 319 318 317 315 311 305 300 299 298 297 296 296 296 296 296 296 296 297 297 297 297 297 297 297 297 296 296 295 295 295 295 295 294 294 294 294 294 294 294 294 294 294 293 293 293 292 292 292 292 292 292 292 292 292 292 293 293 293 294
321 320 319 318 318 317 315 313 308 302 299 299 297 297 296 296 296 296 296 296 296 296 296 296 296 296 297 297 296 295 296 296 296 296 295 295 294 294 294 294 294 294 294 294 294 293 293 292 292 292 292 292 292 292 292 292 292 292 292 293 293 293 294
320 319 318 317 316 315 313 310 305 300 299 298 297 296 296 296 296 296 296 296 296 296 296 296 296 296 296 296 296 296 296 296 296 296 295 295 294 294 294 294 294 294 294 294 293 293 293 292 292 292 292 292 292 292 292 292 292 293 293 293 293 293 294
318 317 316 315 314 313 311 307 301 299 298 298 297 296 296 296 296 296 296 296 296 296 296 296 296 296 296 296 296 296 296 296 296 296 296 295 295 294 294 294 294 294 294 293 293 293 292 292 292 292 292 291 292 292 292 292 292 293 293 293 293 293 294
317 316 315 313 312 311 308 303 300 299 298 297 297 296 295 296 296 296 296 296 296 296 296 296 296 296 296 296 296 295 295 295 295 295 296 295 295 294 294 294 294 293 293 293 293 292 292 292 292 292 291 291 291 292 292 292 292 293 293 293 293 293 294
315 314 313 311 310 308 304 300 299 299 298 297 297 295 295 295 296 296 296 296 296 296 296 296 296 296 295 295 295 295 295 295 295 295 296 295 295 294 293 293 293 293 293 293 292 292 292 291 291 291 291 291 291 292 292 292 292 292 293 293 293 293 294
314 313 311 308 306 304 301 300 299 298 297 297 296 295 295 295 296 296 296 296 296 296 296 296 295 295 295 295 295 295 295 295 295 295 295 295 294 294 293 293 293 293 293 293 292 292 292 291 291 291 291 291 291 291 292 292 292 292 293 293 293 294 294
313 312 309 306 303 302 300 299 298 297 297 296 295 295 295 296 296 296 296 296 296 296 296 295 295 295 295 295 295 295 295 295 295 294 294 294 294 293 293 293 293 293 293 293 292 292 292 291 291 291 291 291 291 291 291 291 292 292 293 293 293 294 294
312 311 308 305 302 301 300 299 298 297 296 296 295 295 295 296 296 296 295 295 295 295 295 295 295 295 295 295 295 295 295 295 295 294 294 294 293 293 293 293 293 293 293 293 292 292 292 291 291 291 291 291 291 291 291 291 292 292 293 293 293 294 294
311 309 307 304 302 300 299 298 297 297 296 296 295 295 295 296 296 296 295 295 295 295 295 295 295 295 295 295 295 295 295 295 294 294 294 293 293 293 293 293 293 293 293 293 293 292 292 292 291 291 291 291 291 291 291 291 291 292 292 292 293 294 294
311 308 305 303 301 300 299 298 297 296 296 296 295 295 296 296 295 295 295 295 295 295 295 295 295 295 294 294 294 294 294 294 294 294 294 293 293 293 293 293 293 292 292 293 293 292 292 292 292 291 291 291 291 291 291 291 291 291 292 292 293 294 294
310 307 304 301 300 299 299 298 297 296 296 295 295 295 295 295 295 295 295 295 295 295 295 295 295 294 294 294 294 294 294 294 294 294 294 293 293 293 293 292 292 292 292 292 292 292 292 292 292 292 292 291 291 291 291 291 291 291 291 292 293 294 294
310 307 303 300 300 299 299 298 297 297 296 295 295 295 295 295 295 295 295 295 295 295 295 295 294 294 294 294 294 294 294 294 294 294 294 293 293 293 293 292 292 292 292 292 292 292 292 292 292 292 292 292 292 291 291 291 291 291 291 292 293 294 294
310 306 302 301 300 300 298 298 297 297 296 295 295 295 295 295 295 295 295 295 295 294 295 294 294 294 294 295 295 295 295 294 294 294 294 293 293 293 293 292 292 292 292 292 292 292 292 292 292 292 293 292 292 292 292 292 291 291 291 291 292 293 293
309 306 302 301 300 300 299 298 297 297 297 296 295 295 295 295 295 294 294 294 294 294 294 294 294 294 294 295 295 295 295 295 294 294 294 293 293 293 293 292 292 292 292 292 292 292 292 292 292 292 293 293 293 292 292 291 291 291 291 291 292 292 293
307 304 302 301 300 299 298 298 298 297 297 296 295 295 295 295 294 294 294 294 294 294 294 294 294 294 294 295 295 295 295 295 295 294 294 293 293 293 292 292 292 292 292 292 292 292 292 292 292 292 292 292 293 292 292 291 291 291 291 291 291 292 292
308 304 302 301 301 300 299 298 298 297 297 296 295 294 294 294 294 294 294 294 294 294 294 294 294 295 295 295 295 295 295 295 295 294 294 293 293 293 292 292 292 292 292 292 293 293 292 292 292 292 292 292 293 292 292 292 291 291 291 291 291 291 292
308 305 302 301 301 301 299 298 298 297 297 296 295 294 294 294 294 294 294 294 294 294 294 294 295 295 295 295 295 295 295 295 295 294 294 294 293 293 293 292 292 293 293 293 293 293 293 292 292 292 292 293 293 293 293 293 292 291 291 291 291 291 291
307 304 302 301 301 301 300 299 298 297 296 295 295 294 294 294 294 294 294 294 294 294 294 294 295 295 295 295 295 295 295 295 295 294 294 294 293 293 293 293 293 293 293 293 293 293 293 293 293 293 293 293 293 293 293 293 293 293 292 291 291 291 291
307 304 302 301 301 301 300 299 298 297 296 295 295 294 293 294 294 293 293 293 294 294 294 295 295 295 295 295 295 295 295 295 295 294 294 293 293 293 293 293 293 293 293 293 293 293 293 293 293 293 293 293 293 294 294 294 294 294 293 292 291 291 290
308 304 301 300 301 301 300 298 297 296 296 295 295 294 293 293 293 293 293 293 294 294 294 295 295 295 295 295 295 295 295 295 295 294 294 294 294 294 294 294 294 294 294 293 293 293 293 293 293 293 293 293 294 294 294 294 294 294 294 293 292 291 290

ECMWFFLT1_850_thetae_117.txt.gz
Theta_e
332 333 333 331 330 330 330 330 331 331 331 330 328 327 325 323 320 317 314 312 311 310 310 308 307 304 302 302 301 301 301 301 302 302 302 302 302 301 300 300 300 299 299 299 299 299 300 301 298 296 296 296 296 296 296 296 296 296 296 296 296 296 296
333 333 332 330 329 329 330 331 331 331 330 329 327 325 323 320 316 313 311 310 309 309 308 306 303 302 301 301 301 301 301 301 302 301 302 301 301 301 300 299 299 299 299 299 299 298 298 299 298 296 296 296 296 296 295 296 296 296 296 296 296 296 296
332 333 331 330 330 330 331 331 331 330 329 327 326 323 320 316 313 311 310 309 308 307 305 303 301 301 301 301 301 301 301 301 301 301 301 301 300 300 300 300 299 299 299 299 298 298 298 298 297 296 297 297 296 296 295 296 295 295 295 295 295 295 295
331 332 331 330 330 330 331 330 330 330 327 326 323 320 316 313 311 310 308 307 306 304 302 301 300 300 300 300 300 301 301 301 301 300 301 300 300 300 300 300 299 299 299 298 298 298 297 297 297 297 297 296 296 296 295 295 295 295 295 295 295 295 295
332 331 331 331 331 331 330 330 330 328 325 323 321 316 313 311 310 308 307 306 303 301 300 300 300 300 300 300 300 300 301 301 300 300 300 300 300 300 300 299 299 299 298 298 297 297 297 297 297 296 296 296 296 296 296 295 295 296 295 295 295 295 295
332 332 332 332 331 331 330 330 329 325 323 322 318 314 311 310 308 306 305 303 301 300 300 299 300 300 300 300 300 300 300 300 300 300 300 300 300 299 299 299 298 298 298 297 297 297 297 296 296 296 296 296 296 296 296 296 295 295 295 295 295 295 295
332 333 332 331 331 330 330 329 327 323 321 319 315 312 310 308 306 305 303 301 300 299 299 299 299 300 299 300 300 300 300 300 300 300 300 299 299 299 299 298 298 298 297 297 297 296 296 296 296 296 296 296 296 296 296 295 295 295 295 295 295 295 295
332 332 332 331 330 329 329 327 324 322 320 316 313 310 308 307 305 303 301 299 299 299 299 299 299 299 299 299 300 300 300 300 299 299 299 299 299 299 298 298 297 297 297 296 296 296 295 295 295 295 296 296 296 296 296 295 295 295 294 295 295 295 295
332 332 331 330 329 329 328 326 323 322 318 314 311 308 307 305 303 301 300 299 298 298 298 299 299 299 299 299 299 299 299 299 299 299 299 298 299 298 298 297 297 297 296 296 296 295 295 295 295 295 295 295 295 296 296 295 295 294 294 294 295 294 294
331 330 330 329 328 328 327 324 323 321 317 311 309 307 305 304 301 299 299 298 298 298 298 298 299 299 299 299 299 299 299 298 298 298 298 298 298 298 297 297 296 296 296 295 295 295 295 295 295 295 294 294 293 294 295 295 295 294 294 294 294 294 294
330 329 329 328 328 327 325 323 322 321 316 310 307 305 304 302 300 299 298 298 298 298 298 298 298 298 299 299 299 299 298 298 298 298 298 298 297 297 296 296 296 296 295 295 295 295 295 295 294 294 294 293 293 292 293 294 294 294 293 294 294 294 294
329 328 329 328 327 326 324 323 322 321 317 310 305 304 302 300 299 298 298 298 298 298 298 298 298 298 298 298 298 298 298 297 298 298 297 297 297 296 296 295 295 295 295 294 294 294 294 294 294 293 293 292 292 292 292 292 294 294 293 293 293 294 294
328 329 329 328 326 325 324 322 321 320 317 309 304 302 300 299 298 297 297 297 297 297 297 298 298 298 298 298 298 298 298 297 297 297 297 296 296 295 295 295 295 295 295 294 294 294 294 294 293 293 292 292 292 292 292 292 293 293 293 293 293 293 294
329 330 329 327 325 324 323 322 321 320 316 308 302 301 299 298 297 297 297 297 297 297 297 297 298 298 298 298 297 297 297 297 296 296 296 295 295 295 295 295 295 294 294 294 294 294 293 293 293 293 292 292 292 292 292 292 292 293 293 293 293 293 294
330 329 327 325 324 323 322 321 320 319 315 307 301 300 298 297 297 297 297 297 297 297 297 297 297 297 297 297 297 297 297 296 296 296 295 295 295 295 295 295 294 294 294 294 294 293 293 293 293 292 292 292 292 292 292 292 292 293 293 293 293 293 294
330 328 325 324 323 322 321 320 319 318 313 305 301 299 297 297 297 297 297 297 297 297 297 297 297 297 297 297 297 297 296 296 296 296 295 295 295 294 294 294 294 294 294 294 293 293 293 293 293 293 292 292 292 292 292 292 292 292 293 293 293 293 294
328 326 324 324 323 322 320 319 318 316 310 303 300 298 297 296 296 296 296 296 297 297 297 297 297 297 297 297 296 296 296 296 296 296 295 295 295 294 294 294 294 294 294 293 293 293 293 293 293 292 292 292 292 292 292 292 292 292 292 293 293 293 294
326 325 324 323 322 320 319 318 317 314 306 301 299 297 297 297 296 296 296 296 296 297 296 297 296 297 297 296 296 296 296 296 296 296 295 295 295 294 294 294 294 294 293 293 293 293 292 293 292 292 292 292 292 292 292 292 292 292 292 293 293 293 294
325 324 323 322 320 319 318 317 316 311 303 299 298 297 296 296 296 296 296 296 296 296 296 297 296 296 296 296 296 296 296 296 296 296 295 295 294 294 294 294 294 294 294 293 293 293 292 292 292 292 292 292 292 292 292 292 292 292 292 292 293 294 294
324 324 322 321 319 318 317 316 314 307 301 299 298 296 296 296 296 296 296 296 296 296 296 296 296 296 296 296 296 296 296 295 295 295 295 294 294 294 294 294 294 294 294 293 293 292 292 292 292 292 292 292 292 292 292 292 292 292 292 292 293 294 294
324 322 321 319 318 317 316 315 311 304 299 298 297 297 296 296 296 296 296 296 296 296 296 296 296 296 296 296 296 295 295 295 295 295 295 294 294 294 294 294 294 294 293 293 292 292 292 292 292 292 292 292 292 292 292 292 292 292 292 293 294 294 294
322 321 319 318 317 316 315 313 307 301 299 298 297 296 296 296 296 296 296 296 296 296 296 296 296 296 295 295 295 295 295 295 295 295 294 294 294 294 294 294 294 294 293 292 292 292 292 292 292 292 292 292 292 292 292 291 292 292 292 293 294 295 294
321 320 318 317 316 315 313 310 304 300 298 298 297 296 295 296 296 296 296 296 295 296 296 296 296 296 295 295 295 295 295 295 294 294 294 294 294 294 294 294 294 294 293 292 292 292 292 292 292 291 291 291 291 291 291 291 291 291 292 293 294 295 295
320 319 317 316 315 313 311 307 301 299 298 297 297 296 295 296 296 296 296 295 295 296 296 296 296 295 295 295 295 295 295 295 294 294 294 294 294 294 294 294 294 294 293 293 293 293 292 292 292 292 292 291 291 291 291 291 291 291 291 292 293 294 294
320 318 317 316 313 311 308 304 300 299 298 297 297 296 295 296 296 295 295 295 295 296 295 295 295 295 295 295 295 295 295 295 294 294 294 294 294 294 294 294 294 294 293 293 293 293 293 293 293 293 292 292 291 291 291 291 291 291 291 292 293 294 294
319 317 316 315 312 309 306 302 300 299 298 297 297 296 295 296 296 295 295 295 295 295 295 295 295 295 295 295 295 295 295 295 294 294 294 294 294 294 294 294 294 294 294 294 294 294 294 294 294 294 293 293 292 292 291 291 291 291 291 292 293 293 294
319 317 316 314 310 306 303 300 299 299 297 296 296 295 296 295 295 295 295 295 295 295 295 295 295 295 295 295 295 295 295 295 294 294 294 294 294 294 294 294 294 294 294 294 294 295 295 295 295 294 294 293 293 292 292 292 291 291 291 292 292 293 293
318 316 315 312 308 304 301 300 299 298 297 296 296 295 295 295 295 295 295 295 295 295 295 295 295 295 295 295 295 294 295 294 294 294 294 294 294 295 295 295 295 294 294 294 294 295 295 295 295 295 294 294 293 293 292 291 291 291 291 291 292 292 293
316 315 313 311 306 303 301 300 299 298 297 296 295 295 295 295 295 295 295 295 295 295 295 295 295 295 295 294 294 294 294 294 294 294 294 294 294 295 295 295 294 294 294 294 294 295 295 295 295 295 295 295 294 294 293 292 291 291 291 291 291 292 292
314 313 312 310 306 302 301 300 299 298 297 296 295 295 295 295 295 295 295 295 295 295 295 295 295 295 294 294 294 294 294 294 294 294 294 294 294 295 295 295 294 294 294 294 294 295 295 295 295 295 295 295 294 294 294 294 293 292 292 291 291 291 291
315 313 312 309 305 302 300 300 299 298 297 296 296 295 295 295 295 295 295 295 295 295 295 295 294 294 294 294 294 295 295 295 294 295 294 294 295 295 295 294 294 294 294 294 294 295 295 295 295 295 295 295 294 294 294 294 294 294 293 293 292 292 292
317 314 312 309 305 301 300 300 299 298 296 296 295 295 295 295 295 295 295 294 294 294 294 294 294 294 294 295 295 295 295 295 295 295 295 294 295 295 294 294 294 294 294 294 294 295 295 295 295 294 294 294 294 294 294 294 294 294 294 293 293 293 292
317 315 312 309 304 301 301 300 299 298 297 296 295 294 294 294 294 295 295 294 294 294 294 294 294 294 295 295 295 295 295 295 295 295 295 295 295 295 295 294 294 294 294 295 294 294 295 295 295 294 294 294 294 294 294 294 294 294 294 294 294 293 293
316 314 312 309 305 302 300 300 299 299 298 296 294 294 294 294 294 294 294 294 294 294 294 294 294 294 295 295 295 295 296 296 295 295 295 295 295 295 295 294 294 294 294 295 294 294 295 295 295 294 294 294 294 294 294 294 294 294 294 294 294 294 293
314 313 310 308 306 302 300 299 299 299 299 297 295 294 294 294 294 294 294 294 294 294 294 294 294 294 294 295 295 295 296 296 296 295 295 295 295 295 294 294 294 294 294 295 294 294 294 295 295 295 294 294 294 294 294 294 294 294 294 294 294 294 294
314 312 309 307 305 302 300 300 300 300 300 298 295 293 293 293 293 293 294 294 294 294 294 294 294 294 294 295 295 295 296 296 296 296 295 295 295 295 294 294 294 294 294 295 294 294 294 295 295 295 295 294 294 294 294 294 294 294 294 295 295 294 294
313 311 309 307 304 301 300 301 301 301 301 299 297 294 292 293 293 293 294 294 294 294 294 294 294 294 294 295 295 295 296 296 296 296 296 296 295 295 295 294 294 294 295 295 294 294 294 295 295 295 295 295 295 295 295 295 295 295 295 295 295 294 294

ECMWFFLT1_850_thetae_120.txt.gz
Theta_e
331 330 332 332 331 331 330 331 331 330 331 331 329 327 326 324 321 318 314 312 310 309 307 305 302 301 301 301 301 301 301 301 301 301 301 301 301 300 300 300 300 300 300 302 304 306 310 310 306 303 302 300 298 296 296 297 296 296 297 296 296 297 296
331 331 332 332 331 330 330 330 330 330 330 330 328 326 324 322 317 314 311 310 309 307 305 302 301 301 301 301 301 301 300 301 301 301 300 300 300 300 300 300 300 300 299 299 299 301 306 307 306 306 305 305 304 299 295 296 297 297 298 297 297 297 297
333 332 333 332 330 329 330 330 329 330 330 328 326 324 322 318 314 311 310 309 307 304 302 301 301 301 301 301 300 300 301 300 300 300 300 300 300 299 299 299 300 300 300 299 299 300 303 306 306 305 304 305 306 302 297 296 297 299 299 299 299 298 296
331 332 333 331 330 329 329 329 329 330 329 326 324 322 318 314 311 310 309 307 304 302 301 300 300 300 300 300 300 300 300 300 300 300 300 299 299 299 299 299 299 299 299 298 298 299 301 304 306 306 304 303 305 303 299 297 299 299 300 300 300 298 297
327 329 331 331 330 330 330 329 329 329 326 324 322 319 315 312 310 308 306 304 302 301 300 300 300 300 300 300 300 300 300 300 300 299 299 299 299 299 299 299 299 299 299 298 298 298 298 300 303 305 304 304 304 304 301 301 301 300 299 300 300 299 298
328 330 331 331 331 331 330 329 329 327 323 322 321 316 313 311 309 307 304 302 300 300 300 300 300 300 300 300 300 300 300 300 299 299 299 299 299 299 299 298 298 298 298 298 297 297 297 297 299 302 304 304 305 305 303 303 302 301 299 299 299 299 298
331 332 332 331 331 330 330 330 329 325 322 321 318 313 311 309 307 304 302 300 300 300 300 300 300 299 299 300 300 300 299 299 299 299 299 299 299 299 298 298 298 298 297 297 297 297 297 297 297 298 301 304 306 305 303 303 302 301 300 299 299 299 297
332 332 332 331 331 330 330 329 326 323 321 319 315 312 309 308 305 302 300 300 299 299 299 299 299 299 299 299 299 299 299 299 299 299 299 299 298 298 298 298 297 297 297 297 297 296 297 297 297 297 298 301 305 304 303 303 302 301 300 298 298 298 297
332 332 332 331 330 330 329 328 325 322 320 316 313 310 308 306 303 301 299 299 299 299 299 299 299 299 299 299 299 299 299 299 298 298 298 298 298 298 297 297 297 297 296 296 296 296 297 296 296 296 296 297 301 303 302 302 302 301 300 298 298 298 296
332 331 331 330 330 329 328 326 324 322 318 313 311 308 306 304 301 299 299 298 299 299 299 299 299 299 299 299 299 299 299 298 298 298 298 298 298 297 297 297 296 296 296 296 296 296 296 296 295 296 296 295 297 300 301 302 302 301 299 297 298 297 296
331 331 330 330 329 328 327 325 324 322 317 311 309 307 305 303 300 299 298 298 298 299 299 299 299 299 299 299 299 299 298 298 298 298 298 298 297 297 296 296 296 296 296 296 296 295 295 295 295 295 295 295 295 296 298 300 302 300 298 297 297 296 295
331 330 329 329 329 328 327 325 323 322 318 311 308 306 303 301 299 298 298 298 298 298 299 299 299 298 298 299 299 299 298 298 298 298 297 297 297 296 296 296 296 296 296 295 295 295 294 295 295 295 295 295 295 294 295 298 300 300 298 298 296 295 296
330 330 329 329 328 327 326 324 323 322 318 311 306 304 302 299 298 298 298 298 298 298 298 298 298 298 298 298 298 298 298 297 297 297 297 297 296 296 296 296 296 295 295 295 295 294 295 295 295 295 295 295 295 294 294 296 299 299 298 297 296 296 296
331 330 329 329 328 326 325 324 322 321 318 310 305 303 300 298 298 298 297 297 298 298 298 298 298 298 298 298 298 298 297 297 297 297 297 297 296 296 295 295 296 295 295 295 295 295 295 295 295 295 295 295 296 295 294 295 298 298 298 297 297 296 297
331 330 328 328 327 325 325 323 321 321 318 310 303 301 299 298 298 297 297 297 297 297 298 298 298 298 297 298 298 298 297 297 297 296 296 296 296 296 295 295 295 295 295 294 294 295 294 295 295 295 295 295 295 295 294 295 297 298 298 297 298 297 297
331 329 328 328 327 325 324 322 320 320 317 309 302 300 298 297 298 297 297 297 297 297 297 298 298 297 297 297 297 297 297 297 296 296 296 296 295 295 295 295 295 294 294 295 295 294 294 294 295 295 295 295 295 294 294 294 296 298 298 298 299 299 298
330 328 328 328 326 324 323 322 320 320 316 307 300 299 298 297 297 297 297 297 297 297 297 298 298 297 296 296 297 297 297 296 296 296 295 295 295 295 294 294 294 294 294 295 295 294 294 294 295 295 294 295 296 295 294 295 296 297 298 299 299 299 299
329 328 329 328 325 323 323 321 320 319 315 305 300 299 297 297 297 297 297 297 297 297 297 297 297 297 296 296 296 296 296 296 295 295 295 295 295 294 294 294 294 294 294 294 294 294 294 294 295 294 294 295 296 295 294 295 296 296 298 300 300 300 300
329 329 329 327 325 323 322 321 319 319 313 304 300 298 297 297 297 296 298 298 297 297 297 297 297 296 296 296 296 296 296 296 295 295 295 295 295 294 294 294 294 294 294 294 294 294 295 295 295 294 294 294 294 294 295 296 296 297 298 299 300 300 300
329 330 328 326 324 322 321 320 319 317 311 302 299 298 297 297 297 298 299 298 297 297 297 297 297 296 296 296 296 296 296 296 295 295 295 295 294 294 294 294 294 294 294 294 295 295 295 295 295 294 294 294 293 294 294 295 297 298 298 299 299 300 300
330 329 327 325 322 322 321 319 318 316 308 301 299 297 297 296 297 300 300 298 297 297 296 296 297 296 296 296 296 296 296 295 295 295 295 295 295 294 294 294 294 294 294 294 295 295 295 295 295 294 294 294 293 294 294 295 296 297 298 298 299 299 299
329 327 325 324 322 321 320 318 317 314 305 300 298 297 296 296 297 299 299 297 296 296 296 296 296 296 296 296 295 296 295 295 295 295 295 295 295 294 294 294 294 294 295 295 295 295 295 295 295 294 294 294 294 294 293 294 295 296 297 298 299 299 299
328 326 324 323 322 320 319 317 316 311 303 299 298 296 296 296 296 298 298 296 297 296 296 296 296 296 296 296 295 295 295 295 295 295 295 295 294 295 294 294 294 294 295 295 295 295 295 295 295 295 295 294 294 294 294 293 293 294 295 297 298 298 299
327 325 324 322 321 320 317 316 315 309 302 299 298 296 296 296 296 297 297 297 297 296 296 296 296 296 296 296 296 295 295 296 295 296 296 296 296 295 294 294 294 295 295 295 295 295 295 295 295 295 295 294 294 294 294 293 293 292 293 295 297 298 298
326 325 324 322 320 318 316 315 313 307 301 299 298 297 296 296 296 296 296 297 296 296 296 296 296 296 295 296 296 296 295 295 296 296 297 297 298 297 295 294 294 294 295 295 295 295 295 295 295 295 295 295 294 294 294 294 293 292 292 293 295 297 297
325 324 323 321 319 317 315 314 312 306 300 299 298 297 296 296 295 296 296 296 296 296 296 296 296 295 295 295 295 297 297 295 295 297 297 297 298 297 296 295 295 294 295 295 295 295 295 295 295 295 295 295 295 295 294 294 293 293 293 292 292 294 294
324 323 321 318 316 314 313 312 311 305 300 299 298 296 295 295 295 295 296 296 296 296 296 296 296 295 295 296 295 297 298 296 295 297 296 296 296 295 295 296 296 295 295 295 295 295 295 295 295 295 295 295 295 295 294 294 294 294 294 293 292 292 292
323 322 319 316 315 314 312 311 309 304 300 299 298 297 295 295 295 295 296 296 295 296 295 295 295 295 295 295 295 296 297 296 296 297 296 295 295 294 294 295 295 295 295 295 296 296 295 296 295 295 295 295 296 296 295 294 294 294 294 294 293 292 292
324 322 319 317 316 314 312 311 308 303 300 300 299 298 296 295 295 295 296 295 295 296 296 295 295 295 295 295 295 296 296 296 297 297 296 294 295 294 295 295 295 295 296 296 296 296 296 296 296 295 295 295 296 297 296 294 295 295 294 294 294 293 293
324 322 320 320 319 316 313 311 307 303 300 300 299 297 296 295 295 295 295 295 295 295 295 295 295 295 295 295 294 296 297 297 298 297 295 294 295 295 295 295 295 295 295 295 296 296 296 296 295 295 295 295 296 297 296 295 295 295 295 295 295 295 295
324 323 321 321 319 317 315 311 305 301 300 300 298 296 295 295 295 295 295 295 295 295 295 295 295 295 295 294 295 296 298 299 299 297 296 295 295 295 295 295 296 295 295 296 296 296 296 296 295 295 295 296 296 296 295 295 296 296 296 296 296 296 296
325 323 322 321 319 317 314 310 304 301 301 300 298 296 294 294 294 294 294 295 294 295 295 295 295 295 295 294 294 296 299 301 300 298 297 296 295 295 296 295 296 296 296 296 296 296 296 296 296 296 295 296 296 295 295 295 296 296 296 296 296 296 296
323 322 321 319 318 316 314 310 304 300 300 300 299 297 294 294 294 294 294 294 294 294 295 295 295 295 294 294 294 295 298 301 300 297 296 296 295 295 295 295 296 296 296 296 296 296 296 296 296 296 296 296 296 295 295 295 296 296 296 296 297 297 297
321 320 319 318 315 314 313 309 304 301 299 299 298 297 295 294 294 294 294 294 294 294 294 294 294 294 294 294 294 294 296 299 300 298 297 296 297 296 296 296 296 296 296 296 296 296 296 296 296 296 296 295 295 295 296 296 296 296 297 298 298 298 298
319 320 319 317 315 312 310 307 303 301 299 298 297 297 295 294 294 293 293 293 294 294 294 294 294 294 294 294 294 294 295 297 298 298 297 297 298 298 298 298 297 296 296 296 296 296 296 296 296 296 296 295 296 296 296 296 296 297 298 298 298 298 298
319 319 318 316 314 312 308 304 301 300 299 297 297 296 296 295 294 293 293 293 293 293 294 294 294 294 294 294 294 294 294 295 296 297 298 298 299 299 299 298 296 295 296 296 296 296 296 296 296 296 296 296 296 296 296 296 297 298 298 298 298 298 298
318 318 316 315 313 311 308 304 301 300 299 298 297 296 296 295 294 294 293 293 293 293 293 294 294 294 294 294 294 294 295 295 295 295 297 298 298 298 298 296 295 296 296 296 296 296 296 296 296 296 296 296 296 296 296 297 298 298 298 298 298 298 298

ECMWFFLT1_850_thetae_123.txt.gz
Theta_e
332 334 333 333 333 332 330 330 331 332 332 331 330 328 327 325 323 322 319 314 313 312 311 310 308 305 303 303 303 303 302 302 303 305 304 303 302 301 302 302 301 302 303 307 313 314 313 314 311 309 308 306 303 301 299 301 301 300 301 301 302 304 303
334 332 332 332 332 331 330 329 330 332 331 330 329 327 326 324 322 319 315 312 311 311 309 307 304 303 302 302 302 302 302 302 302 302 302 302 302 302 302 302 302 301 301 302 306 310 312 312 310 309 309 309 310 307 302 300 302 303 304 304 304 304 303
333 330 330 330 328 328 329 330 331 331 330 329 328 325 324 322 319 316 312 311 310 309 306 304 302 302 302 302 302 301 301 301 301 301 301 301 301 302 303 306 308 308 307 306 306 309 310 310 310 308 307 309 311 310 305 302 304 305 304 304 304 303 303
331 330 330 328 326 327 329 330 331 330 328 327 326 324 322 319 316 313 310 310 308 305 303 302 302 302 301 301 301 301 301 301 301 301 301 301 300 300 301 304 306 306 307 307 306 309 310 310 310 309 307 307 308 309 306 304 305 304 303 303 303 302 302
330 329 331 329 327 327 329 330 330 328 326 325 324 322 320 316 313 311 309 308 305 303 302 301 301 301 301 301 300 300 300 300 300 300 300 300 300 300 300 300 301 300 301 301 301 304 307 309 310 309 308 307 308 308 306 306 305 304 302 302 302 302 301
331 331 332 330 328 328 329 330 329 327 325 324 322 321 318 314 311 309 308 306 303 302 301 301 301 301 301 300 300 300 300 300 300 300 300 300 299 299 299 299 299 299 299 299 299 299 303 306 307 308 308 308 309 307 306 306 305 304 302 301 302 302 301
333 332 332 331 329 330 330 330 328 326 324 323 321 319 315 311 310 308 306 304 302 301 301 300 300 300 300 300 300 300 300 300 300 299 299 299 299 299 299 299 299 299 298 299 299 298 299 301 301 304 307 308 308 306 305 305 304 304 302 301 302 301 300
332 330 331 331 330 330 329 329 327 326 324 322 320 317 313 311 309 307 305 302 301 300 300 300 300 300 300 300 300 299 299 299 299 299 299 299 299 299 299 299 299 299 299 298 299 298 298 298 298 300 303 307 308 305 305 306 305 304 302 301 302 301 300
330 329 331 331 330 330 328 328 328 326 323 322 319 315 312 310 308 306 303 301 300 300 300 300 300 300 300 299 299 299 299 299 299 299 299 299 299 299 298 299 298 298 298 298 298 298 297 297 297 298 299 302 305 305 305 305 305 304 302 301 302 301 300
329 330 331 330 330 329 328 329 328 325 322 321 319 314 311 309 307 304 301 300 300 300 300 300 299 299 299 299 299 299 299 299 298 298 298 298 298 298 298 298 298 298 298 298 298 297 298 297 297 297 297 298 301 303 304 305 306 303 301 302 302 301 299
330 331 331 330 330 329 329 329 327 324 322 321 317 313 310 308 305 302 300 300 300 299 300 299 299 299 299 299 299 299 298 298 298 298 298 298 298 298 298 298 298 298 297 297 297 297 297 297 297 297 297 297 297 299 302 304 305 303 301 301 301 301 300
331 331 331 331 330 329 329 329 326 323 322 319 315 312 310 307 304 301 300 300 299 299 299 299 299 299 299 299 298 298 298 298 298 298 298 298 298 298 298 298 297 297 297 297 297 297 297 297 298 297 297 297 297 297 299 302 304 303 302 301 300 301 301
330 331 331 331 330 329 329 328 325 323 321 318 314 311 308 305 302 300 299 299 299 299 299 299 299 298 298 298 298 298 298 298 298 298 298 297 297 297 297 297 297 297 297 297 297 297 297 297 297 297 298 298 298 296 297 300 303 303 302 301 300 302 302
330 331 331 330 329 329 328 327 325 323 321 319 314 309 306 303 300 299 299 299 299 299 299 299 298 298 298 298 298 297 297 297 297 297 297 297 297 297 297 297 297 297 297 298 298 298 298 298 299 298 298 299 298 297 297 299 301 303 302 301 301 303 303
331 331 330 329 329 329 328 327 325 323 322 319 313 307 305 302 299 299 299 299 299 299 299 299 298 298 298 298 297 297 297 297 297 297 297 297 297 297 296 296 296 296 296 297 298 298 298 299 300 299 298 298 298 297 297 298 301 303 302 301 302 303 303
330 330 330 329 329 329 327 326 324 323 322 319 311 306 304 301 299 299 298 298 299 298 298 298 298 298 298 298 297 297 298 297 296 296 296 296 296 296 296 296 296 296 296 296 297 297 297 298 299 298 298 298 298 297 297 298 301 303 303 302 303 303 303
330 330 329 328 329 328 326 325 324 322 321 317 308 305 304 301 298 298 298 299 299 298 298 298 298 298 297 297 297 297 297 296 297 297 297 296 297 296 296 296 296 296 296 296 297 297 297 298 298 298 298 299 300 298 298 300 302 303 302 303 303 303 303
330 330 329 328 328 328 326 325 323 321 321 316 308 306 304 300 299 299 299 300 300 298 298 298 298 298 297 297 297 297 297 297 297 298 297 297 297 296 296 297 297 297 297 296 297 297 296 297 298 297 296 298 299 298 298 301 302 302 302 303 303 303 303
330 330 329 328 328 327 325 324 322 321 319 314 309 306 303 301 302 301 301 302 301 299 298 298 299 299 297 297 297 298 297 297 297 297 296 296 296 296 297 297 297 297 296 296 296 296 296 296 297 296 296 297 297 297 299 301 302 301 302 302 302 302 302
330 330 329 327 328 327 325 324 322 320 318 313 309 305 303 303 304 304 305 305 303 300 298 300 300 299 297 297 298 298 297 297 296 296 296 296 295 296 296 297 297 296 296 296 296 296 296 296 296 296 296 296 296 296 299 301 301 301 301 301 302 302 302
330 330 328 327 327 326 325 323 321 319 316 312 309 305 305 305 305 306 308 306 303 301 299 301 302 300 299 299 298 298 297 297 297 297 296 296 295 296 296 296 296 296 296 296 296 296 297 296 297 296 296 296 296 296 297 299 300 300 300 301 301 302 301
331 330 328 327 326 325 324 323 320 317 315 312 309 306 307 307 305 308 309 305 303 301 300 302 303 301 301 300 298 297 298 298 298 297 297 296 296 296 296 296 297 296 296 297 296 297 296 296 297 296 296 296 296 296 296 297 298 298 299 300 301 301 301
331 329 327 327 326 324 324 322 319 316 314 312 308 306 308 308 307 309 308 305 305 302 300 304 304 302 302 301 298 299 300 300 299 298 298 298 297 297 296 296 297 296 296 297 296 296 296 296 296 296 296 296 296 296 295 295 296 296 297 299 301 300 300
330 328 327 326 325 323 322 320 318 316 314 312 307 304 307 308 308 309 308 306 306 302 302 304 302 300 301 301 300 302 302 301 302 301 300 299 298 298 297 296 296 296 296 297 296 296 296 296 296 296 296 296 296 296 295 295 295 295 295 297 299 299 299
329 328 327 325 324 322 321 319 318 316 315 312 306 304 306 307 308 309 309 308 306 303 302 303 300 298 299 299 301 303 304 304 304 303 302 301 300 299 298 297 296 296 296 296 296 297 296 296 296 296 296 296 296 296 296 295 295 296 296 296 296 297 298
328 327 326 324 324 322 320 320 319 317 314 311 307 306 307 308 308 309 309 309 307 303 301 300 298 297 297 297 298 303 306 306 305 305 304 304 303 302 299 297 296 296 296 296 296 297 297 296 296 296 296 296 296 296 296 296 296 296 296 296 295 296 296
327 325 324 325 325 323 321 320 319 317 314 310 307 306 306 307 308 308 307 308 308 304 300 298 297 296 296 296 296 301 306 306 305 306 305 305 305 304 302 301 300 298 296 296 296 297 296 297 297 298 299 299 298 298 296 295 296 296 296 296 295 295 295
327 326 326 326 326 323 321 320 317 316 314 310 307 305 303 304 306 306 306 307 308 305 300 297 297 296 296 296 296 301 306 306 305 306 305 304 303 302 301 303 304 301 298 296 296 296 296 296 298 299 301 301 301 301 299 296 295 296 296 296 296 296 296
328 328 327 327 326 323 321 319 316 314 313 311 308 306 302 301 302 305 306 306 307 306 302 297 296 296 296 296 296 300 305 305 305 306 305 302 301 299 298 300 303 301 298 296 296 296 296 296 297 300 301 301 302 303 302 298 295 296 296 296 296 296 296
328 328 328 327 325 323 320 318 316 314 313 311 307 304 302 301 301 302 304 305 308 308 303 297 296 296 295 296 296 299 304 305 305 306 305 301 300 300 297 298 302 301 298 296 296 296 296 296 297 299 300 301 302 303 301 297 295 296 296 296 296 296 297
328 328 327 326 325 323 319 317 317 316 315 314 308 303 301 300 300 301 302 303 306 307 303 297 296 296 295 296 295 297 303 306 305 306 306 301 301 303 298 296 300 301 299 297 296 296 296 296 297 297 297 300 302 302 299 297 296 296 296 296 298 299 300
328 328 327 326 324 323 320 318 318 316 315 314 310 304 299 299 300 301 301 300 302 304 302 297 296 296 295 295 294 296 303 307 305 306 306 302 302 304 300 295 297 298 298 297 296 296 297 296 297 297 296 300 302 300 297 296 296 296 296 298 301 301 301
328 328 327 326 324 323 321 318 317 315 313 312 309 304 300 299 298 298 299 298 297 300 303 301 297 295 295 295 294 296 303 307 306 306 306 304 303 304 301 296 295 296 296 296 296 296 297 296 297 297 296 299 299 297 296 296 296 296 298 300 302 301 300
327 328 327 325 324 323 321 318 316 314 312 310 307 303 301 301 299 297 297 296 297 300 303 302 299 297 295 294 294 296 302 306 306 306 306 304 304 304 302 298 296 295 296 296 296 296 296 296 297 296 296 297 297 296 296 296 296 298 300 301 301 300 300
327 327 325 324 323 322 320 317 315 313 312 309 306 302 301 300 299 297 295 296 299 300 299 298 298 297 295 294 294 295 299 304 305 306 306 305 304 304 303 301 299 297 296 296 296 296 296 297 296 296 296 296 296 296 296 296 297 300 301 301 301 300 300
327 326 324 323 322 321 319 316 314 312 310 307 304 301 300 299 298 296 295 295 297 297 295 296 298 297 295 294 294 294 297 302 304 305 305 305 304 303 303 303 301 299 296 296 296 296 296 296 297 296 296 296 296 296 296 297 300 301 301 300 300 300 300
327 325 323 322 321 319 318 315 313 311 309 306 303 301 299 298 297 296 296 295 295 294 295 297 298 296 294 294 294 293 295 299 303 304 304 304 304 304 303 303 302 300 297 296 296 296 296 296 297 296 296 296 296 296 297 299 301 301 300 300 300 300 300